<?xml version="1.0" encoding="UTF-8" standalone="no" ?>
<gpx xmlns="http://www.topografix.com/GPX/1/1" xmlns:xsi="http://www.w3.org/2001/XMLSchema-instance" xsi:schemaLocation="http://www.topografix.com/GPX/1/1 http://www.topografix.com/GPX/1/1/gpx.xsd" version="1.1" creator="VisuGPX - https://www.visugpx.com">
  <metadata>
    <name>Sortie à VTT 23.04.2021 18:58</name>
  </metadata>
  <trk>
    <name><![CDATA[Sortie à VTT 23.04.2021 18:58]]></name>
    <trkseg>
      <trkpt lat="45.64679" lon="4.27953">
        <ele>416.534219</ele>
        <time>2021-04-23T12:56:31.265Z</time>
      </trkpt>
      <trkpt lat="45.64679" lon="4.27932">
        <ele>416.534219</ele>
        <time>2021-04-23T12:58:51.882Z</time>
      </trkpt>
      <trkpt lat="45.64671" lon="4.27926">
        <ele>416.534219</ele>
        <time>2021-04-23T12:59:03.882Z</time>
      </trkpt>
      <trkpt lat="45.64675" lon="4.27938">
        <ele>416.534219</ele>
        <time>2021-04-23T12:59:16.901Z</time>
      </trkpt>
      <trkpt lat="45.64675" lon="4.27964">
        <ele>416.534219</ele>
        <time>2021-04-23T13:00:11.906Z</time>
      </trkpt>
      <trkpt lat="45.64679" lon="4.27977">
        <ele>416.534219</ele>
        <time>2021-04-23T13:00:22.892Z</time>
      </trkpt>
      <trkpt lat="45.64678" lon="4.27991">
        <ele>416.534219</ele>
        <time>2021-04-23T13:00:31.878Z</time>
      </trkpt>
      <trkpt lat="45.64683" lon="4.28004">
        <ele>416.534219</ele>
        <time>2021-04-23T13:00:35.879Z</time>
      </trkpt>
      <trkpt lat="45.64689" lon="4.28014">
        <ele>416.539879</ele>
        <time>2021-04-23T13:00:38.913Z</time>
      </trkpt>
      <trkpt lat="45.64698" lon="4.28027">
        <ele>416.578592</ele>
        <time>2021-04-23T13:00:41.871Z</time>
      </trkpt>
      <trkpt lat="45.64709" lon="4.28039">
        <ele>416.619374</ele>
        <time>2021-04-23T13:00:44.883Z</time>
      </trkpt>
      <trkpt lat="45.64719" lon="4.28052">
        <ele>416.66091</ele>
        <time>2021-04-23T13:00:47.887Z</time>
      </trkpt>
      <trkpt lat="45.64726" lon="4.28062">
        <ele>416.691759</ele>
        <time>2021-04-23T13:00:49.895Z</time>
      </trkpt>
      <trkpt lat="45.64733" lon="4.28074">
        <ele>416.723618</ele>
        <time>2021-04-23T13:00:51.892Z</time>
      </trkpt>
      <trkpt lat="45.64742" lon="4.28088">
        <ele>416.764684</ele>
        <time>2021-04-23T13:00:54.882Z</time>
      </trkpt>
      <trkpt lat="45.64747" lon="4.28099">
        <ele>416.793988</ele>
        <time>2021-04-23T13:00:57.179Z</time>
      </trkpt>
      <trkpt lat="45.64756" lon="4.28114">
        <ele>416.834098</ele>
        <time>2021-04-23T13:00:59.898Z</time>
      </trkpt>
      <trkpt lat="45.64766" lon="4.28125">
        <ele>416.872922</ele>
        <time>2021-04-23T13:01:02.888Z</time>
      </trkpt>
      <trkpt lat="45.64775" lon="4.28137">
        <ele>416.911193</ele>
        <time>2021-04-23T13:01:05.891Z</time>
      </trkpt>
      <trkpt lat="45.64784" lon="4.28146">
        <ele>416.943632</ele>
        <time>2021-04-23T13:01:08.896Z</time>
      </trkpt>
      <trkpt lat="45.64794" lon="4.28157">
        <ele>416.983134</ele>
        <time>2021-04-23T13:01:11.875Z</time>
      </trkpt>
      <trkpt lat="45.64805" lon="4.28169">
        <ele>417.025461</ele>
        <time>2021-04-23T13:01:14.874Z</time>
      </trkpt>
      <trkpt lat="45.64813" lon="4.28178">
        <ele>417.055554</ele>
        <time>2021-04-23T13:01:16.880Z</time>
      </trkpt>
      <trkpt lat="45.64822" lon="4.28186">
        <ele>417.100321</ele>
        <time>2021-04-23T13:01:18.880Z</time>
      </trkpt>
      <trkpt lat="45.6483" lon="4.28194">
        <ele>417.20084</ele>
        <time>2021-04-23T13:01:20.891Z</time>
      </trkpt>
      <trkpt lat="45.64838" lon="4.28202">
        <ele>417.305083</ele>
        <time>2021-04-23T13:01:22.885Z</time>
      </trkpt>
      <trkpt lat="45.6485" lon="4.28212">
        <ele>417.444945</ele>
        <time>2021-04-23T13:01:25.871Z</time>
      </trkpt>
      <trkpt lat="45.64858" lon="4.2822">
        <ele>417.538054</ele>
        <time>2021-04-23T13:01:27.898Z</time>
      </trkpt>
      <trkpt lat="45.64865" lon="4.2823">
        <ele>417.641411</ele>
        <time>2021-04-23T13:01:29.879Z</time>
      </trkpt>
      <trkpt lat="45.64873" lon="4.2824">
        <ele>417.748854</ele>
        <time>2021-04-23T13:01:31.897Z</time>
      </trkpt>
      <trkpt lat="45.64881" lon="4.2825">
        <ele>417.857053</ele>
        <time>2021-04-23T13:01:33.909Z</time>
      </trkpt>
      <trkpt lat="45.64888" lon="4.28259">
        <ele>417.95122</ele>
        <time>2021-04-23T13:01:35.901Z</time>
      </trkpt>
      <trkpt lat="45.64895" lon="4.28268">
        <ele>418.055875</ele>
        <time>2021-04-23T13:01:37.894Z</time>
      </trkpt>
      <trkpt lat="45.64904" lon="4.28278">
        <ele>418.1641</ele>
        <time>2021-04-23T13:01:39.919Z</time>
      </trkpt>
      <trkpt lat="45.64911" lon="4.28287">
        <ele>418.266923</ele>
        <time>2021-04-23T13:01:41.886Z</time>
      </trkpt>
      <trkpt lat="45.64919" lon="4.28297">
        <ele>418.368261</ele>
        <time>2021-04-23T13:01:43.885Z</time>
      </trkpt>
      <trkpt lat="45.64926" lon="4.28304">
        <ele>418.459928</ele>
        <time>2021-04-23T13:01:45.887Z</time>
      </trkpt>
      <trkpt lat="45.64935" lon="4.28312">
        <ele>418.56877</ele>
        <time>2021-04-23T13:01:48.878Z</time>
      </trkpt>
      <trkpt lat="45.64945" lon="4.28321">
        <ele>418.684098</ele>
        <time>2021-04-23T13:01:51.900Z</time>
      </trkpt>
      <trkpt lat="45.64955" lon="4.28328">
        <ele>418.802879</ele>
        <time>2021-04-23T13:01:54.891Z</time>
      </trkpt>
      <trkpt lat="45.64964" lon="4.28336">
        <ele>418.90794</ele>
        <time>2021-04-23T13:01:57.904Z</time>
      </trkpt>
      <trkpt lat="45.64975" lon="4.28343">
        <ele>418.922052</ele>
        <time>2021-04-23T13:02:00.892Z</time>
      </trkpt>
      <trkpt lat="45.64986" lon="4.28354">
        <ele>418.935584</ele>
        <time>2021-04-23T13:02:03.891Z</time>
      </trkpt>
      <trkpt lat="45.64994" lon="4.28364">
        <ele>418.945614</ele>
        <time>2021-04-23T13:02:05.904Z</time>
      </trkpt>
      <trkpt lat="45.65003" lon="4.28372">
        <ele>418.955637</ele>
        <time>2021-04-23T13:02:07.900Z</time>
      </trkpt>
      <trkpt lat="45.65011" lon="4.28382">
        <ele>418.966097</ele>
        <time>2021-04-23T13:02:09.883Z</time>
      </trkpt>
      <trkpt lat="45.65021" lon="4.2839">
        <ele>418.976881</ele>
        <time>2021-04-23T13:02:11.882Z</time>
      </trkpt>
      <trkpt lat="45.6503" lon="4.28399">
        <ele>418.98754</ele>
        <time>2021-04-23T13:02:13.902Z</time>
      </trkpt>
      <trkpt lat="45.6504" lon="4.28406">
        <ele>418.998243</ele>
        <time>2021-04-23T13:02:15.882Z</time>
      </trkpt>
      <trkpt lat="45.6505" lon="4.28413">
        <ele>419.008567</ele>
        <time>2021-04-23T13:02:17.891Z</time>
      </trkpt>
      <trkpt lat="45.65059" lon="4.28419">
        <ele>419.018977</ele>
        <time>2021-04-23T13:02:19.879Z</time>
      </trkpt>
      <trkpt lat="45.65069" lon="4.28425">
        <ele>419.028997</ele>
        <time>2021-04-23T13:02:21.906Z</time>
      </trkpt>
      <trkpt lat="45.65078" lon="4.28431">
        <ele>419.039096</ele>
        <time>2021-04-23T13:02:23.924Z</time>
      </trkpt>
      <trkpt lat="45.65088" lon="4.28438">
        <ele>419.049564</ele>
        <time>2021-04-23T13:02:25.900Z</time>
      </trkpt>
      <trkpt lat="45.65098" lon="4.28444">
        <ele>419.059771</ele>
        <time>2021-04-23T13:02:27.906Z</time>
      </trkpt>
      <trkpt lat="45.65107" lon="4.2845">
        <ele>419.069804</ele>
        <time>2021-04-23T13:02:29.891Z</time>
      </trkpt>
      <trkpt lat="45.65116" lon="4.28457">
        <ele>419.079778</ele>
        <time>2021-04-23T13:02:31.915Z</time>
      </trkpt>
      <trkpt lat="45.65126" lon="4.28464">
        <ele>419.096495</ele>
        <time>2021-04-23T13:02:33.937Z</time>
      </trkpt>
      <trkpt lat="45.65135" lon="4.2847">
        <ele>419.119929</ele>
        <time>2021-04-23T13:02:35.888Z</time>
      </trkpt>
      <trkpt lat="45.65145" lon="4.28477">
        <ele>419.144371</ele>
        <time>2021-04-23T13:02:37.904Z</time>
      </trkpt>
      <trkpt lat="45.65155" lon="4.28485">
        <ele>419.169351</ele>
        <time>2021-04-23T13:02:39.891Z</time>
      </trkpt>
      <trkpt lat="45.65165" lon="4.28493">
        <ele>419.194956</ele>
        <time>2021-04-23T13:02:41.905Z</time>
      </trkpt>
      <trkpt lat="45.65175" lon="4.285">
        <ele>419.219953</ele>
        <time>2021-04-23T13:02:43.903Z</time>
      </trkpt>
      <trkpt lat="45.65184" lon="4.28507">
        <ele>419.243528</ele>
        <time>2021-04-23T13:02:45.879Z</time>
      </trkpt>
      <trkpt lat="45.65194" lon="4.28515">
        <ele>419.268552</ele>
        <time>2021-04-23T13:02:47.897Z</time>
      </trkpt>
      <trkpt lat="45.65203" lon="4.28523">
        <ele>419.292223</ele>
        <time>2021-04-23T13:02:49.906Z</time>
      </trkpt>
      <trkpt lat="45.65212" lon="4.28532">
        <ele>419.316275</ele>
        <time>2021-04-23T13:02:51.903Z</time>
      </trkpt>
      <trkpt lat="45.65221" lon="4.2854">
        <ele>419.34024</ele>
        <time>2021-04-23T13:02:53.889Z</time>
      </trkpt>
      <trkpt lat="45.6523" lon="4.28549">
        <ele>419.36547</ele>
        <time>2021-04-23T13:02:55.923Z</time>
      </trkpt>
      <trkpt lat="45.65239" lon="4.28558">
        <ele>419.389608</ele>
        <time>2021-04-23T13:02:57.882Z</time>
      </trkpt>
      <trkpt lat="45.65247" lon="4.28569">
        <ele>419.413564</ele>
        <time>2021-04-23T13:02:59.902Z</time>
      </trkpt>
      <trkpt lat="45.65254" lon="4.28578">
        <ele>419.435237</ele>
        <time>2021-04-23T13:03:01.893Z</time>
      </trkpt>
      <trkpt lat="45.65262" lon="4.28588">
        <ele>419.459192</ele>
        <time>2021-04-23T13:03:03.887Z</time>
      </trkpt>
      <trkpt lat="45.6527" lon="4.28598">
        <ele>419.482086</ele>
        <time>2021-04-23T13:03:05.870Z</time>
      </trkpt>
      <trkpt lat="45.65278" lon="4.28608">
        <ele>419.470626</ele>
        <time>2021-04-23T13:03:07.908Z</time>
      </trkpt>
      <trkpt lat="45.65286" lon="4.28618">
        <ele>419.451516</ele>
        <time>2021-04-23T13:03:09.880Z</time>
      </trkpt>
      <trkpt lat="45.65294" lon="4.28626">
        <ele>419.433115</ele>
        <time>2021-04-23T13:03:11.898Z</time>
      </trkpt>
      <trkpt lat="45.65302" lon="4.28634">
        <ele>419.414913</ele>
        <time>2021-04-23T13:03:13.894Z</time>
      </trkpt>
      <trkpt lat="45.65311" lon="4.28642">
        <ele>419.396573</ele>
        <time>2021-04-23T13:03:15.884Z</time>
      </trkpt>
      <trkpt lat="45.65318" lon="4.2865">
        <ele>419.37921</ele>
        <time>2021-04-23T13:03:17.902Z</time>
      </trkpt>
      <trkpt lat="45.65326" lon="4.28659">
        <ele>419.361033</ele>
        <time>2021-04-23T13:03:19.915Z</time>
      </trkpt>
      <trkpt lat="45.65332" lon="4.2867">
        <ele>419.342738</ele>
        <time>2021-04-23T13:03:21.905Z</time>
      </trkpt>
      <trkpt lat="45.65339" lon="4.28683">
        <ele>419.323182</ele>
        <time>2021-04-23T13:03:23.892Z</time>
      </trkpt>
      <trkpt lat="45.65345" lon="4.28693">
        <ele>419.305475</ele>
        <time>2021-04-23T13:03:25.909Z</time>
      </trkpt>
      <trkpt lat="45.65351" lon="4.28705">
        <ele>419.286427</ele>
        <time>2021-04-23T13:03:27.891Z</time>
      </trkpt>
      <trkpt lat="45.65358" lon="4.28716">
        <ele>419.268635</ele>
        <time>2021-04-23T13:03:29.899Z</time>
      </trkpt>
      <trkpt lat="45.65364" lon="4.28726">
        <ele>419.25041</ele>
        <time>2021-04-23T13:03:31.895Z</time>
      </trkpt>
      <trkpt lat="45.65371" lon="4.28738">
        <ele>419.231082</ele>
        <time>2021-04-23T13:03:33.913Z</time>
      </trkpt>
      <trkpt lat="45.65378" lon="4.28748">
        <ele>419.212267</ele>
        <time>2021-04-23T13:03:35.900Z</time>
      </trkpt>
      <trkpt lat="45.65386" lon="4.28759">
        <ele>419.193599</ele>
        <time>2021-04-23T13:03:37.886Z</time>
      </trkpt>
      <trkpt lat="45.65393" lon="4.28769">
        <ele>419.174658</ele>
        <time>2021-04-23T13:03:39.912Z</time>
      </trkpt>
      <trkpt lat="45.654" lon="4.28779">
        <ele>419.152742</ele>
        <time>2021-04-23T13:03:41.880Z</time>
      </trkpt>
      <trkpt lat="45.65408" lon="4.2879">
        <ele>419.103345</ele>
        <time>2021-04-23T13:03:43.871Z</time>
      </trkpt>
      <trkpt lat="45.65415" lon="4.288">
        <ele>419.056444</ele>
        <time>2021-04-23T13:03:45.896Z</time>
      </trkpt>
      <trkpt lat="45.65423" lon="4.2881">
        <ele>419.00749</ele>
        <time>2021-04-23T13:03:47.911Z</time>
      </trkpt>
      <trkpt lat="45.6543" lon="4.28819">
        <ele>418.960319</ele>
        <time>2021-04-23T13:03:49.890Z</time>
      </trkpt>
      <trkpt lat="45.65438" lon="4.28828">
        <ele>418.914956</ele>
        <time>2021-04-23T13:03:51.882Z</time>
      </trkpt>
      <trkpt lat="45.65446" lon="4.28837">
        <ele>418.867418</ele>
        <time>2021-04-23T13:03:53.879Z</time>
      </trkpt>
      <trkpt lat="45.65453" lon="4.28846">
        <ele>418.821185</ele>
        <time>2021-04-23T13:03:55.900Z</time>
      </trkpt>
      <trkpt lat="45.65462" lon="4.28855">
        <ele>418.771012</ele>
        <time>2021-04-23T13:03:57.896Z</time>
      </trkpt>
      <trkpt lat="45.65471" lon="4.28863">
        <ele>418.721167</ele>
        <time>2021-04-23T13:03:59.893Z</time>
      </trkpt>
      <trkpt lat="45.65481" lon="4.28869">
        <ele>418.670884</ele>
        <time>2021-04-23T13:04:01.900Z</time>
      </trkpt>
      <trkpt lat="45.65491" lon="4.28875">
        <ele>418.620089</ele>
        <time>2021-04-23T13:04:03.912Z</time>
      </trkpt>
      <trkpt lat="45.65501" lon="4.2888">
        <ele>418.569417</ele>
        <time>2021-04-23T13:04:05.909Z</time>
      </trkpt>
      <trkpt lat="45.6551" lon="4.28886">
        <ele>418.519304</ele>
        <time>2021-04-23T13:04:07.900Z</time>
      </trkpt>
      <trkpt lat="45.6552" lon="4.28891">
        <ele>418.473298</ele>
        <time>2021-04-23T13:04:09.902Z</time>
      </trkpt>
      <trkpt lat="45.65529" lon="4.28896">
        <ele>418.425417</ele>
        <time>2021-04-23T13:04:11.889Z</time>
      </trkpt>
      <trkpt lat="45.65538" lon="4.28902">
        <ele>418.378045</ele>
        <time>2021-04-23T13:04:13.913Z</time>
      </trkpt>
      <trkpt lat="45.65547" lon="4.28907">
        <ele>418.333137</ele>
        <time>2021-04-23T13:04:15.894Z</time>
      </trkpt>
      <trkpt lat="45.65556" lon="4.28914">
        <ele>418.308035</ele>
        <time>2021-04-23T13:04:17.889Z</time>
      </trkpt>
      <trkpt lat="45.65566" lon="4.2892">
        <ele>418.300887</ele>
        <time>2021-04-23T13:04:19.895Z</time>
      </trkpt>
      <trkpt lat="45.65576" lon="4.28927">
        <ele>418.293934</ele>
        <time>2021-04-23T13:04:21.893Z</time>
      </trkpt>
      <trkpt lat="45.65585" lon="4.28934">
        <ele>418.286957</ele>
        <time>2021-04-23T13:04:23.900Z</time>
      </trkpt>
      <trkpt lat="45.65595" lon="4.28941">
        <ele>418.279984</ele>
        <time>2021-04-23T13:04:25.875Z</time>
      </trkpt>
      <trkpt lat="45.65605" lon="4.28946">
        <ele>418.273341</ele>
        <time>2021-04-23T13:04:27.891Z</time>
      </trkpt>
      <trkpt lat="45.65615" lon="4.28952">
        <ele>418.266459</ele>
        <time>2021-04-23T13:04:29.879Z</time>
      </trkpt>
      <trkpt lat="45.65623" lon="4.28958">
        <ele>418.260379</ele>
        <time>2021-04-23T13:04:31.880Z</time>
      </trkpt>
      <trkpt lat="45.65632" lon="4.28964">
        <ele>418.253793</ele>
        <time>2021-04-23T13:04:33.900Z</time>
      </trkpt>
      <trkpt lat="45.65644" lon="4.28975">
        <ele>418.244735</ele>
        <time>2021-04-23T13:04:36.895Z</time>
      </trkpt>
      <trkpt lat="45.65652" lon="4.28982">
        <ele>418.23861</ele>
        <time>2021-04-23T13:04:38.911Z</time>
      </trkpt>
      <trkpt lat="45.6566" lon="4.2899">
        <ele>418.232256</ele>
        <time>2021-04-23T13:04:40.900Z</time>
      </trkpt>
      <trkpt lat="45.65669" lon="4.28998">
        <ele>418.225894</ele>
        <time>2021-04-23T13:04:42.887Z</time>
      </trkpt>
      <trkpt lat="45.6568" lon="4.29007">
        <ele>418.217497</ele>
        <time>2021-04-23T13:04:45.887Z</time>
      </trkpt>
      <trkpt lat="45.6569" lon="4.29018">
        <ele>418.209147</ele>
        <time>2021-04-23T13:04:48.912Z</time>
      </trkpt>
      <trkpt lat="45.657" lon="4.2903">
        <ele>418.200949</ele>
        <time>2021-04-23T13:04:51.885Z</time>
      </trkpt>
      <trkpt lat="45.65709" lon="4.29043">
        <ele>418.187448</ele>
        <time>2021-04-23T13:04:54.886Z</time>
      </trkpt>
      <trkpt lat="45.65717" lon="4.29058">
        <ele>418.161379</ele>
        <time>2021-04-23T13:04:57.883Z</time>
      </trkpt>
      <trkpt lat="45.65722" lon="4.29076">
        <ele>418.135703</ele>
        <time>2021-04-23T13:05:00.916Z</time>
      </trkpt>
      <trkpt lat="45.65725" lon="4.29093">
        <ele>418.111188</ele>
        <time>2021-04-23T13:05:03.895Z</time>
      </trkpt>
      <trkpt lat="45.65728" lon="4.29112">
        <ele>418.08562</ele>
        <time>2021-04-23T13:05:06.896Z</time>
      </trkpt>
      <trkpt lat="45.65731" lon="4.29129">
        <ele>418.061809</ele>
        <time>2021-04-23T13:05:09.917Z</time>
      </trkpt>
      <trkpt lat="45.65735" lon="4.29147">
        <ele>418.036447</ele>
        <time>2021-04-23T13:05:12.905Z</time>
      </trkpt>
      <trkpt lat="45.65738" lon="4.29163">
        <ele>418.013092</ele>
        <time>2021-04-23T13:05:15.877Z</time>
      </trkpt>
      <trkpt lat="45.65741" lon="4.29181">
        <ele>417.988221</ele>
        <time>2021-04-23T13:05:18.891Z</time>
      </trkpt>
      <trkpt lat="45.65744" lon="4.292">
        <ele>417.962565</ele>
        <time>2021-04-23T13:05:21.885Z</time>
      </trkpt>
      <trkpt lat="45.65747" lon="4.29217">
        <ele>417.938885</ele>
        <time>2021-04-23T13:05:24.878Z</time>
      </trkpt>
      <trkpt lat="45.6575" lon="4.29233">
        <ele>417.915372</ele>
        <time>2021-04-23T13:05:27.892Z</time>
      </trkpt>
      <trkpt lat="45.65753" lon="4.29248">
        <ele>417.894573</ele>
        <time>2021-04-23T13:05:30.903Z</time>
      </trkpt>
      <trkpt lat="45.65756" lon="4.29264">
        <ele>417.872647</ele>
        <time>2021-04-23T13:05:34.881Z</time>
      </trkpt>
      <trkpt lat="45.65761" lon="4.29279">
        <ele>417.849625</ele>
        <time>2021-04-23T13:05:40.884Z</time>
      </trkpt>
      <trkpt lat="45.65765" lon="4.29293">
        <ele>417.899638</ele>
        <time>2021-04-23T13:05:43.891Z</time>
      </trkpt>
      <trkpt lat="45.65767" lon="4.29308">
        <ele>417.959133</ele>
        <time>2021-04-23T13:05:46.917Z</time>
      </trkpt>
      <trkpt lat="45.65769" lon="4.29322">
        <ele>418.017171</ele>
        <time>2021-04-23T13:05:49.890Z</time>
      </trkpt>
      <trkpt lat="45.65771" lon="4.29335">
        <ele>418.069403</ele>
        <time>2021-04-23T13:05:52.897Z</time>
      </trkpt>
      <trkpt lat="45.65773" lon="4.29348">
        <ele>418.121121</ele>
        <time>2021-04-23T13:05:55.895Z</time>
      </trkpt>
      <trkpt lat="45.65776" lon="4.29365">
        <ele>418.191411</ele>
        <time>2021-04-23T13:05:59.863Z</time>
      </trkpt>
      <trkpt lat="45.65778" lon="4.29379">
        <ele>418.246898</ele>
        <time>2021-04-23T13:06:02.900Z</time>
      </trkpt>
      <trkpt lat="45.6578" lon="4.29391">
        <ele>418.299271</ele>
        <time>2021-04-23T13:06:05.897Z</time>
      </trkpt>
      <trkpt lat="45.65782" lon="4.29406">
        <ele>418.35834</ele>
        <time>2021-04-23T13:06:08.891Z</time>
      </trkpt>
      <trkpt lat="45.65784" lon="4.2942">
        <ele>418.417167</ele>
        <time>2021-04-23T13:06:11.892Z</time>
      </trkpt>
      <trkpt lat="45.65787" lon="4.29436">
        <ele>418.479222</ele>
        <time>2021-04-23T13:06:14.913Z</time>
      </trkpt>
      <trkpt lat="45.65789" lon="4.2945">
        <ele>418.537272</ele>
        <time>2021-04-23T13:06:17.892Z</time>
      </trkpt>
      <trkpt lat="45.6579" lon="4.29464">
        <ele>418.592548</ele>
        <time>2021-04-23T13:06:20.891Z</time>
      </trkpt>
      <trkpt lat="45.65793" lon="4.29478">
        <ele>418.649681</ele>
        <time>2021-04-23T13:06:23.897Z</time>
      </trkpt>
      <trkpt lat="45.65794" lon="4.29491">
        <ele>418.704862</ele>
        <time>2021-04-23T13:06:26.908Z</time>
      </trkpt>
      <trkpt lat="45.65797" lon="4.29508">
        <ele>418.771545</ele>
        <time>2021-04-23T13:06:30.874Z</time>
      </trkpt>
      <trkpt lat="45.65799" lon="4.29521">
        <ele>418.82391</ele>
        <time>2021-04-23T13:06:33.894Z</time>
      </trkpt>
      <trkpt lat="45.65802" lon="4.29536">
        <ele>418.921657</ele>
        <time>2021-04-23T13:06:37.878Z</time>
      </trkpt>
      <trkpt lat="45.65805" lon="4.29551">
        <ele>419.10451</ele>
        <time>2021-04-23T13:06:41.872Z</time>
      </trkpt>
      <trkpt lat="45.65807" lon="4.29565">
        <ele>419.279344</ele>
        <time>2021-04-23T13:06:45.912Z</time>
      </trkpt>
      <trkpt lat="45.65813" lon="4.29579">
        <ele>419.47816</ele>
        <time>2021-04-23T13:06:50.878Z</time>
      </trkpt>
      <trkpt lat="45.65823" lon="4.29584">
        <ele>419.667167</ele>
        <time>2021-04-23T13:06:54.891Z</time>
      </trkpt>
      <trkpt lat="45.65834" lon="4.29586">
        <ele>419.852783</ele>
        <time>2021-04-23T13:06:58.874Z</time>
      </trkpt>
      <trkpt lat="45.65839" lon="4.29599">
        <ele>420.024951</ele>
        <time>2021-04-23T13:07:02.917Z</time>
      </trkpt>
      <trkpt lat="45.65838" lon="4.29613">
        <ele>420.197434</ele>
        <time>2021-04-23T13:07:07.903Z</time>
      </trkpt>
      <trkpt lat="45.6584" lon="4.29628">
        <ele>420.373892</ele>
        <time>2021-04-23T13:07:11.885Z</time>
      </trkpt>
      <trkpt lat="45.6584" lon="4.29641">
        <ele>420.526967</ele>
        <time>2021-04-23T13:07:16.896Z</time>
      </trkpt>
      <trkpt lat="45.6584" lon="4.29654">
        <ele>420.690772</ele>
        <time>2021-04-23T13:07:23.877Z</time>
      </trkpt>
      <trkpt lat="45.65832" lon="4.29661">
        <ele>420.847354</ele>
        <time>2021-04-23T13:07:28.885Z</time>
      </trkpt>
      <trkpt lat="45.65823" lon="4.29661">
        <ele>421.006393</ele>
        <time>2021-04-23T13:07:33.906Z</time>
      </trkpt>
      <trkpt lat="45.65813" lon="4.2966">
        <ele>421.179864</ele>
        <time>2021-04-23T13:07:37.889Z</time>
      </trkpt>
      <trkpt lat="45.65803" lon="4.29662">
        <ele>421.345772</ele>
        <time>2021-04-23T13:07:42.882Z</time>
      </trkpt>
      <trkpt lat="45.65793" lon="4.29666">
        <ele>421.520202</ele>
        <time>2021-04-23T13:07:47.886Z</time>
      </trkpt>
      <trkpt lat="45.65791" lon="4.29681">
        <ele>421.698185</ele>
        <time>2021-04-23T13:07:54.871Z</time>
      </trkpt>
      <trkpt lat="45.65791" lon="4.29696">
        <ele>421.882194</ele>
        <time>2021-04-23T13:07:59.888Z</time>
      </trkpt>
      <trkpt lat="45.65791" lon="4.2971">
        <ele>422.126505</ele>
        <time>2021-04-23T13:08:05.875Z</time>
      </trkpt>
      <trkpt lat="45.65793" lon="4.29723">
        <ele>422.412824</ele>
        <time>2021-04-23T13:08:10.885Z</time>
      </trkpt>
      <trkpt lat="45.65794" lon="4.29736">
        <ele>422.683833</ele>
        <time>2021-04-23T13:08:19.892Z</time>
      </trkpt>
      <trkpt lat="45.65798" lon="4.29748">
        <ele>422.959456</ele>
        <time>2021-04-23T13:08:25.923Z</time>
      </trkpt>
      <trkpt lat="45.65807" lon="4.29754">
        <ele>423.235545</ele>
        <time>2021-04-23T13:08:34.873Z</time>
      </trkpt>
      <trkpt lat="45.65816" lon="4.29758">
        <ele>423.53831</ele>
        <time>2021-04-23T13:08:40.888Z</time>
      </trkpt>
      <trkpt lat="45.65826" lon="4.29761">
        <ele>423.844022</ele>
        <time>2021-04-23T13:08:45.895Z</time>
      </trkpt>
      <trkpt lat="45.65836" lon="4.29766">
        <ele>424.148626</ele>
        <time>2021-04-23T13:08:50.887Z</time>
      </trkpt>
      <trkpt lat="45.65845" lon="4.29772">
        <ele>424.453211</ele>
        <time>2021-04-23T13:08:55.881Z</time>
      </trkpt>
      <trkpt lat="45.65856" lon="4.29777">
        <ele>424.771644</ele>
        <time>2021-04-23T13:09:00.880Z</time>
      </trkpt>
      <trkpt lat="45.65864" lon="4.29781">
        <ele>425.041464</ele>
        <time>2021-04-23T13:09:06.879Z</time>
      </trkpt>
      <trkpt lat="45.65873" lon="4.29786">
        <ele>425.320506</ele>
        <time>2021-04-23T13:09:13.904Z</time>
      </trkpt>
      <trkpt lat="45.65884" lon="4.2979">
        <ele>425.641555</ele>
        <time>2021-04-23T13:09:22.883Z</time>
      </trkpt>
      <trkpt lat="45.65894" lon="4.29794">
        <ele>425.948978</ele>
        <time>2021-04-23T13:09:28.921Z</time>
      </trkpt>
      <trkpt lat="45.65904" lon="4.29794">
        <ele>426.265755</ele>
        <time>2021-04-23T13:09:35.882Z</time>
      </trkpt>
      <trkpt lat="45.65915" lon="4.29798">
        <ele>426.602673</ele>
        <time>2021-04-23T13:09:39.882Z</time>
      </trkpt>
      <trkpt lat="45.65926" lon="4.29806">
        <ele>426.956174</ele>
        <time>2021-04-23T13:09:43.933Z</time>
      </trkpt>
      <trkpt lat="45.65933" lon="4.2982">
        <ele>427.39539</ele>
        <time>2021-04-23T13:11:39.546Z</time>
      </trkpt>
      <trkpt lat="45.65942" lon="4.29827">
        <ele>427.993366</ele>
        <time>2021-04-23T13:11:43.539Z</time>
      </trkpt>
      <trkpt lat="45.6595" lon="4.29833">
        <ele>428.623661</ele>
        <time>2021-04-23T13:11:47.534Z</time>
      </trkpt>
      <trkpt lat="45.6596" lon="4.29836">
        <ele>429.228511</ele>
        <time>2021-04-23T13:11:51.525Z</time>
      </trkpt>
      <trkpt lat="45.65966" lon="4.29823">
        <ele>429.925121</ele>
        <time>2021-04-23T13:11:55.524Z</time>
      </trkpt>
      <trkpt lat="45.65975" lon="4.29816">
        <ele>430.572875</ele>
        <time>2021-04-23T13:11:59.531Z</time>
      </trkpt>
      <trkpt lat="45.65986" lon="4.29813">
        <ele>431.260054</ele>
        <time>2021-04-23T13:12:03.526Z</time>
      </trkpt>
      <trkpt lat="45.65996" lon="4.29805">
        <ele>432.018371</ele>
        <time>2021-04-23T13:12:08.528Z</time>
      </trkpt>
      <trkpt lat="45.66007" lon="4.29802">
        <ele>432.7066</ele>
        <time>2021-04-23T13:12:12.516Z</time>
      </trkpt>
      <trkpt lat="45.66017" lon="4.29798">
        <ele>433.386559</ele>
        <time>2021-04-23T13:12:16.545Z</time>
      </trkpt>
      <trkpt lat="45.66028" lon="4.29798">
        <ele>434.080405</ele>
        <time>2021-04-23T13:12:20.528Z</time>
      </trkpt>
      <trkpt lat="45.66039" lon="4.29797">
        <ele>434.743511</ele>
        <time>2021-04-23T13:12:23.529Z</time>
      </trkpt>
      <trkpt lat="45.6605" lon="4.29796">
        <ele>435.501199</ele>
        <time>2021-04-23T13:12:26.547Z</time>
      </trkpt>
      <trkpt lat="45.66061" lon="4.29795">
        <ele>436.196641</ele>
        <time>2021-04-23T13:12:29.533Z</time>
      </trkpt>
      <trkpt lat="45.66072" lon="4.29793">
        <ele>436.904159</ele>
        <time>2021-04-23T13:12:32.564Z</time>
      </trkpt>
      <trkpt lat="45.66085" lon="4.29793">
        <ele>437.737941</ele>
        <time>2021-04-23T13:12:35.535Z</time>
      </trkpt>
      <trkpt lat="45.66098" lon="4.29794">
        <ele>438.508661</ele>
        <time>2021-04-23T13:12:38.554Z</time>
      </trkpt>
      <trkpt lat="45.66108" lon="4.29795">
        <ele>439.31868</ele>
        <time>2021-04-23T13:12:41.565Z</time>
      </trkpt>
      <trkpt lat="45.6612" lon="4.29795">
        <ele>440.258936</ele>
        <time>2021-04-23T13:12:44.563Z</time>
      </trkpt>
      <trkpt lat="45.6613" lon="4.29799">
        <ele>441.089632</ele>
        <time>2021-04-23T13:12:47.535Z</time>
      </trkpt>
      <trkpt lat="45.66139" lon="4.29804">
        <ele>441.876726</ele>
        <time>2021-04-23T13:12:50.538Z</time>
      </trkpt>
      <trkpt lat="45.66149" lon="4.29806">
        <ele>442.630334</ele>
        <time>2021-04-23T13:12:53.725Z</time>
      </trkpt>
      <trkpt lat="45.66159" lon="4.29804">
        <ele>443.487522</ele>
        <time>2021-04-23T13:12:56.709Z</time>
      </trkpt>
      <trkpt lat="45.6617" lon="4.29804">
        <ele>444.324298</ele>
        <time>2021-04-23T13:12:59.709Z</time>
      </trkpt>
      <trkpt lat="45.66182" lon="4.29802">
        <ele>445.315792</ele>
        <time>2021-04-23T13:13:02.709Z</time>
      </trkpt>
      <trkpt lat="45.66193" lon="4.29797">
        <ele>446.208998</ele>
        <time>2021-04-23T13:13:04.724Z</time>
      </trkpt>
      <trkpt lat="45.66206" lon="4.29794">
        <ele>447.25313</ele>
        <time>2021-04-23T13:13:06.707Z</time>
      </trkpt>
      <trkpt lat="45.6622" lon="4.2979">
        <ele>448.371866</ele>
        <time>2021-04-23T13:13:08.700Z</time>
      </trkpt>
      <trkpt lat="45.66235" lon="4.29785">
        <ele>449.651299</ele>
        <time>2021-04-23T13:13:10.704Z</time>
      </trkpt>
      <trkpt lat="45.66251" lon="4.29783">
        <ele>450.934327</ele>
        <time>2021-04-23T13:13:12.704Z</time>
      </trkpt>
      <trkpt lat="45.66267" lon="4.29781">
        <ele>452.143672</ele>
        <time>2021-04-23T13:13:14.740Z</time>
      </trkpt>
      <trkpt lat="45.6628" lon="4.29779">
        <ele>453.098426</ele>
        <time>2021-04-23T13:13:16.722Z</time>
      </trkpt>
      <trkpt lat="45.66292" lon="4.29775">
        <ele>453.422779</ele>
        <time>2021-04-23T13:13:18.711Z</time>
      </trkpt>
      <trkpt lat="45.66304" lon="4.2977">
        <ele>453.755261</ele>
        <time>2021-04-23T13:13:20.703Z</time>
      </trkpt>
      <trkpt lat="45.66315" lon="4.29767">
        <ele>454.037851</ele>
        <time>2021-04-23T13:13:22.705Z</time>
      </trkpt>
      <trkpt lat="45.66325" lon="4.29766">
        <ele>454.303286</ele>
        <time>2021-04-23T13:13:24.717Z</time>
      </trkpt>
      <trkpt lat="45.66334" lon="4.29771">
        <ele>454.570967</ele>
        <time>2021-04-23T13:13:26.724Z</time>
      </trkpt>
      <trkpt lat="45.66344" lon="4.29774">
        <ele>454.847311</ele>
        <time>2021-04-23T13:13:28.726Z</time>
      </trkpt>
      <trkpt lat="45.66354" lon="4.29774">
        <ele>455.092552</ele>
        <time>2021-04-23T13:13:30.689Z</time>
      </trkpt>
      <trkpt lat="45.66366" lon="4.29771">
        <ele>455.438978</ele>
        <time>2021-04-23T13:13:32.712Z</time>
      </trkpt>
      <trkpt lat="45.6638" lon="4.29766">
        <ele>455.811194</ele>
        <time>2021-04-23T13:13:34.713Z</time>
      </trkpt>
      <trkpt lat="45.66395" lon="4.29763">
        <ele>456.197629</ele>
        <time>2021-04-23T13:13:36.700Z</time>
      </trkpt>
      <trkpt lat="45.66405" lon="4.29767">
        <ele>456.482034</ele>
        <time>2021-04-23T13:13:38.707Z</time>
      </trkpt>
      <trkpt lat="45.66414" lon="4.29768">
        <ele>456.732767</ele>
        <time>2021-04-23T13:13:43.720Z</time>
      </trkpt>
      <trkpt lat="45.66424" lon="4.29769">
        <ele>456.98956</ele>
        <time>2021-04-23T13:13:49.718Z</time>
      </trkpt>
      <trkpt lat="45.66435" lon="4.2977">
        <ele>457.266344</ele>
        <time>2021-04-23T13:13:55.697Z</time>
      </trkpt>
      <trkpt lat="45.66444" lon="4.2977">
        <ele>457.514281</ele>
        <time>2021-04-23T13:14:03.718Z</time>
      </trkpt>
      <trkpt lat="45.66455" lon="4.29774">
        <ele>457.791223</ele>
        <time>2021-04-23T13:14:10.710Z</time>
      </trkpt>
      <trkpt lat="45.66465" lon="4.29778">
        <ele>457.927478</ele>
        <time>2021-04-23T13:14:16.723Z</time>
      </trkpt>
      <trkpt lat="45.66476" lon="4.29782">
        <ele>458.073663</ele>
        <time>2021-04-23T13:14:21.707Z</time>
      </trkpt>
      <trkpt lat="45.66485" lon="4.29788">
        <ele>458.193896</ele>
        <time>2021-04-23T13:14:25.695Z</time>
      </trkpt>
      <trkpt lat="45.66493" lon="4.29793">
        <ele>458.312476</ele>
        <time>2021-04-23T13:14:31.716Z</time>
      </trkpt>
      <trkpt lat="45.66502" lon="4.29799">
        <ele>458.429107</ele>
        <time>2021-04-23T13:14:37.717Z</time>
      </trkpt>
      <trkpt lat="45.6651" lon="4.29807">
        <ele>458.561613</ele>
        <time>2021-04-23T13:14:44.743Z</time>
      </trkpt>
      <trkpt lat="45.6652" lon="4.29813">
        <ele>458.696424</ele>
        <time>2021-04-23T13:14:50.708Z</time>
      </trkpt>
      <trkpt lat="45.66529" lon="4.29821">
        <ele>458.833561</ele>
        <time>2021-04-23T13:14:55.728Z</time>
      </trkpt>
      <trkpt lat="45.66538" lon="4.2983">
        <ele>458.964877</ele>
        <time>2021-04-23T13:15:03.708Z</time>
      </trkpt>
      <trkpt lat="45.66546" lon="4.29837">
        <ele>459.083489</ele>
        <time>2021-04-23T13:15:10.701Z</time>
      </trkpt>
      <trkpt lat="45.66555" lon="4.29843">
        <ele>459.209601</ele>
        <time>2021-04-23T13:15:16.724Z</time>
      </trkpt>
      <trkpt lat="45.66565" lon="4.29843">
        <ele>459.334971</ele>
        <time>2021-04-23T13:15:22.702Z</time>
      </trkpt>
      <trkpt lat="45.6657" lon="4.2983">
        <ele>459.465696</ele>
        <time>2021-04-23T13:15:26.729Z</time>
      </trkpt>
      <trkpt lat="45.66577" lon="4.29818">
        <ele>459.601627</ele>
        <time>2021-04-23T13:15:29.721Z</time>
      </trkpt>
      <trkpt lat="45.66587" lon="4.29816">
        <ele>459.72962</ele>
        <time>2021-04-23T13:15:31.709Z</time>
      </trkpt>
      <trkpt lat="45.66598" lon="4.29814">
        <ele>459.876794</ele>
        <time>2021-04-23T13:15:33.716Z</time>
      </trkpt>
      <trkpt lat="45.66609" lon="4.29809">
        <ele>460.015855</ele>
        <time>2021-04-23T13:15:35.720Z</time>
      </trkpt>
      <trkpt lat="45.66621" lon="4.29805">
        <ele>460.08634</ele>
        <time>2021-04-23T13:15:37.713Z</time>
      </trkpt>
      <trkpt lat="45.66631" lon="4.298">
        <ele>460.115793</ele>
        <time>2021-04-23T13:15:39.737Z</time>
      </trkpt>
      <trkpt lat="45.66642" lon="4.29796">
        <ele>460.143971</ele>
        <time>2021-04-23T13:15:41.726Z</time>
      </trkpt>
      <trkpt lat="45.66651" lon="4.29794">
        <ele>460.170756</ele>
        <time>2021-04-23T13:15:43.721Z</time>
      </trkpt>
      <trkpt lat="45.66665" lon="4.29794">
        <ele>460.205852</ele>
        <time>2021-04-23T13:15:46.735Z</time>
      </trkpt>
      <trkpt lat="45.66677" lon="4.29795">
        <ele>460.240217</ele>
        <time>2021-04-23T13:15:49.704Z</time>
      </trkpt>
      <trkpt lat="45.66686" lon="4.29795">
        <ele>460.264347</ele>
        <time>2021-04-23T13:15:51.711Z</time>
      </trkpt>
      <trkpt lat="45.66698" lon="4.29794">
        <ele>460.295505</ele>
        <time>2021-04-23T13:15:54.716Z</time>
      </trkpt>
      <trkpt lat="45.6671" lon="4.29791">
        <ele>460.32749</ele>
        <time>2021-04-23T13:15:57.726Z</time>
      </trkpt>
      <trkpt lat="45.6672" lon="4.29789">
        <ele>460.355125</ele>
        <time>2021-04-23T13:15:59.723Z</time>
      </trkpt>
      <trkpt lat="45.66731" lon="4.29786">
        <ele>460.385228</ele>
        <time>2021-04-23T13:16:01.713Z</time>
      </trkpt>
      <trkpt lat="45.66742" lon="4.29787">
        <ele>460.415248</ele>
        <time>2021-04-23T13:16:03.722Z</time>
      </trkpt>
      <trkpt lat="45.66753" lon="4.29792">
        <ele>460.446991</ele>
        <time>2021-04-23T13:16:05.722Z</time>
      </trkpt>
      <trkpt lat="45.66764" lon="4.29795">
        <ele>460.476053</ele>
        <time>2021-04-23T13:16:07.716Z</time>
      </trkpt>
      <trkpt lat="45.66774" lon="4.29799">
        <ele>460.502637</ele>
        <time>2021-04-23T13:16:10.719Z</time>
      </trkpt>
      <trkpt lat="45.66784" lon="4.29803">
        <ele>460.530712</ele>
        <time>2021-04-23T13:16:14.753Z</time>
      </trkpt>
      <trkpt lat="45.66792" lon="4.29809">
        <ele>460.571859</ele>
        <time>2021-04-23T13:16:18.716Z</time>
      </trkpt>
      <trkpt lat="45.66803" lon="4.29816">
        <ele>460.639189</ele>
        <time>2021-04-23T13:16:25.716Z</time>
      </trkpt>
      <trkpt lat="45.66814" lon="4.29819">
        <ele>460.710853</ele>
        <time>2021-04-23T13:16:29.716Z</time>
      </trkpt>
      <trkpt lat="45.66824" lon="4.29825">
        <ele>460.77244</ele>
        <time>2021-04-23T13:16:33.748Z</time>
      </trkpt>
      <trkpt lat="45.66833" lon="4.29828">
        <ele>460.829275</ele>
        <time>2021-04-23T13:16:38.727Z</time>
      </trkpt>
      <trkpt lat="45.66842" lon="4.2983">
        <ele>460.882729</ele>
        <time>2021-04-23T13:16:42.704Z</time>
      </trkpt>
      <trkpt lat="45.66851" lon="4.29832">
        <ele>460.937282</ele>
        <time>2021-04-23T13:16:46.702Z</time>
      </trkpt>
      <trkpt lat="45.6686" lon="4.29836">
        <ele>460.995798</ele>
        <time>2021-04-23T13:16:51.712Z</time>
      </trkpt>
      <trkpt lat="45.66869" lon="4.29841">
        <ele>461.049616</ele>
        <time>2021-04-23T13:16:55.719Z</time>
      </trkpt>
      <trkpt lat="45.66876" lon="4.29851">
        <ele>461.107902</ele>
        <time>2021-04-23T13:17:01.730Z</time>
      </trkpt>
      <trkpt lat="45.66882" lon="4.29861">
        <ele>461.165561</ele>
        <time>2021-04-23T13:17:08.753Z</time>
      </trkpt>
      <trkpt lat="45.66873" lon="4.29863">
        <ele>461.220188</ele>
        <time>2021-04-23T13:17:24.695Z</time>
      </trkpt>
      <trkpt lat="45.66864" lon="4.29861">
        <ele>461.277751</ele>
        <time>2021-04-23T13:17:30.720Z</time>
      </trkpt>
      <trkpt lat="45.66854" lon="4.29865">
        <ele>461.341891</ele>
        <time>2021-04-23T13:17:36.729Z</time>
      </trkpt>
      <trkpt lat="45.66847" lon="4.29876">
        <ele>461.402908</ele>
        <time>2021-04-23T13:17:42.714Z</time>
      </trkpt>
      <trkpt lat="45.66845" lon="4.29889">
        <ele>461.459404</ele>
        <time>2021-04-23T13:17:48.735Z</time>
      </trkpt>
      <trkpt lat="45.66849" lon="4.29904">
        <ele>461.526565</ele>
        <time>2021-04-23T13:17:54.695Z</time>
      </trkpt>
      <trkpt lat="45.66854" lon="4.29918">
        <ele>461.590739</ele>
        <time>2021-04-23T13:17:59.718Z</time>
      </trkpt>
      <trkpt lat="45.66859" lon="4.29931">
        <ele>461.724432</ele>
        <time>2021-04-23T13:18:04.697Z</time>
      </trkpt>
      <trkpt lat="45.66865" lon="4.29944">
        <ele>461.912595</ele>
        <time>2021-04-23T13:18:10.734Z</time>
      </trkpt>
      <trkpt lat="45.6687" lon="4.29957">
        <ele>462.100412</ele>
        <time>2021-04-23T13:18:15.713Z</time>
      </trkpt>
      <trkpt lat="45.66877" lon="4.29969">
        <ele>462.294277</ele>
        <time>2021-04-23T13:18:20.695Z</time>
      </trkpt>
      <trkpt lat="45.66883" lon="4.29982">
        <ele>462.490247</ele>
        <time>2021-04-23T13:18:25.707Z</time>
      </trkpt>
      <trkpt lat="45.66888" lon="4.29996">
        <ele>462.685587</ele>
        <time>2021-04-23T13:18:30.683Z</time>
      </trkpt>
      <trkpt lat="45.66893" lon="4.30009">
        <ele>462.874006</ele>
        <time>2021-04-23T13:18:35.737Z</time>
      </trkpt>
      <trkpt lat="45.66896" lon="4.30023">
        <ele>463.050732</ele>
        <time>2021-04-23T13:18:39.725Z</time>
      </trkpt>
      <trkpt lat="45.66896" lon="4.30036">
        <ele>463.223559</ele>
        <time>2021-04-23T13:18:43.711Z</time>
      </trkpt>
      <trkpt lat="45.66892" lon="4.30048">
        <ele>463.391767</ele>
        <time>2021-04-23T13:18:48.702Z</time>
      </trkpt>
      <trkpt lat="45.66883" lon="4.30055">
        <ele>463.576764</ele>
        <time>2021-04-23T13:18:55.703Z</time>
      </trkpt>
      <trkpt lat="45.66873" lon="4.30051">
        <ele>463.767525</ele>
        <time>2021-04-23T13:19:02.710Z</time>
      </trkpt>
      <trkpt lat="45.66863" lon="4.30048">
        <ele>463.938726</ele>
        <time>2021-04-23T13:19:07.705Z</time>
      </trkpt>
      <trkpt lat="45.66854" lon="4.30045">
        <ele>464.105088</ele>
        <time>2021-04-23T13:19:13.709Z</time>
      </trkpt>
      <trkpt lat="45.66846" lon="4.3004">
        <ele>464.271781</ele>
        <time>2021-04-23T13:19:20.712Z</time>
      </trkpt>
      <trkpt lat="45.66837" lon="4.30035">
        <ele>464.43954</ele>
        <time>2021-04-23T13:19:27.838Z</time>
      </trkpt>
      <trkpt lat="45.66828" lon="4.3003">
        <ele>464.606579</ele>
        <time>2021-04-23T13:19:34.812Z</time>
      </trkpt>
      <trkpt lat="45.66819" lon="4.30024">
        <ele>464.791523</ele>
        <time>2021-04-23T13:19:42.813Z</time>
      </trkpt>
      <trkpt lat="45.6681" lon="4.30022">
        <ele>464.95001</ele>
        <time>2021-04-23T13:19:49.790Z</time>
      </trkpt>
      <trkpt lat="45.668" lon="4.30021">
        <ele>465.127584</ele>
        <time>2021-04-23T13:19:56.798Z</time>
      </trkpt>
      <trkpt lat="45.6679" lon="4.30017">
        <ele>465.309637</ele>
        <time>2021-04-23T13:20:03.819Z</time>
      </trkpt>
      <trkpt lat="45.66781" lon="4.30012">
        <ele>465.467809</ele>
        <time>2021-04-23T13:20:09.815Z</time>
      </trkpt>
      <trkpt lat="45.66772" lon="4.30007">
        <ele>465.648466</ele>
        <time>2021-04-23T13:20:16.848Z</time>
      </trkpt>
      <trkpt lat="45.66762" lon="4.30004">
        <ele>465.820916</ele>
        <time>2021-04-23T13:20:21.810Z</time>
      </trkpt>
      <trkpt lat="45.66753" lon="4.29999">
        <ele>465.979857</ele>
        <time>2021-04-23T13:20:26.814Z</time>
      </trkpt>
      <trkpt lat="45.66745" lon="4.29995">
        <ele>466.137227</ele>
        <time>2021-04-23T13:20:31.816Z</time>
      </trkpt>
      <trkpt lat="45.66736" lon="4.29989">
        <ele>466.303201</ele>
        <time>2021-04-23T13:20:37.816Z</time>
      </trkpt>
      <trkpt lat="45.66726" lon="4.29986">
        <ele>466.486624</ele>
        <time>2021-04-23T13:20:43.845Z</time>
      </trkpt>
      <trkpt lat="45.66716" lon="4.29987">
        <ele>466.664335</ele>
        <time>2021-04-23T13:20:48.846Z</time>
      </trkpt>
      <trkpt lat="45.66705" lon="4.2999">
        <ele>466.849459</ele>
        <time>2021-04-23T13:20:53.824Z</time>
      </trkpt>
      <trkpt lat="45.66695" lon="4.29992">
        <ele>467.0279</ele>
        <time>2021-04-23T13:20:58.812Z</time>
      </trkpt>
      <trkpt lat="45.66684" lon="4.29997">
        <ele>467.229127</ele>
        <time>2021-04-23T13:21:04.401Z</time>
      </trkpt>
      <trkpt lat="45.66675" lon="4.30003">
        <ele>467.400366</ele>
        <time>2021-04-23T13:21:08.404Z</time>
      </trkpt>
      <trkpt lat="45.66663" lon="4.30013">
        <ele>467.640214</ele>
        <time>2021-04-23T13:21:11.398Z</time>
      </trkpt>
      <trkpt lat="45.66656" lon="4.3002">
        <ele>467.802269</ele>
        <time>2021-04-23T13:21:13.404Z</time>
      </trkpt>
      <trkpt lat="45.66645" lon="4.30032">
        <ele>468.060244</ele>
        <time>2021-04-23T13:21:16.392Z</time>
      </trkpt>
      <trkpt lat="45.66638" lon="4.30042">
        <ele>468.288866</ele>
        <time>2021-04-23T13:21:18.396Z</time>
      </trkpt>
      <trkpt lat="45.66632" lon="4.30054">
        <ele>468.521544</ele>
        <time>2021-04-23T13:21:20.395Z</time>
      </trkpt>
      <trkpt lat="45.66627" lon="4.30066">
        <ele>468.753721</ele>
        <time>2021-04-23T13:21:22.392Z</time>
      </trkpt>
      <trkpt lat="45.66624" lon="4.30083">
        <ele>469.032059</ele>
        <time>2021-04-23T13:21:25.397Z</time>
      </trkpt>
      <trkpt lat="45.6662" lon="4.30098">
        <ele>469.298626</ele>
        <time>2021-04-23T13:21:28.407Z</time>
      </trkpt>
      <trkpt lat="45.66616" lon="4.30114">
        <ele>469.572103</ele>
        <time>2021-04-23T13:21:31.402Z</time>
      </trkpt>
      <trkpt lat="45.66612" lon="4.30129">
        <ele>469.836971</ele>
        <time>2021-04-23T13:21:34.397Z</time>
      </trkpt>
      <trkpt lat="45.66608" lon="4.30144">
        <ele>470.088123</ele>
        <time>2021-04-23T13:21:37.388Z</time>
      </trkpt>
      <trkpt lat="45.66606" lon="4.30158">
        <ele>470.324041</ele>
        <time>2021-04-23T13:21:40.371Z</time>
      </trkpt>
      <trkpt lat="45.66603" lon="4.30171">
        <ele>470.541563</ele>
        <time>2021-04-23T13:21:43.419Z</time>
      </trkpt>
      <trkpt lat="45.66599" lon="4.30186">
        <ele>470.811056</ele>
        <time>2021-04-23T13:21:47.415Z</time>
      </trkpt>
      <trkpt lat="45.66596" lon="4.30202">
        <ele>471.070334</ele>
        <time>2021-04-23T13:21:51.423Z</time>
      </trkpt>
      <trkpt lat="45.66595" lon="4.30215">
        <ele>471.292117</ele>
        <time>2021-04-23T13:21:55.419Z</time>
      </trkpt>
      <trkpt lat="45.66604" lon="4.30232">
        <ele>471.639702</ele>
        <time>2021-04-23T13:21:58.390Z</time>
      </trkpt>
      <trkpt lat="45.66613" lon="4.3024">
        <ele>471.872304</ele>
        <time>2021-04-23T13:21:59.404Z</time>
      </trkpt>
      <trkpt lat="45.66622" lon="4.30252">
        <ele>472.231735</ele>
        <time>2021-04-23T13:22:01.368Z</time>
      </trkpt>
      <trkpt lat="45.66628" lon="4.30265">
        <ele>473.196941</ele>
        <time>2021-04-23T13:22:04.409Z</time>
      </trkpt>
      <trkpt lat="45.66634" lon="4.30276">
        <ele>474.057688</ele>
        <time>2021-04-23T13:22:08.415Z</time>
      </trkpt>
      <trkpt lat="45.66641" lon="4.30287">
        <ele>475.037852</ele>
        <time>2021-04-23T13:22:13.422Z</time>
      </trkpt>
      <trkpt lat="45.66648" lon="4.30297">
        <ele>475.916394</ele>
        <time>2021-04-23T13:22:18.368Z</time>
      </trkpt>
      <trkpt lat="45.66656" lon="4.30301">
        <ele>476.733177</ele>
        <time>2021-04-23T13:22:23.388Z</time>
      </trkpt>
      <trkpt lat="45.66668" lon="4.303">
        <ele>477.845629</ele>
        <time>2021-04-23T13:22:29.410Z</time>
      </trkpt>
      <trkpt lat="45.66673" lon="4.30313">
        <ele>478.75668</ele>
        <time>2021-04-23T13:22:34.393Z</time>
      </trkpt>
      <trkpt lat="45.6668" lon="4.30322">
        <ele>479.612044</ele>
        <time>2021-04-23T13:22:39.412Z</time>
      </trkpt>
      <trkpt lat="45.66686" lon="4.30335">
        <ele>480.575332</ele>
        <time>2021-04-23T13:22:44.396Z</time>
      </trkpt>
      <trkpt lat="45.66691" lon="4.30347">
        <ele>481.509541</ele>
        <time>2021-04-23T13:22:49.387Z</time>
      </trkpt>
      <trkpt lat="45.66695" lon="4.30359">
        <ele>482.338429</ele>
        <time>2021-04-23T13:22:53.385Z</time>
      </trkpt>
      <trkpt lat="45.66699" lon="4.30372">
        <ele>483.273019</ele>
        <time>2021-04-23T13:22:58.378Z</time>
      </trkpt>
      <trkpt lat="45.66703" lon="4.30385">
        <ele>484.146338</ele>
        <time>2021-04-23T13:23:03.389Z</time>
      </trkpt>
      <trkpt lat="45.66706" lon="4.30399">
        <ele>485.106132</ele>
        <time>2021-04-23T13:23:08.398Z</time>
      </trkpt>
      <trkpt lat="45.66712" lon="4.3038">
        <ele>486.429123</ele>
        <time>2021-04-23T13:23:21.375Z</time>
      </trkpt>
      <trkpt lat="45.66702" lon="4.30375">
        <ele>487.340149</ele>
        <time>2021-04-23T13:25:01.737Z</time>
      </trkpt>
      <trkpt lat="45.66705" lon="4.30388">
        <ele>488.199762</ele>
        <time>2021-04-23T13:25:05.735Z</time>
      </trkpt>
      <trkpt lat="45.66707" lon="4.30402">
        <ele>489.071906</ele>
        <time>2021-04-23T13:25:09.767Z</time>
      </trkpt>
      <trkpt lat="45.6671" lon="4.30417">
        <ele>489.942513</ele>
        <time>2021-04-23T13:25:14.761Z</time>
      </trkpt>
      <trkpt lat="45.66711" lon="4.30431">
        <ele>490.785339</ele>
        <time>2021-04-23T13:25:18.755Z</time>
      </trkpt>
      <trkpt lat="45.66713" lon="4.30447">
        <ele>491.709248</ele>
        <time>2021-04-23T13:25:22.753Z</time>
      </trkpt>
      <trkpt lat="45.66712" lon="4.30463">
        <ele>492.588306</ele>
        <time>2021-04-23T13:25:26.739Z</time>
      </trkpt>
      <trkpt lat="45.66707" lon="4.30474">
        <ele>493.379231</ele>
        <time>2021-04-23T13:25:30.763Z</time>
      </trkpt>
      <trkpt lat="45.66697" lon="4.30481">
        <ele>494.313662</ele>
        <time>2021-04-23T13:25:34.742Z</time>
      </trkpt>
      <trkpt lat="45.66686" lon="4.30487">
        <ele>495.261342</ele>
        <time>2021-04-23T13:25:38.752Z</time>
      </trkpt>
      <trkpt lat="45.66676" lon="4.30491">
        <ele>496.108707</ele>
        <time>2021-04-23T13:25:41.767Z</time>
      </trkpt>
      <trkpt lat="45.66666" lon="4.30496">
        <ele>496.991844</ele>
        <time>2021-04-23T13:25:45.741Z</time>
      </trkpt>
      <trkpt lat="45.66655" lon="4.30501">
        <ele>497.889639</ele>
        <time>2021-04-23T13:25:49.769Z</time>
      </trkpt>
      <trkpt lat="45.66646" lon="4.30506">
        <ele>498.735028</ele>
        <time>2021-04-23T13:25:53.744Z</time>
      </trkpt>
      <trkpt lat="45.66637" lon="4.30512">
        <ele>499.506941</ele>
        <time>2021-04-23T13:25:56.776Z</time>
      </trkpt>
      <trkpt lat="45.6663" lon="4.30522">
        <ele>500.343632</ele>
        <time>2021-04-23T13:26:00.738Z</time>
      </trkpt>
      <trkpt lat="45.66623" lon="4.30535">
        <ele>501.266793</ele>
        <time>2021-04-23T13:26:04.738Z</time>
      </trkpt>
      <trkpt lat="45.66619" lon="4.30547">
        <ele>502.050934</ele>
        <time>2021-04-23T13:26:07.322Z</time>
      </trkpt>
      <trkpt lat="45.66615" lon="4.30561">
        <ele>502.927778</ele>
        <time>2021-04-23T13:26:10.345Z</time>
      </trkpt>
      <trkpt lat="45.66612" lon="4.30576">
        <ele>503.57836</ele>
        <time>2021-04-23T13:26:13.340Z</time>
      </trkpt>
      <trkpt lat="45.6661" lon="4.30595">
        <ele>504.208306</ele>
        <time>2021-04-23T13:26:16.351Z</time>
      </trkpt>
      <trkpt lat="45.66611" lon="4.3061">
        <ele>504.684047</ele>
        <time>2021-04-23T13:26:18.330Z</time>
      </trkpt>
      <trkpt lat="45.66614" lon="4.30624">
        <ele>505.151812</ele>
        <time>2021-04-23T13:26:20.334Z</time>
      </trkpt>
      <trkpt lat="45.66619" lon="4.30641">
        <ele>505.743734</ele>
        <time>2021-04-23T13:26:23.360Z</time>
      </trkpt>
      <trkpt lat="45.66623" lon="4.30655">
        <ele>506.221289</ele>
        <time>2021-04-23T13:26:26.366Z</time>
      </trkpt>
      <trkpt lat="45.66626" lon="4.30671">
        <ele>506.742783</ele>
        <time>2021-04-23T13:26:30.327Z</time>
      </trkpt>
      <trkpt lat="45.66625" lon="4.30684">
        <ele>507.158041</ele>
        <time>2021-04-23T13:26:34.360Z</time>
      </trkpt>
      <trkpt lat="45.66613" lon="4.30686">
        <ele>507.67934</ele>
        <time>2021-04-23T13:26:40.342Z</time>
      </trkpt>
      <trkpt lat="45.66603" lon="4.30679">
        <ele>508.206674</ele>
        <time>2021-04-23T13:26:43.354Z</time>
      </trkpt>
      <trkpt lat="45.66593" lon="4.30674">
        <ele>508.683201</ele>
        <time>2021-04-23T13:26:46.337Z</time>
      </trkpt>
      <trkpt lat="45.66583" lon="4.30669">
        <ele>509.176837</ele>
        <time>2021-04-23T13:26:50.340Z</time>
      </trkpt>
      <trkpt lat="45.66573" lon="4.30663">
        <ele>509.655722</ele>
        <time>2021-04-23T13:26:54.328Z</time>
      </trkpt>
      <trkpt lat="45.66564" lon="4.30659">
        <ele>510.108362</ele>
        <time>2021-04-23T13:26:58.348Z</time>
      </trkpt>
      <trkpt lat="45.66553" lon="4.30653">
        <ele>510.636503</ele>
        <time>2021-04-23T13:27:02.331Z</time>
      </trkpt>
      <trkpt lat="45.66542" lon="4.30648">
        <ele>511.170258</ele>
        <time>2021-04-23T13:27:06.355Z</time>
      </trkpt>
      <trkpt lat="45.66532" lon="4.30643">
        <ele>511.631947</ele>
        <time>2021-04-23T13:27:10.341Z</time>
      </trkpt>
      <trkpt lat="45.66522" lon="4.30639">
        <ele>512.01103</ele>
        <time>2021-04-23T13:27:14.342Z</time>
      </trkpt>
      <trkpt lat="45.66513" lon="4.30634">
        <ele>512.371383</ele>
        <time>2021-04-23T13:27:18.337Z</time>
      </trkpt>
      <trkpt lat="45.66502" lon="4.3063">
        <ele>512.814425</ele>
        <time>2021-04-23T13:27:23.345Z</time>
      </trkpt>
      <trkpt lat="45.66491" lon="4.30629">
        <ele>513.240138</ele>
        <time>2021-04-23T13:27:27.346Z</time>
      </trkpt>
      <trkpt lat="45.6648" lon="4.30627">
        <ele>513.629649</ele>
        <time>2021-04-23T13:27:31.360Z</time>
      </trkpt>
      <trkpt lat="45.66471" lon="4.30625">
        <ele>513.977645</ele>
        <time>2021-04-23T13:27:35.224Z</time>
      </trkpt>
      <trkpt lat="45.66461" lon="4.30622">
        <ele>514.379556</ele>
        <time>2021-04-23T13:27:40.230Z</time>
      </trkpt>
      <trkpt lat="45.6645" lon="4.30622">
        <ele>514.799115</ele>
        <time>2021-04-23T13:27:45.246Z</time>
      </trkpt>
      <trkpt lat="45.6644" lon="4.30623">
        <ele>515.180957</ele>
        <time>2021-04-23T13:27:50.234Z</time>
      </trkpt>
      <trkpt lat="45.66429" lon="4.30627">
        <ele>515.596694</ele>
        <time>2021-04-23T13:27:55.271Z</time>
      </trkpt>
      <trkpt lat="45.6642" lon="4.30635">
        <ele>515.999011</ele>
        <time>2021-04-23T13:28:00.243Z</time>
      </trkpt>
      <trkpt lat="45.66415" lon="4.30646">
        <ele>516.349776</ele>
        <time>2021-04-23T13:28:05.257Z</time>
      </trkpt>
      <trkpt lat="45.66413" lon="4.3066">
        <ele>516.729831</ele>
        <time>2021-04-23T13:28:09.236Z</time>
      </trkpt>
      <trkpt lat="45.66411" lon="4.30674">
        <ele>517.10552</ele>
        <time>2021-04-23T13:28:13.256Z</time>
      </trkpt>
      <trkpt lat="45.66405" lon="4.30687">
        <ele>517.5172</ele>
        <time>2021-04-23T13:28:18.266Z</time>
      </trkpt>
      <trkpt lat="45.66406" lon="4.307">
        <ele>517.857028</ele>
        <time>2021-04-23T13:28:21.242Z</time>
      </trkpt>
      <trkpt lat="45.66405" lon="4.30714">
        <ele>518.246311</ele>
        <time>2021-04-23T13:28:25.258Z</time>
      </trkpt>
      <trkpt lat="45.66402" lon="4.30727">
        <ele>518.973337</ele>
        <time>2021-04-23T13:28:29.273Z</time>
      </trkpt>
      <trkpt lat="45.66398" lon="4.30739">
        <ele>519.793745</ele>
        <time>2021-04-23T13:28:33.224Z</time>
      </trkpt>
      <trkpt lat="45.66393" lon="4.30752">
        <ele>520.653799</ele>
        <time>2021-04-23T13:28:38.238Z</time>
      </trkpt>
      <trkpt lat="45.6639" lon="4.30765">
        <ele>521.530408</ele>
        <time>2021-04-23T13:28:45.264Z</time>
      </trkpt>
      <trkpt lat="45.66386" lon="4.30779">
        <ele>522.378163</ele>
        <time>2021-04-23T13:28:51.248Z</time>
      </trkpt>
      <trkpt lat="45.66384" lon="4.30792">
        <ele>523.210765</ele>
        <time>2021-04-23T13:28:57.240Z</time>
      </trkpt>
      <trkpt lat="45.66381" lon="4.30805">
        <ele>524.033123</ele>
        <time>2021-04-23T13:29:02.229Z</time>
      </trkpt>
      <trkpt lat="45.66376" lon="4.30818">
        <ele>524.945893</ele>
        <time>2021-04-23T13:29:07.224Z</time>
      </trkpt>
      <trkpt lat="45.66373" lon="4.30831">
        <ele>525.817391</ele>
        <time>2021-04-23T13:29:11.228Z</time>
      </trkpt>
      <trkpt lat="45.66366" lon="4.30843">
        <ele>526.75321</ele>
        <time>2021-04-23T13:29:16.231Z</time>
      </trkpt>
      <trkpt lat="45.66358" lon="4.30854">
        <ele>527.715866</ele>
        <time>2021-04-23T13:29:21.218Z</time>
      </trkpt>
      <trkpt lat="45.66349" lon="4.30863">
        <ele>528.662309</ele>
        <time>2021-04-23T13:29:25.241Z</time>
      </trkpt>
      <trkpt lat="45.66339" lon="4.30873">
        <ele>529.675651</ele>
        <time>2021-04-23T13:29:29.244Z</time>
      </trkpt>
      <trkpt lat="45.6633" lon="4.30884">
        <ele>530.723967</ele>
        <time>2021-04-23T13:29:33.240Z</time>
      </trkpt>
      <trkpt lat="45.66323" lon="4.30893">
        <ele>531.564862</ele>
        <time>2021-04-23T13:29:36.234Z</time>
      </trkpt>
      <trkpt lat="45.66317" lon="4.30903">
        <ele>532.372956</ele>
        <time>2021-04-23T13:29:39.243Z</time>
      </trkpt>
      <trkpt lat="45.6631" lon="4.30917">
        <ele>533.411676</ele>
        <time>2021-04-23T13:29:43.243Z</time>
      </trkpt>
      <trkpt lat="45.66305" lon="4.30927">
        <ele>534.213725</ele>
        <time>2021-04-23T13:29:46.252Z</time>
      </trkpt>
      <trkpt lat="45.66299" lon="4.30942">
        <ele>535.272237</ele>
        <time>2021-04-23T13:29:50.253Z</time>
      </trkpt>
      <trkpt lat="45.66295" lon="4.30956">
        <ele>536.251563</ele>
        <time>2021-04-23T13:29:54.237Z</time>
      </trkpt>
      <trkpt lat="45.66291" lon="4.30969">
        <ele>537.129948</ele>
        <time>2021-04-23T13:29:58.250Z</time>
      </trkpt>
      <trkpt lat="45.66288" lon="4.30984">
        <ele>538.120626</ele>
        <time>2021-04-23T13:30:03.236Z</time>
      </trkpt>
      <trkpt lat="45.66285" lon="4.30996">
        <ele>538.935104</ele>
        <time>2021-04-23T13:30:07.253Z</time>
      </trkpt>
      <trkpt lat="45.66283" lon="4.31009">
        <ele>539.755098</ele>
        <time>2021-04-23T13:30:12.279Z</time>
      </trkpt>
      <trkpt lat="45.6628" lon="4.31023">
        <ele>540.718962</ele>
        <time>2021-04-23T13:30:17.237Z</time>
      </trkpt>
      <trkpt lat="45.66276" lon="4.31037">
        <ele>541.666353</ele>
        <time>2021-04-23T13:30:23.251Z</time>
      </trkpt>
      <trkpt lat="45.66271" lon="4.31049">
        <ele>542.545412</ele>
        <time>2021-04-23T13:30:29.237Z</time>
      </trkpt>
      <trkpt lat="45.66268" lon="4.31061">
        <ele>543.367425</ele>
        <time>2021-04-23T13:30:35.265Z</time>
      </trkpt>
      <trkpt lat="45.66262" lon="4.31073">
        <ele>544.266686</ele>
        <time>2021-04-23T13:30:41.260Z</time>
      </trkpt>
      <trkpt lat="45.66256" lon="4.31085">
        <ele>545.171403</ele>
        <time>2021-04-23T13:30:46.231Z</time>
      </trkpt>
      <trkpt lat="45.66252" lon="4.31097">
        <ele>546.041995</ele>
        <time>2021-04-23T13:30:51.252Z</time>
      </trkpt>
      <trkpt lat="45.66248" lon="4.31109">
        <ele>546.902807</ele>
        <time>2021-04-23T13:30:55.272Z</time>
      </trkpt>
      <trkpt lat="45.66244" lon="4.31122">
        <ele>547.830424</ele>
        <time>2021-04-23T13:31:02.246Z</time>
      </trkpt>
      <trkpt lat="45.6624" lon="4.31134">
        <ele>548.666723</ele>
        <time>2021-04-23T13:31:07.234Z</time>
      </trkpt>
      <trkpt lat="45.66237" lon="4.31148">
        <ele>549.57388</ele>
        <time>2021-04-23T13:31:12.263Z</time>
      </trkpt>
      <trkpt lat="45.66233" lon="4.3116">
        <ele>550.423559</ele>
        <time>2021-04-23T13:31:17.256Z</time>
      </trkpt>
      <trkpt lat="45.66229" lon="4.31172">
        <ele>551.155647</ele>
        <time>2021-04-23T13:31:21.263Z</time>
      </trkpt>
      <trkpt lat="45.66225" lon="4.31185">
        <ele>551.943165</ele>
        <time>2021-04-23T13:31:25.249Z</time>
      </trkpt>
      <trkpt lat="45.66222" lon="4.31199">
        <ele>552.802627</ele>
        <time>2021-04-23T13:31:29.278Z</time>
      </trkpt>
      <trkpt lat="45.66217" lon="4.31211">
        <ele>553.571835</ele>
        <time>2021-04-23T13:31:33.250Z</time>
      </trkpt>
      <trkpt lat="45.66213" lon="4.31226">
        <ele>554.465135</ele>
        <time>2021-04-23T13:31:37.227Z</time>
      </trkpt>
      <trkpt lat="45.66209" lon="4.3124">
        <ele>555.321792</ele>
        <time>2021-04-23T13:31:42.236Z</time>
      </trkpt>
      <trkpt lat="45.66204" lon="4.31253">
        <ele>556.189671</ele>
        <time>2021-04-23T13:31:47.238Z</time>
      </trkpt>
      <trkpt lat="45.66199" lon="4.31265">
        <ele>556.943905</ele>
        <time>2021-04-23T13:31:51.241Z</time>
      </trkpt>
      <trkpt lat="45.66194" lon="4.31277">
        <ele>557.736094</ele>
        <time>2021-04-23T13:31:56.279Z</time>
      </trkpt>
      <trkpt lat="45.66188" lon="4.31289">
        <ele>558.5751</ele>
        <time>2021-04-23T13:32:01.237Z</time>
      </trkpt>
      <trkpt lat="45.66183" lon="4.31301">
        <ele>559.399119</ele>
        <time>2021-04-23T13:32:06.256Z</time>
      </trkpt>
      <trkpt lat="45.66176" lon="4.31313">
        <ele>560.277568</ele>
        <time>2021-04-23T13:32:11.230Z</time>
      </trkpt>
      <trkpt lat="45.66167" lon="4.31325">
        <ele>561.207667</ele>
        <time>2021-04-23T13:32:16.248Z</time>
      </trkpt>
      <trkpt lat="45.6616" lon="4.31333">
        <ele>561.956924</ele>
        <time>2021-04-23T13:32:20.259Z</time>
      </trkpt>
      <trkpt lat="45.66152" lon="4.3134">
        <ele>562.700963</ele>
        <time>2021-04-23T13:32:24.245Z</time>
      </trkpt>
      <trkpt lat="45.66142" lon="4.31348">
        <ele>563.632359</ele>
        <time>2021-04-23T13:32:29.257Z</time>
      </trkpt>
      <trkpt lat="45.66133" lon="4.31356">
        <ele>564.489582</ele>
        <time>2021-04-23T13:32:33.253Z</time>
      </trkpt>
      <trkpt lat="45.66125" lon="4.31365">
        <ele>565.188688</ele>
        <time>2021-04-23T13:32:36.242Z</time>
      </trkpt>
      <trkpt lat="45.66117" lon="4.31375">
        <ele>565.851482</ele>
        <time>2021-04-23T13:32:39.270Z</time>
      </trkpt>
      <trkpt lat="45.6611" lon="4.31386">
        <ele>566.514523</ele>
        <time>2021-04-23T13:32:42.242Z</time>
      </trkpt>
      <trkpt lat="45.66102" lon="4.31398">
        <ele>567.193868</ele>
        <time>2021-04-23T13:32:45.245Z</time>
      </trkpt>
      <trkpt lat="45.66095" lon="4.3141">
        <ele>567.859718</ele>
        <time>2021-04-23T13:32:48.224Z</time>
      </trkpt>
      <trkpt lat="45.66087" lon="4.31422">
        <ele>568.554952</ele>
        <time>2021-04-23T13:32:51.230Z</time>
      </trkpt>
      <trkpt lat="45.66081" lon="4.31437">
        <ele>569.277942</ele>
        <time>2021-04-23T13:32:54.247Z</time>
      </trkpt>
      <trkpt lat="45.66076" lon="4.31451">
        <ele>569.958151</ele>
        <time>2021-04-23T13:32:57.263Z</time>
      </trkpt>
      <trkpt lat="45.66075" lon="4.3147">
        <ele>570.757498</ele>
        <time>2021-04-23T13:33:00.239Z</time>
      </trkpt>
      <trkpt lat="45.66076" lon="4.31489">
        <ele>571.572943</ele>
        <time>2021-04-23T13:33:03.240Z</time>
      </trkpt>
      <trkpt lat="45.66074" lon="4.31506">
        <ele>572.291776</ele>
        <time>2021-04-23T13:33:06.237Z</time>
      </trkpt>
      <trkpt lat="45.66068" lon="4.31515">
        <ele>572.840462</ele>
        <time>2021-04-23T13:33:09.245Z</time>
      </trkpt>
      <trkpt lat="45.66058" lon="4.31516">
        <ele>573.432294</ele>
        <time>2021-04-23T13:33:12.272Z</time>
      </trkpt>
      <trkpt lat="45.6605" lon="4.31527">
        <ele>574.062905</ele>
        <time>2021-04-23T13:33:16.243Z</time>
      </trkpt>
      <trkpt lat="45.66055" lon="4.31538">
        <ele>574.613128</ele>
        <time>2021-04-23T13:33:19.278Z</time>
      </trkpt>
      <trkpt lat="45.66062" lon="4.31549">
        <ele>575.271761</ele>
        <time>2021-04-23T13:33:22.236Z</time>
      </trkpt>
      <trkpt lat="45.66071" lon="4.31562">
        <ele>575.982274</ele>
        <time>2021-04-23T13:33:25.272Z</time>
      </trkpt>
      <trkpt lat="45.66077" lon="4.31574">
        <ele>576.551897</ele>
        <time>2021-04-23T13:33:28.248Z</time>
      </trkpt>
      <trkpt lat="45.66084" lon="4.31586">
        <ele>577.110292</ele>
        <time>2021-04-23T13:33:31.251Z</time>
      </trkpt>
      <trkpt lat="45.66094" lon="4.31597">
        <ele>577.737706</ele>
        <time>2021-04-23T13:33:34.263Z</time>
      </trkpt>
      <trkpt lat="45.66103" lon="4.31607">
        <ele>578.335113</ele>
        <time>2021-04-23T13:33:37.250Z</time>
      </trkpt>
      <trkpt lat="45.66109" lon="4.31617">
        <ele>578.83624</ele>
        <time>2021-04-23T13:33:40.269Z</time>
      </trkpt>
      <trkpt lat="45.66117" lon="4.31626">
        <ele>579.336093</ele>
        <time>2021-04-23T13:33:43.249Z</time>
      </trkpt>
      <trkpt lat="45.66123" lon="4.3164">
        <ele>579.948987</ele>
        <time>2021-04-23T13:33:47.256Z</time>
      </trkpt>
      <trkpt lat="45.66129" lon="4.31653">
        <ele>580.510027</ele>
        <time>2021-04-23T13:33:51.257Z</time>
      </trkpt>
      <trkpt lat="45.66134" lon="4.31665">
        <ele>581.011774</ele>
        <time>2021-04-23T13:33:55.233Z</time>
      </trkpt>
      <trkpt lat="45.66137" lon="4.31677">
        <ele>581.485269</ele>
        <time>2021-04-23T13:33:59.222Z</time>
      </trkpt>
      <trkpt lat="45.66141" lon="4.31692">
        <ele>582.069889</ele>
        <time>2021-04-23T13:34:03.259Z</time>
      </trkpt>
      <trkpt lat="45.66145" lon="4.31704">
        <ele>582.567403</ele>
        <time>2021-04-23T13:34:07.234Z</time>
      </trkpt>
      <trkpt lat="45.6615" lon="4.31718">
        <ele>583.114036</ele>
        <time>2021-04-23T13:34:11.250Z</time>
      </trkpt>
      <trkpt lat="45.66152" lon="4.31732">
        <ele>583.650807</ele>
        <time>2021-04-23T13:34:14.251Z</time>
      </trkpt>
      <trkpt lat="45.66155" lon="4.31751">
        <ele>584.349834</ele>
        <time>2021-04-23T13:34:17.252Z</time>
      </trkpt>
      <trkpt lat="45.66157" lon="4.31764">
        <ele>584.858295</ele>
        <time>2021-04-23T13:34:19.260Z</time>
      </trkpt>
      <trkpt lat="45.6616" lon="4.31782">
        <ele>585.752458</ele>
        <time>2021-04-23T13:34:21.225Z</time>
      </trkpt>
      <trkpt lat="45.66163" lon="4.31799">
        <ele>586.790597</ele>
        <time>2021-04-23T13:34:23.261Z</time>
      </trkpt>
      <trkpt lat="45.66165" lon="4.31816">
        <ele>587.848691</ele>
        <time>2021-04-23T13:34:25.246Z</time>
      </trkpt>
      <trkpt lat="45.66165" lon="4.31836">
        <ele>589.021746</ele>
        <time>2021-04-23T13:34:27.247Z</time>
      </trkpt>
      <trkpt lat="45.66163" lon="4.31855">
        <ele>590.144606</ele>
        <time>2021-04-23T13:34:29.252Z</time>
      </trkpt>
      <trkpt lat="45.66161" lon="4.31872">
        <ele>591.20964</ele>
        <time>2021-04-23T13:34:31.260Z</time>
      </trkpt>
      <trkpt lat="45.6616" lon="4.3189">
        <ele>592.273666</ele>
        <time>2021-04-23T13:34:33.246Z</time>
      </trkpt>
      <trkpt lat="45.6616" lon="4.31908">
        <ele>593.351958</ele>
        <time>2021-04-23T13:34:35.248Z</time>
      </trkpt>
      <trkpt lat="45.6616" lon="4.31925">
        <ele>594.358294</ele>
        <time>2021-04-23T13:34:37.236Z</time>
      </trkpt>
      <trkpt lat="45.6616" lon="4.31942">
        <ele>595.33616</ele>
        <time>2021-04-23T13:34:39.253Z</time>
      </trkpt>
      <trkpt lat="45.66161" lon="4.31957">
        <ele>596.235926</ele>
        <time>2021-04-23T13:34:41.237Z</time>
      </trkpt>
      <trkpt lat="45.66161" lon="4.3197">
        <ele>597.034548</ele>
        <time>2021-04-23T13:34:43.231Z</time>
      </trkpt>
      <trkpt lat="45.66162" lon="4.31984">
        <ele>597.872512</ele>
        <time>2021-04-23T13:34:45.275Z</time>
      </trkpt>
      <trkpt lat="45.66162" lon="4.31999">
        <ele>598.789535</ele>
        <time>2021-04-23T13:34:48.228Z</time>
      </trkpt>
      <trkpt lat="45.66169" lon="4.31985">
        <ele>599.839931</ele>
        <time>2021-04-23T13:39:52.222Z</time>
      </trkpt>
      <trkpt lat="45.66174" lon="4.31996">
        <ele>600.57642</ele>
        <time>2021-04-23T13:39:55.218Z</time>
      </trkpt>
      <trkpt lat="45.66183" lon="4.32011">
        <ele>601.212832</ele>
        <time>2021-04-23T13:39:58.226Z</time>
      </trkpt>
      <trkpt lat="45.66191" lon="4.32024">
        <ele>601.789416</ele>
        <time>2021-04-23T13:40:01.252Z</time>
      </trkpt>
      <trkpt lat="45.66199" lon="4.32034">
        <ele>602.318375</ele>
        <time>2021-04-23T13:40:04.265Z</time>
      </trkpt>
      <trkpt lat="45.66207" lon="4.32045">
        <ele>602.831034</ele>
        <time>2021-04-23T13:40:07.258Z</time>
      </trkpt>
      <trkpt lat="45.66214" lon="4.32056">
        <ele>603.333184</ele>
        <time>2021-04-23T13:40:10.251Z</time>
      </trkpt>
      <trkpt lat="45.66222" lon="4.32067">
        <ele>603.860505</ele>
        <time>2021-04-23T13:40:13.250Z</time>
      </trkpt>
      <trkpt lat="45.66232" lon="4.32077">
        <ele>604.427561</ele>
        <time>2021-04-23T13:40:16.227Z</time>
      </trkpt>
      <trkpt lat="45.66243" lon="4.32083">
        <ele>604.989107</ele>
        <time>2021-04-23T13:40:19.249Z</time>
      </trkpt>
      <trkpt lat="45.66255" lon="4.32092">
        <ele>605.653042</ele>
        <time>2021-04-23T13:40:22.248Z</time>
      </trkpt>
      <trkpt lat="45.66265" lon="4.32098">
        <ele>606.135485</ele>
        <time>2021-04-23T13:40:24.263Z</time>
      </trkpt>
      <trkpt lat="45.66274" lon="4.32103">
        <ele>606.605472</ele>
        <time>2021-04-23T13:40:26.223Z</time>
      </trkpt>
      <trkpt lat="45.66284" lon="4.32108">
        <ele>607.086659</ele>
        <time>2021-04-23T13:40:28.218Z</time>
      </trkpt>
      <trkpt lat="45.66293" lon="4.32113">
        <ele>607.551352</ele>
        <time>2021-04-23T13:40:30.225Z</time>
      </trkpt>
      <trkpt lat="45.66302" lon="4.32118">
        <ele>608.011373</ele>
        <time>2021-04-23T13:40:32.251Z</time>
      </trkpt>
      <trkpt lat="45.66311" lon="4.32122">
        <ele>608.489158</ele>
        <time>2021-04-23T13:40:34.260Z</time>
      </trkpt>
      <trkpt lat="45.66321" lon="4.32126">
        <ele>608.953299</ele>
        <time>2021-04-23T13:40:36.248Z</time>
      </trkpt>
      <trkpt lat="45.6633" lon="4.32131">
        <ele>608.993972</ele>
        <time>2021-04-23T13:40:38.244Z</time>
      </trkpt>
      <trkpt lat="45.6634" lon="4.32135">
        <ele>608.977687</ele>
        <time>2021-04-23T13:40:40.243Z</time>
      </trkpt>
      <trkpt lat="45.66349" lon="4.32139">
        <ele>608.961967</ele>
        <time>2021-04-23T13:40:42.245Z</time>
      </trkpt>
      <trkpt lat="45.6636" lon="4.32145">
        <ele>608.944682</ele>
        <time>2021-04-23T13:40:44.263Z</time>
      </trkpt>
      <trkpt lat="45.6637" lon="4.32152">
        <ele>608.926423</ele>
        <time>2021-04-23T13:40:46.240Z</time>
      </trkpt>
      <trkpt lat="45.66381" lon="4.32158">
        <ele>608.907815</ele>
        <time>2021-04-23T13:40:48.239Z</time>
      </trkpt>
      <trkpt lat="45.66391" lon="4.32165">
        <ele>608.889698</ele>
        <time>2021-04-23T13:40:50.247Z</time>
      </trkpt>
      <trkpt lat="45.66402" lon="4.32173">
        <ele>608.870493</ele>
        <time>2021-04-23T13:40:52.243Z</time>
      </trkpt>
      <trkpt lat="45.66414" lon="4.32182">
        <ele>608.849069</ele>
        <time>2021-04-23T13:40:54.240Z</time>
      </trkpt>
      <trkpt lat="45.66426" lon="4.32194">
        <ele>608.827394</ele>
        <time>2021-04-23T13:40:56.264Z</time>
      </trkpt>
      <trkpt lat="45.66437" lon="4.32208">
        <ele>608.803173</ele>
        <time>2021-04-23T13:40:58.234Z</time>
      </trkpt>
      <trkpt lat="45.66449" lon="4.32223">
        <ele>608.777904</ele>
        <time>2021-04-23T13:41:00.239Z</time>
      </trkpt>
      <trkpt lat="45.66462" lon="4.32237">
        <ele>608.753081</ele>
        <time>2021-04-23T13:41:02.240Z</time>
      </trkpt>
      <trkpt lat="45.66475" lon="4.32248">
        <ele>608.728593</ele>
        <time>2021-04-23T13:41:04.269Z</time>
      </trkpt>
      <trkpt lat="45.66488" lon="4.32259">
        <ele>608.685179</ele>
        <time>2021-04-23T13:41:06.239Z</time>
      </trkpt>
      <trkpt lat="45.665" lon="4.32269">
        <ele>608.639338</ele>
        <time>2021-04-23T13:41:08.242Z</time>
      </trkpt>
      <trkpt lat="45.66511" lon="4.32277">
        <ele>608.597763</ele>
        <time>2021-04-23T13:41:10.276Z</time>
      </trkpt>
      <trkpt lat="45.66521" lon="4.32285">
        <ele>608.559852</ele>
        <time>2021-04-23T13:41:12.249Z</time>
      </trkpt>
      <trkpt lat="45.66529" lon="4.32292">
        <ele>608.527381</ele>
        <time>2021-04-23T13:41:14.236Z</time>
      </trkpt>
      <trkpt lat="45.66537" lon="4.32299">
        <ele>608.495461</ele>
        <time>2021-04-23T13:41:16.233Z</time>
      </trkpt>
      <trkpt lat="45.66544" lon="4.32308">
        <ele>608.463275</ele>
        <time>2021-04-23T13:41:18.237Z</time>
      </trkpt>
      <trkpt lat="45.66551" lon="4.32318">
        <ele>608.432071</ele>
        <time>2021-04-23T13:41:20.256Z</time>
      </trkpt>
      <trkpt lat="45.66559" lon="4.32331">
        <ele>608.390076</ele>
        <time>2021-04-23T13:41:23.252Z</time>
      </trkpt>
      <trkpt lat="45.66565" lon="4.32342">
        <ele>608.358941</ele>
        <time>2021-04-23T13:41:26.223Z</time>
      </trkpt>
      <trkpt lat="45.66562" lon="4.3233">
        <ele>608.328692</ele>
        <time>2021-04-23T13:41:41.193Z</time>
      </trkpt>
      <trkpt lat="45.66568" lon="4.32319">
        <ele>608.294295</ele>
        <time>2021-04-23T13:41:45.181Z</time>
      </trkpt>
      <trkpt lat="45.66559" lon="4.32314">
        <ele>608.262349</ele>
        <time>2021-04-23T13:43:04.201Z</time>
      </trkpt>
      <trkpt lat="45.66559" lon="4.32331">
        <ele>608.224365</ele>
        <time>2021-04-23T13:43:09.180Z</time>
      </trkpt>
      <trkpt lat="45.66564" lon="4.32343">
        <ele>608.191184</ele>
        <time>2021-04-23T13:43:12.221Z</time>
      </trkpt>
      <trkpt lat="45.66566" lon="4.32356">
        <ele>608.160387</ele>
        <time>2021-04-23T13:43:16.194Z</time>
      </trkpt>
      <trkpt lat="45.66556" lon="4.32361">
        <ele>608.123401</ele>
        <time>2021-04-23T13:43:20.919Z</time>
      </trkpt>
      <trkpt lat="45.66547" lon="4.32366">
        <ele>608.076482</ele>
        <time>2021-04-23T13:43:24.915Z</time>
      </trkpt>
      <trkpt lat="45.66538" lon="4.32369">
        <ele>608.030472</ele>
        <time>2021-04-23T13:43:27.920Z</time>
      </trkpt>
      <trkpt lat="45.66529" lon="4.32372">
        <ele>607.984051</ele>
        <time>2021-04-23T13:43:30.964Z</time>
      </trkpt>
      <trkpt lat="45.6652" lon="4.32376">
        <ele>607.937698</ele>
        <time>2021-04-23T13:43:33.939Z</time>
      </trkpt>
      <trkpt lat="45.6651" lon="4.32378">
        <ele>607.885683</ele>
        <time>2021-04-23T13:43:36.939Z</time>
      </trkpt>
      <trkpt lat="45.665" lon="4.32379">
        <ele>607.833293</ele>
        <time>2021-04-23T13:43:39.922Z</time>
      </trkpt>
      <trkpt lat="45.66489" lon="4.32376">
        <ele>607.779548</ele>
        <time>2021-04-23T13:43:42.947Z</time>
      </trkpt>
      <trkpt lat="45.66478" lon="4.32373">
        <ele>607.724543</ele>
        <time>2021-04-23T13:43:46.949Z</time>
      </trkpt>
      <trkpt lat="45.66467" lon="4.32371">
        <ele>607.668747</ele>
        <time>2021-04-23T13:43:50.936Z</time>
      </trkpt>
      <trkpt lat="45.66457" lon="4.32371">
        <ele>607.618383</ele>
        <time>2021-04-23T13:43:54.969Z</time>
      </trkpt>
      <trkpt lat="45.66447" lon="4.32371">
        <ele>607.56756</ele>
        <time>2021-04-23T13:43:58.926Z</time>
      </trkpt>
      <trkpt lat="45.66438" lon="4.32372">
        <ele>607.521133</ele>
        <time>2021-04-23T13:44:01.938Z</time>
      </trkpt>
      <trkpt lat="45.66427" lon="4.32375">
        <ele>607.462547</ele>
        <time>2021-04-23T13:44:05.935Z</time>
      </trkpt>
      <trkpt lat="45.66417" lon="4.32378">
        <ele>607.413672</ele>
        <time>2021-04-23T13:44:09.940Z</time>
      </trkpt>
      <trkpt lat="45.66406" lon="4.32381">
        <ele>607.358621</ele>
        <time>2021-04-23T13:44:13.924Z</time>
      </trkpt>
      <trkpt lat="45.66396" lon="4.32383">
        <ele>607.304673</ele>
        <time>2021-04-23T13:44:17.925Z</time>
      </trkpt>
      <trkpt lat="45.66386" lon="4.32384">
        <ele>607.254845</ele>
        <time>2021-04-23T13:44:21.954Z</time>
      </trkpt>
      <trkpt lat="45.66377" lon="4.32385">
        <ele>607.218741</ele>
        <time>2021-04-23T13:44:24.945Z</time>
      </trkpt>
      <trkpt lat="45.66367" lon="4.32386">
        <ele>607.215156</ele>
        <time>2021-04-23T13:44:27.938Z</time>
      </trkpt>
      <trkpt lat="45.66358" lon="4.32389">
        <ele>607.211405</ele>
        <time>2021-04-23T13:44:31.926Z</time>
      </trkpt>
      <trkpt lat="45.66349" lon="4.32392">
        <ele>607.207862</ele>
        <time>2021-04-23T13:44:35.928Z</time>
      </trkpt>
      <trkpt lat="45.66339" lon="4.32396">
        <ele>607.204061</ele>
        <time>2021-04-23T13:44:39.966Z</time>
      </trkpt>
      <trkpt lat="45.6633" lon="4.32399">
        <ele>607.20054</ele>
        <time>2021-04-23T13:44:43.938Z</time>
      </trkpt>
      <trkpt lat="45.66321" lon="4.32404">
        <ele>607.196765</ele>
        <time>2021-04-23T13:44:47.916Z</time>
      </trkpt>
      <trkpt lat="45.66311" lon="4.32411">
        <ele>607.192729</ele>
        <time>2021-04-23T13:44:51.927Z</time>
      </trkpt>
      <trkpt lat="45.66302" lon="4.32416">
        <ele>607.188829</ele>
        <time>2021-04-23T13:44:55.940Z</time>
      </trkpt>
      <trkpt lat="45.66293" lon="4.32422">
        <ele>607.185108</ele>
        <time>2021-04-23T13:44:59.951Z</time>
      </trkpt>
      <trkpt lat="45.66284" lon="4.32429">
        <ele>607.181347</ele>
        <time>2021-04-23T13:45:03.940Z</time>
      </trkpt>
      <trkpt lat="45.66274" lon="4.32436">
        <ele>607.177166</ele>
        <time>2021-04-23T13:45:07.930Z</time>
      </trkpt>
      <trkpt lat="45.66266" lon="4.32443">
        <ele>607.173378</ele>
        <time>2021-04-23T13:45:11.941Z</time>
      </trkpt>
      <trkpt lat="45.66255" lon="4.3245">
        <ele>607.16908</ele>
        <time>2021-04-23T13:45:15.956Z</time>
      </trkpt>
      <trkpt lat="45.66246" lon="4.32457">
        <ele>607.165148</ele>
        <time>2021-04-23T13:45:18.945Z</time>
      </trkpt>
      <trkpt lat="45.66236" lon="4.32464">
        <ele>607.160724</ele>
        <time>2021-04-23T13:45:21.959Z</time>
      </trkpt>
      <trkpt lat="45.66214" lon="4.3249">
        <ele>607.167973</ele>
        <time>2021-04-23T13:46:57.964Z</time>
      </trkpt>
      <trkpt lat="45.66207" lon="4.325">
        <ele>607.22706</ele>
        <time>2021-04-23T13:46:59.936Z</time>
      </trkpt>
      <trkpt lat="45.662" lon="4.32511">
        <ele>607.285826</ele>
        <time>2021-04-23T13:47:01.977Z</time>
      </trkpt>
      <trkpt lat="45.66192" lon="4.32523">
        <ele>607.352245</ele>
        <time>2021-04-23T13:47:03.942Z</time>
      </trkpt>
      <trkpt lat="45.66183" lon="4.32537">
        <ele>607.429453</ele>
        <time>2021-04-23T13:47:05.948Z</time>
      </trkpt>
      <trkpt lat="45.66178" lon="4.32555">
        <ele>607.504354</ele>
        <time>2021-04-23T13:47:07.926Z</time>
      </trkpt>
      <trkpt lat="45.66172" lon="4.3257">
        <ele>607.571983</ele>
        <time>2021-04-23T13:47:09.943Z</time>
      </trkpt>
      <trkpt lat="45.66167" lon="4.32584">
        <ele>607.635899</ele>
        <time>2021-04-23T13:47:11.948Z</time>
      </trkpt>
      <trkpt lat="45.66162" lon="4.32605">
        <ele>607.724034</ele>
        <time>2021-04-23T13:47:13.953Z</time>
      </trkpt>
      <trkpt lat="45.66157" lon="4.32623">
        <ele>607.80079</ele>
        <time>2021-04-23T13:47:15.931Z</time>
      </trkpt>
      <trkpt lat="45.66151" lon="4.3264">
        <ele>607.877454</ele>
        <time>2021-04-23T13:47:17.937Z</time>
      </trkpt>
      <trkpt lat="45.66148" lon="4.32658">
        <ele>607.950464</ele>
        <time>2021-04-23T13:47:19.932Z</time>
      </trkpt>
      <trkpt lat="45.66147" lon="4.32674">
        <ele>608.015084</ele>
        <time>2021-04-23T13:47:21.920Z</time>
      </trkpt>
      <trkpt lat="45.66147" lon="4.32689">
        <ele>608.073709</ele>
        <time>2021-04-23T13:47:23.923Z</time>
      </trkpt>
      <trkpt lat="45.66145" lon="4.32704">
        <ele>608.133249</ele>
        <time>2021-04-23T13:47:25.926Z</time>
      </trkpt>
      <trkpt lat="45.66146" lon="4.32717">
        <ele>608.193305</ele>
        <time>2021-04-23T13:47:27.922Z</time>
      </trkpt>
      <trkpt lat="45.66149" lon="4.32731">
        <ele>608.282819</ele>
        <time>2021-04-23T13:47:29.926Z</time>
      </trkpt>
      <trkpt lat="45.66152" lon="4.32746">
        <ele>608.374396</ele>
        <time>2021-04-23T13:47:31.920Z</time>
      </trkpt>
      <trkpt lat="45.66154" lon="4.32761">
        <ele>608.464024</ele>
        <time>2021-04-23T13:47:33.944Z</time>
      </trkpt>
      <trkpt lat="45.66155" lon="4.32774">
        <ele>608.546209</ele>
        <time>2021-04-23T13:47:35.959Z</time>
      </trkpt>
      <trkpt lat="45.66157" lon="4.32789">
        <ele>608.634949</ele>
        <time>2021-04-23T13:47:37.942Z</time>
      </trkpt>
      <trkpt lat="45.66158" lon="4.32804">
        <ele>608.726165</ele>
        <time>2021-04-23T13:47:39.927Z</time>
      </trkpt>
      <trkpt lat="45.66159" lon="4.32818">
        <ele>608.810034</ele>
        <time>2021-04-23T13:47:41.917Z</time>
      </trkpt>
      <trkpt lat="45.66159" lon="4.32832">
        <ele>608.891576</ele>
        <time>2021-04-23T13:47:43.918Z</time>
      </trkpt>
      <trkpt lat="45.66158" lon="4.32846">
        <ele>608.975656</ele>
        <time>2021-04-23T13:47:45.921Z</time>
      </trkpt>
      <trkpt lat="45.66156" lon="4.32858">
        <ele>609.055067</ele>
        <time>2021-04-23T13:47:47.932Z</time>
      </trkpt>
      <trkpt lat="45.66152" lon="4.32872">
        <ele>609.139411</ele>
        <time>2021-04-23T13:47:49.936Z</time>
      </trkpt>
      <trkpt lat="45.66149" lon="4.32885">
        <ele>609.22269</ele>
        <time>2021-04-23T13:47:51.935Z</time>
      </trkpt>
      <trkpt lat="45.66144" lon="4.32903">
        <ele>609.339287</ele>
        <time>2021-04-23T13:47:54.923Z</time>
      </trkpt>
      <trkpt lat="45.66141" lon="4.32915">
        <ele>609.417246</ele>
        <time>2021-04-23T13:47:56.910Z</time>
      </trkpt>
      <trkpt lat="45.66138" lon="4.32928">
        <ele>609.496588</ele>
        <time>2021-04-23T13:47:58.963Z</time>
      </trkpt>
      <trkpt lat="45.66134" lon="4.32944">
        <ele>609.599923</ele>
        <time>2021-04-23T13:48:01.961Z</time>
      </trkpt>
      <trkpt lat="45.6613" lon="4.3296">
        <ele>609.700671</ele>
        <time>2021-04-23T13:48:04.927Z</time>
      </trkpt>
      <trkpt lat="45.66127" lon="4.32974">
        <ele>609.751311</ele>
        <time>2021-04-23T13:48:07.942Z</time>
      </trkpt>
      <trkpt lat="45.66124" lon="4.32987">
        <ele>609.786157</ele>
        <time>2021-04-23T13:48:10.956Z</time>
      </trkpt>
      <trkpt lat="45.66122" lon="4.33">
        <ele>609.821059</ele>
        <time>2021-04-23T13:48:13.944Z</time>
      </trkpt>
      <trkpt lat="45.66117" lon="4.33014">
        <ele>609.861914</ele>
        <time>2021-04-23T13:48:16.952Z</time>
      </trkpt>
      <trkpt lat="45.66112" lon="4.33026">
        <ele>609.897863</ele>
        <time>2021-04-23T13:48:19.936Z</time>
      </trkpt>
      <trkpt lat="45.66105" lon="4.33037">
        <ele>609.935758</ele>
        <time>2021-04-23T13:48:22.926Z</time>
      </trkpt>
      <trkpt lat="45.66099" lon="4.33048">
        <ele>609.973491</ele>
        <time>2021-04-23T13:48:25.967Z</time>
      </trkpt>
      <trkpt lat="45.66091" lon="4.3306">
        <ele>610.014875</ele>
        <time>2021-04-23T13:48:28.938Z</time>
      </trkpt>
      <trkpt lat="45.66084" lon="4.33071">
        <ele>610.055108</ele>
        <time>2021-04-23T13:48:31.931Z</time>
      </trkpt>
      <trkpt lat="45.66077" lon="4.33083">
        <ele>610.096636</ele>
        <time>2021-04-23T13:48:34.948Z</time>
      </trkpt>
      <trkpt lat="45.6607" lon="4.33093">
        <ele>610.132563</ele>
        <time>2021-04-23T13:48:37.954Z</time>
      </trkpt>
      <trkpt lat="45.66064" lon="4.33105">
        <ele>610.170565</ele>
        <time>2021-04-23T13:48:40.962Z</time>
      </trkpt>
      <trkpt lat="45.66058" lon="4.33116">
        <ele>610.208222</ele>
        <time>2021-04-23T13:48:43.943Z</time>
      </trkpt>
      <trkpt lat="45.66052" lon="4.33128">
        <ele>610.246309</ele>
        <time>2021-04-23T13:48:46.957Z</time>
      </trkpt>
      <trkpt lat="45.66047" lon="4.33141">
        <ele>610.284997</ele>
        <time>2021-04-23T13:48:49.941Z</time>
      </trkpt>
      <trkpt lat="45.66042" lon="4.33153">
        <ele>610.320863</ele>
        <time>2021-04-23T13:48:52.933Z</time>
      </trkpt>
      <trkpt lat="45.66037" lon="4.33166">
        <ele>610.359779</ele>
        <time>2021-04-23T13:48:55.943Z</time>
      </trkpt>
      <trkpt lat="45.66031" lon="4.33181">
        <ele>610.436315</ele>
        <time>2021-04-23T13:48:59.957Z</time>
      </trkpt>
      <trkpt lat="45.66025" lon="4.33195">
        <ele>610.568394</ele>
        <time>2021-04-23T13:49:03.927Z</time>
      </trkpt>
      <trkpt lat="45.66019" lon="4.33208">
        <ele>610.699306</ele>
        <time>2021-04-23T13:49:07.958Z</time>
      </trkpt>
      <trkpt lat="45.66013" lon="4.33221">
        <ele>610.827365</ele>
        <time>2021-04-23T13:49:11.931Z</time>
      </trkpt>
      <trkpt lat="45.66008" lon="4.33235">
        <ele>610.95316</ele>
        <time>2021-04-23T13:49:15.964Z</time>
      </trkpt>
      <trkpt lat="45.66004" lon="4.3325">
        <ele>611.086409</ele>
        <time>2021-04-23T13:49:19.919Z</time>
      </trkpt>
      <trkpt lat="45.66001" lon="4.33263">
        <ele>611.198188</ele>
        <time>2021-04-23T13:49:23.921Z</time>
      </trkpt>
      <trkpt lat="45.66001" lon="4.33278">
        <ele>611.323324</ele>
        <time>2021-04-23T13:49:27.955Z</time>
      </trkpt>
      <trkpt lat="45.66002" lon="4.33292">
        <ele>611.435759</ele>
        <time>2021-04-23T13:49:31.949Z</time>
      </trkpt>
      <trkpt lat="45.66003" lon="4.33306">
        <ele>611.549353</ele>
        <time>2021-04-23T13:49:35.941Z</time>
      </trkpt>
      <trkpt lat="45.66003" lon="4.3332">
        <ele>611.660974</ele>
        <time>2021-04-23T13:49:39.989Z</time>
      </trkpt>
      <trkpt lat="45.66003" lon="4.33333">
        <ele>611.770565</ele>
        <time>2021-04-23T13:49:43.942Z</time>
      </trkpt>
      <trkpt lat="45.66002" lon="4.3335">
        <ele>611.907225</ele>
        <time>2021-04-23T13:49:47.937Z</time>
      </trkpt>
      <trkpt lat="45.66002" lon="4.33366">
        <ele>612.039763</ele>
        <time>2021-04-23T13:49:52.922Z</time>
      </trkpt>
      <trkpt lat="45.66004" lon="4.33379">
        <ele>612.146529</ele>
        <time>2021-04-23T13:49:56.922Z</time>
      </trkpt>
      <trkpt lat="45.66003" lon="4.33396">
        <ele>612.290641</ele>
        <time>2021-04-23T13:50:00.938Z</time>
      </trkpt>
      <trkpt lat="45.66003" lon="4.3341">
        <ele>612.398622</ele>
        <time>2021-04-23T13:50:03.937Z</time>
      </trkpt>
      <trkpt lat="45.66005" lon="4.33425">
        <ele>612.54752</ele>
        <time>2021-04-23T13:50:07.942Z</time>
      </trkpt>
      <trkpt lat="45.66006" lon="4.33441">
        <ele>612.755009</ele>
        <time>2021-04-23T13:50:11.924Z</time>
      </trkpt>
      <trkpt lat="45.66009" lon="4.33455">
        <ele>612.943459</ele>
        <time>2021-04-23T13:50:15.923Z</time>
      </trkpt>
      <trkpt lat="45.66011" lon="4.33468">
        <ele>613.110632</ele>
        <time>2021-04-23T13:50:19.925Z</time>
      </trkpt>
      <trkpt lat="45.66013" lon="4.33482">
        <ele>613.303387</ele>
        <time>2021-04-23T13:50:23.978Z</time>
      </trkpt>
      <trkpt lat="45.66016" lon="4.33497">
        <ele>613.500515</ele>
        <time>2021-04-23T13:50:27.942Z</time>
      </trkpt>
      <trkpt lat="45.66018" lon="4.33511">
        <ele>613.682354</ele>
        <time>2021-04-23T13:50:31.943Z</time>
      </trkpt>
      <trkpt lat="45.66021" lon="4.33524">
        <ele>613.865329</ele>
        <time>2021-04-23T13:50:35.951Z</time>
      </trkpt>
      <trkpt lat="45.66022" lon="4.33541">
        <ele>614.075995</ele>
        <time>2021-04-23T13:50:39.928Z</time>
      </trkpt>
      <trkpt lat="45.66024" lon="4.33554">
        <ele>614.251191</ele>
        <time>2021-04-23T13:50:42.981Z</time>
      </trkpt>
      <trkpt lat="45.66025" lon="4.33567">
        <ele>614.424925</ele>
        <time>2021-04-23T13:50:45.946Z</time>
      </trkpt>
      <trkpt lat="45.66026" lon="4.3358">
        <ele>614.590577</ele>
        <time>2021-04-23T13:50:48.922Z</time>
      </trkpt>
      <trkpt lat="45.66028" lon="4.33593">
        <ele>614.759456</ele>
        <time>2021-04-23T13:50:51.921Z</time>
      </trkpt>
      <trkpt lat="45.66031" lon="4.33607">
        <ele>614.942667</ele>
        <time>2021-04-23T13:50:54.924Z</time>
      </trkpt>
      <trkpt lat="45.66034" lon="4.3362">
        <ele>615.123888</ele>
        <time>2021-04-23T13:50:57.923Z</time>
      </trkpt>
      <trkpt lat="45.66036" lon="4.33637">
        <ele>615.343923</ele>
        <time>2021-04-23T13:51:01.923Z</time>
      </trkpt>
      <trkpt lat="45.66038" lon="4.33651">
        <ele>615.530374</ele>
        <time>2021-04-23T13:51:05.925Z</time>
      </trkpt>
      <trkpt lat="45.66041" lon="4.33667">
        <ele>615.746618</ele>
        <time>2021-04-23T13:51:09.942Z</time>
      </trkpt>
      <trkpt lat="45.66046" lon="4.33682">
        <ele>616.0478</ele>
        <time>2021-04-23T13:51:13.960Z</time>
      </trkpt>
      <trkpt lat="45.6605" lon="4.33694">
        <ele>616.342207</ele>
        <time>2021-04-23T13:51:16.934Z</time>
      </trkpt>
      <trkpt lat="45.66055" lon="4.33706">
        <ele>616.653183</ele>
        <time>2021-04-23T13:51:20.959Z</time>
      </trkpt>
      <trkpt lat="45.66058" lon="4.33719">
        <ele>616.943967</ele>
        <time>2021-04-23T13:51:24.955Z</time>
      </trkpt>
      <trkpt lat="45.66062" lon="4.33732">
        <ele>617.250042</ele>
        <time>2021-04-23T13:51:28.954Z</time>
      </trkpt>
      <trkpt lat="45.66066" lon="4.33746">
        <ele>617.58249</ele>
        <time>2021-04-23T13:51:33.938Z</time>
      </trkpt>
      <trkpt lat="45.66069" lon="4.33759">
        <ele>617.877379</ele>
        <time>2021-04-23T13:51:38.957Z</time>
      </trkpt>
      <trkpt lat="45.66073" lon="4.33771">
        <ele>618.178958</ele>
        <time>2021-04-23T13:51:42.928Z</time>
      </trkpt>
      <trkpt lat="45.66079" lon="4.33783">
        <ele>618.490856</ele>
        <time>2021-04-23T13:51:46.936Z</time>
      </trkpt>
      <trkpt lat="45.66083" lon="4.33796">
        <ele>618.806163</ele>
        <time>2021-04-23T13:51:52.925Z</time>
      </trkpt>
      <trkpt lat="45.66086" lon="4.33811">
        <ele>619.13767</ele>
        <time>2021-04-23T13:51:56.928Z</time>
      </trkpt>
      <trkpt lat="45.66089" lon="4.33823">
        <ele>619.42212</ele>
        <time>2021-04-23T13:52:00.941Z</time>
      </trkpt>
      <trkpt lat="45.66089" lon="4.33839">
        <ele>619.770704</ele>
        <time>2021-04-23T13:52:04.940Z</time>
      </trkpt>
      <trkpt lat="45.66093" lon="4.33851">
        <ele>620.064496</ele>
        <time>2021-04-23T13:52:09.927Z</time>
      </trkpt>
      <trkpt lat="45.66099" lon="4.33863">
        <ele>620.383586</ele>
        <time>2021-04-23T13:52:14.928Z</time>
      </trkpt>
      <trkpt lat="45.66103" lon="4.33876">
        <ele>620.706176</ele>
        <time>2021-04-23T13:52:19.942Z</time>
      </trkpt>
      <trkpt lat="45.66107" lon="4.33888">
        <ele>620.984737</ele>
        <time>2021-04-23T13:52:23.939Z</time>
      </trkpt>
      <trkpt lat="45.66112" lon="4.33902">
        <ele>621.319147</ele>
        <time>2021-04-23T13:52:28.942Z</time>
      </trkpt>
      <trkpt lat="45.66116" lon="4.33914">
        <ele>621.776575</ele>
        <time>2021-04-23T13:52:32.913Z</time>
      </trkpt>
      <trkpt lat="45.6612" lon="4.33926">
        <ele>622.339825</ele>
        <time>2021-04-23T13:52:36.940Z</time>
      </trkpt>
      <trkpt lat="45.66123" lon="4.33942">
        <ele>623.009004</ele>
        <time>2021-04-23T13:52:40.879Z</time>
      </trkpt>
      <trkpt lat="45.66129" lon="4.33955">
        <ele>623.636948</ele>
        <time>2021-04-23T13:52:43.858Z</time>
      </trkpt>
      <trkpt lat="45.66133" lon="4.33967">
        <ele>624.182743</ele>
        <time>2021-04-23T13:52:46.862Z</time>
      </trkpt>
      <trkpt lat="45.66139" lon="4.33979">
        <ele>624.764697</ele>
        <time>2021-04-23T13:52:48.887Z</time>
      </trkpt>
      <trkpt lat="45.6615" lon="4.3399">
        <ele>625.558502</ele>
        <time>2021-04-23T13:52:51.880Z</time>
      </trkpt>
      <trkpt lat="45.6616" lon="4.34004">
        <ele>626.388751</ele>
        <time>2021-04-23T13:52:54.884Z</time>
      </trkpt>
      <trkpt lat="45.66166" lon="4.34015">
        <ele>626.987041</ele>
        <time>2021-04-23T13:52:56.890Z</time>
      </trkpt>
      <trkpt lat="45.66173" lon="4.34025">
        <ele>627.559681</ele>
        <time>2021-04-23T13:52:58.890Z</time>
      </trkpt>
      <trkpt lat="45.66181" lon="4.34033">
        <ele>628.112769</ele>
        <time>2021-04-23T13:53:00.857Z</time>
      </trkpt>
      <trkpt lat="45.66191" lon="4.34046">
        <ele>628.90914</ele>
        <time>2021-04-23T13:53:03.880Z</time>
      </trkpt>
      <trkpt lat="45.66198" lon="4.34055">
        <ele>629.468697</ele>
        <time>2021-04-23T13:53:05.872Z</time>
      </trkpt>
      <trkpt lat="45.66205" lon="4.34064">
        <ele>630.032964</ele>
        <time>2021-04-23T13:53:07.890Z</time>
      </trkpt>
      <trkpt lat="45.66212" lon="4.34076">
        <ele>630.666441</ele>
        <time>2021-04-23T13:53:09.879Z</time>
      </trkpt>
      <trkpt lat="45.66219" lon="4.34088">
        <ele>631.291199</ele>
        <time>2021-04-23T13:53:11.874Z</time>
      </trkpt>
      <trkpt lat="45.66225" lon="4.34101">
        <ele>631.929249</ele>
        <time>2021-04-23T13:53:13.890Z</time>
      </trkpt>
      <trkpt lat="45.66231" lon="4.34113">
        <ele>632.296787</ele>
        <time>2021-04-23T13:53:15.855Z</time>
      </trkpt>
      <trkpt lat="45.66237" lon="4.34125">
        <ele>632.643524</ele>
        <time>2021-04-23T13:53:17.874Z</time>
      </trkpt>
      <trkpt lat="45.66242" lon="4.34137">
        <ele>632.966612</ele>
        <time>2021-04-23T13:53:19.889Z</time>
      </trkpt>
      <trkpt lat="45.66247" lon="4.34148">
        <ele>633.287301</ele>
        <time>2021-04-23T13:53:21.853Z</time>
      </trkpt>
      <trkpt lat="45.66253" lon="4.34159">
        <ele>633.623622</ele>
        <time>2021-04-23T13:53:23.869Z</time>
      </trkpt>
      <trkpt lat="45.66258" lon="4.34171">
        <ele>633.965852</ele>
        <time>2021-04-23T13:53:25.887Z</time>
      </trkpt>
      <trkpt lat="45.66264" lon="4.34182">
        <ele>634.290438</ele>
        <time>2021-04-23T13:53:27.893Z</time>
      </trkpt>
      <trkpt lat="45.66269" lon="4.34193">
        <ele>634.603349</ele>
        <time>2021-04-23T13:53:29.872Z</time>
      </trkpt>
      <trkpt lat="45.66278" lon="4.34207">
        <ele>635.050753</ele>
        <time>2021-04-23T13:53:32.854Z</time>
      </trkpt>
      <trkpt lat="45.66287" lon="4.3422">
        <ele>635.490421</ele>
        <time>2021-04-23T13:53:35.878Z</time>
      </trkpt>
      <trkpt lat="45.66295" lon="4.34232">
        <ele>635.888392</ele>
        <time>2021-04-23T13:53:38.879Z</time>
      </trkpt>
      <trkpt lat="45.66302" lon="4.34244">
        <ele>636.277361</ele>
        <time>2021-04-23T13:53:41.887Z</time>
      </trkpt>
      <trkpt lat="45.66309" lon="4.34255">
        <ele>636.616019</ele>
        <time>2021-04-23T13:53:44.866Z</time>
      </trkpt>
      <trkpt lat="45.66317" lon="4.34266">
        <ele>637.001902</ele>
        <time>2021-04-23T13:53:47.881Z</time>
      </trkpt>
      <trkpt lat="45.66325" lon="4.34276">
        <ele>637.365832</ele>
        <time>2021-04-23T13:53:50.724Z</time>
      </trkpt>
      <trkpt lat="45.66334" lon="4.34286">
        <ele>637.748995</ele>
        <time>2021-04-23T13:53:53.730Z</time>
      </trkpt>
      <trkpt lat="45.66343" lon="4.34298">
        <ele>638.160236</ele>
        <time>2021-04-23T13:53:56.730Z</time>
      </trkpt>
      <trkpt lat="45.66353" lon="4.34309">
        <ele>638.515735</ele>
        <time>2021-04-23T13:53:59.682Z</time>
      </trkpt>
      <trkpt lat="45.66363" lon="4.3432">
        <ele>638.869516</ele>
        <time>2021-04-23T13:54:02.583Z</time>
      </trkpt>
      <trkpt lat="45.6637" lon="4.34328">
        <ele>639.126241</ele>
        <time>2021-04-23T13:54:04.557Z</time>
      </trkpt>
      <trkpt lat="45.66379" lon="4.3434">
        <ele>639.46955</ele>
        <time>2021-04-23T13:54:07.599Z</time>
      </trkpt>
      <trkpt lat="45.66386" lon="4.34352">
        <ele>639.766878</ele>
        <time>2021-04-23T13:54:10.692Z</time>
      </trkpt>
      <trkpt lat="45.66393" lon="4.34364">
        <ele>640.096561</ele>
        <time>2021-04-23T13:54:15.701Z</time>
      </trkpt>
      <trkpt lat="45.66395" lon="4.3438">
        <ele>640.405087</ele>
        <time>2021-04-23T13:54:19.743Z</time>
      </trkpt>
      <trkpt lat="45.664" lon="4.34392">
        <ele>640.689476</ele>
        <time>2021-04-23T13:54:24.732Z</time>
      </trkpt>
      <trkpt lat="45.66401" lon="4.34409">
        <ele>641.017221</ele>
        <time>2021-04-23T13:54:29.722Z</time>
      </trkpt>
      <trkpt lat="45.66402" lon="4.34422">
        <ele>641.27231</ele>
        <time>2021-04-23T13:54:32.720Z</time>
      </trkpt>
      <trkpt lat="45.66403" lon="4.34435">
        <ele>641.54073</ele>
        <time>2021-04-23T13:54:34.732Z</time>
      </trkpt>
      <trkpt lat="45.66409" lon="4.34449">
        <ele>641.853994</ele>
        <time>2021-04-23T13:54:36.712Z</time>
      </trkpt>
      <trkpt lat="45.66417" lon="4.34467">
        <ele>642.263911</ele>
        <time>2021-04-23T13:54:38.711Z</time>
      </trkpt>
      <trkpt lat="45.66425" lon="4.34487">
        <ele>642.739687</ele>
        <time>2021-04-23T13:54:40.725Z</time>
      </trkpt>
      <trkpt lat="45.6643" lon="4.34499">
        <ele>643.00239</ele>
        <time>2021-04-23T13:54:41.708Z</time>
      </trkpt>
      <trkpt lat="45.66434" lon="4.34511">
        <ele>643.287829</ele>
        <time>2021-04-23T13:54:42.688Z</time>
      </trkpt>
      <trkpt lat="45.66439" lon="4.34523">
        <ele>643.619626</ele>
        <time>2021-04-23T13:54:43.703Z</time>
      </trkpt>
      <trkpt lat="45.66443" lon="4.34535">
        <ele>643.952717</ele>
        <time>2021-04-23T13:54:44.686Z</time>
      </trkpt>
      <trkpt lat="45.66454" lon="4.34555">
        <ele>644.55658</ele>
        <time>2021-04-23T13:54:46.688Z</time>
      </trkpt>
      <trkpt lat="45.66464" lon="4.34576">
        <ele>645.180052</ele>
        <time>2021-04-23T13:54:48.686Z</time>
      </trkpt>
      <trkpt lat="45.66473" lon="4.34596">
        <ele>645.768019</ele>
        <time>2021-04-23T13:54:50.689Z</time>
      </trkpt>
      <trkpt lat="45.66481" lon="4.34614">
        <ele>646.2967</ele>
        <time>2021-04-23T13:54:52.690Z</time>
      </trkpt>
      <trkpt lat="45.6649" lon="4.3463">
        <ele>646.775277</ele>
        <time>2021-04-23T13:54:54.723Z</time>
      </trkpt>
      <trkpt lat="45.66497" lon="4.34645">
        <ele>647.219501</ele>
        <time>2021-04-23T13:54:56.702Z</time>
      </trkpt>
      <trkpt lat="45.66503" lon="4.34658">
        <ele>647.60197</ele>
        <time>2021-04-23T13:54:58.713Z</time>
      </trkpt>
      <trkpt lat="45.66508" lon="4.3467">
        <ele>647.937618</ele>
        <time>2021-04-23T13:55:00.707Z</time>
      </trkpt>
      <trkpt lat="45.66515" lon="4.34686">
        <ele>648.398936</ele>
        <time>2021-04-23T13:55:03.725Z</time>
      </trkpt>
      <trkpt lat="45.6652" lon="4.347">
        <ele>648.782885</ele>
        <time>2021-04-23T13:55:06.716Z</time>
      </trkpt>
      <trkpt lat="45.66525" lon="4.34711">
        <ele>649.112018</ele>
        <time>2021-04-23T13:55:09.716Z</time>
      </trkpt>
      <trkpt lat="45.66531" lon="4.34724">
        <ele>649.554967</ele>
        <time>2021-04-23T13:55:13.707Z</time>
      </trkpt>
      <trkpt lat="45.66537" lon="4.34738">
        <ele>650.363334</ele>
        <time>2021-04-23T13:55:18.726Z</time>
      </trkpt>
      <trkpt lat="45.66545" lon="4.34747">
        <ele>651.114177</ele>
        <time>2021-04-23T13:55:22.714Z</time>
      </trkpt>
      <trkpt lat="45.66552" lon="4.34758">
        <ele>651.901568</ele>
        <time>2021-04-23T13:55:26.721Z</time>
      </trkpt>
      <trkpt lat="45.66559" lon="4.34768">
        <ele>652.63159</ele>
        <time>2021-04-23T13:55:30.699Z</time>
      </trkpt>
      <trkpt lat="45.66567" lon="4.34778">
        <ele>653.425515</ele>
        <time>2021-04-23T13:55:34.723Z</time>
      </trkpt>
      <trkpt lat="45.66574" lon="4.34787">
        <ele>654.127438</ele>
        <time>2021-04-23T13:55:38.694Z</time>
      </trkpt>
      <trkpt lat="45.66583" lon="4.34795">
        <ele>654.898196</ele>
        <time>2021-04-23T13:55:42.688Z</time>
      </trkpt>
      <trkpt lat="45.66592" lon="4.34804">
        <ele>655.715446</ele>
        <time>2021-04-23T13:55:46.705Z</time>
      </trkpt>
      <trkpt lat="45.66602" lon="4.3481">
        <ele>656.464277</ele>
        <time>2021-04-23T13:55:50.693Z</time>
      </trkpt>
      <trkpt lat="45.66611" lon="4.34817">
        <ele>657.289145</ele>
        <time>2021-04-23T13:55:55.698Z</time>
      </trkpt>
      <trkpt lat="45.66621" lon="4.34824">
        <ele>658.071317</ele>
        <time>2021-04-23T13:55:59.699Z</time>
      </trkpt>
      <trkpt lat="45.66631" lon="4.3483">
        <ele>658.847044</ele>
        <time>2021-04-23T13:56:03.702Z</time>
      </trkpt>
      <trkpt lat="45.66641" lon="4.34835">
        <ele>659.641515</ele>
        <time>2021-04-23T13:56:07.696Z</time>
      </trkpt>
      <trkpt lat="45.6665" lon="4.34843">
        <ele>660.452969</ele>
        <time>2021-04-23T13:56:11.711Z</time>
      </trkpt>
      <trkpt lat="45.66659" lon="4.34851">
        <ele>661.203061</ele>
        <time>2021-04-23T13:56:14.707Z</time>
      </trkpt>
      <trkpt lat="45.66669" lon="4.3486">
        <ele>662.063033</ele>
        <time>2021-04-23T13:56:17.719Z</time>
      </trkpt>
      <trkpt lat="45.66679" lon="4.34871">
        <ele>662.895936</ele>
        <time>2021-04-23T13:56:20.716Z</time>
      </trkpt>
      <trkpt lat="45.66689" lon="4.34884">
        <ele>663.481205</ele>
        <time>2021-04-23T13:56:23.738Z</time>
      </trkpt>
      <trkpt lat="45.66698" lon="4.34897">
        <ele>664.032814</ele>
        <time>2021-04-23T13:56:26.723Z</time>
      </trkpt>
      <trkpt lat="45.66708" lon="4.34907">
        <ele>664.587318</ele>
        <time>2021-04-23T13:56:29.689Z</time>
      </trkpt>
      <trkpt lat="45.66718" lon="4.34921">
        <ele>665.167226</ele>
        <time>2021-04-23T13:56:32.705Z</time>
      </trkpt>
      <trkpt lat="45.66727" lon="4.34934">
        <ele>665.74425</ele>
        <time>2021-04-23T13:56:35.718Z</time>
      </trkpt>
      <trkpt lat="45.66737" lon="4.34947">
        <ele>666.316924</ele>
        <time>2021-04-23T13:56:38.708Z</time>
      </trkpt>
      <trkpt lat="45.66744" lon="4.34956">
        <ele>666.710889</ele>
        <time>2021-04-23T13:56:40.721Z</time>
      </trkpt>
      <trkpt lat="45.66753" lon="4.3497">
        <ele>667.296676</ele>
        <time>2021-04-23T13:56:43.711Z</time>
      </trkpt>
      <trkpt lat="45.66762" lon="4.34984">
        <ele>667.867616</ele>
        <time>2021-04-23T13:56:46.714Z</time>
      </trkpt>
      <trkpt lat="45.66768" lon="4.34993">
        <ele>668.264824</ele>
        <time>2021-04-23T13:56:48.706Z</time>
      </trkpt>
      <trkpt lat="45.66777" lon="4.35006">
        <ele>668.824002</ele>
        <time>2021-04-23T13:56:51.708Z</time>
      </trkpt>
      <trkpt lat="45.66785" lon="4.35021">
        <ele>669.387981</ele>
        <time>2021-04-23T13:56:54.708Z</time>
      </trkpt>
      <trkpt lat="45.66793" lon="4.35034">
        <ele>669.90858</ele>
        <time>2021-04-23T13:56:57.717Z</time>
      </trkpt>
      <trkpt lat="45.66799" lon="4.35044">
        <ele>670.322944</ele>
        <time>2021-04-23T13:57:00.756Z</time>
      </trkpt>
      <trkpt lat="45.66806" lon="4.35085">
        <ele>670.826119</ele>
        <time>2021-04-23T13:57:55.733Z</time>
      </trkpt>
      <trkpt lat="45.6681" lon="4.35098">
        <ele>670.944944</ele>
        <time>2021-04-23T13:57:58.699Z</time>
      </trkpt>
      <trkpt lat="45.66816" lon="4.35114">
        <ele>671.087523</ele>
        <time>2021-04-23T13:58:01.688Z</time>
      </trkpt>
      <trkpt lat="45.66819" lon="4.35129">
        <ele>671.218308</ele>
        <time>2021-04-23T13:58:04.694Z</time>
      </trkpt>
      <trkpt lat="45.66821" lon="4.35143">
        <ele>671.332803</ele>
        <time>2021-04-23T13:58:07.228Z</time>
      </trkpt>
      <trkpt lat="45.66824" lon="4.35159">
        <ele>671.467069</ele>
        <time>2021-04-23T13:58:10.197Z</time>
      </trkpt>
      <trkpt lat="45.66827" lon="4.35175">
        <ele>671.598179</ele>
        <time>2021-04-23T13:58:13.229Z</time>
      </trkpt>
      <trkpt lat="45.66829" lon="4.35189">
        <ele>671.713665</ele>
        <time>2021-04-23T13:58:16.194Z</time>
      </trkpt>
      <trkpt lat="45.66833" lon="4.35201">
        <ele>671.823614</ele>
        <time>2021-04-23T13:58:20.043Z</time>
      </trkpt>
      <trkpt lat="45.66835" lon="4.35215">
        <ele>671.943329</ele>
        <time>2021-04-23T13:58:23.037Z</time>
      </trkpt>
      <trkpt lat="45.66838" lon="4.35232">
        <ele>672.082138</ele>
        <time>2021-04-23T13:58:27.098Z</time>
      </trkpt>
      <trkpt lat="45.6684" lon="4.35246">
        <ele>672.198874</ele>
        <time>2021-04-23T13:58:30.045Z</time>
      </trkpt>
      <trkpt lat="45.66844" lon="4.35262">
        <ele>672.336837</ele>
        <time>2021-04-23T13:58:34.048Z</time>
      </trkpt>
      <trkpt lat="45.66847" lon="4.35275">
        <ele>672.446343</ele>
        <time>2021-04-23T13:58:37.062Z</time>
      </trkpt>
      <trkpt lat="45.66851" lon="4.35287">
        <ele>672.559905</ele>
        <time>2021-04-23T13:58:40.058Z</time>
      </trkpt>
      <trkpt lat="45.66854" lon="4.353">
        <ele>672.637674</ele>
        <time>2021-04-23T13:58:44.052Z</time>
      </trkpt>
      <trkpt lat="45.66857" lon="4.35314">
        <ele>672.659401</ele>
        <time>2021-04-23T13:58:48.052Z</time>
      </trkpt>
      <trkpt lat="45.6686" lon="4.35327">
        <ele>672.677606</ele>
        <time>2021-04-23T13:58:52.537Z</time>
      </trkpt>
      <trkpt lat="45.66864" lon="4.35342">
        <ele>672.699682</ele>
        <time>2021-04-23T13:58:57.069Z</time>
      </trkpt>
      <trkpt lat="45.66867" lon="4.35357">
        <ele>672.72085</ele>
        <time>2021-04-23T13:59:03.067Z</time>
      </trkpt>
      <trkpt lat="45.66872" lon="4.35368">
        <ele>672.74034</ele>
        <time>2021-04-23T13:59:07.069Z</time>
      </trkpt>
      <trkpt lat="45.66875" lon="4.35381">
        <ele>672.759031</ele>
        <time>2021-04-23T13:59:11.056Z</time>
      </trkpt>
      <trkpt lat="45.66877" lon="4.35395">
        <ele>672.778871</ele>
        <time>2021-04-23T13:59:16.067Z</time>
      </trkpt>
      <trkpt lat="45.66878" lon="4.35408">
        <ele>672.796972</ele>
        <time>2021-04-23T13:59:21.051Z</time>
      </trkpt>
      <trkpt lat="45.66881" lon="4.35421">
        <ele>672.815643</ele>
        <time>2021-04-23T13:59:26.044Z</time>
      </trkpt>
      <trkpt lat="45.66883" lon="4.35435">
        <ele>672.834448</ele>
        <time>2021-04-23T13:59:30.062Z</time>
      </trkpt>
      <trkpt lat="45.66884" lon="4.35449">
        <ele>672.854494</ele>
        <time>2021-04-23T13:59:35.058Z</time>
      </trkpt>
      <trkpt lat="45.66884" lon="4.35463">
        <ele>672.874139</ele>
        <time>2021-04-23T13:59:41.088Z</time>
      </trkpt>
      <trkpt lat="45.66884" lon="4.35477">
        <ele>672.892663</ele>
        <time>2021-04-23T13:59:45.066Z</time>
      </trkpt>
      <trkpt lat="45.66886" lon="4.3549">
        <ele>672.912204</ele>
        <time>2021-04-23T13:59:49.055Z</time>
      </trkpt>
      <trkpt lat="45.66891" lon="4.35505">
        <ele>672.934135</ele>
        <time>2021-04-23T13:59:53.435Z</time>
      </trkpt>
      <trkpt lat="45.66895" lon="4.3552">
        <ele>672.956953</ele>
        <time>2021-04-23T13:59:57.468Z</time>
      </trkpt>
      <trkpt lat="45.66899" lon="4.35533">
        <ele>672.975973</ele>
        <time>2021-04-23T14:00:00.447Z</time>
      </trkpt>
      <trkpt lat="45.66902" lon="4.35547">
        <ele>673.0164</ele>
        <time>2021-04-23T14:00:03.466Z</time>
      </trkpt>
      <trkpt lat="45.66908" lon="4.35565">
        <ele>673.108147</ele>
        <time>2021-04-23T14:00:06.437Z</time>
      </trkpt>
      <trkpt lat="45.66912" lon="4.35584">
        <ele>673.199589</ele>
        <time>2021-04-23T14:00:09.462Z</time>
      </trkpt>
      <trkpt lat="45.66915" lon="4.35598">
        <ele>673.262838</ele>
        <time>2021-04-23T14:00:11.457Z</time>
      </trkpt>
      <trkpt lat="45.66916" lon="4.35611">
        <ele>673.324758</ele>
        <time>2021-04-23T14:00:13.468Z</time>
      </trkpt>
      <trkpt lat="45.6692" lon="4.35628">
        <ele>673.406361</ele>
        <time>2021-04-23T14:00:16.469Z</time>
      </trkpt>
      <trkpt lat="45.66922" lon="4.35641">
        <ele>673.468082</ele>
        <time>2021-04-23T14:00:18.462Z</time>
      </trkpt>
      <trkpt lat="45.66924" lon="4.35655">
        <ele>673.533352</ele>
        <time>2021-04-23T14:00:20.465Z</time>
      </trkpt>
      <trkpt lat="45.66926" lon="4.35669">
        <ele>673.598771</ele>
        <time>2021-04-23T14:00:22.469Z</time>
      </trkpt>
      <trkpt lat="45.66929" lon="4.35687">
        <ele>673.681782</ele>
        <time>2021-04-23T14:00:25.456Z</time>
      </trkpt>
      <trkpt lat="45.66934" lon="4.35703">
        <ele>673.7662</ele>
        <time>2021-04-23T14:00:28.474Z</time>
      </trkpt>
      <trkpt lat="45.6694" lon="4.35714">
        <ele>673.826638</ele>
        <time>2021-04-23T14:00:30.447Z</time>
      </trkpt>
      <trkpt lat="45.66945" lon="4.35726">
        <ele>673.892333</ele>
        <time>2021-04-23T14:00:32.460Z</time>
      </trkpt>
      <trkpt lat="45.66953" lon="4.35741">
        <ele>673.978681</ele>
        <time>2021-04-23T14:00:35.438Z</time>
      </trkpt>
      <trkpt lat="45.66959" lon="4.35754">
        <ele>674.04701</ele>
        <time>2021-04-23T14:00:37.470Z</time>
      </trkpt>
      <trkpt lat="45.66967" lon="4.35765">
        <ele>674.11989</ele>
        <time>2021-04-23T14:00:40.484Z</time>
      </trkpt>
      <trkpt lat="45.66974" lon="4.35774">
        <ele>674.295691</ele>
        <time>2021-04-23T14:00:42.451Z</time>
      </trkpt>
      <trkpt lat="45.66981" lon="4.35788">
        <ele>675.055697</ele>
        <time>2021-04-23T14:00:45.211Z</time>
      </trkpt>
      <trkpt lat="45.66988" lon="4.35803">
        <ele>675.81881</ele>
        <time>2021-04-23T14:00:48.208Z</time>
      </trkpt>
      <trkpt lat="45.66992" lon="4.35819">
        <ele>676.566406</ele>
        <time>2021-04-23T14:00:51.211Z</time>
      </trkpt>
      <trkpt lat="45.66993" lon="4.35833">
        <ele>677.161192</ele>
        <time>2021-04-23T14:00:54.208Z</time>
      </trkpt>
      <trkpt lat="45.66993" lon="4.35847">
        <ele>677.750456</ele>
        <time>2021-04-23T14:00:57.246Z</time>
      </trkpt>
      <trkpt lat="45.66994" lon="4.3586">
        <ele>678.329859</ele>
        <time>2021-04-23T14:01:02.258Z</time>
      </trkpt>
      <trkpt lat="45.66989" lon="4.35848">
        <ele>678.915811</ele>
        <time>2021-04-23T14:01:30.208Z</time>
      </trkpt>
      <trkpt lat="45.66992" lon="4.35881">
        <ele>680.344574</ele>
        <time>2021-04-23T14:03:18.382Z</time>
      </trkpt>
      <trkpt lat="45.66995" lon="4.35903">
        <ele>681.283225</ele>
        <time>2021-04-23T14:03:20.888Z</time>
      </trkpt>
      <trkpt lat="45.66997" lon="4.35916">
        <ele>681.841663</ele>
        <time>2021-04-23T14:03:21.341Z</time>
      </trkpt>
      <trkpt lat="45.67002" lon="4.35937">
        <ele>682.785011</ele>
        <time>2021-04-23T14:03:23.343Z</time>
      </trkpt>
      <trkpt lat="45.67009" lon="4.35958">
        <ele>683.790892</ele>
        <time>2021-04-23T14:03:25.374Z</time>
      </trkpt>
      <trkpt lat="45.67015" lon="4.35976">
        <ele>684.67172</ele>
        <time>2021-04-23T14:03:27.371Z</time>
      </trkpt>
      <trkpt lat="45.67021" lon="4.3599">
        <ele>685.138835</ele>
        <time>2021-04-23T14:03:29.359Z</time>
      </trkpt>
      <trkpt lat="45.67027" lon="4.36005">
        <ele>685.091098</ele>
        <time>2021-04-23T14:03:32.362Z</time>
      </trkpt>
      <trkpt lat="45.67031" lon="4.3602">
        <ele>685.045846</ele>
        <time>2021-04-23T14:03:36.367Z</time>
      </trkpt>
      <trkpt lat="45.67035" lon="4.36032">
        <ele>685.006383</ele>
        <time>2021-04-23T14:03:40.358Z</time>
      </trkpt>
      <trkpt lat="45.67039" lon="4.36046">
        <ele>684.964096</ele>
        <time>2021-04-23T14:03:46.350Z</time>
      </trkpt>
      <trkpt lat="45.67043" lon="4.36059">
        <ele>684.923523</ele>
        <time>2021-04-23T14:03:54.346Z</time>
      </trkpt>
      <trkpt lat="45.6705" lon="4.36073">
        <ele>684.876303</ele>
        <time>2021-04-23T14:03:58.360Z</time>
      </trkpt>
      <trkpt lat="45.67058" lon="4.36088">
        <ele>684.820603</ele>
        <time>2021-04-23T14:04:01.353Z</time>
      </trkpt>
      <trkpt lat="45.67065" lon="4.36107">
        <ele>684.761713</ele>
        <time>2021-04-23T14:04:03.357Z</time>
      </trkpt>
      <trkpt lat="45.6707" lon="4.36122">
        <ele>684.714666</ele>
        <time>2021-04-23T14:04:05.367Z</time>
      </trkpt>
      <trkpt lat="45.67074" lon="4.36137">
        <ele>684.669201</ele>
        <time>2021-04-23T14:04:07.345Z</time>
      </trkpt>
      <trkpt lat="45.67074" lon="4.36153">
        <ele>684.62444</ele>
        <time>2021-04-23T14:04:09.359Z</time>
      </trkpt>
      <trkpt lat="45.67074" lon="4.36166">
        <ele>684.587274</ele>
        <time>2021-04-23T14:04:11.368Z</time>
      </trkpt>
      <trkpt lat="45.67074" lon="4.36179">
        <ele>684.548694</ele>
        <time>2021-04-23T14:04:13.360Z</time>
      </trkpt>
      <trkpt lat="45.67074" lon="4.36193">
        <ele>684.509033</ele>
        <time>2021-04-23T14:04:15.379Z</time>
      </trkpt>
      <trkpt lat="45.67073" lon="4.36207">
        <ele>684.470087</ele>
        <time>2021-04-23T14:04:17.347Z</time>
      </trkpt>
      <trkpt lat="45.67072" lon="4.36222">
        <ele>684.426341</ele>
        <time>2021-04-23T14:04:19.366Z</time>
      </trkpt>
      <trkpt lat="45.67071" lon="4.36243">
        <ele>684.304972</ele>
        <time>2021-04-23T14:04:21.360Z</time>
      </trkpt>
      <trkpt lat="45.67069" lon="4.36266">
        <ele>684.16982</ele>
        <time>2021-04-23T14:04:23.385Z</time>
      </trkpt>
      <trkpt lat="45.67072" lon="4.36289">
        <ele>684.0319</ele>
        <time>2021-04-23T14:04:25.335Z</time>
      </trkpt>
      <trkpt lat="45.67075" lon="4.36301">
        <ele>683.954911</ele>
        <time>2021-04-23T14:04:26.367Z</time>
      </trkpt>
      <trkpt lat="45.67079" lon="4.36314">
        <ele>683.871551</ele>
        <time>2021-04-23T14:04:27.345Z</time>
      </trkpt>
      <trkpt lat="45.67082" lon="4.36328">
        <ele>683.782808</ele>
        <time>2021-04-23T14:04:28.346Z</time>
      </trkpt>
      <trkpt lat="45.67085" lon="4.36343">
        <ele>683.695959</ele>
        <time>2021-04-23T14:04:29.350Z</time>
      </trkpt>
      <trkpt lat="45.67087" lon="4.36357">
        <ele>683.608932</ele>
        <time>2021-04-23T14:04:30.356Z</time>
      </trkpt>
      <trkpt lat="45.67088" lon="4.36372">
        <ele>683.521643</ele>
        <time>2021-04-23T14:04:31.347Z</time>
      </trkpt>
      <trkpt lat="45.67091" lon="4.36385">
        <ele>683.438814</ele>
        <time>2021-04-23T14:04:32.354Z</time>
      </trkpt>
      <trkpt lat="45.67093" lon="4.36398">
        <ele>683.357001</ele>
        <time>2021-04-23T14:04:33.356Z</time>
      </trkpt>
      <trkpt lat="45.67096" lon="4.36412">
        <ele>683.269261</ele>
        <time>2021-04-23T14:04:34.355Z</time>
      </trkpt>
      <trkpt lat="45.67098" lon="4.36426">
        <ele>683.188972</ele>
        <time>2021-04-23T14:04:35.348Z</time>
      </trkpt>
      <trkpt lat="45.671" lon="4.36439">
        <ele>683.111898</ele>
        <time>2021-04-23T14:04:36.343Z</time>
      </trkpt>
      <trkpt lat="45.67101" lon="4.36452">
        <ele>683.032718</ele>
        <time>2021-04-23T14:04:37.352Z</time>
      </trkpt>
      <trkpt lat="45.67105" lon="4.36476">
        <ele>682.838568</ele>
        <time>2021-04-23T14:04:39.826Z</time>
      </trkpt>
      <trkpt lat="45.67109" lon="4.36499">
        <ele>682.26058</ele>
        <time>2021-04-23T14:04:41.829Z</time>
      </trkpt>
      <trkpt lat="45.67112" lon="4.3652">
        <ele>681.72402</ele>
        <time>2021-04-23T14:04:43.829Z</time>
      </trkpt>
      <trkpt lat="45.67114" lon="4.36545">
        <ele>681.104297</ele>
        <time>2021-04-23T14:04:45.834Z</time>
      </trkpt>
      <trkpt lat="45.67115" lon="4.36569">
        <ele>680.520826</ele>
        <time>2021-04-23T14:04:47.829Z</time>
      </trkpt>
      <trkpt lat="45.67117" lon="4.36591">
        <ele>679.972723</ele>
        <time>2021-04-23T14:04:49.836Z</time>
      </trkpt>
      <trkpt lat="45.67119" lon="4.36614">
        <ele>679.389832</ele>
        <time>2021-04-23T14:04:51.852Z</time>
      </trkpt>
      <trkpt lat="45.67122" lon="4.36637">
        <ele>678.81861</ele>
        <time>2021-04-23T14:04:53.852Z</time>
      </trkpt>
      <trkpt lat="45.67125" lon="4.36659">
        <ele>678.259607</ele>
        <time>2021-04-23T14:04:55.877Z</time>
      </trkpt>
      <trkpt lat="45.67127" lon="4.36682">
        <ele>677.696837</ele>
        <time>2021-04-23T14:04:57.855Z</time>
      </trkpt>
      <trkpt lat="45.6713" lon="4.36703">
        <ele>677.152317</ele>
        <time>2021-04-23T14:04:59.843Z</time>
      </trkpt>
      <trkpt lat="45.67133" lon="4.36724">
        <ele>676.635346</ele>
        <time>2021-04-23T14:05:01.846Z</time>
      </trkpt>
      <trkpt lat="45.67135" lon="4.36744">
        <ele>676.178271</ele>
        <time>2021-04-23T14:05:03.856Z</time>
      </trkpt>
      <trkpt lat="45.67138" lon="4.36763">
        <ele>675.755471</ele>
        <time>2021-04-23T14:05:05.856Z</time>
      </trkpt>
      <trkpt lat="45.67141" lon="4.36782">
        <ele>675.335459</ele>
        <time>2021-04-23T14:05:07.850Z</time>
      </trkpt>
      <trkpt lat="45.67144" lon="4.36799">
        <ele>674.961884</ele>
        <time>2021-04-23T14:05:09.871Z</time>
      </trkpt>
      <trkpt lat="45.67146" lon="4.36816">
        <ele>674.593819</ele>
        <time>2021-04-23T14:05:11.852Z</time>
      </trkpt>
      <trkpt lat="45.67149" lon="4.36833">
        <ele>674.219408</ele>
        <time>2021-04-23T14:05:13.852Z</time>
      </trkpt>
      <trkpt lat="45.67152" lon="4.36849">
        <ele>673.85264</ele>
        <time>2021-04-23T14:05:15.849Z</time>
      </trkpt>
      <trkpt lat="45.67154" lon="4.36865">
        <ele>673.504227</ele>
        <time>2021-04-23T14:05:17.855Z</time>
      </trkpt>
      <trkpt lat="45.67158" lon="4.3688">
        <ele>673.159798</ele>
        <time>2021-04-23T14:05:19.855Z</time>
      </trkpt>
      <trkpt lat="45.67162" lon="4.36893">
        <ele>672.851894</ele>
        <time>2021-04-23T14:05:21.841Z</time>
      </trkpt>
      <trkpt lat="45.67165" lon="4.36905">
        <ele>672.571489</ele>
        <time>2021-04-23T14:05:23.843Z</time>
      </trkpt>
      <trkpt lat="45.67171" lon="4.36921">
        <ele>672.176528</ele>
        <time>2021-04-23T14:05:26.833Z</time>
      </trkpt>
      <trkpt lat="45.67177" lon="4.36938">
        <ele>671.773935</ele>
        <time>2021-04-23T14:05:29.860Z</time>
      </trkpt>
      <trkpt lat="45.67183" lon="4.36954">
        <ele>671.365029</ele>
        <time>2021-04-23T14:05:32.842Z</time>
      </trkpt>
      <trkpt lat="45.67187" lon="4.36972">
        <ele>670.975742</ele>
        <time>2021-04-23T14:05:35.834Z</time>
      </trkpt>
      <trkpt lat="45.67191" lon="4.36989">
        <ele>670.90256</ele>
        <time>2021-04-23T14:05:38.829Z</time>
      </trkpt>
      <trkpt lat="45.67194" lon="4.37007">
        <ele>670.830858</ele>
        <time>2021-04-23T14:05:41.834Z</time>
      </trkpt>
      <trkpt lat="45.67198" lon="4.37019">
        <ele>670.778628</ele>
        <time>2021-04-23T14:05:43.833Z</time>
      </trkpt>
      <trkpt lat="45.67201" lon="4.37036">
        <ele>670.707929</ele>
        <time>2021-04-23T14:05:46.865Z</time>
      </trkpt>
      <trkpt lat="45.672" lon="4.37053">
        <ele>670.642109</ele>
        <time>2021-04-23T14:05:49.850Z</time>
      </trkpt>
      <trkpt lat="45.67195" lon="4.37066">
        <ele>670.582434</ele>
        <time>2021-04-23T14:05:53.872Z</time>
      </trkpt>
      <trkpt lat="45.67191" lon="4.37078">
        <ele>670.530737</ele>
        <time>2021-04-23T14:05:55.847Z</time>
      </trkpt>
      <trkpt lat="45.67186" lon="4.37089">
        <ele>670.479454</ele>
        <time>2021-04-23T14:05:57.837Z</time>
      </trkpt>
      <trkpt lat="45.67182" lon="4.37103">
        <ele>670.418592</ele>
        <time>2021-04-23T14:05:59.865Z</time>
      </trkpt>
      <trkpt lat="45.67177" lon="4.37118">
        <ele>670.35243</ele>
        <time>2021-04-23T14:06:01.843Z</time>
      </trkpt>
      <trkpt lat="45.67173" lon="4.37134">
        <ele>670.287708</ele>
        <time>2021-04-23T14:06:03.851Z</time>
      </trkpt>
      <trkpt lat="45.67169" lon="4.37148">
        <ele>670.225267</ele>
        <time>2021-04-23T14:06:05.872Z</time>
      </trkpt>
      <trkpt lat="45.67162" lon="4.37164">
        <ele>670.152976</ele>
        <time>2021-04-23T14:06:07.834Z</time>
      </trkpt>
      <trkpt lat="45.67158" lon="4.37177">
        <ele>670.096359</ele>
        <time>2021-04-23T14:06:09.887Z</time>
      </trkpt>
      <trkpt lat="45.67154" lon="4.3719">
        <ele>670.039282</ele>
        <time>2021-04-23T14:06:11.842Z</time>
      </trkpt>
      <trkpt lat="45.67147" lon="4.37205">
        <ele>669.968993</ele>
        <time>2021-04-23T14:06:13.850Z</time>
      </trkpt>
      <trkpt lat="45.67141" lon="4.37216">
        <ele>669.797499</ele>
        <time>2021-04-23T14:06:15.855Z</time>
      </trkpt>
      <trkpt lat="45.67135" lon="4.37228">
        <ele>669.59551</ele>
        <time>2021-04-23T14:06:17.887Z</time>
      </trkpt>
      <trkpt lat="45.67129" lon="4.37242">
        <ele>669.353768</ele>
        <time>2021-04-23T14:06:19.838Z</time>
      </trkpt>
      <trkpt lat="45.67122" lon="4.37256">
        <ele>669.111053</ele>
        <time>2021-04-23T14:06:22.002Z</time>
      </trkpt>
      <trkpt lat="45.67116" lon="4.3727">
        <ele>668.880997</ele>
        <time>2021-04-23T14:06:23.985Z</time>
      </trkpt>
      <trkpt lat="45.67108" lon="4.37287">
        <ele>668.585762</ele>
        <time>2021-04-23T14:06:25.991Z</time>
      </trkpt>
      <trkpt lat="45.671" lon="4.37302">
        <ele>668.313732</ele>
        <time>2021-04-23T14:06:28.014Z</time>
      </trkpt>
      <trkpt lat="45.67092" lon="4.37318">
        <ele>668.032509</ele>
        <time>2021-04-23T14:06:30.006Z</time>
      </trkpt>
      <trkpt lat="45.67083" lon="4.37333">
        <ele>667.756637</ele>
        <time>2021-04-23T14:06:32.018Z</time>
      </trkpt>
      <trkpt lat="45.67077" lon="4.37347">
        <ele>667.511588</ele>
        <time>2021-04-23T14:06:34.027Z</time>
      </trkpt>
      <trkpt lat="45.6707" lon="4.3736">
        <ele>667.288708</ele>
        <time>2021-04-23T14:06:35.999Z</time>
      </trkpt>
      <trkpt lat="45.67065" lon="4.37372">
        <ele>667.079789</ele>
        <time>2021-04-23T14:06:38.003Z</time>
      </trkpt>
      <trkpt lat="45.67057" lon="4.37386">
        <ele>666.832379</ele>
        <time>2021-04-23T14:06:41.004Z</time>
      </trkpt>
      <trkpt lat="45.67051" lon="4.37397">
        <ele>666.629469</ele>
        <time>2021-04-23T14:06:43.006Z</time>
      </trkpt>
      <trkpt lat="45.67044" lon="4.37409">
        <ele>666.411521</ele>
        <time>2021-04-23T14:06:45.006Z</time>
      </trkpt>
      <trkpt lat="45.67038" lon="4.3742">
        <ele>666.187484</ele>
        <time>2021-04-23T14:06:47.017Z</time>
      </trkpt>
      <trkpt lat="45.67032" lon="4.3743">
        <ele>665.905842</ele>
        <time>2021-04-23T14:06:49.008Z</time>
      </trkpt>
      <trkpt lat="45.67023" lon="4.37439">
        <ele>665.598475</ele>
        <time>2021-04-23T14:06:51.025Z</time>
      </trkpt>
      <trkpt lat="45.67014" lon="4.37448">
        <ele>665.288851</ele>
        <time>2021-04-23T14:06:53.009Z</time>
      </trkpt>
      <trkpt lat="45.67005" lon="4.3746">
        <ele>664.921676</ele>
        <time>2021-04-23T14:06:55.285Z</time>
      </trkpt>
      <trkpt lat="45.66996" lon="4.37468">
        <ele>664.62138</ele>
        <time>2021-04-23T14:06:57.003Z</time>
      </trkpt>
      <trkpt lat="45.66987" lon="4.37477">
        <ele>664.317565</ele>
        <time>2021-04-23T14:06:59.007Z</time>
      </trkpt>
      <trkpt lat="45.66979" lon="4.37485">
        <ele>664.024359</ele>
        <time>2021-04-23T14:07:01.007Z</time>
      </trkpt>
      <trkpt lat="45.66969" lon="4.37496">
        <ele>663.657213</ele>
        <time>2021-04-23T14:07:03.002Z</time>
      </trkpt>
      <trkpt lat="45.6696" lon="4.37505">
        <ele>663.342472</ele>
        <time>2021-04-23T14:07:05.014Z</time>
      </trkpt>
      <trkpt lat="45.66952" lon="4.37513">
        <ele>663.05163</ele>
        <time>2021-04-23T14:07:07.013Z</time>
      </trkpt>
      <trkpt lat="45.66942" lon="4.3752">
        <ele>662.744737</ele>
        <time>2021-04-23T14:07:09.037Z</time>
      </trkpt>
      <trkpt lat="45.66931" lon="4.37528">
        <ele>662.38985</ele>
        <time>2021-04-23T14:07:11.014Z</time>
      </trkpt>
      <trkpt lat="45.6692" lon="4.37533">
        <ele>662.05148</ele>
        <time>2021-04-23T14:07:13.021Z</time>
      </trkpt>
      <trkpt lat="45.66907" lon="4.37535">
        <ele>661.673444</ele>
        <time>2021-04-23T14:07:15.039Z</time>
      </trkpt>
      <trkpt lat="45.66892" lon="4.3754">
        <ele>661.242808</ele>
        <time>2021-04-23T14:07:17.014Z</time>
      </trkpt>
      <trkpt lat="45.66878" lon="4.37549">
        <ele>660.43128</ele>
        <time>2021-04-23T14:07:19.013Z</time>
      </trkpt>
      <trkpt lat="45.66863" lon="4.37558">
        <ele>659.469944</ele>
        <time>2021-04-23T14:07:21.000Z</time>
      </trkpt>
      <trkpt lat="45.66851" lon="4.37565">
        <ele>658.684083</ele>
        <time>2021-04-23T14:07:22.991Z</time>
      </trkpt>
      <trkpt lat="45.66841" lon="4.37569">
        <ele>658.003812</ele>
        <time>2021-04-23T14:07:25.008Z</time>
      </trkpt>
      <trkpt lat="45.66829" lon="4.37578">
        <ele>657.227002</ele>
        <time>2021-04-23T14:07:28.014Z</time>
      </trkpt>
      <trkpt lat="45.66821" lon="4.37587">
        <ele>656.599973</ele>
        <time>2021-04-23T14:07:30.002Z</time>
      </trkpt>
      <trkpt lat="45.66812" lon="4.37595">
        <ele>655.93485</ele>
        <time>2021-04-23T14:07:32.014Z</time>
      </trkpt>
      <trkpt lat="45.66803" lon="4.37606">
        <ele>655.220978</ele>
        <time>2021-04-23T14:07:33.995Z</time>
      </trkpt>
      <trkpt lat="45.66796" lon="4.37617">
        <ele>654.577553</ele>
        <time>2021-04-23T14:07:36.023Z</time>
      </trkpt>
      <trkpt lat="45.6679" lon="4.37629">
        <ele>653.988025</ele>
        <time>2021-04-23T14:07:38.008Z</time>
      </trkpt>
      <trkpt lat="45.66783" lon="4.37642">
        <ele>653.254966</ele>
        <time>2021-04-23T14:07:40.026Z</time>
      </trkpt>
      <trkpt lat="45.66777" lon="4.37657">
        <ele>652.513958</ele>
        <time>2021-04-23T14:07:42.032Z</time>
      </trkpt>
      <trkpt lat="45.66771" lon="4.37674">
        <ele>651.718002</ele>
        <time>2021-04-23T14:07:43.997Z</time>
      </trkpt>
      <trkpt lat="45.66768" lon="4.3769">
        <ele>651.01703</ele>
        <time>2021-04-23T14:07:46.011Z</time>
      </trkpt>
      <trkpt lat="45.66767" lon="4.37706">
        <ele>650.342512</ele>
        <time>2021-04-23T14:07:48.017Z</time>
      </trkpt>
      <trkpt lat="45.66766" lon="4.37723">
        <ele>649.222673</ele>
        <time>2021-04-23T14:07:50.029Z</time>
      </trkpt>
      <trkpt lat="45.66765" lon="4.3774">
        <ele>648.023889</ele>
        <time>2021-04-23T14:07:52.019Z</time>
      </trkpt>
      <trkpt lat="45.66767" lon="4.37756">
        <ele>646.843576</ele>
        <time>2021-04-23T14:07:54.018Z</time>
      </trkpt>
      <trkpt lat="45.66773" lon="4.3777">
        <ele>645.692533</ele>
        <time>2021-04-23T14:07:56.025Z</time>
      </trkpt>
      <trkpt lat="45.66779" lon="4.37783">
        <ele>644.555834</ele>
        <time>2021-04-23T14:07:58.037Z</time>
      </trkpt>
      <trkpt lat="45.66787" lon="4.378">
        <ele>643.145385</ele>
        <time>2021-04-23T14:08:00.033Z</time>
      </trkpt>
      <trkpt lat="45.66794" lon="4.37813">
        <ele>641.957753</ele>
        <time>2021-04-23T14:08:01.996Z</time>
      </trkpt>
      <trkpt lat="45.66801" lon="4.37826">
        <ele>640.815463</ele>
        <time>2021-04-23T14:08:04.023Z</time>
      </trkpt>
      <trkpt lat="45.66808" lon="4.37839">
        <ele>639.637755</ele>
        <time>2021-04-23T14:08:06.008Z</time>
      </trkpt>
      <trkpt lat="45.66814" lon="4.37854">
        <ele>638.349065</ele>
        <time>2021-04-23T14:08:08.001Z</time>
      </trkpt>
      <trkpt lat="45.66818" lon="4.37868">
        <ele>637.31307</ele>
        <time>2021-04-23T14:08:10.012Z</time>
      </trkpt>
      <trkpt lat="45.66822" lon="4.3789">
        <ele>635.711118</ele>
        <time>2021-04-23T14:08:12.014Z</time>
      </trkpt>
      <trkpt lat="45.66826" lon="4.37908">
        <ele>634.338527</ele>
        <time>2021-04-23T14:08:13.998Z</time>
      </trkpt>
      <trkpt lat="45.66831" lon="4.37925">
        <ele>633.041519</ele>
        <time>2021-04-23T14:08:15.994Z</time>
      </trkpt>
      <trkpt lat="45.66838" lon="4.37943">
        <ele>631.329807</ele>
        <time>2021-04-23T14:08:18.013Z</time>
      </trkpt>
      <trkpt lat="45.66848" lon="4.3796">
        <ele>628.71895</ele>
        <time>2021-04-23T14:08:20.022Z</time>
      </trkpt>
      <trkpt lat="45.6686" lon="4.37974">
        <ele>626.161654</ele>
        <time>2021-04-23T14:08:21.996Z</time>
      </trkpt>
      <trkpt lat="45.66872" lon="4.37985">
        <ele>623.777762</ele>
        <time>2021-04-23T14:08:24.015Z</time>
      </trkpt>
      <trkpt lat="45.66883" lon="4.37996">
        <ele>621.63896</ele>
        <time>2021-04-23T14:08:25.999Z</time>
      </trkpt>
      <trkpt lat="45.66892" lon="4.38005">
        <ele>619.739349</ele>
        <time>2021-04-23T14:08:27.999Z</time>
      </trkpt>
      <trkpt lat="45.66896" lon="4.38018">
        <ele>618.120063</ele>
        <time>2021-04-23T14:08:30.002Z</time>
      </trkpt>
      <trkpt lat="45.66896" lon="4.38035">
        <ele>616.071829</ele>
        <time>2021-04-23T14:08:33.011Z</time>
      </trkpt>
      <trkpt lat="45.66895" lon="4.38056">
        <ele>613.626827</ele>
        <time>2021-04-23T14:08:36.039Z</time>
      </trkpt>
      <trkpt lat="45.66893" lon="4.38072">
        <ele>611.675344</ele>
        <time>2021-04-23T14:08:38.003Z</time>
      </trkpt>
      <trkpt lat="45.66891" lon="4.38089">
        <ele>609.672502</ele>
        <time>2021-04-23T14:08:40.001Z</time>
      </trkpt>
      <trkpt lat="45.6689" lon="4.38106">
        <ele>607.664692</ele>
        <time>2021-04-23T14:08:42.003Z</time>
      </trkpt>
      <trkpt lat="45.66888" lon="4.3812">
        <ele>606.0801</ele>
        <time>2021-04-23T14:08:44.010Z</time>
      </trkpt>
      <trkpt lat="45.66887" lon="4.38136">
        <ele>604.203204</ele>
        <time>2021-04-23T14:08:46.005Z</time>
      </trkpt>
      <trkpt lat="45.66885" lon="4.38154">
        <ele>602.064041</ele>
        <time>2021-04-23T14:08:48.025Z</time>
      </trkpt>
      <trkpt lat="45.66884" lon="4.38171">
        <ele>601.118414</ele>
        <time>2021-04-23T14:08:50.009Z</time>
      </trkpt>
      <trkpt lat="45.66882" lon="4.38186">
        <ele>600.456569</ele>
        <time>2021-04-23T14:08:52.025Z</time>
      </trkpt>
      <trkpt lat="45.66881" lon="4.38201">
        <ele>599.8417</ele>
        <time>2021-04-23T14:08:54.010Z</time>
      </trkpt>
      <trkpt lat="45.6688" lon="4.38215">
        <ele>599.251078</ele>
        <time>2021-04-23T14:08:56.004Z</time>
      </trkpt>
      <trkpt lat="45.66882" lon="4.38228">
        <ele>598.694013</ele>
        <time>2021-04-23T14:08:57.996Z</time>
      </trkpt>
      <trkpt lat="45.66892" lon="4.38238">
        <ele>597.934995</ele>
        <time>2021-04-23T14:09:00.024Z</time>
      </trkpt>
      <trkpt lat="45.66908" lon="4.38244">
        <ele>596.94371</ele>
        <time>2021-04-23T14:09:02.027Z</time>
      </trkpt>
      <trkpt lat="45.66924" lon="4.38251">
        <ele>595.94387</ele>
        <time>2021-04-23T14:09:04.042Z</time>
      </trkpt>
      <trkpt lat="45.66937" lon="4.38261">
        <ele>595.027696</ele>
        <time>2021-04-23T14:09:05.986Z</time>
      </trkpt>
      <trkpt lat="45.66948" lon="4.38274">
        <ele>594.151719</ele>
        <time>2021-04-23T14:09:08.000Z</time>
      </trkpt>
      <trkpt lat="45.66959" lon="4.38287">
        <ele>593.285757</ele>
        <time>2021-04-23T14:09:09.990Z</time>
      </trkpt>
      <trkpt lat="45.6697" lon="4.38298">
        <ele>592.504569</ele>
        <time>2021-04-23T14:09:12.032Z</time>
      </trkpt>
      <trkpt lat="45.6698" lon="4.38305">
        <ele>591.806289</ele>
        <time>2021-04-23T14:09:14.014Z</time>
      </trkpt>
      <trkpt lat="45.6699" lon="4.38309">
        <ele>591.173432</ele>
        <time>2021-04-23T14:09:16.003Z</time>
      </trkpt>
      <trkpt lat="45.67001" lon="4.38313">
        <ele>590.658828</ele>
        <time>2021-04-23T14:09:19.039Z</time>
      </trkpt>
      <trkpt lat="45.67014" lon="4.38319">
        <ele>590.272975</ele>
        <time>2021-04-23T14:09:22.015Z</time>
      </trkpt>
      <trkpt lat="45.67023" lon="4.38328">
        <ele>589.936289</ele>
        <time>2021-04-23T14:09:24.988Z</time>
      </trkpt>
      <trkpt lat="45.67032" lon="4.38338">
        <ele>589.594867</ele>
        <time>2021-04-23T14:09:28.001Z</time>
      </trkpt>
      <trkpt lat="45.67043" lon="4.38348">
        <ele>589.22925</ele>
        <time>2021-04-23T14:09:31.046Z</time>
      </trkpt>
      <trkpt lat="45.67052" lon="4.38356">
        <ele>588.890652</ele>
        <time>2021-04-23T14:09:34.015Z</time>
      </trkpt>
      <trkpt lat="45.67063" lon="4.38365">
        <ele>588.525843</ele>
        <time>2021-04-23T14:09:37.012Z</time>
      </trkpt>
      <trkpt lat="45.67075" lon="4.38373">
        <ele>588.13266</ele>
        <time>2021-04-23T14:09:40.009Z</time>
      </trkpt>
      <trkpt lat="45.67083" lon="4.38381">
        <ele>587.840926</ele>
        <time>2021-04-23T14:09:42.026Z</time>
      </trkpt>
      <trkpt lat="45.67093" lon="4.38387">
        <ele>587.517721</ele>
        <time>2021-04-23T14:09:44.001Z</time>
      </trkpt>
      <trkpt lat="45.67104" lon="4.38394">
        <ele>587.156347</ele>
        <time>2021-04-23T14:09:46.042Z</time>
      </trkpt>
      <trkpt lat="45.67117" lon="4.384">
        <ele>586.749074</ele>
        <time>2021-04-23T14:09:48.031Z</time>
      </trkpt>
      <trkpt lat="45.67131" lon="4.38407">
        <ele>586.317211</ele>
        <time>2021-04-23T14:09:50.032Z</time>
      </trkpt>
      <trkpt lat="45.67145" lon="4.38416">
        <ele>585.846406</ele>
        <time>2021-04-23T14:09:52.009Z</time>
      </trkpt>
      <trkpt lat="45.67159" lon="4.38423">
        <ele>585.446618</ele>
        <time>2021-04-23T14:09:54.004Z</time>
      </trkpt>
      <trkpt lat="45.67172" lon="4.3843">
        <ele>585.227962</ele>
        <time>2021-04-23T14:09:56.027Z</time>
      </trkpt>
      <trkpt lat="45.67183" lon="4.3844">
        <ele>585.021217</ele>
        <time>2021-04-23T14:09:58.025Z</time>
      </trkpt>
      <trkpt lat="45.67193" lon="4.38452">
        <ele>584.81353</ele>
        <time>2021-04-23T14:10:00.005Z</time>
      </trkpt>
      <trkpt lat="45.67202" lon="4.38462">
        <ele>584.635851</ele>
        <time>2021-04-23T14:10:01.991Z</time>
      </trkpt>
      <trkpt lat="45.67212" lon="4.38471">
        <ele>584.450616</ele>
        <time>2021-04-23T14:10:04.041Z</time>
      </trkpt>
      <trkpt lat="45.67222" lon="4.38477">
        <ele>584.281723</ele>
        <time>2021-04-23T14:10:06.018Z</time>
      </trkpt>
      <trkpt lat="45.67233" lon="4.38485">
        <ele>584.08539</ele>
        <time>2021-04-23T14:10:08.028Z</time>
      </trkpt>
      <trkpt lat="45.67244" lon="4.38492">
        <ele>583.89616</ele>
        <time>2021-04-23T14:10:10.005Z</time>
      </trkpt>
      <trkpt lat="45.67255" lon="4.385">
        <ele>583.708359</ele>
        <time>2021-04-23T14:10:12.008Z</time>
      </trkpt>
      <trkpt lat="45.67265" lon="4.38508">
        <ele>583.521726</ele>
        <time>2021-04-23T14:10:14.013Z</time>
      </trkpt>
      <trkpt lat="45.67276" lon="4.38517">
        <ele>583.322003</ele>
        <time>2021-04-23T14:10:16.016Z</time>
      </trkpt>
      <trkpt lat="45.67287" lon="4.38528">
        <ele>583.113695</ele>
        <time>2021-04-23T14:10:18.015Z</time>
      </trkpt>
      <trkpt lat="45.67297" lon="4.38537">
        <ele>582.918064</ele>
        <time>2021-04-23T14:10:19.997Z</time>
      </trkpt>
      <trkpt lat="45.67307" lon="4.38545">
        <ele>582.736106</ele>
        <time>2021-04-23T14:10:22.037Z</time>
      </trkpt>
      <trkpt lat="45.67318" lon="4.38551">
        <ele>582.714805</ele>
        <time>2021-04-23T14:10:24.005Z</time>
      </trkpt>
      <trkpt lat="45.67329" lon="4.38555">
        <ele>582.83829</ele>
        <time>2021-04-23T14:10:26.011Z</time>
      </trkpt>
      <trkpt lat="45.67342" lon="4.3856">
        <ele>582.981422</ele>
        <time>2021-04-23T14:10:28.021Z</time>
      </trkpt>
      <trkpt lat="45.67353" lon="4.38565">
        <ele>583.104998</ele>
        <time>2021-04-23T14:10:30.026Z</time>
      </trkpt>
      <trkpt lat="45.67363" lon="4.38569">
        <ele>583.217068</ele>
        <time>2021-04-23T14:10:32.000Z</time>
      </trkpt>
      <trkpt lat="45.67373" lon="4.38573">
        <ele>583.325824</ele>
        <time>2021-04-23T14:10:34.013Z</time>
      </trkpt>
      <trkpt lat="45.67382" lon="4.38576">
        <ele>583.429427</ele>
        <time>2021-04-23T14:10:36.033Z</time>
      </trkpt>
      <trkpt lat="45.67391" lon="4.3858">
        <ele>583.53428</ele>
        <time>2021-04-23T14:10:38.004Z</time>
      </trkpt>
      <trkpt lat="45.674" lon="4.38584">
        <ele>583.640171</ele>
        <time>2021-04-23T14:10:40.049Z</time>
      </trkpt>
      <trkpt lat="45.67409" lon="4.38588">
        <ele>583.741913</ele>
        <time>2021-04-23T14:10:42.008Z</time>
      </trkpt>
      <trkpt lat="45.67418" lon="4.38593">
        <ele>583.842262</ele>
        <time>2021-04-23T14:10:44.010Z</time>
      </trkpt>
      <trkpt lat="45.67429" lon="4.38596">
        <ele>583.95926</ele>
        <time>2021-04-23T14:10:47.008Z</time>
      </trkpt>
      <trkpt lat="45.67438" lon="4.38601">
        <ele>584.064548</ele>
        <time>2021-04-23T14:10:49.998Z</time>
      </trkpt>
      <trkpt lat="45.67447" lon="4.38604">
        <ele>584.167111</ele>
        <time>2021-04-23T14:10:53.001Z</time>
      </trkpt>
      <trkpt lat="45.67458" lon="4.38608">
        <ele>584.289772</ele>
        <time>2021-04-23T14:10:57.013Z</time>
      </trkpt>
      <trkpt lat="45.67469" lon="4.38611">
        <ele>584.405028</ele>
        <time>2021-04-23T14:11:01.006Z</time>
      </trkpt>
      <trkpt lat="45.67479" lon="4.38613">
        <ele>584.520352</ele>
        <time>2021-04-23T14:11:05.010Z</time>
      </trkpt>
      <trkpt lat="45.6749" lon="4.38615">
        <ele>584.644689</ele>
        <time>2021-04-23T14:11:08.999Z</time>
      </trkpt>
      <trkpt lat="45.675" lon="4.38619">
        <ele>584.792624</ele>
        <time>2021-04-23T14:11:12.999Z</time>
      </trkpt>
      <trkpt lat="45.67511" lon="4.38621">
        <ele>584.934308</ele>
        <time>2021-04-23T14:11:17.004Z</time>
      </trkpt>
      <trkpt lat="45.6752" lon="4.38623">
        <ele>585.06258</ele>
        <time>2021-04-23T14:11:21.015Z</time>
      </trkpt>
      <trkpt lat="45.6753" lon="4.38627">
        <ele>585.202739</ele>
        <time>2021-04-23T14:11:24.991Z</time>
      </trkpt>
      <trkpt lat="45.6754" lon="4.38629">
        <ele>585.330353</ele>
        <time>2021-04-23T14:11:29.008Z</time>
      </trkpt>
      <trkpt lat="45.67549" lon="4.38633">
        <ele>585.460732</ele>
        <time>2021-04-23T14:11:34.034Z</time>
      </trkpt>
      <trkpt lat="45.67558" lon="4.38637">
        <ele>585.589106</ele>
        <time>2021-04-23T14:11:41.027Z</time>
      </trkpt>
      <trkpt lat="45.67557" lon="4.38651">
        <ele>585.720992</ele>
        <time>2021-04-23T14:11:45.039Z</time>
      </trkpt>
      <trkpt lat="45.67556" lon="4.38664">
        <ele>585.84808</ele>
        <time>2021-04-23T14:11:48.005Z</time>
      </trkpt>
      <trkpt lat="45.67555" lon="4.3868">
        <ele>586.00199</ele>
        <time>2021-04-23T14:11:51.024Z</time>
      </trkpt>
      <trkpt lat="45.67551" lon="4.38695">
        <ele>586.150464</ele>
        <time>2021-04-23T14:11:53.014Z</time>
      </trkpt>
      <trkpt lat="45.67547" lon="4.38709">
        <ele>586.289323</ele>
        <time>2021-04-23T14:11:55.019Z</time>
      </trkpt>
      <trkpt lat="45.6754" lon="4.38723">
        <ele>586.453569</ele>
        <time>2021-04-23T14:11:57.000Z</time>
      </trkpt>
      <trkpt lat="45.67532" lon="4.38742">
        <ele>586.658038</ele>
        <time>2021-04-23T14:11:59.012Z</time>
      </trkpt>
      <trkpt lat="45.67525" lon="4.38761">
        <ele>586.858097</ele>
        <time>2021-04-23T14:12:01.019Z</time>
      </trkpt>
      <trkpt lat="45.67521" lon="4.38783">
        <ele>586.907421</ele>
        <time>2021-04-23T14:12:03.006Z</time>
      </trkpt>
      <trkpt lat="45.67517" lon="4.38804">
        <ele>586.609339</ele>
        <time>2021-04-23T14:12:04.996Z</time>
      </trkpt>
      <trkpt lat="45.67514" lon="4.38825">
        <ele>586.305906</ele>
        <time>2021-04-23T14:12:07.017Z</time>
      </trkpt>
      <trkpt lat="45.67511" lon="4.38849">
        <ele>585.966582</ele>
        <time>2021-04-23T14:12:09.013Z</time>
      </trkpt>
      <trkpt lat="45.67507" lon="4.38875">
        <ele>585.597493</ele>
        <time>2021-04-23T14:12:11.025Z</time>
      </trkpt>
      <trkpt lat="45.67503" lon="4.38888">
        <ele>585.397323</ele>
        <time>2021-04-23T14:12:12.005Z</time>
      </trkpt>
      <trkpt lat="45.67498" lon="4.389">
        <ele>585.207236</ele>
        <time>2021-04-23T14:12:13.007Z</time>
      </trkpt>
      <trkpt lat="45.67493" lon="4.38912">
        <ele>585.014661</ele>
        <time>2021-04-23T14:12:14.002Z</time>
      </trkpt>
      <trkpt lat="45.67487" lon="4.38924">
        <ele>584.810728</ele>
        <time>2021-04-23T14:12:15.005Z</time>
      </trkpt>
      <trkpt lat="45.67481" lon="4.38935">
        <ele>584.610864</ele>
        <time>2021-04-23T14:12:16.045Z</time>
      </trkpt>
      <trkpt lat="45.67474" lon="4.38945">
        <ele>584.41428</ele>
        <time>2021-04-23T14:12:17.039Z</time>
      </trkpt>
      <trkpt lat="45.67467" lon="4.38956">
        <ele>584.215265</ele>
        <time>2021-04-23T14:12:18.027Z</time>
      </trkpt>
      <trkpt lat="45.67461" lon="4.38966">
        <ele>584.026197</ele>
        <time>2021-04-23T14:12:19.015Z</time>
      </trkpt>
      <trkpt lat="45.67455" lon="4.38976">
        <ele>583.845705</ele>
        <time>2021-04-23T14:12:20.023Z</time>
      </trkpt>
      <trkpt lat="45.67448" lon="4.38987">
        <ele>583.641993</ele>
        <time>2021-04-23T14:12:21.015Z</time>
      </trkpt>
      <trkpt lat="45.67441" lon="4.38998">
        <ele>583.428916</ele>
        <time>2021-04-23T14:12:22.015Z</time>
      </trkpt>
      <trkpt lat="45.67435" lon="4.39009">
        <ele>582.948398</ele>
        <time>2021-04-23T14:12:23.002Z</time>
      </trkpt>
      <trkpt lat="45.67428" lon="4.3902">
        <ele>582.455223</ele>
        <time>2021-04-23T14:12:24.026Z</time>
      </trkpt>
      <trkpt lat="45.6742" lon="4.3903">
        <ele>581.956758</ele>
        <time>2021-04-23T14:12:25.004Z</time>
      </trkpt>
      <trkpt lat="45.67413" lon="4.3904">
        <ele>581.464107</ele>
        <time>2021-04-23T14:12:26.002Z</time>
      </trkpt>
      <trkpt lat="45.67406" lon="4.39051">
        <ele>580.95851</ele>
        <time>2021-04-23T14:12:27.021Z</time>
      </trkpt>
      <trkpt lat="45.67399" lon="4.39062">
        <ele>580.461054</ele>
        <time>2021-04-23T14:12:28.012Z</time>
      </trkpt>
      <trkpt lat="45.67393" lon="4.39074">
        <ele>579.950806</ele>
        <time>2021-04-23T14:12:29.027Z</time>
      </trkpt>
      <trkpt lat="45.67387" lon="4.39086">
        <ele>579.462786</ele>
        <time>2021-04-23T14:12:30.026Z</time>
      </trkpt>
      <trkpt lat="45.67381" lon="4.39096">
        <ele>579.018814</ele>
        <time>2021-04-23T14:12:31.012Z</time>
      </trkpt>
      <trkpt lat="45.6737" lon="4.39116">
        <ele>578.154774</ele>
        <time>2021-04-23T14:12:33.008Z</time>
      </trkpt>
      <trkpt lat="45.67359" lon="4.39135">
        <ele>577.310507</ele>
        <time>2021-04-23T14:12:35.016Z</time>
      </trkpt>
      <trkpt lat="45.67346" lon="4.39153">
        <ele>576.470773</ele>
        <time>2021-04-23T14:12:37.240Z</time>
      </trkpt>
      <trkpt lat="45.67334" lon="4.39171">
        <ele>575.612644</ele>
        <time>2021-04-23T14:12:39.001Z</time>
      </trkpt>
      <trkpt lat="45.67321" lon="4.39189">
        <ele>574.742892</ele>
        <time>2021-04-23T14:12:41.012Z</time>
      </trkpt>
      <trkpt lat="45.67308" lon="4.39207">
        <ele>573.887926</ele>
        <time>2021-04-23T14:12:43.025Z</time>
      </trkpt>
      <trkpt lat="45.67301" lon="4.39215">
        <ele>573.4594</ele>
        <time>2021-04-23T14:12:44.008Z</time>
      </trkpt>
      <trkpt lat="45.67295" lon="4.39224">
        <ele>573.028148</ele>
        <time>2021-04-23T14:12:45.002Z</time>
      </trkpt>
      <trkpt lat="45.67282" lon="4.39242">
        <ele>572.183667</ele>
        <time>2021-04-23T14:12:47.005Z</time>
      </trkpt>
      <trkpt lat="45.67275" lon="4.39251">
        <ele>571.740851</ele>
        <time>2021-04-23T14:12:48.011Z</time>
      </trkpt>
      <trkpt lat="45.67268" lon="4.3926">
        <ele>571.305833</ele>
        <time>2021-04-23T14:12:49.024Z</time>
      </trkpt>
      <trkpt lat="45.67261" lon="4.39269">
        <ele>570.857159</ele>
        <time>2021-04-23T14:12:50.035Z</time>
      </trkpt>
      <trkpt lat="45.67254" lon="4.39277">
        <ele>570.418447</ele>
        <time>2021-04-23T14:12:51.008Z</time>
      </trkpt>
      <trkpt lat="45.67246" lon="4.39286">
        <ele>569.966934</ele>
        <time>2021-04-23T14:12:52.009Z</time>
      </trkpt>
      <trkpt lat="45.67239" lon="4.39294">
        <ele>569.516874</ele>
        <time>2021-04-23T14:12:53.002Z</time>
      </trkpt>
      <trkpt lat="45.67232" lon="4.39303">
        <ele>569.067483</ele>
        <time>2021-04-23T14:12:54.025Z</time>
      </trkpt>
      <trkpt lat="45.67224" lon="4.39311">
        <ele>568.622723</ele>
        <time>2021-04-23T14:12:54.999Z</time>
      </trkpt>
      <trkpt lat="45.67217" lon="4.3932">
        <ele>568.177533</ele>
        <time>2021-04-23T14:12:55.994Z</time>
      </trkpt>
      <trkpt lat="45.6721" lon="4.39328">
        <ele>567.749607</ele>
        <time>2021-04-23T14:12:57.025Z</time>
      </trkpt>
      <trkpt lat="45.67198" lon="4.39342">
        <ele>567.020084</ele>
        <time>2021-04-23T14:12:59.014Z</time>
      </trkpt>
      <trkpt lat="45.67189" lon="4.39351">
        <ele>566.498795</ele>
        <time>2021-04-23T14:13:01.021Z</time>
      </trkpt>
      <trkpt lat="45.67184" lon="4.39362">
        <ele>566.08443</ele>
        <time>2021-04-23T14:13:04.006Z</time>
      </trkpt>
      <trkpt lat="45.67193" lon="4.39368">
        <ele>565.674949</ele>
        <time>2021-04-23T14:13:06.993Z</time>
      </trkpt>
      <trkpt lat="45.67202" lon="4.39373">
        <ele>565.305883</ele>
        <time>2021-04-23T14:13:09.031Z</time>
      </trkpt>
      <trkpt lat="45.6721" lon="4.39378">
        <ele>564.928143</ele>
        <time>2021-04-23T14:13:11.014Z</time>
      </trkpt>
      <trkpt lat="45.67219" lon="4.39385">
        <ele>564.511412</ele>
        <time>2021-04-23T14:13:13.030Z</time>
      </trkpt>
      <trkpt lat="45.67228" lon="4.39391">
        <ele>564.117825</ele>
        <time>2021-04-23T14:13:15.004Z</time>
      </trkpt>
      <trkpt lat="45.67237" lon="4.39397">
        <ele>563.727497</ele>
        <time>2021-04-23T14:13:17.015Z</time>
      </trkpt>
      <trkpt lat="45.67245" lon="4.39405">
        <ele>563.320062</ele>
        <time>2021-04-23T14:13:19.014Z</time>
      </trkpt>
      <trkpt lat="45.67254" lon="4.39413">
        <ele>562.914509</ele>
        <time>2021-04-23T14:13:21.005Z</time>
      </trkpt>
      <trkpt lat="45.67261" lon="4.39421">
        <ele>562.520339</ele>
        <time>2021-04-23T14:13:23.001Z</time>
      </trkpt>
      <trkpt lat="45.67269" lon="4.39429">
        <ele>562.138231</ele>
        <time>2021-04-23T14:13:25.011Z</time>
      </trkpt>
      <trkpt lat="45.67277" lon="4.39438">
        <ele>561.729805</ele>
        <time>2021-04-23T14:13:27.001Z</time>
      </trkpt>
      <trkpt lat="45.67286" lon="4.39444">
        <ele>561.340804</ele>
        <time>2021-04-23T14:13:29.067Z</time>
      </trkpt>
      <trkpt lat="45.67297" lon="4.39452">
        <ele>560.825266</ele>
        <time>2021-04-23T14:13:31.989Z</time>
      </trkpt>
      <trkpt lat="45.6731" lon="4.39456">
        <ele>560.305733</ele>
        <time>2021-04-23T14:13:35.009Z</time>
      </trkpt>
      <trkpt lat="45.67323" lon="4.3946">
        <ele>559.76658</ele>
        <time>2021-04-23T14:13:38.000Z</time>
      </trkpt>
      <trkpt lat="45.67335" lon="4.39465">
        <ele>559.266904</ele>
        <time>2021-04-23T14:13:40.994Z</time>
      </trkpt>
      <trkpt lat="45.67348" lon="4.39469">
        <ele>558.808661</ele>
        <time>2021-04-23T14:13:43.992Z</time>
      </trkpt>
      <trkpt lat="45.67361" lon="4.39474">
        <ele>558.497603</ele>
        <time>2021-04-23T14:13:47.002Z</time>
      </trkpt>
      <trkpt lat="45.6737" lon="4.39477">
        <ele>558.284615</ele>
        <time>2021-04-23T14:13:49.030Z</time>
      </trkpt>
      <trkpt lat="45.6738" lon="4.39481">
        <ele>558.040947</ele>
        <time>2021-04-23T14:13:50.988Z</time>
      </trkpt>
      <trkpt lat="45.67389" lon="4.39485">
        <ele>557.817302</ele>
        <time>2021-04-23T14:13:53.014Z</time>
      </trkpt>
      <trkpt lat="45.67401" lon="4.3949">
        <ele>557.516492</ele>
        <time>2021-04-23T14:13:56.022Z</time>
      </trkpt>
      <trkpt lat="45.67413" lon="4.39495">
        <ele>557.244666</ele>
        <time>2021-04-23T14:13:59.009Z</time>
      </trkpt>
      <trkpt lat="45.67407" lon="4.3951">
        <ele>556.967065</ele>
        <time>2021-04-23T14:14:04.007Z</time>
      </trkpt>
      <trkpt lat="45.67396" lon="4.39521">
        <ele>556.665025</ele>
        <time>2021-04-23T14:14:07.005Z</time>
      </trkpt>
      <trkpt lat="45.67388" lon="4.39529">
        <ele>556.42392</ele>
        <time>2021-04-23T14:14:09.020Z</time>
      </trkpt>
      <trkpt lat="45.67379" lon="4.39536">
        <ele>556.187024</ele>
        <time>2021-04-23T14:14:11.016Z</time>
      </trkpt>
      <trkpt lat="45.6737" lon="4.39542">
        <ele>555.95515</ele>
        <time>2021-04-23T14:14:13.010Z</time>
      </trkpt>
      <trkpt lat="45.6736" lon="4.39546">
        <ele>555.717243</ele>
        <time>2021-04-23T14:14:15.022Z</time>
      </trkpt>
      <trkpt lat="45.67351" lon="4.39551">
        <ele>555.494881</ele>
        <time>2021-04-23T14:14:17.032Z</time>
      </trkpt>
      <trkpt lat="45.67342" lon="4.39556">
        <ele>555.274522</ele>
        <time>2021-04-23T14:14:19.016Z</time>
      </trkpt>
      <trkpt lat="45.67331" lon="4.39565">
        <ele>554.971974</ele>
        <time>2021-04-23T14:14:22.041Z</time>
      </trkpt>
      <trkpt lat="45.67321" lon="4.39575">
        <ele>554.72063</ele>
        <time>2021-04-23T14:14:25.029Z</time>
      </trkpt>
      <trkpt lat="45.6731" lon="4.39585">
        <ele>554.561079</ele>
        <time>2021-04-23T14:14:28.000Z</time>
      </trkpt>
      <trkpt lat="45.67302" lon="4.39592">
        <ele>554.444969</ele>
        <time>2021-04-23T14:14:30.022Z</time>
      </trkpt>
      <trkpt lat="45.67295" lon="4.396">
        <ele>554.325464</ele>
        <time>2021-04-23T14:14:32.014Z</time>
      </trkpt>
      <trkpt lat="45.67286" lon="4.39613">
        <ele>554.167884</ele>
        <time>2021-04-23T14:14:35.145Z</time>
      </trkpt>
      <trkpt lat="45.6728" lon="4.39623">
        <ele>554.048461</ele>
        <time>2021-04-23T14:14:37.014Z</time>
      </trkpt>
      <trkpt lat="45.67274" lon="4.39634">
        <ele>553.926261</ele>
        <time>2021-04-23T14:14:39.012Z</time>
      </trkpt>
      <trkpt lat="45.67266" lon="4.39645">
        <ele>553.794842</ele>
        <time>2021-04-23T14:14:41.015Z</time>
      </trkpt>
      <trkpt lat="45.67258" lon="4.39659">
        <ele>553.634101</ele>
        <time>2021-04-23T14:14:44.012Z</time>
      </trkpt>
      <trkpt lat="45.67251" lon="4.39673">
        <ele>553.475707</ele>
        <time>2021-04-23T14:14:47.002Z</time>
      </trkpt>
      <trkpt lat="45.67243" lon="4.39688">
        <ele>553.313853</ele>
        <time>2021-04-23T14:14:50.006Z</time>
      </trkpt>
      <trkpt lat="45.67236" lon="4.39702">
        <ele>553.157078</ele>
        <time>2021-04-23T14:14:53.035Z</time>
      </trkpt>
      <trkpt lat="45.67235" lon="4.39716">
        <ele>553.032927</ele>
        <time>2021-04-23T14:14:56.008Z</time>
      </trkpt>
      <trkpt lat="45.67232" lon="4.39732">
        <ele>552.891344</ele>
        <time>2021-04-23T14:14:59.001Z</time>
      </trkpt>
      <trkpt lat="45.67228" lon="4.39749">
        <ele>552.731082</ele>
        <time>2021-04-23T14:15:02.003Z</time>
      </trkpt>
      <trkpt lat="45.67226" lon="4.39763">
        <ele>552.609203</ele>
        <time>2021-04-23T14:15:04.024Z</time>
      </trkpt>
      <trkpt lat="45.67223" lon="4.39781">
        <ele>552.419653</ele>
        <time>2021-04-23T14:15:07.016Z</time>
      </trkpt>
      <trkpt lat="45.67222" lon="4.39799">
        <ele>552.189678</ele>
        <time>2021-04-23T14:15:10.024Z</time>
      </trkpt>
      <trkpt lat="45.67219" lon="4.39815">
        <ele>551.972996</ele>
        <time>2021-04-23T14:15:13.028Z</time>
      </trkpt>
      <trkpt lat="45.67214" lon="4.3983">
        <ele>551.765955</ele>
        <time>2021-04-23T14:15:16.008Z</time>
      </trkpt>
      <trkpt lat="45.67209" lon="4.39846">
        <ele>551.537809</ele>
        <time>2021-04-23T14:15:18.991Z</time>
      </trkpt>
      <trkpt lat="45.67204" lon="4.39862">
        <ele>551.30145</ele>
        <time>2021-04-23T14:15:22.011Z</time>
      </trkpt>
      <trkpt lat="45.67199" lon="4.39879">
        <ele>551.076187</ele>
        <time>2021-04-23T14:15:25.021Z</time>
      </trkpt>
      <trkpt lat="45.67195" lon="4.39893">
        <ele>550.869527</ele>
        <time>2021-04-23T14:15:28.015Z</time>
      </trkpt>
      <trkpt lat="45.67189" lon="4.39908">
        <ele>550.65336</ele>
        <time>2021-04-23T14:15:31.015Z</time>
      </trkpt>
      <trkpt lat="45.67185" lon="4.39922">
        <ele>550.455638</ele>
        <time>2021-04-23T14:15:34.002Z</time>
      </trkpt>
      <trkpt lat="45.6718" lon="4.39937">
        <ele>550.235175</ele>
        <time>2021-04-23T14:15:36.997Z</time>
      </trkpt>
      <trkpt lat="45.67174" lon="4.39951">
        <ele>550.029177</ele>
        <time>2021-04-23T14:15:40.004Z</time>
      </trkpt>
      <trkpt lat="45.67168" lon="4.39965">
        <ele>549.82061</ele>
        <time>2021-04-23T14:15:43.010Z</time>
      </trkpt>
      <trkpt lat="45.67162" lon="4.39979">
        <ele>549.605438</ele>
        <time>2021-04-23T14:15:47.033Z</time>
      </trkpt>
      <trkpt lat="45.67155" lon="4.39987">
        <ele>549.434524</ele>
        <time>2021-04-23T14:16:04.008Z</time>
      </trkpt>
      <trkpt lat="45.6715" lon="4.40013">
        <ele>549.064445</ele>
        <time>2021-04-23T14:17:45.016Z</time>
      </trkpt>
      <trkpt lat="45.67145" lon="4.40028">
        <ele>548.788904</ele>
        <time>2021-04-23T14:17:48.019Z</time>
      </trkpt>
      <trkpt lat="45.6714" lon="4.4004">
        <ele>548.564787</ele>
        <time>2021-04-23T14:17:50.017Z</time>
      </trkpt>
      <trkpt lat="45.67134" lon="4.40057">
        <ele>548.24841</ele>
        <time>2021-04-23T14:17:53.008Z</time>
      </trkpt>
      <trkpt lat="45.6713" lon="4.4007">
        <ele>548.022757</ele>
        <time>2021-04-23T14:17:55.020Z</time>
      </trkpt>
      <trkpt lat="45.67124" lon="4.40086">
        <ele>547.712983</ele>
        <time>2021-04-23T14:17:58.005Z</time>
      </trkpt>
      <trkpt lat="45.6712" lon="4.40098">
        <ele>547.501597</ele>
        <time>2021-04-23T14:18:00.014Z</time>
      </trkpt>
      <trkpt lat="45.67114" lon="4.40115">
        <ele>547.194945</ele>
        <time>2021-04-23T14:18:03.044Z</time>
      </trkpt>
      <trkpt lat="45.67108" lon="4.40132">
        <ele>546.891654</ele>
        <time>2021-04-23T14:18:06.015Z</time>
      </trkpt>
      <trkpt lat="45.67104" lon="4.40145">
        <ele>546.6575</ele>
        <time>2021-04-23T14:18:08.027Z</time>
      </trkpt>
      <trkpt lat="45.67098" lon="4.40162">
        <ele>546.341474</ele>
        <time>2021-04-23T14:18:11.000Z</time>
      </trkpt>
      <trkpt lat="45.67096" lon="4.40177">
        <ele>546.090006</ele>
        <time>2021-04-23T14:18:13.006Z</time>
      </trkpt>
      <trkpt lat="45.67098" lon="4.40192">
        <ele>545.842738</ele>
        <time>2021-04-23T14:18:15.031Z</time>
      </trkpt>
      <trkpt lat="45.671" lon="4.40206">
        <ele>545.610824</ele>
        <time>2021-04-23T14:18:17.021Z</time>
      </trkpt>
      <trkpt lat="45.67105" lon="4.40218">
        <ele>545.371891</ele>
        <time>2021-04-23T14:18:19.001Z</time>
      </trkpt>
      <trkpt lat="45.67114" lon="4.40231">
        <ele>545.090837</ele>
        <time>2021-04-23T14:18:21.012Z</time>
      </trkpt>
      <trkpt lat="45.6712" lon="4.40243">
        <ele>544.865506</ele>
        <time>2021-04-23T14:18:23.001Z</time>
      </trkpt>
      <trkpt lat="45.67128" lon="4.40256">
        <ele>544.628799</ele>
        <time>2021-04-23T14:18:25.011Z</time>
      </trkpt>
      <trkpt lat="45.67136" lon="4.40266">
        <ele>544.403119</ele>
        <time>2021-04-23T14:18:27.032Z</time>
      </trkpt>
      <trkpt lat="45.67144" lon="4.40278">
        <ele>544.192504</ele>
        <time>2021-04-23T14:18:29.021Z</time>
      </trkpt>
      <trkpt lat="45.67151" lon="4.40294">
        <ele>543.925792</ele>
        <time>2021-04-23T14:18:31.984Z</time>
      </trkpt>
      <trkpt lat="45.67155" lon="4.40307">
        <ele>543.730469</ele>
        <time>2021-04-23T14:18:33.997Z</time>
      </trkpt>
      <trkpt lat="45.67158" lon="4.40321">
        <ele>543.536041</ele>
        <time>2021-04-23T14:18:35.994Z</time>
      </trkpt>
      <trkpt lat="45.67162" lon="4.40334">
        <ele>543.331188</ele>
        <time>2021-04-23T14:18:38.011Z</time>
      </trkpt>
      <trkpt lat="45.67166" lon="4.40349">
        <ele>543.116072</ele>
        <time>2021-04-23T14:18:40.006Z</time>
      </trkpt>
      <trkpt lat="45.67169" lon="4.40364">
        <ele>542.903582</ele>
        <time>2021-04-23T14:18:42.021Z</time>
      </trkpt>
      <trkpt lat="45.67171" lon="4.40379">
        <ele>542.693007</ele>
        <time>2021-04-23T14:18:44.018Z</time>
      </trkpt>
      <trkpt lat="45.67172" lon="4.40395">
        <ele>542.471822</ele>
        <time>2021-04-23T14:18:46.017Z</time>
      </trkpt>
      <trkpt lat="45.67172" lon="4.40411">
        <ele>542.24811</ele>
        <time>2021-04-23T14:18:48.017Z</time>
      </trkpt>
      <trkpt lat="45.67171" lon="4.4043">
        <ele>541.989012</ele>
        <time>2021-04-23T14:18:50.010Z</time>
      </trkpt>
      <trkpt lat="45.6717" lon="4.40448">
        <ele>541.745578</ele>
        <time>2021-04-23T14:18:52.009Z</time>
      </trkpt>
      <trkpt lat="45.67169" lon="4.40468">
        <ele>541.467999</ele>
        <time>2021-04-23T14:18:54.008Z</time>
      </trkpt>
      <trkpt lat="45.67169" lon="4.4049">
        <ele>540.935215</ele>
        <time>2021-04-23T14:18:56.033Z</time>
      </trkpt>
      <trkpt lat="45.6717" lon="4.4051">
        <ele>540.420908</ele>
        <time>2021-04-23T14:18:58.015Z</time>
      </trkpt>
      <trkpt lat="45.6717" lon="4.40524">
        <ele>540.064699</ele>
        <time>2021-04-23T14:19:00.009Z</time>
      </trkpt>
      <trkpt lat="45.67164" lon="4.40536">
        <ele>539.682184</ele>
        <time>2021-04-23T14:19:03.025Z</time>
      </trkpt>
      <trkpt lat="45.67152" lon="4.40539">
        <ele>539.248535</ele>
        <time>2021-04-23T14:19:07.023Z</time>
      </trkpt>
      <trkpt lat="45.67142" lon="4.40537">
        <ele>538.889558</ele>
        <time>2021-04-23T14:19:09.012Z</time>
      </trkpt>
      <trkpt lat="45.6713" lon="4.40535">
        <ele>538.431096</ele>
        <time>2021-04-23T14:19:11.038Z</time>
      </trkpt>
      <trkpt lat="45.67116" lon="4.40535">
        <ele>537.932438</ele>
        <time>2021-04-23T14:19:13.012Z</time>
      </trkpt>
      <trkpt lat="45.67103" lon="4.40538">
        <ele>537.427494</ele>
        <time>2021-04-23T14:19:15.010Z</time>
      </trkpt>
      <trkpt lat="45.67089" lon="4.40547">
        <ele>536.875248</ele>
        <time>2021-04-23T14:19:17.047Z</time>
      </trkpt>
      <trkpt lat="45.67076" lon="4.40557">
        <ele>536.348914</ele>
        <time>2021-04-23T14:19:19.004Z</time>
      </trkpt>
      <trkpt lat="45.67065" lon="4.40566">
        <ele>535.851764</ele>
        <time>2021-04-23T14:19:21.049Z</time>
      </trkpt>
      <trkpt lat="45.67055" lon="4.40576">
        <ele>535.410244</ele>
        <time>2021-04-23T14:19:23.012Z</time>
      </trkpt>
      <trkpt lat="45.67044" lon="4.40605">
        <ele>534.726095</ele>
        <time>2021-04-23T14:20:59.028Z</time>
      </trkpt>
      <trkpt lat="45.6704" lon="4.40617">
        <ele>534.598137</ele>
        <time>2021-04-23T14:21:05.996Z</time>
      </trkpt>
      <trkpt lat="45.67032" lon="4.40625">
        <ele>534.458947</ele>
        <time>2021-04-23T14:21:11.009Z</time>
      </trkpt>
      <trkpt lat="45.67026" lon="4.40635">
        <ele>534.328821</ele>
        <time>2021-04-23T14:21:14.006Z</time>
      </trkpt>
      <trkpt lat="45.67021" lon="4.40646">
        <ele>534.19888</ele>
        <time>2021-04-23T14:21:18.003Z</time>
      </trkpt>
      <trkpt lat="45.67018" lon="4.40659">
        <ele>534.065384</ele>
        <time>2021-04-23T14:21:24.007Z</time>
      </trkpt>
      <trkpt lat="45.67013" lon="4.40671">
        <ele>533.923878</ele>
        <time>2021-04-23T14:21:27.980Z</time>
      </trkpt>
      <trkpt lat="45.67006" lon="4.40681">
        <ele>533.784137</ele>
        <time>2021-04-23T14:21:32.007Z</time>
      </trkpt>
      <trkpt lat="45.67001" lon="4.40693">
        <ele>533.646151</ele>
        <time>2021-04-23T14:21:35.010Z</time>
      </trkpt>
      <trkpt lat="45.66994" lon="4.40706">
        <ele>533.49278</ele>
        <time>2021-04-23T14:21:39.007Z</time>
      </trkpt>
      <trkpt lat="45.66989" lon="4.40717">
        <ele>533.365125</ele>
        <time>2021-04-23T14:21:42.019Z</time>
      </trkpt>
      <trkpt lat="45.66983" lon="4.40726">
        <ele>533.232956</ele>
        <time>2021-04-23T14:21:46.035Z</time>
      </trkpt>
      <trkpt lat="45.66976" lon="4.40736">
        <ele>533.0957</ele>
        <time>2021-04-23T14:21:49.011Z</time>
      </trkpt>
      <trkpt lat="45.66971" lon="4.40747">
        <ele>532.967102</ele>
        <time>2021-04-23T14:21:53.020Z</time>
      </trkpt>
      <trkpt lat="45.66965" lon="4.4076">
        <ele>532.812923</ele>
        <time>2021-04-23T14:22:00.013Z</time>
      </trkpt>
      <trkpt lat="45.66959" lon="4.4077">
        <ele>532.683737</ele>
        <time>2021-04-23T14:22:03.007Z</time>
      </trkpt>
      <trkpt lat="45.66951" lon="4.4078">
        <ele>532.528457</ele>
        <time>2021-04-23T14:22:07.018Z</time>
      </trkpt>
      <trkpt lat="45.66943" lon="4.4079">
        <ele>532.379888</ele>
        <time>2021-04-23T14:22:09.990Z</time>
      </trkpt>
      <trkpt lat="45.66936" lon="4.40802">
        <ele>532.144568</ele>
        <time>2021-04-23T14:22:12.985Z</time>
      </trkpt>
      <trkpt lat="45.66929" lon="4.40813">
        <ele>531.783564</ele>
        <time>2021-04-23T14:22:17.027Z</time>
      </trkpt>
      <trkpt lat="45.66922" lon="4.40824">
        <ele>531.426686</ele>
        <time>2021-04-23T14:22:21.019Z</time>
      </trkpt>
      <trkpt lat="45.66917" lon="4.40834">
        <ele>531.103912</ele>
        <time>2021-04-23T14:22:25.019Z</time>
      </trkpt>
      <trkpt lat="45.66911" lon="4.40844">
        <ele>530.785885</ele>
        <time>2021-04-23T14:22:29.008Z</time>
      </trkpt>
      <trkpt lat="45.66905" lon="4.40856">
        <ele>530.42674</ele>
        <time>2021-04-23T14:22:33.024Z</time>
      </trkpt>
      <trkpt lat="45.66897" lon="4.40867">
        <ele>530.068185</ele>
        <time>2021-04-23T14:22:37.024Z</time>
      </trkpt>
      <trkpt lat="45.66887" lon="4.40877">
        <ele>529.634073</ele>
        <time>2021-04-23T14:22:42.026Z</time>
      </trkpt>
      <trkpt lat="45.66877" lon="4.40884">
        <ele>529.24278</ele>
        <time>2021-04-23T14:22:46.995Z</time>
      </trkpt>
      <trkpt lat="45.66868" lon="4.40892">
        <ele>528.86312</ele>
        <time>2021-04-23T14:22:51.027Z</time>
      </trkpt>
      <trkpt lat="45.66859" lon="4.409">
        <ele>528.505104</ele>
        <time>2021-04-23T14:22:55.000Z</time>
      </trkpt>
      <trkpt lat="45.6685" lon="4.40905">
        <ele>528.164585</ele>
        <time>2021-04-23T14:23:00.016Z</time>
      </trkpt>
      <trkpt lat="45.66841" lon="4.40899">
        <ele>527.835781</ele>
        <time>2021-04-23T14:23:10.018Z</time>
      </trkpt>
      <trkpt lat="45.66846" lon="4.40932">
        <ele>527.01977</ele>
        <time>2021-04-23T14:26:46.023Z</time>
      </trkpt>
      <trkpt lat="45.66853" lon="4.40947">
        <ele>526.579563</ele>
        <time>2021-04-23T14:26:49.029Z</time>
      </trkpt>
      <trkpt lat="45.66862" lon="4.40961">
        <ele>526.125017</ele>
        <time>2021-04-23T14:26:52.019Z</time>
      </trkpt>
      <trkpt lat="45.66872" lon="4.40971">
        <ele>525.868811</ele>
        <time>2021-04-23T14:26:55.012Z</time>
      </trkpt>
      <trkpt lat="45.66881" lon="4.40984">
        <ele>525.651609</ele>
        <time>2021-04-23T14:26:58.010Z</time>
      </trkpt>
      <trkpt lat="45.66891" lon="4.40996">
        <ele>525.436266</ele>
        <time>2021-04-23T14:27:01.016Z</time>
      </trkpt>
      <trkpt lat="45.66901" lon="4.41007">
        <ele>525.220102</ele>
        <time>2021-04-23T14:27:04.001Z</time>
      </trkpt>
      <trkpt lat="45.66909" lon="4.4102">
        <ele>525.005871</ele>
        <time>2021-04-23T14:27:07.021Z</time>
      </trkpt>
      <trkpt lat="45.66919" lon="4.41033">
        <ele>524.786885</ele>
        <time>2021-04-23T14:27:10.011Z</time>
      </trkpt>
      <trkpt lat="45.66928" lon="4.41045">
        <ele>524.580788</ele>
        <time>2021-04-23T14:27:13.022Z</time>
      </trkpt>
      <trkpt lat="45.66934" lon="4.41055">
        <ele>524.421449</ele>
        <time>2021-04-23T14:27:15.003Z</time>
      </trkpt>
      <trkpt lat="45.66941" lon="4.4107">
        <ele>524.194697</ele>
        <time>2021-04-23T14:27:17.991Z</time>
      </trkpt>
      <trkpt lat="45.66947" lon="4.41087">
        <ele>523.975594</ele>
        <time>2021-04-23T14:27:21.023Z</time>
      </trkpt>
      <trkpt lat="45.6695" lon="4.41099">
        <ele>523.821394</ele>
        <time>2021-04-23T14:27:23.015Z</time>
      </trkpt>
      <trkpt lat="45.66955" lon="4.41116">
        <ele>523.601377</ele>
        <time>2021-04-23T14:27:26.025Z</time>
      </trkpt>
      <trkpt lat="45.66963" lon="4.4113">
        <ele>523.388091</ele>
        <time>2021-04-23T14:27:29.011Z</time>
      </trkpt>
      <trkpt lat="45.6697" lon="4.4114">
        <ele>523.221437</ele>
        <time>2021-04-23T14:27:32.029Z</time>
      </trkpt>
      <trkpt lat="45.66975" lon="4.41152">
        <ele>523.05213</ele>
        <time>2021-04-23T14:27:37.010Z</time>
      </trkpt>
      <trkpt lat="45.66969" lon="4.41164">
        <ele>522.995541</ele>
        <time>2021-04-23T14:27:43.029Z</time>
      </trkpt>
      <trkpt lat="45.66962" lon="4.41173">
        <ele>523.035115</ele>
        <time>2021-04-23T14:27:48.015Z</time>
      </trkpt>
      <trkpt lat="45.66953" lon="4.41181">
        <ele>523.077262</ele>
        <time>2021-04-23T14:27:54.034Z</time>
      </trkpt>
      <trkpt lat="45.66943" lon="4.41186">
        <ele>523.123183</ele>
        <time>2021-04-23T14:28:02.022Z</time>
      </trkpt>
      <trkpt lat="45.66933" lon="4.41191">
        <ele>523.168281</ele>
        <time>2021-04-23T14:28:12.015Z</time>
      </trkpt>
      <trkpt lat="45.66925" lon="4.41199">
        <ele>523.20871</ele>
        <time>2021-04-23T14:28:21.008Z</time>
      </trkpt>
      <trkpt lat="45.66915" lon="4.41205">
        <ele>523.254546</ele>
        <time>2021-04-23T14:28:28.037Z</time>
      </trkpt>
      <trkpt lat="45.66905" lon="4.41213">
        <ele>523.29961</ele>
        <time>2021-04-23T14:28:33.014Z</time>
      </trkpt>
      <trkpt lat="45.66895" lon="4.41218">
        <ele>523.344735</ele>
        <time>2021-04-23T14:28:37.001Z</time>
      </trkpt>
      <trkpt lat="45.66887" lon="4.41225">
        <ele>523.385247</ele>
        <time>2021-04-23T14:28:44.000Z</time>
      </trkpt>
      <trkpt lat="45.66878" lon="4.41229">
        <ele>523.424273</ele>
        <time>2021-04-23T14:28:49.017Z</time>
      </trkpt>
      <trkpt lat="45.66869" lon="4.41236">
        <ele>523.464847</ele>
        <time>2021-04-23T14:28:57.022Z</time>
      </trkpt>
      <trkpt lat="45.6686" lon="4.41241">
        <ele>523.505581</ele>
        <time>2021-04-23T14:29:03.004Z</time>
      </trkpt>
      <trkpt lat="45.66853" lon="4.41251">
        <ele>523.547161</ele>
        <time>2021-04-23T14:29:13.027Z</time>
      </trkpt>
      <trkpt lat="45.66848" lon="4.41263">
        <ele>523.586525</ele>
        <time>2021-04-23T14:29:21.004Z</time>
      </trkpt>
      <trkpt lat="45.66842" lon="4.41272">
        <ele>523.625689</ele>
        <time>2021-04-23T14:29:33.008Z</time>
      </trkpt>
      <trkpt lat="45.66834" lon="4.4128">
        <ele>523.665578</ele>
        <time>2021-04-23T14:29:42.041Z</time>
      </trkpt>
      <trkpt lat="45.66827" lon="4.4129">
        <ele>523.706568</ele>
        <time>2021-04-23T14:29:48.032Z</time>
      </trkpt>
      <trkpt lat="45.6682" lon="4.41299">
        <ele>524.01841</ele>
        <time>2021-04-23T14:29:57.006Z</time>
      </trkpt>
      <trkpt lat="45.66812" lon="4.41306">
        <ele>524.520273</ele>
        <time>2021-04-23T14:30:04.024Z</time>
      </trkpt>
      <trkpt lat="45.66806" lon="4.41317">
        <ele>525.041834</ele>
        <time>2021-04-23T14:30:12.030Z</time>
      </trkpt>
      <trkpt lat="45.66801" lon="4.4133">
        <ele>525.567759</ele>
        <time>2021-04-23T14:30:21.026Z</time>
      </trkpt>
      <trkpt lat="45.66793" lon="4.4134">
        <ele>526.124851</ele>
        <time>2021-04-23T14:30:27.013Z</time>
      </trkpt>
      <trkpt lat="45.66788" lon="4.41351">
        <ele>526.636597</ele>
        <time>2021-04-23T14:30:35.010Z</time>
      </trkpt>
      <trkpt lat="45.66781" lon="4.41362">
        <ele>527.153636</ele>
        <time>2021-04-23T14:30:54.010Z</time>
      </trkpt>
      <trkpt lat="45.66771" lon="4.41365">
        <ele>527.702886</ele>
        <time>2021-04-23T14:31:10.025Z</time>
      </trkpt>
      <trkpt lat="45.66761" lon="4.41369">
        <ele>528.247001</ele>
        <time>2021-04-23T14:31:15.998Z</time>
      </trkpt>
      <trkpt lat="45.66752" lon="4.41367">
        <ele>528.732541</ele>
        <time>2021-04-23T14:31:22.024Z</time>
      </trkpt>
      <trkpt lat="45.66743" lon="4.41372">
        <ele>529.211981</ele>
        <time>2021-04-23T14:31:30.014Z</time>
      </trkpt>
      <trkpt lat="45.66734" lon="4.41377">
        <ele>529.738499</ele>
        <time>2021-04-23T14:31:37.018Z</time>
      </trkpt>
      <trkpt lat="45.66725" lon="4.41384">
        <ele>530.268308</ele>
        <time>2021-04-23T14:31:44.010Z</time>
      </trkpt>
      <trkpt lat="45.66718" lon="4.41392">
        <ele>530.766931</ele>
        <time>2021-04-23T14:31:50.009Z</time>
      </trkpt>
      <trkpt lat="45.66711" lon="4.41401">
        <ele>531.261846</ele>
        <time>2021-04-23T14:31:57.018Z</time>
      </trkpt>
      <trkpt lat="45.66705" lon="4.41411">
        <ele>531.772401</ele>
        <time>2021-04-23T14:32:07.013Z</time>
      </trkpt>
      <trkpt lat="45.66706" lon="4.41425">
        <ele>532.281169</ele>
        <time>2021-04-23T14:32:14.996Z</time>
      </trkpt>
      <trkpt lat="45.66708" lon="4.41438">
        <ele>532.76217</ele>
        <time>2021-04-23T14:32:26.037Z</time>
      </trkpt>
      <trkpt lat="45.66711" lon="4.4145">
        <ele>533.345273</ele>
        <time>2021-04-23T14:32:37.005Z</time>
      </trkpt>
      <trkpt lat="45.66712" lon="4.41463">
        <ele>534.946133</ele>
        <time>2021-04-23T14:32:45.995Z</time>
      </trkpt>
      <trkpt lat="45.66715" lon="4.41476">
        <ele>536.573376</ele>
        <time>2021-04-23T14:32:55.012Z</time>
      </trkpt>
      <trkpt lat="45.66719" lon="4.41489">
        <ele>538.304865</ele>
        <time>2021-04-23T14:33:02.999Z</time>
      </trkpt>
      <trkpt lat="45.66724" lon="4.415">
        <ele>539.926913</ele>
        <time>2021-04-23T14:33:10.003Z</time>
      </trkpt>
      <trkpt lat="45.66727" lon="4.41513">
        <ele>541.614728</ele>
        <time>2021-04-23T14:33:21.021Z</time>
      </trkpt>
      <trkpt lat="45.66725" lon="4.41525">
        <ele>543.234401</ele>
        <time>2021-04-23T14:33:29.020Z</time>
      </trkpt>
      <trkpt lat="45.66719" lon="4.41535">
        <ele>544.82592</ele>
        <time>2021-04-23T14:33:38.016Z</time>
      </trkpt>
      <trkpt lat="45.66711" lon="4.41542">
        <ele>546.416893</ele>
        <time>2021-04-23T14:33:45.002Z</time>
      </trkpt>
      <trkpt lat="45.66702" lon="4.41549">
        <ele>548.217856</ele>
        <time>2021-04-23T14:33:54.027Z</time>
      </trkpt>
      <trkpt lat="45.66693" lon="4.41552">
        <ele>549.945618</ele>
        <time>2021-04-23T14:34:02.027Z</time>
      </trkpt>
      <trkpt lat="45.66683" lon="4.41553">
        <ele>551.564945</ele>
        <time>2021-04-23T14:34:12.045Z</time>
      </trkpt>
      <trkpt lat="45.66674" lon="4.41552">
        <ele>553.289186</ele>
        <time>2021-04-23T14:34:19.007Z</time>
      </trkpt>
      <trkpt lat="45.66665" lon="4.41551">
        <ele>554.87643</ele>
        <time>2021-04-23T14:34:33.018Z</time>
      </trkpt>
      <trkpt lat="45.66655" lon="4.41552">
        <ele>556.512814</ele>
        <time>2021-04-23T14:34:42.004Z</time>
      </trkpt>
      <trkpt lat="45.66646" lon="4.41551">
        <ele>558.239505</ele>
        <time>2021-04-23T14:34:51.034Z</time>
      </trkpt>
      <trkpt lat="45.66636" lon="4.41553">
        <ele>559.888399</ele>
        <time>2021-04-23T14:34:58.008Z</time>
      </trkpt>
      <trkpt lat="45.66627" lon="4.41554">
        <ele>561.508331</ele>
        <time>2021-04-23T14:35:05.005Z</time>
      </trkpt>
      <trkpt lat="45.66617" lon="4.41553">
        <ele>563.233054</ele>
        <time>2021-04-23T14:35:11.027Z</time>
      </trkpt>
      <trkpt lat="45.66608" lon="4.41552">
        <ele>564.855345</ele>
        <time>2021-04-23T14:35:20.041Z</time>
      </trkpt>
      <trkpt lat="45.66599" lon="4.41552">
        <ele>566.253116</ele>
        <time>2021-04-23T14:35:29.021Z</time>
      </trkpt>
      <trkpt lat="45.6659" lon="4.41554">
        <ele>567.659769</ele>
        <time>2021-04-23T14:35:38.025Z</time>
      </trkpt>
      <trkpt lat="45.6658" lon="4.41555">
        <ele>569.10545</ele>
        <time>2021-04-23T14:35:45.035Z</time>
      </trkpt>
      <trkpt lat="45.6657" lon="4.41555">
        <ele>570.687637</ele>
        <time>2021-04-23T14:35:53.038Z</time>
      </trkpt>
      <trkpt lat="45.6656" lon="4.41554">
        <ele>572.149139</ele>
        <time>2021-04-23T14:36:00.019Z</time>
      </trkpt>
      <trkpt lat="45.66552" lon="4.41559">
        <ele>573.536599</ele>
        <time>2021-04-23T14:36:09.011Z</time>
      </trkpt>
      <trkpt lat="45.66544" lon="4.41566">
        <ele>574.965207</ele>
        <time>2021-04-23T14:36:16.025Z</time>
      </trkpt>
      <trkpt lat="45.66535" lon="4.4157">
        <ele>576.371129</ele>
        <time>2021-04-23T14:36:35.007Z</time>
      </trkpt>
      <trkpt lat="45.66526" lon="4.41574">
        <ele>577.767818</ele>
        <time>2021-04-23T14:36:44.018Z</time>
      </trkpt>
      <trkpt lat="45.66511" lon="4.41585">
        <ele>580.36004</ele>
        <time>2021-04-23T14:37:59.036Z</time>
      </trkpt>
      <trkpt lat="45.66496" lon="4.41597">
        <ele>582.994038</ele>
        <time>2021-04-23T14:38:22.005Z</time>
      </trkpt>
      <trkpt lat="45.66486" lon="4.41601">
        <ele>584.565746</ele>
        <time>2021-04-23T14:38:29.015Z</time>
      </trkpt>
      <trkpt lat="45.66477" lon="4.41609">
        <ele>586.081215</ele>
        <time>2021-04-23T14:38:36.993Z</time>
      </trkpt>
      <trkpt lat="45.66469" lon="4.41614">
        <ele>587.502778</ele>
        <time>2021-04-23T14:38:46.054Z</time>
      </trkpt>
      <trkpt lat="45.66463" lon="4.41625">
        <ele>588.945997</ele>
        <time>2021-04-23T14:38:57.013Z</time>
      </trkpt>
      <trkpt lat="45.66449" lon="4.41638">
        <ele>591.460491</ele>
        <time>2021-04-23T14:40:08.054Z</time>
      </trkpt>
      <trkpt lat="45.66448" lon="4.41651">
        <ele>592.737148</ele>
        <time>2021-04-23T14:40:16.023Z</time>
      </trkpt>
      <trkpt lat="45.66444" lon="4.41665">
        <ele>593.993486</ele>
        <time>2021-04-23T14:40:24.001Z</time>
      </trkpt>
      <trkpt lat="45.66438" lon="4.41675">
        <ele>595.124382</ele>
        <time>2021-04-23T14:40:32.023Z</time>
      </trkpt>
      <trkpt lat="45.66433" lon="4.41685">
        <ele>596.244069</ele>
        <time>2021-04-23T14:40:40.024Z</time>
      </trkpt>
      <trkpt lat="45.66425" lon="4.41696">
        <ele>597.505564</ele>
        <time>2021-04-23T14:40:48.019Z</time>
      </trkpt>
      <trkpt lat="45.66417" lon="4.41699">
        <ele>598.637492</ele>
        <time>2021-04-23T14:40:54.017Z</time>
      </trkpt>
      <trkpt lat="45.66408" lon="4.41704">
        <ele>599.856294</ele>
        <time>2021-04-23T14:41:01.018Z</time>
      </trkpt>
      <trkpt lat="45.66398" lon="4.4171">
        <ele>601.120477</ele>
        <time>2021-04-23T14:41:07.027Z</time>
      </trkpt>
      <trkpt lat="45.66389" lon="4.41715">
        <ele>602.383053</ele>
        <time>2021-04-23T14:41:18.342Z</time>
      </trkpt>
      <trkpt lat="45.66379" lon="4.41718">
        <ele>603.564975</ele>
        <time>2021-04-23T14:41:26.364Z</time>
      </trkpt>
      <trkpt lat="45.66371" lon="4.41725">
        <ele>604.724663</ele>
        <time>2021-04-23T14:41:34.378Z</time>
      </trkpt>
      <trkpt lat="45.66362" lon="4.4173">
        <ele>605.897052</ele>
        <time>2021-04-23T14:41:42.407Z</time>
      </trkpt>
      <trkpt lat="45.66352" lon="4.41731">
        <ele>607.210018</ele>
        <time>2021-04-23T14:41:49.360Z</time>
      </trkpt>
      <trkpt lat="45.66342" lon="4.41733">
        <ele>608.428043</ele>
        <time>2021-04-23T14:41:57.371Z</time>
      </trkpt>
      <trkpt lat="45.66332" lon="4.41732">
        <ele>609.753338</ele>
        <time>2021-04-23T14:42:04.369Z</time>
      </trkpt>
      <trkpt lat="45.66322" lon="4.4173">
        <ele>610.995921</ele>
        <time>2021-04-23T14:42:11.402Z</time>
      </trkpt>
      <trkpt lat="45.66311" lon="4.41728">
        <ele>612.307884</ele>
        <time>2021-04-23T14:42:17.380Z</time>
      </trkpt>
      <trkpt lat="45.66302" lon="4.41726">
        <ele>613.419534</ele>
        <time>2021-04-23T14:42:21.400Z</time>
      </trkpt>
      <trkpt lat="45.66293" lon="4.41726">
        <ele>614.550561</ele>
        <time>2021-04-23T14:42:27.350Z</time>
      </trkpt>
      <trkpt lat="45.66284" lon="4.41728">
        <ele>615.722031</ele>
        <time>2021-04-23T14:42:36.399Z</time>
      </trkpt>
      <trkpt lat="45.66275" lon="4.41732">
        <ele>616.867984</ele>
        <time>2021-04-23T14:42:45.356Z</time>
      </trkpt>
      <trkpt lat="45.66265" lon="4.41733">
        <ele>618.049259</ele>
        <time>2021-04-23T14:42:55.389Z</time>
      </trkpt>
      <trkpt lat="45.66256" lon="4.41731">
        <ele>619.235547</ele>
        <time>2021-04-23T14:43:06.347Z</time>
      </trkpt>
      <trkpt lat="45.66246" lon="4.4173">
        <ele>620.376204</ele>
        <time>2021-04-23T14:43:13.378Z</time>
      </trkpt>
      <trkpt lat="45.66237" lon="4.41728">
        <ele>621.489252</ele>
        <time>2021-04-23T14:43:20.344Z</time>
      </trkpt>
      <trkpt lat="45.66228" lon="4.41726">
        <ele>622.625939</ele>
        <time>2021-04-23T14:43:32.374Z</time>
      </trkpt>
      <trkpt lat="45.66218" lon="4.41726">
        <ele>623.915888</ele>
        <time>2021-04-23T14:43:39.386Z</time>
      </trkpt>
      <trkpt lat="45.66208" lon="4.41727">
        <ele>625.108964</ele>
        <time>2021-04-23T14:43:46.355Z</time>
      </trkpt>
      <trkpt lat="45.66197" lon="4.41729">
        <ele>626.514904</ele>
        <time>2021-04-23T14:43:55.359Z</time>
      </trkpt>
      <trkpt lat="45.66187" lon="4.41731">
        <ele>627.733476</ele>
        <time>2021-04-23T14:44:02.383Z</time>
      </trkpt>
      <trkpt lat="45.66177" lon="4.41732">
        <ele>628.976578</ele>
        <time>2021-04-23T14:44:10.381Z</time>
      </trkpt>
      <trkpt lat="45.66168" lon="4.41735">
        <ele>630.118215</ele>
        <time>2021-04-23T14:44:18.355Z</time>
      </trkpt>
      <trkpt lat="45.66158" lon="4.41733">
        <ele>631.348925</ele>
        <time>2021-04-23T14:44:27.360Z</time>
      </trkpt>
      <trkpt lat="45.66147" lon="4.41733">
        <ele>632.724856</ele>
        <time>2021-04-23T14:44:40.371Z</time>
      </trkpt>
      <trkpt lat="45.66137" lon="4.41731">
        <ele>633.914215</ele>
        <time>2021-04-23T14:44:45.369Z</time>
      </trkpt>
      <trkpt lat="45.66129" lon="4.41739">
        <ele>635.08822</ele>
        <time>2021-04-23T14:44:52.363Z</time>
      </trkpt>
      <trkpt lat="45.66125" lon="4.41751">
        <ele>636.234984</ele>
        <time>2021-04-23T14:44:57.364Z</time>
      </trkpt>
      <trkpt lat="45.66122" lon="4.41766">
        <ele>637.312663</ele>
        <time>2021-04-23T14:45:02.373Z</time>
      </trkpt>
      <trkpt lat="45.66117" lon="4.41778">
        <ele>638.262073</ele>
        <time>2021-04-23T14:45:07.125Z</time>
      </trkpt>
      <trkpt lat="45.66112" lon="4.4179">
        <ele>639.16829</ele>
        <time>2021-04-23T14:45:12.097Z</time>
      </trkpt>
      <trkpt lat="45.66107" lon="4.41805">
        <ele>640.235056</ele>
        <time>2021-04-23T14:45:17.095Z</time>
      </trkpt>
      <trkpt lat="45.66105" lon="4.41819">
        <ele>641.165497</ele>
        <time>2021-04-23T14:45:21.100Z</time>
      </trkpt>
      <trkpt lat="45.66103" lon="4.41832">
        <ele>642.062007</ele>
        <time>2021-04-23T14:45:25.851Z</time>
      </trkpt>
      <trkpt lat="45.661" lon="4.41846">
        <ele>643.009311</ele>
        <time>2021-04-23T14:45:29.863Z</time>
      </trkpt>
      <trkpt lat="45.661" lon="4.4186">
        <ele>643.920399</ele>
        <time>2021-04-23T14:45:32.875Z</time>
      </trkpt>
      <trkpt lat="45.66099" lon="4.41874">
        <ele>644.809789</ele>
        <time>2021-04-23T14:45:35.861Z</time>
      </trkpt>
      <trkpt lat="45.66099" lon="4.41888">
        <ele>645.717425</ele>
        <time>2021-04-23T14:45:39.859Z</time>
      </trkpt>
      <trkpt lat="45.66098" lon="4.41905">
        <ele>646.836641</ele>
        <time>2021-04-23T14:45:43.893Z</time>
      </trkpt>
      <trkpt lat="45.66096" lon="4.41919">
        <ele>647.780405</ele>
        <time>2021-04-23T14:45:46.859Z</time>
      </trkpt>
      <trkpt lat="45.66093" lon="4.41935">
        <ele>648.828991</ele>
        <time>2021-04-23T14:45:49.896Z</time>
      </trkpt>
      <trkpt lat="45.66087" lon="4.41949">
        <ele>649.893138</ele>
        <time>2021-04-23T14:45:52.883Z</time>
      </trkpt>
      <trkpt lat="45.66081" lon="4.41961">
        <ele>650.888164</ele>
        <time>2021-04-23T14:45:55.913Z</time>
      </trkpt>
      <trkpt lat="45.66075" lon="4.41973">
        <ele>651.860308</ele>
        <time>2021-04-23T14:45:58.891Z</time>
      </trkpt>
      <trkpt lat="45.66066" lon="4.41985">
        <ele>653.020404</ele>
        <time>2021-04-23T14:46:01.886Z</time>
      </trkpt>
      <trkpt lat="45.66059" lon="4.41997">
        <ele>654.567785</ele>
        <time>2021-04-23T14:46:04.905Z</time>
      </trkpt>
      <trkpt lat="45.66055" lon="4.42009">
        <ele>656.502712</ele>
        <time>2021-04-23T14:46:08.858Z</time>
      </trkpt>
      <trkpt lat="45.6605" lon="4.42023">
        <ele>658.49362</ele>
        <time>2021-04-23T14:46:12.868Z</time>
      </trkpt>
      <trkpt lat="45.66045" lon="4.42034">
        <ele>660.363063</ele>
        <time>2021-04-23T14:46:17.893Z</time>
      </trkpt>
      <trkpt lat="45.66043" lon="4.42047">
        <ele>662.128368</ele>
        <time>2021-04-23T14:46:22.860Z</time>
      </trkpt>
      <trkpt lat="45.66038" lon="4.42059">
        <ele>663.912816</ele>
        <time>2021-04-23T14:46:27.856Z</time>
      </trkpt>
      <trkpt lat="45.66034" lon="4.42072">
        <ele>665.707835</ele>
        <time>2021-04-23T14:46:32.861Z</time>
      </trkpt>
      <trkpt lat="45.66029" lon="4.42084">
        <ele>667.656971</ele>
        <time>2021-04-23T14:46:38.865Z</time>
      </trkpt>
      <trkpt lat="45.66025" lon="4.42096">
        <ele>669.4178</ele>
        <time>2021-04-23T14:46:44.883Z</time>
      </trkpt>
      <trkpt lat="45.66019" lon="4.42108">
        <ele>671.350469</ele>
        <time>2021-04-23T14:46:51.871Z</time>
      </trkpt>
      <trkpt lat="45.66011" lon="4.42117">
        <ele>673.27369</ele>
        <time>2021-04-23T14:46:56.861Z</time>
      </trkpt>
      <trkpt lat="45.66003" lon="4.42124">
        <ele>675.051729</ele>
        <time>2021-04-23T14:47:00.864Z</time>
      </trkpt>
      <trkpt lat="45.65996" lon="4.42131">
        <ele>676.790428</ele>
        <time>2021-04-23T14:47:04.901Z</time>
      </trkpt>
      <trkpt lat="45.65986" lon="4.42137">
        <ele>678.774907</ele>
        <time>2021-04-23T14:47:09.892Z</time>
      </trkpt>
      <trkpt lat="45.65978" lon="4.42144">
        <ele>680.538922</ele>
        <time>2021-04-23T14:47:14.891Z</time>
      </trkpt>
      <trkpt lat="45.65994" lon="4.42148">
        <ele>683.611258</ele>
        <time>2021-04-23T14:51:52.864Z</time>
      </trkpt>
      <trkpt lat="45.66006" lon="4.42151">
        <ele>685.844086</ele>
        <time>2021-04-23T14:51:55.857Z</time>
      </trkpt>
      <trkpt lat="45.66016" lon="4.42153">
        <ele>687.688364</ele>
        <time>2021-04-23T14:51:57.866Z</time>
      </trkpt>
      <trkpt lat="45.66026" lon="4.42154">
        <ele>688.201561</ele>
        <time>2021-04-23T14:51:59.862Z</time>
      </trkpt>
      <trkpt lat="45.66037" lon="4.42156">
        <ele>688.697858</ele>
        <time>2021-04-23T14:52:01.883Z</time>
      </trkpt>
      <trkpt lat="45.66047" lon="4.42157">
        <ele>689.187441</ele>
        <time>2021-04-23T14:52:03.873Z</time>
      </trkpt>
      <trkpt lat="45.66059" lon="4.42157">
        <ele>689.770161</ele>
        <time>2021-04-23T14:52:05.894Z</time>
      </trkpt>
      <trkpt lat="45.66069" lon="4.42159">
        <ele>690.226998</ele>
        <time>2021-04-23T14:52:07.858Z</time>
      </trkpt>
      <trkpt lat="45.66083" lon="4.42163">
        <ele>690.893675</ele>
        <time>2021-04-23T14:52:10.877Z</time>
      </trkpt>
      <trkpt lat="45.66092" lon="4.42168">
        <ele>691.35648</ele>
        <time>2021-04-23T14:52:12.887Z</time>
      </trkpt>
      <trkpt lat="45.661" lon="4.42174">
        <ele>691.792644</ele>
        <time>2021-04-23T14:52:14.891Z</time>
      </trkpt>
      <trkpt lat="45.66112" lon="4.42181">
        <ele>692.420028</ele>
        <time>2021-04-23T14:52:17.882Z</time>
      </trkpt>
      <trkpt lat="45.66122" lon="4.42189">
        <ele>692.948119</ele>
        <time>2021-04-23T14:52:20.864Z</time>
      </trkpt>
      <trkpt lat="45.6613" lon="4.42197">
        <ele>693.393174</ele>
        <time>2021-04-23T14:52:24.870Z</time>
      </trkpt>
      <trkpt lat="45.66128" lon="4.4221">
        <ele>693.849052</ele>
        <time>2021-04-23T14:52:28.880Z</time>
      </trkpt>
      <trkpt lat="45.66126" lon="4.42223">
        <ele>694.29193</ele>
        <time>2021-04-23T14:52:34.859Z</time>
      </trkpt>
      <trkpt lat="45.66123" lon="4.42236">
        <ele>694.735817</ele>
        <time>2021-04-23T14:52:38.859Z</time>
      </trkpt>
      <trkpt lat="45.66121" lon="4.4225">
        <ele>695.215226</ele>
        <time>2021-04-23T14:52:43.906Z</time>
      </trkpt>
      <trkpt lat="45.66117" lon="4.42265">
        <ele>695.724772</ele>
        <time>2021-04-23T14:52:48.884Z</time>
      </trkpt>
      <trkpt lat="45.66114" lon="4.42278">
        <ele>696.203074</ele>
        <time>2021-04-23T14:52:53.868Z</time>
      </trkpt>
      <trkpt lat="45.66112" lon="4.42291">
        <ele>696.270776</ele>
        <time>2021-04-23T14:52:58.873Z</time>
      </trkpt>
      <trkpt lat="45.6611" lon="4.42304">
        <ele>696.337988</ele>
        <time>2021-04-23T14:53:03.879Z</time>
      </trkpt>
      <trkpt lat="45.6611" lon="4.42319">
        <ele>696.41621</ele>
        <time>2021-04-23T14:53:09.861Z</time>
      </trkpt>
      <trkpt lat="45.66106" lon="4.42333">
        <ele>696.494051</ele>
        <time>2021-04-23T14:53:16.856Z</time>
      </trkpt>
      <trkpt lat="45.66105" lon="4.42347">
        <ele>696.56675</ele>
        <time>2021-04-23T14:53:23.880Z</time>
      </trkpt>
      <trkpt lat="45.66102" lon="4.4236">
        <ele>696.633064</ele>
        <time>2021-04-23T14:53:29.870Z</time>
      </trkpt>
      <trkpt lat="45.66099" lon="4.42373">
        <ele>696.707751</ele>
        <time>2021-04-23T14:53:35.866Z</time>
      </trkpt>
      <trkpt lat="45.66096" lon="4.42385">
        <ele>696.774668</ele>
        <time>2021-04-23T14:53:41.877Z</time>
      </trkpt>
      <trkpt lat="45.66094" lon="4.424">
        <ele>696.849036</ele>
        <time>2021-04-23T14:53:48.890Z</time>
      </trkpt>
      <trkpt lat="45.66092" lon="4.42413">
        <ele>696.921864</ele>
        <time>2021-04-23T14:53:54.883Z</time>
      </trkpt>
      <trkpt lat="45.6609" lon="4.42427">
        <ele>696.997208</ele>
        <time>2021-04-23T14:54:00.902Z</time>
      </trkpt>
      <trkpt lat="45.66088" lon="4.4244">
        <ele>697.065438</ele>
        <time>2021-04-23T14:54:06.859Z</time>
      </trkpt>
      <trkpt lat="45.66087" lon="4.42454">
        <ele>697.138045</ele>
        <time>2021-04-23T14:54:13.878Z</time>
      </trkpt>
      <trkpt lat="45.66084" lon="4.42469">
        <ele>697.215506</ele>
        <time>2021-04-23T14:54:20.895Z</time>
      </trkpt>
      <trkpt lat="45.66082" lon="4.42482">
        <ele>697.287159</ele>
        <time>2021-04-23T14:54:25.867Z</time>
      </trkpt>
      <trkpt lat="45.6608" lon="4.42495">
        <ele>697.356297</ele>
        <time>2021-04-23T14:54:30.866Z</time>
      </trkpt>
      <trkpt lat="45.66077" lon="4.4251">
        <ele>697.436743</ele>
        <time>2021-04-23T14:54:36.895Z</time>
      </trkpt>
      <trkpt lat="45.66076" lon="4.42524">
        <ele>697.510357</ele>
        <time>2021-04-23T14:54:41.868Z</time>
      </trkpt>
      <trkpt lat="45.66073" lon="4.42539">
        <ele>697.795399</ele>
        <time>2021-04-23T14:54:47.898Z</time>
      </trkpt>
      <trkpt lat="45.6607" lon="4.42554">
        <ele>698.149892</ele>
        <time>2021-04-23T14:54:52.872Z</time>
      </trkpt>
      <trkpt lat="45.66067" lon="4.42567">
        <ele>698.476685</ele>
        <time>2021-04-23T14:54:57.886Z</time>
      </trkpt>
      <trkpt lat="45.66064" lon="4.42579">
        <ele>698.790936</ele>
        <time>2021-04-23T14:55:11.874Z</time>
      </trkpt>
      <trkpt lat="45.66085" lon="4.42594">
        <ele>699.574725</ele>
        <time>2021-04-23T14:56:24.861Z</time>
      </trkpt>
      <trkpt lat="45.66095" lon="4.42596">
        <ele>699.924194</ele>
        <time>2021-04-23T14:56:27.879Z</time>
      </trkpt>
      <trkpt lat="45.66106" lon="4.42601">
        <ele>700.332144</ele>
        <time>2021-04-23T14:56:30.727Z</time>
      </trkpt>
      <trkpt lat="45.66115" lon="4.42604">
        <ele>700.647207</ele>
        <time>2021-04-23T14:56:32.732Z</time>
      </trkpt>
      <trkpt lat="45.66126" lon="4.42606">
        <ele>701.005304</ele>
        <time>2021-04-23T14:56:34.751Z</time>
      </trkpt>
      <trkpt lat="45.66135" lon="4.42608">
        <ele>701.345125</ele>
        <time>2021-04-23T14:56:36.726Z</time>
      </trkpt>
      <trkpt lat="45.66148" lon="4.42612">
        <ele>701.801328</ele>
        <time>2021-04-23T14:56:39.738Z</time>
      </trkpt>
      <trkpt lat="45.66161" lon="4.42616">
        <ele>702.249897</ele>
        <time>2021-04-23T14:56:42.732Z</time>
      </trkpt>
      <trkpt lat="45.66171" lon="4.42619">
        <ele>702.574418</ele>
        <time>2021-04-23T14:56:44.746Z</time>
      </trkpt>
      <trkpt lat="45.66181" lon="4.4262">
        <ele>702.925987</ele>
        <time>2021-04-23T14:56:46.755Z</time>
      </trkpt>
      <trkpt lat="45.66191" lon="4.4262">
        <ele>703.260122</ele>
        <time>2021-04-23T14:56:48.734Z</time>
      </trkpt>
      <trkpt lat="45.66202" lon="4.42621">
        <ele>703.654057</ele>
        <time>2021-04-23T14:56:50.741Z</time>
      </trkpt>
      <trkpt lat="45.66214" lon="4.42622">
        <ele>703.908223</ele>
        <time>2021-04-23T14:56:52.739Z</time>
      </trkpt>
      <trkpt lat="45.66225" lon="4.42622">
        <ele>704.134544</ele>
        <time>2021-04-23T14:56:54.730Z</time>
      </trkpt>
      <trkpt lat="45.66236" lon="4.42623">
        <ele>704.38034</ele>
        <time>2021-04-23T14:56:56.744Z</time>
      </trkpt>
      <trkpt lat="45.66246" lon="4.42627">
        <ele>704.602396</ele>
        <time>2021-04-23T14:56:58.739Z</time>
      </trkpt>
      <trkpt lat="45.66258" lon="4.42631">
        <ele>704.844147</ele>
        <time>2021-04-23T14:57:00.736Z</time>
      </trkpt>
      <trkpt lat="45.66267" lon="4.42637">
        <ele>705.067534</ele>
        <time>2021-04-23T14:57:02.777Z</time>
      </trkpt>
      <trkpt lat="45.66276" lon="4.42643">
        <ele>705.27566</ele>
        <time>2021-04-23T14:57:04.763Z</time>
      </trkpt>
      <trkpt lat="45.66288" lon="4.42652">
        <ele>705.557793</ele>
        <time>2021-04-23T14:57:07.744Z</time>
      </trkpt>
      <trkpt lat="45.66297" lon="4.42657">
        <ele>705.766526</ele>
        <time>2021-04-23T14:57:09.761Z</time>
      </trkpt>
      <trkpt lat="45.66306" lon="4.42661">
        <ele>705.965856</ele>
        <time>2021-04-23T14:57:11.744Z</time>
      </trkpt>
      <trkpt lat="45.66315" lon="4.42664">
        <ele>706.166467</ele>
        <time>2021-04-23T14:57:13.769Z</time>
      </trkpt>
      <trkpt lat="45.66328" lon="4.42671">
        <ele>706.442862</ele>
        <time>2021-04-23T14:57:16.748Z</time>
      </trkpt>
      <trkpt lat="45.6634" lon="4.42678">
        <ele>706.721635</ele>
        <time>2021-04-23T14:57:19.764Z</time>
      </trkpt>
      <trkpt lat="45.6635" lon="4.42684">
        <ele>706.967095</ele>
        <time>2021-04-23T14:57:22.766Z</time>
      </trkpt>
      <trkpt lat="45.66361" lon="4.42691">
        <ele>707.208275</ele>
        <time>2021-04-23T14:57:25.744Z</time>
      </trkpt>
      <trkpt lat="45.66372" lon="4.42696">
        <ele>707.452844</ele>
        <time>2021-04-23T14:57:28.746Z</time>
      </trkpt>
      <trkpt lat="45.66383" lon="4.42703">
        <ele>707.553589</ele>
        <time>2021-04-23T14:57:31.773Z</time>
      </trkpt>
      <trkpt lat="45.66392" lon="4.42707">
        <ele>707.620986</ele>
        <time>2021-04-23T14:57:33.765Z</time>
      </trkpt>
      <trkpt lat="45.66401" lon="4.4271">
        <ele>707.685734</ele>
        <time>2021-04-23T14:57:35.746Z</time>
      </trkpt>
      <trkpt lat="45.66412" lon="4.42714">
        <ele>707.764198</ele>
        <time>2021-04-23T14:57:38.738Z</time>
      </trkpt>
      <trkpt lat="45.66422" lon="4.42718">
        <ele>707.83962</ele>
        <time>2021-04-23T14:57:41.759Z</time>
      </trkpt>
      <trkpt lat="45.66432" lon="4.42723">
        <ele>707.917533</ele>
        <time>2021-04-23T14:57:44.772Z</time>
      </trkpt>
      <trkpt lat="45.66442" lon="4.42727">
        <ele>707.992955</ele>
        <time>2021-04-23T14:57:46.760Z</time>
      </trkpt>
      <trkpt lat="45.66453" lon="4.42731">
        <ele>708.068395</ele>
        <time>2021-04-23T14:57:48.747Z</time>
      </trkpt>
      <trkpt lat="45.66464" lon="4.42735">
        <ele>708.151255</ele>
        <time>2021-04-23T14:57:50.733Z</time>
      </trkpt>
      <trkpt lat="45.66476" lon="4.42741">
        <ele>708.243416</ele>
        <time>2021-04-23T14:57:52.738Z</time>
      </trkpt>
      <trkpt lat="45.66487" lon="4.42747">
        <ele>708.329684</ele>
        <time>2021-04-23T14:57:54.722Z</time>
      </trkpt>
      <trkpt lat="45.66498" lon="4.42752">
        <ele>708.410406</ele>
        <time>2021-04-23T14:57:56.753Z</time>
      </trkpt>
      <trkpt lat="45.66509" lon="4.42757">
        <ele>708.497035</ele>
        <time>2021-04-23T14:57:58.745Z</time>
      </trkpt>
      <trkpt lat="45.66521" lon="4.42764">
        <ele>708.58563</ele>
        <time>2021-04-23T14:58:00.771Z</time>
      </trkpt>
      <trkpt lat="45.66531" lon="4.4277">
        <ele>708.662323</ele>
        <time>2021-04-23T14:58:02.762Z</time>
      </trkpt>
      <trkpt lat="45.6654" lon="4.42776">
        <ele>708.73534</ele>
        <time>2021-04-23T14:58:04.764Z</time>
      </trkpt>
      <trkpt lat="45.66551" lon="4.42785">
        <ele>708.888829</ele>
        <time>2021-04-23T14:58:06.737Z</time>
      </trkpt>
      <trkpt lat="45.66562" lon="4.42794">
        <ele>709.05624</ele>
        <time>2021-04-23T14:58:09.760Z</time>
      </trkpt>
      <trkpt lat="45.6657" lon="4.42801">
        <ele>709.187482</ele>
        <time>2021-04-23T14:58:13.761Z</time>
      </trkpt>
      <trkpt lat="45.66585" lon="4.42813">
        <ele>709.424824</ele>
        <time>2021-04-23T14:58:42.020Z</time>
      </trkpt>
      <trkpt lat="45.66597" lon="4.42827">
        <ele>709.636649</ele>
        <time>2021-04-23T15:02:17.011Z</time>
      </trkpt>
      <trkpt lat="45.66607" lon="4.4284">
        <ele>709.815867</ele>
        <time>2021-04-23T15:02:20.017Z</time>
      </trkpt>
      <trkpt lat="45.66613" lon="4.4285">
        <ele>709.940612</ele>
        <time>2021-04-23T15:02:22.035Z</time>
      </trkpt>
      <trkpt lat="45.6662" lon="4.42865">
        <ele>710.1136</ele>
        <time>2021-04-23T15:02:25.031Z</time>
      </trkpt>
      <trkpt lat="45.66624" lon="4.42877">
        <ele>710.236751</ele>
        <time>2021-04-23T15:02:27.042Z</time>
      </trkpt>
      <trkpt lat="45.6663" lon="4.4289">
        <ele>710.382847</ele>
        <time>2021-04-23T15:02:29.031Z</time>
      </trkpt>
      <trkpt lat="45.66635" lon="4.42905">
        <ele>710.547491</ele>
        <time>2021-04-23T15:02:31.035Z</time>
      </trkpt>
      <trkpt lat="45.6664" lon="4.42923">
        <ele>710.725323</ele>
        <time>2021-04-23T15:02:33.024Z</time>
      </trkpt>
      <trkpt lat="45.66644" lon="4.42943">
        <ele>710.925106</ele>
        <time>2021-04-23T15:02:35.011Z</time>
      </trkpt>
      <trkpt lat="45.6665" lon="4.42966">
        <ele>711.159193</ele>
        <time>2021-04-23T15:02:37.012Z</time>
      </trkpt>
      <trkpt lat="45.66654" lon="4.42978">
        <ele>711.189125</ele>
        <time>2021-04-23T15:02:38.015Z</time>
      </trkpt>
      <trkpt lat="45.66658" lon="4.4299">
        <ele>711.166678</ele>
        <time>2021-04-23T15:02:39.011Z</time>
      </trkpt>
      <trkpt lat="45.66662" lon="4.43002">
        <ele>711.142485</ele>
        <time>2021-04-23T15:02:40.013Z</time>
      </trkpt>
      <trkpt lat="45.66666" lon="4.43015">
        <ele>711.118797</ele>
        <time>2021-04-23T15:02:41.051Z</time>
      </trkpt>
      <trkpt lat="45.66669" lon="4.43028">
        <ele>711.095678</ele>
        <time>2021-04-23T15:02:42.018Z</time>
      </trkpt>
      <trkpt lat="45.66674" lon="4.4305">
        <ele>711.055728</ele>
        <time>2021-04-23T15:02:44.024Z</time>
      </trkpt>
      <trkpt lat="45.66678" lon="4.4307">
        <ele>711.019611</ele>
        <time>2021-04-23T15:02:46.023Z</time>
      </trkpt>
      <trkpt lat="45.66683" lon="4.4309">
        <ele>710.982699</ele>
        <time>2021-04-23T15:02:48.039Z</time>
      </trkpt>
      <trkpt lat="45.66688" lon="4.43109">
        <ele>710.949367</ele>
        <time>2021-04-23T15:02:50.023Z</time>
      </trkpt>
      <trkpt lat="45.66693" lon="4.43129">
        <ele>710.912385</ele>
        <time>2021-04-23T15:02:52.028Z</time>
      </trkpt>
      <trkpt lat="45.66696" lon="4.43143">
        <ele>710.88765</ele>
        <time>2021-04-23T15:02:54.032Z</time>
      </trkpt>
      <trkpt lat="45.66698" lon="4.43159">
        <ele>710.858957</ele>
        <time>2021-04-23T15:02:59.014Z</time>
      </trkpt>
      <trkpt lat="45.66699" lon="4.43172">
        <ele>710.836086</ele>
        <time>2021-04-23T15:03:02.017Z</time>
      </trkpt>
      <trkpt lat="45.66702" lon="4.4319">
        <ele>710.805567</ele>
        <time>2021-04-23T15:03:05.050Z</time>
      </trkpt>
      <trkpt lat="45.66706" lon="4.43207">
        <ele>710.77481</ele>
        <time>2021-04-23T15:03:07.021Z</time>
      </trkpt>
      <trkpt lat="45.66708" lon="4.43223">
        <ele>710.651093</ele>
        <time>2021-04-23T15:03:09.016Z</time>
      </trkpt>
      <trkpt lat="45.66709" lon="4.43237">
        <ele>710.463605</ele>
        <time>2021-04-23T15:03:11.059Z</time>
      </trkpt>
      <trkpt lat="45.66706" lon="4.43253">
        <ele>710.25963</ele>
        <time>2021-04-23T15:03:13.051Z</time>
      </trkpt>
      <trkpt lat="45.66701" lon="4.43271">
        <ele>710.013574</ele>
        <time>2021-04-23T15:03:15.023Z</time>
      </trkpt>
      <trkpt lat="45.66696" lon="4.43288">
        <ele>709.790184</ele>
        <time>2021-04-23T15:03:17.029Z</time>
      </trkpt>
      <trkpt lat="45.6669" lon="4.43303">
        <ele>709.559705</ele>
        <time>2021-04-23T15:03:19.043Z</time>
      </trkpt>
      <trkpt lat="45.66682" lon="4.43321">
        <ele>709.302881</ele>
        <time>2021-04-23T15:03:21.022Z</time>
      </trkpt>
      <trkpt lat="45.66676" lon="4.43337">
        <ele>709.063648</ele>
        <time>2021-04-23T15:03:23.038Z</time>
      </trkpt>
      <trkpt lat="45.66671" lon="4.43354">
        <ele>708.830856</ele>
        <time>2021-04-23T15:03:25.023Z</time>
      </trkpt>
      <trkpt lat="45.66666" lon="4.43368">
        <ele>708.62566</ele>
        <time>2021-04-23T15:03:27.035Z</time>
      </trkpt>
      <trkpt lat="45.66663" lon="4.43383">
        <ele>708.430173</ele>
        <time>2021-04-23T15:03:29.015Z</time>
      </trkpt>
      <trkpt lat="45.66661" lon="4.43399">
        <ele>708.231428</ele>
        <time>2021-04-23T15:03:31.028Z</time>
      </trkpt>
      <trkpt lat="45.66655" lon="4.43412">
        <ele>708.038858</ele>
        <time>2021-04-23T15:03:33.048Z</time>
      </trkpt>
      <trkpt lat="45.6665" lon="4.43423">
        <ele>707.866958</ele>
        <time>2021-04-23T15:03:35.031Z</time>
      </trkpt>
      <trkpt lat="45.66644" lon="4.43435">
        <ele>707.679712</ele>
        <time>2021-04-23T15:03:38.043Z</time>
      </trkpt>
      <trkpt lat="45.66638" lon="4.43446">
        <ele>707.512278</ele>
        <time>2021-04-23T15:03:42.010Z</time>
      </trkpt>
      <trkpt lat="45.6663" lon="4.43456">
        <ele>707.423989</ele>
        <time>2021-04-23T15:03:47.020Z</time>
      </trkpt>
      <trkpt lat="45.66623" lon="4.43467">
        <ele>707.335697</ele>
        <time>2021-04-23T15:03:51.017Z</time>
      </trkpt>
      <trkpt lat="45.66616" lon="4.4348">
        <ele>707.246162</ele>
        <time>2021-04-23T15:03:55.019Z</time>
      </trkpt>
      <trkpt lat="45.66611" lon="4.43493">
        <ele>707.159322</ele>
        <time>2021-04-23T15:03:59.011Z</time>
      </trkpt>
      <trkpt lat="45.66606" lon="4.43506">
        <ele>707.07284</ele>
        <time>2021-04-23T15:04:03.022Z</time>
      </trkpt>
      <trkpt lat="45.666" lon="4.4352">
        <ele>706.981587</ele>
        <time>2021-04-23T15:04:07.030Z</time>
      </trkpt>
      <trkpt lat="45.66595" lon="4.43535">
        <ele>706.886017</ele>
        <time>2021-04-23T15:04:12.025Z</time>
      </trkpt>
      <trkpt lat="45.66591" lon="4.43548">
        <ele>706.806019</ele>
        <time>2021-04-23T15:04:16.039Z</time>
      </trkpt>
      <trkpt lat="45.66591" lon="4.43561">
        <ele>706.73032</ele>
        <time>2021-04-23T15:04:22.036Z</time>
      </trkpt>
      <trkpt lat="45.66592" lon="4.43576">
        <ele>706.643988</ele>
        <time>2021-04-23T15:04:29.030Z</time>
      </trkpt>
      <trkpt lat="45.66588" lon="4.4359">
        <ele>706.556016</ele>
        <time>2021-04-23T15:04:33.021Z</time>
      </trkpt>
      <trkpt lat="45.66583" lon="4.43604">
        <ele>706.469453</ele>
        <time>2021-04-23T15:04:37.037Z</time>
      </trkpt>
      <trkpt lat="45.66579" lon="4.43617">
        <ele>706.384737</ele>
        <time>2021-04-23T15:04:42.037Z</time>
      </trkpt>
      <trkpt lat="45.66573" lon="4.4363">
        <ele>706.29567</ele>
        <time>2021-04-23T15:04:47.013Z</time>
      </trkpt>
      <trkpt lat="45.66566" lon="4.43641">
        <ele>706.213515</ele>
        <time>2021-04-23T15:04:54.041Z</time>
      </trkpt>
      <trkpt lat="45.66569" lon="4.43654">
        <ele>706.13651</ele>
        <time>2021-04-23T15:05:03.022Z</time>
      </trkpt>
      <trkpt lat="45.66573" lon="4.43665">
        <ele>706.061538</ele>
        <time>2021-04-23T15:05:08.011Z</time>
      </trkpt>
      <trkpt lat="45.66581" lon="4.43675">
        <ele>706.237993</ele>
        <time>2021-04-23T15:05:14.026Z</time>
      </trkpt>
      <trkpt lat="45.6659" lon="4.43682">
        <ele>706.467302</ele>
        <time>2021-04-23T15:05:20.008Z</time>
      </trkpt>
      <trkpt lat="45.66598" lon="4.43689">
        <ele>706.708324</ele>
        <time>2021-04-23T15:05:26.056Z</time>
      </trkpt>
      <trkpt lat="45.66607" lon="4.43695">
        <ele>706.943176</ele>
        <time>2021-04-23T15:05:33.048Z</time>
      </trkpt>
      <trkpt lat="45.66605" lon="4.43709">
        <ele>707.173057</ele>
        <time>2021-04-23T15:05:43.042Z</time>
      </trkpt>
      <trkpt lat="45.66596" lon="4.43711">
        <ele>707.395038</ele>
        <time>2021-04-23T15:05:48.021Z</time>
      </trkpt>
      <trkpt lat="45.66587" lon="4.43715">
        <ele>707.613438</ele>
        <time>2021-04-23T15:05:55.051Z</time>
      </trkpt>
      <trkpt lat="45.66578" lon="4.4372">
        <ele>707.832391</ele>
        <time>2021-04-23T15:06:00.027Z</time>
      </trkpt>
      <trkpt lat="45.66568" lon="4.43724">
        <ele>708.075839</ele>
        <time>2021-04-23T15:06:06.016Z</time>
      </trkpt>
      <trkpt lat="45.6656" lon="4.43727">
        <ele>708.291444</ele>
        <time>2021-04-23T15:06:12.033Z</time>
      </trkpt>
      <trkpt lat="45.66551" lon="4.43732">
        <ele>708.513621</ele>
        <time>2021-04-23T15:06:18.040Z</time>
      </trkpt>
      <trkpt lat="45.66541" lon="4.43735">
        <ele>708.742403</ele>
        <time>2021-04-23T15:06:24.049Z</time>
      </trkpt>
      <trkpt lat="45.66531" lon="4.43738">
        <ele>708.990509</ele>
        <time>2021-04-23T15:06:31.012Z</time>
      </trkpt>
      <trkpt lat="45.66521" lon="4.43744">
        <ele>709.247758</ele>
        <time>2021-04-23T15:06:37.021Z</time>
      </trkpt>
      <trkpt lat="45.66512" lon="4.43747">
        <ele>709.463801</ele>
        <time>2021-04-23T15:06:44.043Z</time>
      </trkpt>
      <trkpt lat="45.66502" lon="4.4375">
        <ele>709.705145</ele>
        <time>2021-04-23T15:06:52.014Z</time>
      </trkpt>
      <trkpt lat="45.66493" lon="4.43749">
        <ele>709.925625</ele>
        <time>2021-04-23T15:06:59.035Z</time>
      </trkpt>
      <trkpt lat="45.66483" lon="4.43746">
        <ele>710.157704</ele>
        <time>2021-04-23T15:07:05.035Z</time>
      </trkpt>
      <trkpt lat="45.66474" lon="4.43746">
        <ele>710.408599</ele>
        <time>2021-04-23T15:07:11.016Z</time>
      </trkpt>
      <trkpt lat="45.66465" lon="4.43749">
        <ele>710.721164</ele>
        <time>2021-04-23T15:07:17.032Z</time>
      </trkpt>
      <trkpt lat="45.66455" lon="4.43752">
        <ele>711.041555</ele>
        <time>2021-04-23T15:07:24.020Z</time>
      </trkpt>
      <trkpt lat="45.66446" lon="4.43761">
        <ele>711.384135</ele>
        <time>2021-04-23T15:07:31.019Z</time>
      </trkpt>
      <trkpt lat="45.66437" lon="4.43766">
        <ele>711.710896</ele>
        <time>2021-04-23T15:07:39.029Z</time>
      </trkpt>
      <trkpt lat="45.66428" lon="4.43773">
        <ele>712.036438</ele>
        <time>2021-04-23T15:07:44.048Z</time>
      </trkpt>
      <trkpt lat="45.66421" lon="4.4378">
        <ele>712.333848</ele>
        <time>2021-04-23T15:07:47.033Z</time>
      </trkpt>
      <trkpt lat="45.66412" lon="4.43789">
        <ele>712.686774</ele>
        <time>2021-04-23T15:07:52.026Z</time>
      </trkpt>
      <trkpt lat="45.66404" lon="4.43797">
        <ele>712.99876</ele>
        <time>2021-04-23T15:07:57.020Z</time>
      </trkpt>
      <trkpt lat="45.66396" lon="4.43807">
        <ele>713.319855</ele>
        <time>2021-04-23T15:08:02.035Z</time>
      </trkpt>
      <trkpt lat="45.66391" lon="4.4382">
        <ele>713.667002</ele>
        <time>2021-04-23T15:08:07.029Z</time>
      </trkpt>
      <trkpt lat="45.66387" lon="4.43833">
        <ele>713.994086</ele>
        <time>2021-04-23T15:08:12.023Z</time>
      </trkpt>
      <trkpt lat="45.66382" lon="4.43844">
        <ele>714.29026</ele>
        <time>2021-04-23T15:08:16.009Z</time>
      </trkpt>
      <trkpt lat="45.66376" lon="4.43853">
        <ele>714.586754</ele>
        <time>2021-04-23T15:08:20.029Z</time>
      </trkpt>
      <trkpt lat="45.66371" lon="4.43864">
        <ele>714.89828</ele>
        <time>2021-04-23T15:08:25.032Z</time>
      </trkpt>
      <trkpt lat="45.66366" lon="4.43876">
        <ele>715.209807</ele>
        <time>2021-04-23T15:08:30.027Z</time>
      </trkpt>
      <trkpt lat="45.66359" lon="4.43888">
        <ele>715.551655</ele>
        <time>2021-04-23T15:08:35.031Z</time>
      </trkpt>
      <trkpt lat="45.66351" lon="4.439">
        <ele>715.93888</ele>
        <time>2021-04-23T15:08:39.031Z</time>
      </trkpt>
      <trkpt lat="45.66344" lon="4.43912">
        <ele>716.208555</ele>
        <time>2021-04-23T15:08:42.047Z</time>
      </trkpt>
      <trkpt lat="45.66338" lon="4.43925">
        <ele>716.37307</ele>
        <time>2021-04-23T15:08:45.048Z</time>
      </trkpt>
      <trkpt lat="45.66333" lon="4.43938">
        <ele>716.526682</ele>
        <time>2021-04-23T15:08:48.017Z</time>
      </trkpt>
      <trkpt lat="45.66326" lon="4.43952">
        <ele>716.702375</ele>
        <time>2021-04-23T15:08:52.016Z</time>
      </trkpt>
      <trkpt lat="45.6632" lon="4.43964">
        <ele>716.869501</ele>
        <time>2021-04-23T15:08:56.019Z</time>
      </trkpt>
      <trkpt lat="45.66312" lon="4.43979">
        <ele>717.060697</ele>
        <time>2021-04-23T15:08:59.036Z</time>
      </trkpt>
      <trkpt lat="45.66306" lon="4.43993">
        <ele>717.233002</ele>
        <time>2021-04-23T15:09:02.044Z</time>
      </trkpt>
      <trkpt lat="45.66302" lon="4.4401">
        <ele>717.421466</ele>
        <time>2021-04-23T15:09:05.034Z</time>
      </trkpt>
      <trkpt lat="45.66298" lon="4.44023">
        <ele>717.569918</ele>
        <time>2021-04-23T15:09:07.030Z</time>
      </trkpt>
      <trkpt lat="45.66295" lon="4.44037">
        <ele>717.724156</ele>
        <time>2021-04-23T15:09:09.028Z</time>
      </trkpt>
      <trkpt lat="45.66292" lon="4.4405">
        <ele>717.872296</ele>
        <time>2021-04-23T15:09:11.012Z</time>
      </trkpt>
      <trkpt lat="45.66291" lon="4.44063">
        <ele>718.010507</ele>
        <time>2021-04-23T15:09:13.045Z</time>
      </trkpt>
      <trkpt lat="45.66288" lon="4.44077">
        <ele>718.155846</ele>
        <time>2021-04-23T15:09:15.017Z</time>
      </trkpt>
      <trkpt lat="45.66284" lon="4.44091">
        <ele>718.32097</ele>
        <time>2021-04-23T15:09:17.026Z</time>
      </trkpt>
      <trkpt lat="45.66281" lon="4.44105">
        <ele>718.469932</ele>
        <time>2021-04-23T15:09:19.029Z</time>
      </trkpt>
      <trkpt lat="45.66278" lon="4.44119">
        <ele>718.629694</ele>
        <time>2021-04-23T15:09:21.018Z</time>
      </trkpt>
      <trkpt lat="45.66276" lon="4.44134">
        <ele>718.787529</ele>
        <time>2021-04-23T15:09:23.020Z</time>
      </trkpt>
      <trkpt lat="45.66275" lon="4.44149">
        <ele>718.900384</ele>
        <time>2021-04-23T15:09:25.021Z</time>
      </trkpt>
      <trkpt lat="45.66273" lon="4.44166">
        <ele>718.993776</ele>
        <time>2021-04-23T15:09:27.017Z</time>
      </trkpt>
      <trkpt lat="45.66274" lon="4.44179">
        <ele>719.068875</ele>
        <time>2021-04-23T15:09:28.012Z</time>
      </trkpt>
      <trkpt lat="45.66276" lon="4.442">
        <ele>719.184149</ele>
        <time>2021-04-23T15:09:30.039Z</time>
      </trkpt>
      <trkpt lat="45.66278" lon="4.44221">
        <ele>719.304062</ele>
        <time>2021-04-23T15:09:32.020Z</time>
      </trkpt>
      <trkpt lat="45.66276" lon="4.44241">
        <ele>719.416243</ele>
        <time>2021-04-23T15:09:34.031Z</time>
      </trkpt>
      <trkpt lat="45.66276" lon="4.44265">
        <ele>719.548561</ele>
        <time>2021-04-23T15:09:36.020Z</time>
      </trkpt>
      <trkpt lat="45.6628" lon="4.44277">
        <ele>719.623498</ele>
        <time>2021-04-23T15:09:37.021Z</time>
      </trkpt>
      <trkpt lat="45.66281" lon="4.44291">
        <ele>719.701569</ele>
        <time>2021-04-23T15:09:38.048Z</time>
      </trkpt>
      <trkpt lat="45.66282" lon="4.44308">
        <ele>719.791844</ele>
        <time>2021-04-23T15:09:39.040Z</time>
      </trkpt>
      <trkpt lat="45.66283" lon="4.44325">
        <ele>719.887217</ele>
        <time>2021-04-23T15:09:40.041Z</time>
      </trkpt>
      <trkpt lat="45.66285" lon="4.44341">
        <ele>719.981349</ele>
        <time>2021-04-23T15:09:41.050Z</time>
      </trkpt>
      <trkpt lat="45.6629" lon="4.44356">
        <ele>720.076048</ele>
        <time>2021-04-23T15:09:42.028Z</time>
      </trkpt>
      <trkpt lat="45.66298" lon="4.44369">
        <ele>720.167747</ele>
        <time>2021-04-23T15:09:43.014Z</time>
      </trkpt>
      <trkpt lat="45.66304" lon="4.4438">
        <ele>720.244571</ele>
        <time>2021-04-23T15:09:44.042Z</time>
      </trkpt>
      <trkpt lat="45.66314" lon="4.44397">
        <ele>720.43002</ele>
        <time>2021-04-23T15:09:46.033Z</time>
      </trkpt>
      <trkpt lat="45.66326" lon="4.44409">
        <ele>720.607331</ele>
        <time>2021-04-23T15:09:48.015Z</time>
      </trkpt>
      <trkpt lat="45.66338" lon="4.44419">
        <ele>720.782405</ele>
        <time>2021-04-23T15:09:50.008Z</time>
      </trkpt>
      <trkpt lat="45.66349" lon="4.44426">
        <ele>720.934795</ele>
        <time>2021-04-23T15:09:52.018Z</time>
      </trkpt>
      <trkpt lat="45.66358" lon="4.44434">
        <ele>721.069432</ele>
        <time>2021-04-23T15:09:54.035Z</time>
      </trkpt>
      <trkpt lat="45.66364" lon="4.44444">
        <ele>721.186939</ele>
        <time>2021-04-23T15:09:56.012Z</time>
      </trkpt>
      <trkpt lat="45.6637" lon="4.44456">
        <ele>721.316487</ele>
        <time>2021-04-23T15:10:01.018Z</time>
      </trkpt>
      <trkpt lat="45.66374" lon="4.44471">
        <ele>721.45498</ele>
        <time>2021-04-23T15:10:04.020Z</time>
      </trkpt>
      <trkpt lat="45.66377" lon="4.44489">
        <ele>721.614142</ele>
        <time>2021-04-23T15:10:07.026Z</time>
      </trkpt>
      <trkpt lat="45.66376" lon="4.44506">
        <ele>721.769283</ele>
        <time>2021-04-23T15:10:10.008Z</time>
      </trkpt>
      <trkpt lat="45.66381" lon="4.4452">
        <ele>721.908886</ele>
        <time>2021-04-23T15:10:13.017Z</time>
      </trkpt>
      <trkpt lat="45.66385" lon="4.44531">
        <ele>722.022187</ele>
        <time>2021-04-23T15:10:15.026Z</time>
      </trkpt>
      <trkpt lat="45.6639" lon="4.44543">
        <ele>722.140388</ele>
        <time>2021-04-23T15:10:17.036Z</time>
      </trkpt>
      <trkpt lat="45.66394" lon="4.44555">
        <ele>722.254459</ele>
        <time>2021-04-23T15:10:19.004Z</time>
      </trkpt>
      <trkpt lat="45.66399" lon="4.44567">
        <ele>722.375373</ele>
        <time>2021-04-23T15:10:21.018Z</time>
      </trkpt>
      <trkpt lat="45.66406" lon="4.44581">
        <ele>722.533696</ele>
        <time>2021-04-23T15:10:24.023Z</time>
      </trkpt>
      <trkpt lat="45.66412" lon="4.44596">
        <ele>722.41406</ele>
        <time>2021-04-23T15:10:27.044Z</time>
      </trkpt>
      <trkpt lat="45.66417" lon="4.4461">
        <ele>722.294936</ele>
        <time>2021-04-23T15:10:30.051Z</time>
      </trkpt>
      <trkpt lat="45.66419" lon="4.44627">
        <ele>722.173351</ele>
        <time>2021-04-23T15:10:33.039Z</time>
      </trkpt>
      <trkpt lat="45.66421" lon="4.44642">
        <ele>722.05541</ele>
        <time>2021-04-23T15:10:36.028Z</time>
      </trkpt>
      <trkpt lat="45.66423" lon="4.44659">
        <ele>721.928639</ele>
        <time>2021-04-23T15:10:39.033Z</time>
      </trkpt>
      <trkpt lat="45.66424" lon="4.44674">
        <ele>721.817521</ele>
        <time>2021-04-23T15:10:42.026Z</time>
      </trkpt>
      <trkpt lat="45.66427" lon="4.44689">
        <ele>721.706966</ele>
        <time>2021-04-23T15:10:45.036Z</time>
      </trkpt>
      <trkpt lat="45.66427" lon="4.44703">
        <ele>721.605291</ele>
        <time>2021-04-23T15:10:48.025Z</time>
      </trkpt>
      <trkpt lat="45.66426" lon="4.44716">
        <ele>721.508683</ele>
        <time>2021-04-23T15:10:50.033Z</time>
      </trkpt>
      <trkpt lat="45.66424" lon="4.44729">
        <ele>721.409173</ele>
        <time>2021-04-23T15:10:52.029Z</time>
      </trkpt>
      <trkpt lat="45.6642" lon="4.4474">
        <ele>721.31488</ele>
        <time>2021-04-23T15:10:54.032Z</time>
      </trkpt>
      <trkpt lat="45.66412" lon="4.44756">
        <ele>721.174173</ele>
        <time>2021-04-23T15:10:57.027Z</time>
      </trkpt>
      <trkpt lat="45.66407" lon="4.44771">
        <ele>721.045916</ele>
        <time>2021-04-23T15:11:00.047Z</time>
      </trkpt>
      <trkpt lat="45.66397" lon="4.44784">
        <ele>720.909361</ele>
        <time>2021-04-23T15:11:03.009Z</time>
      </trkpt>
      <trkpt lat="45.66388" lon="4.44784">
        <ele>720.813426</ele>
        <time>2021-04-23T15:11:05.016Z</time>
      </trkpt>
      <trkpt lat="45.66378" lon="4.44773">
        <ele>720.684309</ele>
        <time>2021-04-23T15:11:08.026Z</time>
      </trkpt>
      <trkpt lat="45.66371" lon="4.44761">
        <ele>720.642808</ele>
        <time>2021-04-23T15:11:11.033Z</time>
      </trkpt>
      <trkpt lat="45.66365" lon="4.44749">
        <ele>720.646131</ele>
        <time>2021-04-23T15:11:14.059Z</time>
      </trkpt>
      <trkpt lat="45.66357" lon="4.4474">
        <ele>720.649417</ele>
        <time>2021-04-23T15:11:17.019Z</time>
      </trkpt>
      <trkpt lat="45.66352" lon="4.44725">
        <ele>720.65331</ele>
        <time>2021-04-23T15:11:22.039Z</time>
      </trkpt>
      <trkpt lat="45.66351" lon="4.4471">
        <ele>720.656824</ele>
        <time>2021-04-23T15:11:25.043Z</time>
      </trkpt>
      <trkpt lat="45.66347" lon="4.44694">
        <ele>720.660714</ele>
        <time>2021-04-23T15:11:28.022Z</time>
      </trkpt>
      <trkpt lat="45.66345" lon="4.44682">
        <ele>720.663767</ele>
        <time>2021-04-23T15:11:30.023Z</time>
      </trkpt>
      <trkpt lat="45.6634" lon="4.44666">
        <ele>720.667742</ele>
        <time>2021-04-23T15:11:33.035Z</time>
      </trkpt>
      <trkpt lat="45.66336" lon="4.44654">
        <ele>720.670782</ele>
        <time>2021-04-23T15:11:35.026Z</time>
      </trkpt>
      <trkpt lat="45.6633" lon="4.44638">
        <ele>720.674958</ele>
        <time>2021-04-23T15:11:38.217Z</time>
      </trkpt>
      <trkpt lat="45.66325" lon="4.44626">
        <ele>720.67819</ele>
        <time>2021-04-23T15:11:41.070Z</time>
      </trkpt>
      <trkpt lat="45.6632" lon="4.44611">
        <ele>720.682072</ele>
        <time>2021-04-23T15:11:45.022Z</time>
      </trkpt>
      <trkpt lat="45.66314" lon="4.446">
        <ele>720.685259</ele>
        <time>2021-04-23T15:11:48.024Z</time>
      </trkpt>
      <trkpt lat="45.66307" lon="4.44589">
        <ele>720.688898</ele>
        <time>2021-04-23T15:11:52.030Z</time>
      </trkpt>
      <trkpt lat="45.66298" lon="4.44581">
        <ele>720.692408</ele>
        <time>2021-04-23T15:11:55.064Z</time>
      </trkpt>
      <trkpt lat="45.66289" lon="4.44575">
        <ele>720.695685</ele>
        <time>2021-04-23T15:11:58.025Z</time>
      </trkpt>
      <trkpt lat="45.66279" lon="4.4457">
        <ele>720.699174</ele>
        <time>2021-04-23T15:12:01.017Z</time>
      </trkpt>
      <trkpt lat="45.6627" lon="4.44566">
        <ele>720.716614</ele>
        <time>2021-04-23T15:12:04.018Z</time>
      </trkpt>
      <trkpt lat="45.66261" lon="4.44562">
        <ele>720.742444</ele>
        <time>2021-04-23T15:12:08.028Z</time>
      </trkpt>
      <trkpt lat="45.66252" lon="4.44557">
        <ele>720.766958</ele>
        <time>2021-04-23T15:12:12.026Z</time>
      </trkpt>
      <trkpt lat="45.66243" lon="4.44552">
        <ele>720.790847</ele>
        <time>2021-04-23T15:12:16.028Z</time>
      </trkpt>
      <trkpt lat="45.66234" lon="4.44546">
        <ele>720.816157</ele>
        <time>2021-04-23T15:12:20.022Z</time>
      </trkpt>
      <trkpt lat="45.66224" lon="4.44541">
        <ele>720.843056</ele>
        <time>2021-04-23T15:12:25.023Z</time>
      </trkpt>
      <trkpt lat="45.66216" lon="4.44535">
        <ele>720.866461</ele>
        <time>2021-04-23T15:12:29.055Z</time>
      </trkpt>
      <trkpt lat="45.66208" lon="4.44529">
        <ele>720.889718</ele>
        <time>2021-04-23T15:12:32.027Z</time>
      </trkpt>
      <trkpt lat="45.66199" lon="4.4452">
        <ele>720.917206</ele>
        <time>2021-04-23T15:12:36.005Z</time>
      </trkpt>
      <trkpt lat="45.66192" lon="4.4451">
        <ele>720.942483</ele>
        <time>2021-04-23T15:12:39.015Z</time>
      </trkpt>
      <trkpt lat="45.66184" lon="4.44499">
        <ele>720.970701</ele>
        <time>2021-04-23T15:12:42.019Z</time>
      </trkpt>
      <trkpt lat="45.66174" lon="4.44486">
        <ele>721.004753</ele>
        <time>2021-04-23T15:12:45.012Z</time>
      </trkpt>
      <trkpt lat="45.66167" lon="4.44475">
        <ele>721.031926</ele>
        <time>2021-04-23T15:12:48.021Z</time>
      </trkpt>
      <trkpt lat="45.66164" lon="4.44462">
        <ele>721.055645</ele>
        <time>2021-04-23T15:12:50.028Z</time>
      </trkpt>
      <trkpt lat="45.66158" lon="4.44451">
        <ele>721.081321</ele>
        <time>2021-04-23T15:12:52.496Z</time>
      </trkpt>
      <trkpt lat="45.6616" lon="4.44437">
        <ele>721.106512</ele>
        <time>2021-04-23T15:12:57.524Z</time>
      </trkpt>
      <trkpt lat="45.66164" lon="4.44416">
        <ele>721.146456</ele>
        <time>2021-04-23T15:15:18.511Z</time>
      </trkpt>
      <trkpt lat="45.66156" lon="4.44405">
        <ele>721.178604</ele>
        <time>2021-04-23T15:15:41.492Z</time>
      </trkpt>
      <trkpt lat="45.66148" lon="4.44409">
        <ele>721.208129</ele>
        <time>2021-04-23T15:15:47.520Z</time>
      </trkpt>
      <trkpt lat="45.66141" lon="4.444">
        <ele>721.238472</ele>
        <time>2021-04-23T15:15:55.495Z</time>
      </trkpt>
      <trkpt lat="45.66133" lon="4.44389">
        <ele>721.273649</ele>
        <time>2021-04-23T15:16:01.498Z</time>
      </trkpt>
      <trkpt lat="45.66124" lon="4.44378">
        <ele>721.309928</ele>
        <time>2021-04-23T15:16:04.467Z</time>
      </trkpt>
      <trkpt lat="45.66117" lon="4.4437">
        <ele>721.340248</ele>
        <time>2021-04-23T15:16:07.529Z</time>
      </trkpt>
      <trkpt lat="45.66107" lon="4.44359">
        <ele>721.377685</ele>
        <time>2021-04-23T15:16:10.505Z</time>
      </trkpt>
      <trkpt lat="45.66098" lon="4.44348">
        <ele>721.415123</ele>
        <time>2021-04-23T15:16:13.545Z</time>
      </trkpt>
      <trkpt lat="45.66088" lon="4.44338">
        <ele>721.455771</ele>
        <time>2021-04-23T15:16:16.509Z</time>
      </trkpt>
      <trkpt lat="45.66078" lon="4.44329">
        <ele>721.494542</ele>
        <time>2021-04-23T15:16:19.520Z</time>
      </trkpt>
      <trkpt lat="45.66068" lon="4.44321">
        <ele>721.529085</ele>
        <time>2021-04-23T15:16:22.545Z</time>
      </trkpt>
      <trkpt lat="45.66059" lon="4.44313">
        <ele>721.563797</ele>
        <time>2021-04-23T15:16:26.532Z</time>
      </trkpt>
      <trkpt lat="45.6605" lon="4.44306">
        <ele>721.595356</ele>
        <time>2021-04-23T15:16:30.522Z</time>
      </trkpt>
      <trkpt lat="45.66044" lon="4.44293">
        <ele>721.629824</ele>
        <time>2021-04-23T15:16:35.491Z</time>
      </trkpt>
      <trkpt lat="45.66033" lon="4.44291">
        <ele>721.665527</ele>
        <time>2021-04-23T15:16:39.489Z</time>
      </trkpt>
      <trkpt lat="45.66023" lon="4.44291">
        <ele>721.696425</ele>
        <time>2021-04-23T15:16:42.492Z</time>
      </trkpt>
      <trkpt lat="45.66012" lon="4.44289">
        <ele>721.734234</ele>
        <time>2021-04-23T15:16:46.484Z</time>
      </trkpt>
      <trkpt lat="45.66001" lon="4.44287">
        <ele>721.768902</ele>
        <time>2021-04-23T15:16:50.533Z</time>
      </trkpt>
      <trkpt lat="45.65991" lon="4.44287">
        <ele>721.804062</ele>
        <time>2021-04-23T15:16:55.489Z</time>
      </trkpt>
      <trkpt lat="45.65979" lon="4.44288">
        <ele>721.845058</ele>
        <time>2021-04-23T15:16:58.499Z</time>
      </trkpt>
      <trkpt lat="45.65968" lon="4.44289">
        <ele>721.88252</ele>
        <time>2021-04-23T15:17:02.495Z</time>
      </trkpt>
      <trkpt lat="45.65959" lon="4.4429">
        <ele>721.913283</ele>
        <time>2021-04-23T15:17:06.498Z</time>
      </trkpt>
      <trkpt lat="45.65948" lon="4.44286">
        <ele>721.953365</ele>
        <time>2021-04-23T15:17:10.478Z</time>
      </trkpt>
      <trkpt lat="45.65939" lon="4.44282">
        <ele>721.984615</ele>
        <time>2021-04-23T15:17:13.526Z</time>
      </trkpt>
      <trkpt lat="45.65929" lon="4.44279">
        <ele>722.019759</ele>
        <time>2021-04-23T15:17:18.493Z</time>
      </trkpt>
      <trkpt lat="45.6592" lon="4.44273">
        <ele>722.053962</ele>
        <time>2021-04-23T15:17:22.502Z</time>
      </trkpt>
      <trkpt lat="45.6591" lon="4.4427">
        <ele>722.089645</ele>
        <time>2021-04-23T15:17:29.487Z</time>
      </trkpt>
      <trkpt lat="45.659" lon="4.44268">
        <ele>722.122263</ele>
        <time>2021-04-23T15:17:33.495Z</time>
      </trkpt>
      <trkpt lat="45.65891" lon="4.44263">
        <ele>722.156979</ele>
        <time>2021-04-23T15:17:38.493Z</time>
      </trkpt>
      <trkpt lat="45.65882" lon="4.44258">
        <ele>722.189918</ele>
        <time>2021-04-23T15:17:44.506Z</time>
      </trkpt>
      <trkpt lat="45.65873" lon="4.44252">
        <ele>722.221785</ele>
        <time>2021-04-23T15:17:48.482Z</time>
      </trkpt>
      <trkpt lat="45.65866" lon="4.44242">
        <ele>722.256429</ele>
        <time>2021-04-23T15:17:57.493Z</time>
      </trkpt>
      <trkpt lat="45.65864" lon="4.44229">
        <ele>722.288013</ele>
        <time>2021-04-23T15:18:01.474Z</time>
      </trkpt>
      <trkpt lat="45.65858" lon="4.44216">
        <ele>722.324248</ele>
        <time>2021-04-23T15:18:06.486Z</time>
      </trkpt>
      <trkpt lat="45.65849" lon="4.44206">
        <ele>722.56846</ele>
        <time>2021-04-23T15:18:10.490Z</time>
      </trkpt>
      <trkpt lat="45.65842" lon="4.44197">
        <ele>722.997159</ele>
        <time>2021-04-23T15:18:14.482Z</time>
      </trkpt>
      <trkpt lat="45.65834" lon="4.44191">
        <ele>723.400728</ele>
        <time>2021-04-23T15:18:19.498Z</time>
      </trkpt>
      <trkpt lat="45.65825" lon="4.44183">
        <ele>723.854492</ele>
        <time>2021-04-23T15:18:25.480Z</time>
      </trkpt>
      <trkpt lat="45.65815" lon="4.44178">
        <ele>724.338693</ele>
        <time>2021-04-23T15:18:30.477Z</time>
      </trkpt>
      <trkpt lat="45.65804" lon="4.44177">
        <ele>724.809366</ele>
        <time>2021-04-23T15:18:33.492Z</time>
      </trkpt>
      <trkpt lat="45.65791" lon="4.44178">
        <ele>725.389093</ele>
        <time>2021-04-23T15:18:37.510Z</time>
      </trkpt>
      <trkpt lat="45.65785" lon="4.44168">
        <ele>725.809119</ele>
        <time>2021-04-23T15:19:00.485Z</time>
      </trkpt>
      <trkpt lat="45.65774" lon="4.44166">
        <ele>726.289302</ele>
        <time>2021-04-23T15:19:12.485Z</time>
      </trkpt>
      <trkpt lat="45.65763" lon="4.44164">
        <ele>726.781219</ele>
        <time>2021-04-23T15:19:17.487Z</time>
      </trkpt>
      <trkpt lat="45.65754" lon="4.4416">
        <ele>727.183956</ele>
        <time>2021-04-23T15:19:22.490Z</time>
      </trkpt>
      <trkpt lat="45.65745" lon="4.44159">
        <ele>727.602552</ele>
        <time>2021-04-23T15:19:30.486Z</time>
      </trkpt>
      <trkpt lat="45.65736" lon="4.44155">
        <ele>728.006126</ele>
        <time>2021-04-23T15:19:38.494Z</time>
      </trkpt>
      <trkpt lat="45.65727" lon="4.44157">
        <ele>728.437824</ele>
        <time>2021-04-23T15:20:10.499Z</time>
      </trkpt>
      <trkpt lat="45.65718" lon="4.44153">
        <ele>728.849065</ele>
        <time>2021-04-23T15:20:17.482Z</time>
      </trkpt>
      <trkpt lat="45.65709" lon="4.44149">
        <ele>729.27047</ele>
        <time>2021-04-23T15:20:22.478Z</time>
      </trkpt>
      <trkpt lat="45.657" lon="4.44143">
        <ele>729.680553</ele>
        <time>2021-04-23T15:20:28.480Z</time>
      </trkpt>
      <trkpt lat="45.65691" lon="4.44138">
        <ele>730.093961</ele>
        <time>2021-04-23T15:20:33.476Z</time>
      </trkpt>
      <trkpt lat="45.65683" lon="4.44131">
        <ele>730.600932</ele>
        <time>2021-04-23T15:20:43.477Z</time>
      </trkpt>
      <trkpt lat="45.65676" lon="4.44122">
        <ele>731.160361</ele>
        <time>2021-04-23T15:20:51.489Z</time>
      </trkpt>
      <trkpt lat="45.65672" lon="4.44109">
        <ele>731.718782</ele>
        <time>2021-04-23T15:21:00.498Z</time>
      </trkpt>
      <trkpt lat="45.65668" lon="4.44097">
        <ele>732.291118</ele>
        <time>2021-04-23T15:21:05.472Z</time>
      </trkpt>
      <trkpt lat="45.65661" lon="4.44086">
        <ele>732.893031</ele>
        <time>2021-04-23T15:21:14.489Z</time>
      </trkpt>
      <trkpt lat="45.65653" lon="4.44079">
        <ele>733.448772</ele>
        <time>2021-04-23T15:21:22.478Z</time>
      </trkpt>
      <trkpt lat="45.65645" lon="4.44072">
        <ele>733.999436</ele>
        <time>2021-04-23T15:21:26.482Z</time>
      </trkpt>
      <trkpt lat="45.65634" lon="4.44065">
        <ele>734.693605</ele>
        <time>2021-04-23T15:21:29.476Z</time>
      </trkpt>
      <trkpt lat="45.65625" lon="4.44056">
        <ele>735.358971</ele>
        <time>2021-04-23T15:21:33.480Z</time>
      </trkpt>
      <trkpt lat="45.65617" lon="4.44049">
        <ele>735.913799</ele>
        <time>2021-04-23T15:21:37.480Z</time>
      </trkpt>
      <trkpt lat="45.65608" lon="4.44037">
        <ele>736.63726</ele>
        <time>2021-04-23T15:21:41.478Z</time>
      </trkpt>
      <trkpt lat="45.65601" lon="4.44028">
        <ele>737.168314</ele>
        <time>2021-04-23T15:21:43.487Z</time>
      </trkpt>
      <trkpt lat="45.65594" lon="4.44017">
        <ele>737.763225</ele>
        <time>2021-04-23T15:21:45.483Z</time>
      </trkpt>
      <trkpt lat="45.65585" lon="4.44005">
        <ele>738.517309</ele>
        <time>2021-04-23T15:21:47.522Z</time>
      </trkpt>
      <trkpt lat="45.65575" lon="4.43997">
        <ele>739.185487</ele>
        <time>2021-04-23T15:21:49.475Z</time>
      </trkpt>
      <trkpt lat="45.65565" lon="4.4399">
        <ele>739.824892</ele>
        <time>2021-04-23T15:21:52.471Z</time>
      </trkpt>
      <trkpt lat="45.65556" lon="4.43983">
        <ele>740.464298</ele>
        <time>2021-04-23T15:21:55.505Z</time>
      </trkpt>
      <trkpt lat="45.65548" lon="4.43976">
        <ele>740.954778</ele>
        <time>2021-04-23T15:21:58.514Z</time>
      </trkpt>
      <trkpt lat="45.65542" lon="4.43967">
        <ele>741.304989</ele>
        <time>2021-04-23T15:22:00.481Z</time>
      </trkpt>
      <trkpt lat="45.65537" lon="4.43956">
        <ele>741.663666</ele>
        <time>2021-04-23T15:22:04.471Z</time>
      </trkpt>
      <trkpt lat="45.65532" lon="4.43941">
        <ele>742.113666</ele>
        <time>2021-04-23T15:22:08.474Z</time>
      </trkpt>
      <trkpt lat="45.65525" lon="4.4393">
        <ele>742.51489</ele>
        <time>2021-04-23T15:22:11.474Z</time>
      </trkpt>
      <trkpt lat="45.65519" lon="4.43918">
        <ele>742.930839</ele>
        <time>2021-04-23T15:22:14.538Z</time>
      </trkpt>
      <trkpt lat="45.65512" lon="4.43905">
        <ele>743.362338</ele>
        <time>2021-04-23T15:22:18.484Z</time>
      </trkpt>
      <trkpt lat="45.65507" lon="4.43893">
        <ele>743.749538</ele>
        <time>2021-04-23T15:22:22.472Z</time>
      </trkpt>
      <trkpt lat="45.65498" lon="4.43886">
        <ele>744.151175</ele>
        <time>2021-04-23T15:22:28.477Z</time>
      </trkpt>
      <trkpt lat="45.65488" lon="4.4388">
        <ele>744.558611</ele>
        <time>2021-04-23T15:22:35.490Z</time>
      </trkpt>
      <trkpt lat="45.6548" lon="4.43875">
        <ele>744.923489</ele>
        <time>2021-04-23T15:22:39.488Z</time>
      </trkpt>
      <trkpt lat="45.65469" lon="4.4387">
        <ele>745.349738</ele>
        <time>2021-04-23T15:22:42.475Z</time>
      </trkpt>
      <trkpt lat="45.65459" lon="4.43865">
        <ele>745.758026</ele>
        <time>2021-04-23T15:22:45.493Z</time>
      </trkpt>
      <trkpt lat="45.65449" lon="4.43858">
        <ele>746.219474</ele>
        <time>2021-04-23T15:22:49.495Z</time>
      </trkpt>
      <trkpt lat="45.6544" lon="4.43851">
        <ele>746.592161</ele>
        <time>2021-04-23T15:22:52.505Z</time>
      </trkpt>
      <trkpt lat="45.65429" lon="4.43848">
        <ele>747.06037</ele>
        <time>2021-04-23T15:22:55.504Z</time>
      </trkpt>
      <trkpt lat="45.6542" lon="4.43842">
        <ele>747.447855</ele>
        <time>2021-04-23T15:22:59.509Z</time>
      </trkpt>
      <trkpt lat="45.65412" lon="4.43833">
        <ele>747.830355</ele>
        <time>2021-04-23T15:23:03.509Z</time>
      </trkpt>
      <trkpt lat="45.65404" lon="4.43825">
        <ele>748.497827</ele>
        <time>2021-04-23T15:23:07.484Z</time>
      </trkpt>
      <trkpt lat="45.65396" lon="4.43816">
        <ele>749.193509</ele>
        <time>2021-04-23T15:23:10.479Z</time>
      </trkpt>
      <trkpt lat="45.65388" lon="4.43811">
        <ele>749.839349</ele>
        <time>2021-04-23T15:23:13.504Z</time>
      </trkpt>
      <trkpt lat="45.65379" lon="4.43804">
        <ele>750.574604</ele>
        <time>2021-04-23T15:23:18.502Z</time>
      </trkpt>
      <trkpt lat="45.65371" lon="4.43795">
        <ele>751.247918</ele>
        <time>2021-04-23T15:23:21.481Z</time>
      </trkpt>
      <trkpt lat="45.65362" lon="4.43789">
        <ele>751.960039</ele>
        <time>2021-04-23T15:23:25.498Z</time>
      </trkpt>
      <trkpt lat="45.65353" lon="4.43778">
        <ele>752.80162</ele>
        <time>2021-04-23T15:23:28.520Z</time>
      </trkpt>
      <trkpt lat="45.65345" lon="4.43772">
        <ele>753.460023</ele>
        <time>2021-04-23T15:23:32.472Z</time>
      </trkpt>
      <trkpt lat="45.65336" lon="4.43765">
        <ele>754.195002</ele>
        <time>2021-04-23T15:23:36.483Z</time>
      </trkpt>
      <trkpt lat="45.65326" lon="4.43757">
        <ele>755.011867</ele>
        <time>2021-04-23T15:23:40.500Z</time>
      </trkpt>
      <trkpt lat="45.65317" lon="4.4375">
        <ele>755.748306</ele>
        <time>2021-04-23T15:23:44.480Z</time>
      </trkpt>
      <trkpt lat="45.65309" lon="4.4374">
        <ele>756.498181</ele>
        <time>2021-04-23T15:23:48.474Z</time>
      </trkpt>
      <trkpt lat="45.65301" lon="4.43732">
        <ele>757.173976</ele>
        <time>2021-04-23T15:23:51.476Z</time>
      </trkpt>
      <trkpt lat="45.65292" lon="4.43726">
        <ele>757.897101</ele>
        <time>2021-04-23T15:23:54.515Z</time>
      </trkpt>
      <trkpt lat="45.65285" lon="4.43718">
        <ele>758.566906</ele>
        <time>2021-04-23T15:24:01.476Z</time>
      </trkpt>
      <trkpt lat="45.65274" lon="4.43713">
        <ele>759.362205</ele>
        <time>2021-04-23T15:24:09.470Z</time>
      </trkpt>
      <trkpt lat="45.65265" lon="4.43706">
        <ele>760.11986</ele>
        <time>2021-04-23T15:24:12.474Z</time>
      </trkpt>
      <trkpt lat="45.65254" lon="4.43699">
        <ele>760.974162</ele>
        <time>2021-04-23T15:24:16.512Z</time>
      </trkpt>
      <trkpt lat="45.65245" lon="4.43693">
        <ele>761.911628</ele>
        <time>2021-04-23T15:24:20.486Z</time>
      </trkpt>
      <trkpt lat="45.65236" lon="4.43688">
        <ele>762.693179</ele>
        <time>2021-04-23T15:24:24.485Z</time>
      </trkpt>
      <trkpt lat="45.65226" lon="4.43684">
        <ele>763.621871</ele>
        <time>2021-04-23T15:24:29.490Z</time>
      </trkpt>
      <trkpt lat="45.65216" lon="4.43683">
        <ele>764.487408</ele>
        <time>2021-04-23T15:24:33.486Z</time>
      </trkpt>
      <trkpt lat="45.65207" lon="4.43682">
        <ele>765.290003</ele>
        <time>2021-04-23T15:24:36.504Z</time>
      </trkpt>
      <trkpt lat="45.65197" lon="4.43681">
        <ele>766.147915</ele>
        <time>2021-04-23T15:24:40.481Z</time>
      </trkpt>
      <trkpt lat="45.65187" lon="4.43681">
        <ele>766.961763</ele>
        <time>2021-04-23T15:24:44.500Z</time>
      </trkpt>
      <trkpt lat="45.65176" lon="4.43679">
        <ele>767.925417</ele>
        <time>2021-04-23T15:24:49.499Z</time>
      </trkpt>
      <trkpt lat="45.65167" lon="4.43679">
        <ele>768.712957</ele>
        <time>2021-04-23T15:24:54.496Z</time>
      </trkpt>
      <trkpt lat="45.65156" lon="4.43682">
        <ele>769.733948</ele>
        <time>2021-04-23T15:24:59.528Z</time>
      </trkpt>
      <trkpt lat="45.65146" lon="4.43688">
        <ele>770.626841</ele>
        <time>2021-04-23T15:25:02.481Z</time>
      </trkpt>
      <trkpt lat="45.65137" lon="4.43696">
        <ele>771.588078</ele>
        <time>2021-04-23T15:25:05.496Z</time>
      </trkpt>
      <trkpt lat="45.65129" lon="4.43704">
        <ele>772.408401</ele>
        <time>2021-04-23T15:25:08.501Z</time>
      </trkpt>
      <trkpt lat="45.65123" lon="4.43716">
        <ele>773.286059</ele>
        <time>2021-04-23T15:25:13.470Z</time>
      </trkpt>
      <trkpt lat="45.65115" lon="4.43709">
        <ele>774.073223</ele>
        <time>2021-04-23T15:25:31.494Z</time>
      </trkpt>
      <trkpt lat="45.65108" lon="4.43718">
        <ele>774.954572</ele>
        <time>2021-04-23T15:25:41.475Z</time>
      </trkpt>
      <trkpt lat="45.65122" lon="4.43712">
        <ele>776.264815</ele>
        <time>2021-04-23T15:30:54.500Z</time>
      </trkpt>
      <trkpt lat="45.65124" lon="4.43698">
        <ele>776.478241</ele>
        <time>2021-04-23T15:30:57.500Z</time>
      </trkpt>
      <trkpt lat="45.65121" lon="4.43681">
        <ele>776.738429</ele>
        <time>2021-04-23T15:31:01.480Z</time>
      </trkpt>
      <trkpt lat="45.65117" lon="4.43666">
        <ele>776.982233</ele>
        <time>2021-04-23T15:31:05.488Z</time>
      </trkpt>
      <trkpt lat="45.65109" lon="4.43653">
        <ele>777.246428</ele>
        <time>2021-04-23T15:31:09.484Z</time>
      </trkpt>
      <trkpt lat="45.65103" lon="4.43643">
        <ele>777.440677</ele>
        <time>2021-04-23T15:31:11.508Z</time>
      </trkpt>
      <trkpt lat="45.65097" lon="4.43631">
        <ele>777.662761</ele>
        <time>2021-04-23T15:31:13.520Z</time>
      </trkpt>
      <trkpt lat="45.65092" lon="4.43617">
        <ele>777.903722</ele>
        <time>2021-04-23T15:31:15.520Z</time>
      </trkpt>
      <trkpt lat="45.65084" lon="4.43599">
        <ele>778.211468</ele>
        <time>2021-04-23T15:31:17.513Z</time>
      </trkpt>
      <trkpt lat="45.65079" lon="4.43579">
        <ele>778.530523</ele>
        <time>2021-04-23T15:31:19.496Z</time>
      </trkpt>
      <trkpt lat="45.65076" lon="4.43561">
        <ele>778.813752</ele>
        <time>2021-04-23T15:31:21.517Z</time>
      </trkpt>
      <trkpt lat="45.65074" lon="4.43544">
        <ele>779.071725</ele>
        <time>2021-04-23T15:31:23.500Z</time>
      </trkpt>
      <trkpt lat="45.65072" lon="4.43527">
        <ele>779.32417</ele>
        <time>2021-04-23T15:31:25.505Z</time>
      </trkpt>
      <trkpt lat="45.65069" lon="4.43509">
        <ele>779.601326</ele>
        <time>2021-04-23T15:31:27.484Z</time>
      </trkpt>
      <trkpt lat="45.65064" lon="4.43491">
        <ele>779.900516</ele>
        <time>2021-04-23T15:31:29.494Z</time>
      </trkpt>
      <trkpt lat="45.65057" lon="4.43471">
        <ele>780.047037</ele>
        <time>2021-04-23T15:31:31.515Z</time>
      </trkpt>
      <trkpt lat="45.6505" lon="4.43452">
        <ele>779.848195</ele>
        <time>2021-04-23T15:31:33.486Z</time>
      </trkpt>
      <trkpt lat="45.65046" lon="4.43436">
        <ele>779.69457</ele>
        <time>2021-04-23T15:31:35.510Z</time>
      </trkpt>
      <trkpt lat="45.65048" lon="4.43417">
        <ele>779.518159</ele>
        <time>2021-04-23T15:31:38.533Z</time>
      </trkpt>
      <trkpt lat="45.65054" lon="4.43401">
        <ele>779.36093</ele>
        <time>2021-04-23T15:31:41.514Z</time>
      </trkpt>
      <trkpt lat="45.65045" lon="4.43394">
        <ele>779.233238</ele>
        <time>2021-04-23T15:31:44.499Z</time>
      </trkpt>
      <trkpt lat="45.65034" lon="4.43389">
        <ele>779.083118</ele>
        <time>2021-04-23T15:31:46.489Z</time>
      </trkpt>
      <trkpt lat="45.65022" lon="4.43379">
        <ele>778.895225</ele>
        <time>2021-04-23T15:31:48.493Z</time>
      </trkpt>
      <trkpt lat="45.65012" lon="4.43372">
        <ele>778.74883</ele>
        <time>2021-04-23T15:31:50.519Z</time>
      </trkpt>
      <trkpt lat="45.65003" lon="4.43366">
        <ele>778.627181</ele>
        <time>2021-04-23T15:31:53.490Z</time>
      </trkpt>
      <trkpt lat="45.64991" lon="4.43378">
        <ele>778.439918</ele>
        <time>2021-04-23T15:33:38.515Z</time>
      </trkpt>
      <trkpt lat="45.64986" lon="4.43393">
        <ele>778.282936</ele>
        <time>2021-04-23T15:33:41.532Z</time>
      </trkpt>
      <trkpt lat="45.64982" lon="4.43414">
        <ele>778.083758</ele>
        <time>2021-04-23T15:33:44.495Z</time>
      </trkpt>
      <trkpt lat="45.64979" lon="4.43435">
        <ele>777.891058</ele>
        <time>2021-04-23T15:33:46.494Z</time>
      </trkpt>
      <trkpt lat="45.64978" lon="4.43457">
        <ele>777.575355</ele>
        <time>2021-04-23T15:33:48.497Z</time>
      </trkpt>
      <trkpt lat="45.6498" lon="4.4348">
        <ele>777.049875</ele>
        <time>2021-04-23T15:33:50.501Z</time>
      </trkpt>
      <trkpt lat="45.64982" lon="4.43493">
        <ele>776.746693</ele>
        <time>2021-04-23T15:33:51.503Z</time>
      </trkpt>
      <trkpt lat="45.64984" lon="4.43507">
        <ele>776.42615</ele>
        <time>2021-04-23T15:33:52.488Z</time>
      </trkpt>
      <trkpt lat="45.64985" lon="4.43521">
        <ele>776.104511</ele>
        <time>2021-04-23T15:33:53.496Z</time>
      </trkpt>
      <trkpt lat="45.64985" lon="4.43536">
        <ele>775.776131</ele>
        <time>2021-04-23T15:33:54.503Z</time>
      </trkpt>
      <trkpt lat="45.64987" lon="4.4355">
        <ele>775.458859</ele>
        <time>2021-04-23T15:33:55.519Z</time>
      </trkpt>
      <trkpt lat="45.64989" lon="4.43563">
        <ele>775.146876</ele>
        <time>2021-04-23T15:33:56.494Z</time>
      </trkpt>
      <trkpt lat="45.64991" lon="4.43577">
        <ele>774.830488</ele>
        <time>2021-04-23T15:33:57.513Z</time>
      </trkpt>
      <trkpt lat="45.64993" lon="4.43591">
        <ele>774.502525</ele>
        <time>2021-04-23T15:33:58.501Z</time>
      </trkpt>
      <trkpt lat="45.64994" lon="4.43606">
        <ele>774.167858</ele>
        <time>2021-04-23T15:33:59.497Z</time>
      </trkpt>
      <trkpt lat="45.64995" lon="4.4362">
        <ele>773.846597</ele>
        <time>2021-04-23T15:34:00.501Z</time>
      </trkpt>
      <trkpt lat="45.64996" lon="4.43635">
        <ele>773.520736</ele>
        <time>2021-04-23T15:34:01.506Z</time>
      </trkpt>
      <trkpt lat="45.64998" lon="4.43649">
        <ele>773.188304</ele>
        <time>2021-04-23T15:34:02.517Z</time>
      </trkpt>
      <trkpt lat="45.64998" lon="4.43664">
        <ele>772.842202</ele>
        <time>2021-04-23T15:34:03.508Z</time>
      </trkpt>
      <trkpt lat="45.64998" lon="4.43679">
        <ele>772.503816</ele>
        <time>2021-04-23T15:34:04.539Z</time>
      </trkpt>
      <trkpt lat="45.64998" lon="4.43694">
        <ele>772.176581</ele>
        <time>2021-04-23T15:34:05.493Z</time>
      </trkpt>
      <trkpt lat="45.64997" lon="4.43708">
        <ele>771.870568</ele>
        <time>2021-04-23T15:34:06.506Z</time>
      </trkpt>
      <trkpt lat="45.64997" lon="4.43731">
        <ele>771.354677</ele>
        <time>2021-04-23T15:34:08.502Z</time>
      </trkpt>
      <trkpt lat="45.65005" lon="4.43751">
        <ele>770.861408</ele>
        <time>2021-04-23T15:34:10.516Z</time>
      </trkpt>
      <trkpt lat="45.65014" lon="4.43768">
        <ele>770.399456</ele>
        <time>2021-04-23T15:34:12.496Z</time>
      </trkpt>
      <trkpt lat="45.6502" lon="4.4378">
        <ele>770.070678</ele>
        <time>2021-04-23T15:34:14.521Z</time>
      </trkpt>
      <trkpt lat="45.6501" lon="4.43779">
        <ele>769.746092</ele>
        <time>2021-04-23T15:34:19.509Z</time>
      </trkpt>
      <trkpt lat="45.65002" lon="4.4377">
        <ele>769.425384</ele>
        <time>2021-04-23T15:34:21.513Z</time>
      </trkpt>
      <trkpt lat="45.64994" lon="4.43758">
        <ele>769.078639</ele>
        <time>2021-04-23T15:34:23.476Z</time>
      </trkpt>
      <trkpt lat="45.64988" lon="4.43745">
        <ele>768.730284</ele>
        <time>2021-04-23T15:34:25.480Z</time>
      </trkpt>
      <trkpt lat="45.64983" lon="4.43731">
        <ele>768.388867</ele>
        <time>2021-04-23T15:34:27.489Z</time>
      </trkpt>
      <trkpt lat="45.64982" lon="4.43716">
        <ele>768.060414</ele>
        <time>2021-04-23T15:34:29.534Z</time>
      </trkpt>
      <trkpt lat="45.64981" lon="4.43701">
        <ele>767.747032</ele>
        <time>2021-04-23T15:34:31.503Z</time>
      </trkpt>
      <trkpt lat="45.6498" lon="4.43687">
        <ele>767.443444</ele>
        <time>2021-04-23T15:34:33.499Z</time>
      </trkpt>
      <trkpt lat="45.64979" lon="4.43671">
        <ele>767.08848</ele>
        <time>2021-04-23T15:34:35.503Z</time>
      </trkpt>
      <trkpt lat="45.64977" lon="4.43655">
        <ele>766.750772</ele>
        <time>2021-04-23T15:34:37.507Z</time>
      </trkpt>
      <trkpt lat="45.64977" lon="4.43641">
        <ele>766.440043</ele>
        <time>2021-04-23T15:34:39.490Z</time>
      </trkpt>
      <trkpt lat="45.64976" lon="4.43625">
        <ele>766.322619</ele>
        <time>2021-04-23T15:34:41.505Z</time>
      </trkpt>
      <trkpt lat="45.64975" lon="4.4361">
        <ele>766.251688</ele>
        <time>2021-04-23T15:34:43.527Z</time>
      </trkpt>
      <trkpt lat="45.64974" lon="4.43594">
        <ele>766.178738</ele>
        <time>2021-04-23T15:34:45.535Z</time>
      </trkpt>
      <trkpt lat="45.6497" lon="4.43578">
        <ele>766.098368</ele>
        <time>2021-04-23T15:34:47.523Z</time>
      </trkpt>
      <trkpt lat="45.64966" lon="4.43564">
        <ele>766.025246</ele>
        <time>2021-04-23T15:34:49.494Z</time>
      </trkpt>
      <trkpt lat="45.64959" lon="4.4355">
        <ele>765.950189</ele>
        <time>2021-04-23T15:34:51.524Z</time>
      </trkpt>
      <trkpt lat="45.64951" lon="4.43539">
        <ele>765.875659</ele>
        <time>2021-04-23T15:34:53.517Z</time>
      </trkpt>
      <trkpt lat="45.64943" lon="4.43531">
        <ele>765.807435</ele>
        <time>2021-04-23T15:34:55.502Z</time>
      </trkpt>
      <trkpt lat="45.64934" lon="4.43524">
        <ele>765.740587</ele>
        <time>2021-04-23T15:34:57.501Z</time>
      </trkpt>
      <trkpt lat="45.64924" lon="4.43518">
        <ele>765.66988</ele>
        <time>2021-04-23T15:34:59.501Z</time>
      </trkpt>
      <trkpt lat="45.64914" lon="4.43512">
        <ele>765.593729</ele>
        <time>2021-04-23T15:35:01.501Z</time>
      </trkpt>
      <trkpt lat="45.64902" lon="4.43508">
        <ele>765.51353</ele>
        <time>2021-04-23T15:35:03.524Z</time>
      </trkpt>
      <trkpt lat="45.64891" lon="4.43503">
        <ele>765.433836</ele>
        <time>2021-04-23T15:35:05.507Z</time>
      </trkpt>
      <trkpt lat="45.64879" lon="4.43496">
        <ele>765.349817</ele>
        <time>2021-04-23T15:35:07.509Z</time>
      </trkpt>
      <trkpt lat="45.64868" lon="4.43488">
        <ele>765.265446</ele>
        <time>2021-04-23T15:35:09.518Z</time>
      </trkpt>
      <trkpt lat="45.64861" lon="4.43475">
        <ele>765.187173</ele>
        <time>2021-04-23T15:35:11.504Z</time>
      </trkpt>
      <trkpt lat="45.64855" lon="4.4346">
        <ele>764.904837</ele>
        <time>2021-04-23T15:35:13.504Z</time>
      </trkpt>
      <trkpt lat="45.64851" lon="4.43446">
        <ele>764.644763</ele>
        <time>2021-04-23T15:35:15.845Z</time>
      </trkpt>
      <trkpt lat="45.64849" lon="4.43431">
        <ele>764.394365</ele>
        <time>2021-04-23T15:35:17.526Z</time>
      </trkpt>
      <trkpt lat="45.64846" lon="4.43416">
        <ele>764.130151</ele>
        <time>2021-04-23T15:35:19.515Z</time>
      </trkpt>
      <trkpt lat="45.64845" lon="4.43401">
        <ele>763.878315</ele>
        <time>2021-04-23T15:35:21.492Z</time>
      </trkpt>
      <trkpt lat="45.64846" lon="4.43385">
        <ele>763.605528</ele>
        <time>2021-04-23T15:35:23.512Z</time>
      </trkpt>
      <trkpt lat="45.64848" lon="4.4337">
        <ele>763.334893</ele>
        <time>2021-04-23T15:35:25.506Z</time>
      </trkpt>
      <trkpt lat="45.64851" lon="4.43353">
        <ele>763.052003</ele>
        <time>2021-04-23T15:35:27.506Z</time>
      </trkpt>
      <trkpt lat="45.64854" lon="4.43336">
        <ele>762.747832</ele>
        <time>2021-04-23T15:35:29.543Z</time>
      </trkpt>
      <trkpt lat="45.64858" lon="4.43319">
        <ele>762.437641</ele>
        <time>2021-04-23T15:35:31.516Z</time>
      </trkpt>
      <trkpt lat="45.64861" lon="4.43302">
        <ele>762.142784</ele>
        <time>2021-04-23T15:35:33.510Z</time>
      </trkpt>
      <trkpt lat="45.64862" lon="4.43286">
        <ele>761.868988</ele>
        <time>2021-04-23T15:35:35.502Z</time>
      </trkpt>
      <trkpt lat="45.64862" lon="4.43268">
        <ele>761.557036</ele>
        <time>2021-04-23T15:35:37.495Z</time>
      </trkpt>
      <trkpt lat="45.64861" lon="4.43249">
        <ele>761.239048</ele>
        <time>2021-04-23T15:35:39.486Z</time>
      </trkpt>
      <trkpt lat="45.64859" lon="4.43231">
        <ele>760.937349</ele>
        <time>2021-04-23T15:35:41.514Z</time>
      </trkpt>
      <trkpt lat="45.64858" lon="4.43214">
        <ele>760.358406</ele>
        <time>2021-04-23T15:35:43.499Z</time>
      </trkpt>
      <trkpt lat="45.64858" lon="4.43196">
        <ele>759.546115</ele>
        <time>2021-04-23T15:35:45.502Z</time>
      </trkpt>
      <trkpt lat="45.6486" lon="4.43178">
        <ele>758.754907</ele>
        <time>2021-04-23T15:35:47.526Z</time>
      </trkpt>
      <trkpt lat="45.64862" lon="4.4316">
        <ele>757.979983</ele>
        <time>2021-04-23T15:35:49.501Z</time>
      </trkpt>
      <trkpt lat="45.64865" lon="4.43144">
        <ele>757.220543</ele>
        <time>2021-04-23T15:35:51.505Z</time>
      </trkpt>
      <trkpt lat="45.64866" lon="4.43128">
        <ele>756.524241</ele>
        <time>2021-04-23T15:35:53.491Z</time>
      </trkpt>
      <trkpt lat="45.64868" lon="4.43111">
        <ele>755.783108</ele>
        <time>2021-04-23T15:35:55.496Z</time>
      </trkpt>
      <trkpt lat="45.64868" lon="4.43092">
        <ele>754.927113</ele>
        <time>2021-04-23T15:35:57.511Z</time>
      </trkpt>
      <trkpt lat="45.64866" lon="4.43072">
        <ele>754.050011</ele>
        <time>2021-04-23T15:35:59.506Z</time>
      </trkpt>
      <trkpt lat="45.64863" lon="4.43054">
        <ele>753.232161</ele>
        <time>2021-04-23T15:36:01.526Z</time>
      </trkpt>
      <trkpt lat="45.6486" lon="4.43036">
        <ele>752.418582</ele>
        <time>2021-04-23T15:36:03.519Z</time>
      </trkpt>
      <trkpt lat="45.64857" lon="4.43018">
        <ele>751.619222</ele>
        <time>2021-04-23T15:36:05.509Z</time>
      </trkpt>
      <trkpt lat="45.64852" lon="4.43002">
        <ele>750.858018</ele>
        <time>2021-04-23T15:36:07.503Z</time>
      </trkpt>
      <trkpt lat="45.64848" lon="4.4299">
        <ele>750.262283</ele>
        <time>2021-04-23T15:36:09.511Z</time>
      </trkpt>
      <trkpt lat="45.64833" lon="4.42962">
        <ele>748.856048</ele>
        <time>2021-04-23T15:38:18.530Z</time>
      </trkpt>
      <trkpt lat="45.64827" lon="4.4295">
        <ele>748.346043</ele>
        <time>2021-04-23T15:38:21.539Z</time>
      </trkpt>
      <trkpt lat="45.64821" lon="4.42934">
        <ele>747.68802</ele>
        <time>2021-04-23T15:38:24.506Z</time>
      </trkpt>
      <trkpt lat="45.64815" lon="4.42919">
        <ele>747.066138</ele>
        <time>2021-04-23T15:38:27.529Z</time>
      </trkpt>
      <trkpt lat="45.64809" lon="4.42906">
        <ele>746.523767</ele>
        <time>2021-04-23T15:38:30.498Z</time>
      </trkpt>
      <trkpt lat="45.64805" lon="4.42891">
        <ele>745.91757</ele>
        <time>2021-04-23T15:38:34.520Z</time>
      </trkpt>
      <trkpt lat="45.64803" lon="4.42876">
        <ele>745.401996</ele>
        <time>2021-04-23T15:38:38.518Z</time>
      </trkpt>
      <trkpt lat="45.64801" lon="4.42861">
        <ele>744.830878</ele>
        <time>2021-04-23T15:38:43.532Z</time>
      </trkpt>
      <trkpt lat="45.64798" lon="4.42847">
        <ele>744.310253</ele>
        <time>2021-04-23T15:38:48.504Z</time>
      </trkpt>
      <trkpt lat="45.64796" lon="4.42834">
        <ele>743.828411</ele>
        <time>2021-04-23T15:38:52.491Z</time>
      </trkpt>
      <trkpt lat="45.64794" lon="4.42821">
        <ele>743.359479</ele>
        <time>2021-04-23T15:38:56.539Z</time>
      </trkpt>
      <trkpt lat="45.64791" lon="4.42808">
        <ele>742.883368</ele>
        <time>2021-04-23T15:39:00.506Z</time>
      </trkpt>
      <trkpt lat="45.64787" lon="4.42793">
        <ele>742.306214</ele>
        <time>2021-04-23T15:39:04.521Z</time>
      </trkpt>
      <trkpt lat="45.64784" lon="4.42781">
        <ele>741.836641</ele>
        <time>2021-04-23T15:39:07.504Z</time>
      </trkpt>
      <trkpt lat="45.6478" lon="4.42766">
        <ele>741.264564</ele>
        <time>2021-04-23T15:39:10.536Z</time>
      </trkpt>
      <trkpt lat="45.64776" lon="4.42752">
        <ele>740.74494</ele>
        <time>2021-04-23T15:39:13.530Z</time>
      </trkpt>
      <trkpt lat="45.64772" lon="4.42738">
        <ele>740.319199</ele>
        <time>2021-04-23T15:39:16.493Z</time>
      </trkpt>
      <trkpt lat="45.64765" lon="4.42728">
        <ele>740.265518</ele>
        <time>2021-04-23T15:39:20.505Z</time>
      </trkpt>
      <trkpt lat="45.64755" lon="4.42715">
        <ele>740.197127</ele>
        <time>2021-04-23T15:39:23.307Z</time>
      </trkpt>
      <trkpt lat="45.64749" lon="4.42704">
        <ele>740.146529</ele>
        <time>2021-04-23T15:39:25.313Z</time>
      </trkpt>
      <trkpt lat="45.64742" lon="4.42695">
        <ele>740.095541</ele>
        <time>2021-04-23T15:39:27.310Z</time>
      </trkpt>
      <trkpt lat="45.64736" lon="4.42682">
        <ele>740.041841</ele>
        <time>2021-04-23T15:39:29.319Z</time>
      </trkpt>
      <trkpt lat="45.64729" lon="4.42671">
        <ele>739.986358</ele>
        <time>2021-04-23T15:39:31.304Z</time>
      </trkpt>
      <trkpt lat="45.64723" lon="4.4266">
        <ele>739.93447</ele>
        <time>2021-04-23T15:39:33.314Z</time>
      </trkpt>
      <trkpt lat="45.64716" lon="4.42646">
        <ele>739.870802</ele>
        <time>2021-04-23T15:39:35.314Z</time>
      </trkpt>
      <trkpt lat="45.64707" lon="4.42631">
        <ele>739.799198</ele>
        <time>2021-04-23T15:39:37.313Z</time>
      </trkpt>
      <trkpt lat="45.64697" lon="4.42619">
        <ele>739.731323</ele>
        <time>2021-04-23T15:39:39.366Z</time>
      </trkpt>
      <trkpt lat="45.64686" lon="4.42607">
        <ele>739.660158</ele>
        <time>2021-04-23T15:39:41.357Z</time>
      </trkpt>
      <trkpt lat="45.64678" lon="4.426">
        <ele>739.609307</ele>
        <time>2021-04-23T15:39:43.341Z</time>
      </trkpt>
      <trkpt lat="45.64668" lon="4.42593">
        <ele>739.551214</ele>
        <time>2021-04-23T15:39:45.315Z</time>
      </trkpt>
      <trkpt lat="45.6466" lon="4.42587">
        <ele>739.504178</ele>
        <time>2021-04-23T15:39:47.355Z</time>
      </trkpt>
      <trkpt lat="45.64649" lon="4.42576">
        <ele>739.433545</ele>
        <time>2021-04-23T15:39:50.361Z</time>
      </trkpt>
      <trkpt lat="45.64642" lon="4.42567">
        <ele>739.396443</ele>
        <time>2021-04-23T15:39:52.328Z</time>
      </trkpt>
      <trkpt lat="45.64635" lon="4.42557">
        <ele>739.416554</ele>
        <time>2021-04-23T15:39:54.351Z</time>
      </trkpt>
      <trkpt lat="45.64626" lon="4.42546">
        <ele>739.442805</ele>
        <time>2021-04-23T15:39:57.338Z</time>
      </trkpt>
      <trkpt lat="45.64618" lon="4.42534">
        <ele>739.467833</ele>
        <time>2021-04-23T15:40:01.332Z</time>
      </trkpt>
      <trkpt lat="45.64611" lon="4.42524">
        <ele>739.489487</ele>
        <time>2021-04-23T15:40:05.345Z</time>
      </trkpt>
      <trkpt lat="45.64606" lon="4.42511">
        <ele>739.513102</ele>
        <time>2021-04-23T15:40:09.327Z</time>
      </trkpt>
      <trkpt lat="45.64601" lon="4.42497">
        <ele>739.536448</ele>
        <time>2021-04-23T15:40:13.326Z</time>
      </trkpt>
      <trkpt lat="45.64597" lon="4.42484">
        <ele>739.55924</ele>
        <time>2021-04-23T15:40:18.333Z</time>
      </trkpt>
      <trkpt lat="45.64591" lon="4.42471">
        <ele>739.582774</ele>
        <time>2021-04-23T15:40:24.324Z</time>
      </trkpt>
      <trkpt lat="45.64585" lon="4.42462">
        <ele>739.602522</ele>
        <time>2021-04-23T15:40:30.369Z</time>
      </trkpt>
      <trkpt lat="45.64578" lon="4.42452">
        <ele>739.622186</ele>
        <time>2021-04-23T15:40:36.331Z</time>
      </trkpt>
      <trkpt lat="45.64572" lon="4.42443">
        <ele>739.642264</ele>
        <time>2021-04-23T15:40:42.345Z</time>
      </trkpt>
      <trkpt lat="45.64566" lon="4.4243">
        <ele>739.666005</ele>
        <time>2021-04-23T15:40:48.310Z</time>
      </trkpt>
      <trkpt lat="45.64563" lon="4.42417">
        <ele>739.68695</ele>
        <time>2021-04-23T15:40:54.345Z</time>
      </trkpt>
      <trkpt lat="45.64564" lon="4.42402">
        <ele>739.70919</ele>
        <time>2021-04-23T15:41:01.323Z</time>
      </trkpt>
      <trkpt lat="45.64563" lon="4.42389">
        <ele>739.730334</ele>
        <time>2021-04-23T15:41:05.565Z</time>
      </trkpt>
      <trkpt lat="45.6456" lon="4.42374">
        <ele>739.754318</ele>
        <time>2021-04-23T15:41:10.549Z</time>
      </trkpt>
      <trkpt lat="45.64555" lon="4.42363">
        <ele>739.774044</ele>
        <time>2021-04-23T15:41:14.576Z</time>
      </trkpt>
      <trkpt lat="45.64548" lon="4.42351">
        <ele>739.820258</ele>
        <time>2021-04-23T15:41:18.593Z</time>
      </trkpt>
      <trkpt lat="45.64542" lon="4.42339">
        <ele>739.89212</ele>
        <time>2021-04-23T15:41:23.574Z</time>
      </trkpt>
      <trkpt lat="45.64537" lon="4.42325">
        <ele>739.964819</ele>
        <time>2021-04-23T15:41:28.737Z</time>
      </trkpt>
      <trkpt lat="45.6453" lon="4.4231">
        <ele>740.047744</ele>
        <time>2021-04-23T15:41:32.548Z</time>
      </trkpt>
      <trkpt lat="45.64525" lon="4.423">
        <ele>740.108122</ele>
        <time>2021-04-23T15:41:34.555Z</time>
      </trkpt>
      <trkpt lat="45.6452" lon="4.42287">
        <ele>740.173982</ele>
        <time>2021-04-23T15:41:36.570Z</time>
      </trkpt>
      <trkpt lat="45.64516" lon="4.4227">
        <ele>740.259842</ele>
        <time>2021-04-23T15:41:39.573Z</time>
      </trkpt>
      <trkpt lat="45.64511" lon="4.42257">
        <ele>740.326943</ele>
        <time>2021-04-23T15:41:41.888Z</time>
      </trkpt>
      <trkpt lat="45.64506" lon="4.42244">
        <ele>740.399459</ele>
        <time>2021-04-23T15:41:44.581Z</time>
      </trkpt>
      <trkpt lat="45.64501" lon="4.42232">
        <ele>740.461313</ele>
        <time>2021-04-23T15:41:46.549Z</time>
      </trkpt>
      <trkpt lat="45.645" lon="4.42213">
        <ele>740.548807</ele>
        <time>2021-04-23T15:41:48.589Z</time>
      </trkpt>
      <trkpt lat="45.64496" lon="4.42198">
        <ele>740.624171</ele>
        <time>2021-04-23T15:41:50.552Z</time>
      </trkpt>
      <trkpt lat="45.6449" lon="4.42182">
        <ele>740.707007</ele>
        <time>2021-04-23T15:41:52.539Z</time>
      </trkpt>
      <trkpt lat="45.64487" lon="4.42167">
        <ele>740.781464</ele>
        <time>2021-04-23T15:41:54.565Z</time>
      </trkpt>
      <trkpt lat="45.6449" lon="4.42152">
        <ele>740.852802</ele>
        <time>2021-04-23T15:41:56.584Z</time>
      </trkpt>
      <trkpt lat="45.64492" lon="4.42132">
        <ele>740.947743</ele>
        <time>2021-04-23T15:41:58.557Z</time>
      </trkpt>
      <trkpt lat="45.64496" lon="4.42108">
        <ele>740.934704</ele>
        <time>2021-04-23T15:42:00.569Z</time>
      </trkpt>
      <trkpt lat="45.64496" lon="4.42084">
        <ele>740.856176</ele>
        <time>2021-04-23T15:42:02.566Z</time>
      </trkpt>
      <trkpt lat="45.64493" lon="4.4206">
        <ele>740.780441</ele>
        <time>2021-04-23T15:42:04.576Z</time>
      </trkpt>
      <trkpt lat="45.64488" lon="4.4204">
        <ele>740.713835</ele>
        <time>2021-04-23T15:42:06.585Z</time>
      </trkpt>
      <trkpt lat="45.64482" lon="4.42024">
        <ele>740.654593</ele>
        <time>2021-04-23T15:42:08.558Z</time>
      </trkpt>
      <trkpt lat="45.64475" lon="4.42012">
        <ele>740.605573</ele>
        <time>2021-04-23T15:42:10.562Z</time>
      </trkpt>
      <trkpt lat="45.64469" lon="4.42">
        <ele>740.558694</ele>
        <time>2021-04-23T15:42:12.579Z</time>
      </trkpt>
      <trkpt lat="45.64461" lon="4.41986">
        <ele>740.501609</ele>
        <time>2021-04-23T15:42:14.548Z</time>
      </trkpt>
      <trkpt lat="45.64454" lon="4.41969">
        <ele>740.439809</ele>
        <time>2021-04-23T15:42:16.563Z</time>
      </trkpt>
      <trkpt lat="45.64448" lon="4.4195">
        <ele>740.373848</ele>
        <time>2021-04-23T15:42:18.576Z</time>
      </trkpt>
      <trkpt lat="45.64441" lon="4.4193">
        <ele>740.301949</ele>
        <time>2021-04-23T15:42:20.595Z</time>
      </trkpt>
      <trkpt lat="45.64434" lon="4.4191">
        <ele>740.233489</ele>
        <time>2021-04-23T15:42:22.571Z</time>
      </trkpt>
      <trkpt lat="45.64428" lon="4.41896">
        <ele>740.18045</ele>
        <time>2021-04-23T15:42:24.566Z</time>
      </trkpt>
      <trkpt lat="45.64422" lon="4.41881">
        <ele>739.74328</ele>
        <time>2021-04-23T15:42:26.593Z</time>
      </trkpt>
      <trkpt lat="45.64414" lon="4.41869">
        <ele>739.257017</ele>
        <time>2021-04-23T15:42:28.559Z</time>
      </trkpt>
      <trkpt lat="45.64405" lon="4.41859">
        <ele>738.747604</ele>
        <time>2021-04-23T15:42:30.567Z</time>
      </trkpt>
      <trkpt lat="45.64393" lon="4.41851">
        <ele>738.204753</ele>
        <time>2021-04-23T15:42:32.584Z</time>
      </trkpt>
      <trkpt lat="45.6438" lon="4.41842">
        <ele>737.575019</ele>
        <time>2021-04-23T15:42:34.595Z</time>
      </trkpt>
      <trkpt lat="45.64368" lon="4.41828">
        <ele>736.913265</ele>
        <time>2021-04-23T15:42:36.581Z</time>
      </trkpt>
      <trkpt lat="45.64357" lon="4.41818">
        <ele>736.376359</ele>
        <time>2021-04-23T15:42:38.570Z</time>
      </trkpt>
      <trkpt lat="45.64349" lon="4.41811">
        <ele>735.962069</ele>
        <time>2021-04-23T15:42:40.572Z</time>
      </trkpt>
      <trkpt lat="45.6434" lon="4.41804">
        <ele>735.522051</ele>
        <time>2021-04-23T15:42:43.563Z</time>
      </trkpt>
      <trkpt lat="45.64332" lon="4.41794">
        <ele>735.082743</ele>
        <time>2021-04-23T15:42:46.554Z</time>
      </trkpt>
      <trkpt lat="45.64321" lon="4.41782">
        <ele>734.480141</ele>
        <time>2021-04-23T15:42:49.568Z</time>
      </trkpt>
      <trkpt lat="45.6431" lon="4.41771">
        <ele>733.944856</ele>
        <time>2021-04-23T15:42:51.602Z</time>
      </trkpt>
      <trkpt lat="45.643" lon="4.41763">
        <ele>733.434917</ele>
        <time>2021-04-23T15:42:53.580Z</time>
      </trkpt>
      <trkpt lat="45.64289" lon="4.41756">
        <ele>732.931594</ele>
        <time>2021-04-23T15:42:55.592Z</time>
      </trkpt>
      <trkpt lat="45.64279" lon="4.4175">
        <ele>732.478892</ele>
        <time>2021-04-23T15:42:57.578Z</time>
      </trkpt>
      <trkpt lat="45.64271" lon="4.41745">
        <ele>732.031235</ele>
        <time>2021-04-23T15:42:59.558Z</time>
      </trkpt>
      <trkpt lat="45.64259" lon="4.41737">
        <ele>731.402018</ele>
        <time>2021-04-23T15:43:02.565Z</time>
      </trkpt>
      <trkpt lat="45.64248" lon="4.41727">
        <ele>730.788513</ele>
        <time>2021-04-23T15:43:05.555Z</time>
      </trkpt>
      <trkpt lat="45.64242" lon="4.41711">
        <ele>730.159569</ele>
        <time>2021-04-23T15:43:08.582Z</time>
      </trkpt>
      <trkpt lat="45.64239" lon="4.41697">
        <ele>729.664403</ele>
        <time>2021-04-23T15:43:10.553Z</time>
      </trkpt>
      <trkpt lat="45.64236" lon="4.41679">
        <ele>729.053216</ele>
        <time>2021-04-23T15:43:13.563Z</time>
      </trkpt>
      <trkpt lat="45.64232" lon="4.41664">
        <ele>728.531492</ele>
        <time>2021-04-23T15:43:16.558Z</time>
      </trkpt>
      <trkpt lat="45.64229" lon="4.4165">
        <ele>728.031736</ele>
        <time>2021-04-23T15:43:19.571Z</time>
      </trkpt>
      <trkpt lat="45.64227" lon="4.41635">
        <ele>727.53085</ele>
        <time>2021-04-23T15:43:22.585Z</time>
      </trkpt>
      <trkpt lat="45.64222" lon="4.41616">
        <ele>726.876666</ele>
        <time>2021-04-23T15:43:25.559Z</time>
      </trkpt>
      <trkpt lat="45.64218" lon="4.416">
        <ele>726.289348</ele>
        <time>2021-04-23T15:43:27.569Z</time>
      </trkpt>
      <trkpt lat="45.64211" lon="4.41584">
        <ele>725.661122</ele>
        <time>2021-04-23T15:43:29.554Z</time>
      </trkpt>
      <trkpt lat="45.64204" lon="4.41566">
        <ele>724.976955</ele>
        <time>2021-04-23T15:43:31.547Z</time>
      </trkpt>
      <trkpt lat="45.64195" lon="4.41554">
        <ele>724.37567</ele>
        <time>2021-04-23T15:43:33.588Z</time>
      </trkpt>
      <trkpt lat="45.64187" lon="4.41544">
        <ele>723.843772</ele>
        <time>2021-04-23T15:43:35.577Z</time>
      </trkpt>
      <trkpt lat="45.64181" lon="4.41531">
        <ele>723.224601</ele>
        <time>2021-04-23T15:43:37.565Z</time>
      </trkpt>
      <trkpt lat="45.64177" lon="4.41518">
        <ele>722.606858</ele>
        <time>2021-04-23T15:43:39.559Z</time>
      </trkpt>
      <trkpt lat="45.64173" lon="4.41506">
        <ele>721.997927</ele>
        <time>2021-04-23T15:43:41.555Z</time>
      </trkpt>
      <trkpt lat="45.64163" lon="4.41498">
        <ele>721.298945</ele>
        <time>2021-04-23T15:43:43.583Z</time>
      </trkpt>
      <trkpt lat="45.6415" lon="4.41495">
        <ele>720.48226</ele>
        <time>2021-04-23T15:43:45.562Z</time>
      </trkpt>
      <trkpt lat="45.64135" lon="4.41491">
        <ele>719.542237</ele>
        <time>2021-04-23T15:43:47.581Z</time>
      </trkpt>
      <trkpt lat="45.6412" lon="4.41485">
        <ele>718.574783</ele>
        <time>2021-04-23T15:43:49.575Z</time>
      </trkpt>
      <trkpt lat="45.64105" lon="4.41479">
        <ele>717.596594</ele>
        <time>2021-04-23T15:43:51.576Z</time>
      </trkpt>
      <trkpt lat="45.6409" lon="4.41471">
        <ele>716.611021</ele>
        <time>2021-04-23T15:43:53.555Z</time>
      </trkpt>
      <trkpt lat="45.64072" lon="4.41464">
        <ele>715.492901</ele>
        <time>2021-04-23T15:43:55.547Z</time>
      </trkpt>
      <trkpt lat="45.64063" lon="4.41459">
        <ele>714.887559</ele>
        <time>2021-04-23T15:43:56.559Z</time>
      </trkpt>
      <trkpt lat="45.64053" lon="4.41455">
        <ele>714.247064</ele>
        <time>2021-04-23T15:43:57.555Z</time>
      </trkpt>
      <trkpt lat="45.64041" lon="4.41452">
        <ele>713.536593</ele>
        <time>2021-04-23T15:43:58.556Z</time>
      </trkpt>
      <trkpt lat="45.64029" lon="4.4145">
        <ele>712.601461</ele>
        <time>2021-04-23T15:43:59.559Z</time>
      </trkpt>
      <trkpt lat="45.64017" lon="4.41445">
        <ele>710.431032</ele>
        <time>2021-04-23T15:44:00.567Z</time>
      </trkpt>
      <trkpt lat="45.64005" lon="4.41439">
        <ele>708.322933</ele>
        <time>2021-04-23T15:44:01.584Z</time>
      </trkpt>
      <trkpt lat="45.63995" lon="4.41433">
        <ele>706.563521</ele>
        <time>2021-04-23T15:44:02.554Z</time>
      </trkpt>
      <trkpt lat="45.63987" lon="4.41428">
        <ele>705.032551</ele>
        <time>2021-04-23T15:44:03.578Z</time>
      </trkpt>
      <trkpt lat="45.63975" lon="4.4142">
        <ele>702.718806</ele>
        <time>2021-04-23T15:44:05.550Z</time>
      </trkpt>
      <trkpt lat="45.63966" lon="4.41415">
        <ele>701.095826</ele>
        <time>2021-04-23T15:44:07.583Z</time>
      </trkpt>
      <trkpt lat="45.63957" lon="4.41409">
        <ele>699.448715</ele>
        <time>2021-04-23T15:44:12.591Z</time>
      </trkpt>
      <trkpt lat="45.63949" lon="4.41404">
        <ele>697.903117</ele>
        <time>2021-04-23T15:44:17.566Z</time>
      </trkpt>
      <trkpt lat="45.63955" lon="4.41413">
        <ele>696.350606</ele>
        <time>2021-04-23T15:46:26.538Z</time>
      </trkpt>
      <trkpt lat="45.63966" lon="4.41405">
        <ele>694.159147</ele>
        <time>2021-04-23T15:46:29.559Z</time>
      </trkpt>
      <trkpt lat="45.63977" lon="4.41402">
        <ele>692.275422</ele>
        <time>2021-04-23T15:46:31.558Z</time>
      </trkpt>
      <trkpt lat="45.63987" lon="4.41399">
        <ele>690.588052</ele>
        <time>2021-04-23T15:46:33.569Z</time>
      </trkpt>
      <trkpt lat="45.63996" lon="4.41391">
        <ele>688.813556</ele>
        <time>2021-04-23T15:46:35.560Z</time>
      </trkpt>
      <trkpt lat="45.64005" lon="4.41382">
        <ele>687.019674</ele>
        <time>2021-04-23T15:46:37.599Z</time>
      </trkpt>
      <trkpt lat="45.64013" lon="4.41374">
        <ele>685.343012</ele>
        <time>2021-04-23T15:46:39.571Z</time>
      </trkpt>
      <trkpt lat="45.6402" lon="4.41365">
        <ele>683.632606</ele>
        <time>2021-04-23T15:46:41.562Z</time>
      </trkpt>
      <trkpt lat="45.64028" lon="4.41354">
        <ele>682.357219</ele>
        <time>2021-04-23T15:46:43.584Z</time>
      </trkpt>
      <trkpt lat="45.64034" lon="4.41342">
        <ele>682.018376</ele>
        <time>2021-04-23T15:46:45.568Z</time>
      </trkpt>
      <trkpt lat="45.6404" lon="4.41323">
        <ele>681.530801</ele>
        <time>2021-04-23T15:46:47.586Z</time>
      </trkpt>
      <trkpt lat="45.64045" lon="4.41303">
        <ele>681.043119</ele>
        <time>2021-04-23T15:46:49.569Z</time>
      </trkpt>
      <trkpt lat="45.6405" lon="4.41286">
        <ele>680.611586</ele>
        <time>2021-04-23T15:46:51.569Z</time>
      </trkpt>
      <trkpt lat="45.64052" lon="4.4127">
        <ele>680.246885</ele>
        <time>2021-04-23T15:46:53.563Z</time>
      </trkpt>
      <trkpt lat="45.64057" lon="4.41255">
        <ele>679.873685</ele>
        <time>2021-04-23T15:46:55.544Z</time>
      </trkpt>
      <trkpt lat="45.64064" lon="4.41241">
        <ele>679.466325</ele>
        <time>2021-04-23T15:46:57.581Z</time>
      </trkpt>
      <trkpt lat="45.64073" lon="4.41226">
        <ele>679.000556</ele>
        <time>2021-04-23T15:46:59.564Z</time>
      </trkpt>
      <trkpt lat="45.64084" lon="4.4121">
        <ele>678.499595</ele>
        <time>2021-04-23T15:47:01.551Z</time>
      </trkpt>
      <trkpt lat="45.64095" lon="4.41196">
        <ele>678.022013</ele>
        <time>2021-04-23T15:47:03.556Z</time>
      </trkpt>
      <trkpt lat="45.64107" lon="4.41185">
        <ele>677.557034</ele>
        <time>2021-04-23T15:47:05.553Z</time>
      </trkpt>
      <trkpt lat="45.64122" lon="4.41179">
        <ele>677.052579</ele>
        <time>2021-04-23T15:47:07.594Z</time>
      </trkpt>
      <trkpt lat="45.64133" lon="4.41173">
        <ele>676.642108</ele>
        <time>2021-04-23T15:47:09.570Z</time>
      </trkpt>
      <trkpt lat="45.64143" lon="4.41168">
        <ele>676.207804</ele>
        <time>2021-04-23T15:47:11.562Z</time>
      </trkpt>
      <trkpt lat="45.64154" lon="4.41158">
        <ele>675.681316</ele>
        <time>2021-04-23T15:47:13.561Z</time>
      </trkpt>
      <trkpt lat="45.64164" lon="4.41148">
        <ele>675.147673</ele>
        <time>2021-04-23T15:47:15.553Z</time>
      </trkpt>
      <trkpt lat="45.64176" lon="4.41139">
        <ele>674.615161</ele>
        <time>2021-04-23T15:47:17.560Z</time>
      </trkpt>
      <trkpt lat="45.64187" lon="4.41135">
        <ele>674.11969</ele>
        <time>2021-04-23T15:47:19.562Z</time>
      </trkpt>
      <trkpt lat="45.64197" lon="4.41134">
        <ele>673.705488</ele>
        <time>2021-04-23T15:47:21.572Z</time>
      </trkpt>
      <trkpt lat="45.6421" lon="4.41133">
        <ele>673.138134</ele>
        <time>2021-04-23T15:47:24.569Z</time>
      </trkpt>
      <trkpt lat="45.6422" lon="4.41135">
        <ele>672.73315</ele>
        <time>2021-04-23T15:47:26.555Z</time>
      </trkpt>
      <trkpt lat="45.6423" lon="4.41136">
        <ele>672.294418</ele>
        <time>2021-04-23T15:47:28.572Z</time>
      </trkpt>
      <trkpt lat="45.64241" lon="4.41138">
        <ele>671.86091</ele>
        <time>2021-04-23T15:47:30.545Z</time>
      </trkpt>
      <trkpt lat="45.64253" lon="4.4114">
        <ele>671.331628</ele>
        <time>2021-04-23T15:47:32.540Z</time>
      </trkpt>
      <trkpt lat="45.64264" lon="4.41142">
        <ele>670.883365</ele>
        <time>2021-04-23T15:47:34.533Z</time>
      </trkpt>
      <trkpt lat="45.64274" lon="4.41146">
        <ele>670.425508</ele>
        <time>2021-04-23T15:47:37.951Z</time>
      </trkpt>
      <trkpt lat="45.64285" lon="4.41152">
        <ele>669.91644</ele>
        <time>2021-04-23T15:47:42.536Z</time>
      </trkpt>
      <trkpt lat="45.64295" lon="4.41151">
        <ele>669.519556</ele>
        <time>2021-04-23T15:47:46.565Z</time>
      </trkpt>
      <trkpt lat="45.64277" lon="4.41142">
        <ele>668.83029</ele>
        <time>2021-04-23T15:50:20.574Z</time>
      </trkpt>
      <trkpt lat="45.64268" lon="4.41136">
        <ele>668.55776</ele>
        <time>2021-04-23T15:50:23.558Z</time>
      </trkpt>
      <trkpt lat="45.6426" lon="4.4113">
        <ele>668.2925</ele>
        <time>2021-04-23T15:50:26.546Z</time>
      </trkpt>
      <trkpt lat="45.64248" lon="4.41125">
        <ele>667.955844</ele>
        <time>2021-04-23T15:50:29.571Z</time>
      </trkpt>
      <trkpt lat="45.64237" lon="4.41123">
        <ele>667.655116</ele>
        <time>2021-04-23T15:50:32.540Z</time>
      </trkpt>
      <trkpt lat="45.64224" lon="4.41123">
        <ele>667.298882</ele>
        <time>2021-04-23T15:50:36.576Z</time>
      </trkpt>
      <trkpt lat="45.64211" lon="4.41128">
        <ele>666.903282</ele>
        <time>2021-04-23T15:50:39.572Z</time>
      </trkpt>
      <trkpt lat="45.64199" lon="4.41137">
        <ele>666.538521</ele>
        <time>2021-04-23T15:50:42.589Z</time>
      </trkpt>
      <trkpt lat="45.6419" lon="4.41143">
        <ele>666.265022</ele>
        <time>2021-04-23T15:50:44.571Z</time>
      </trkpt>
      <trkpt lat="45.6418" lon="4.41149">
        <ele>665.971631</ele>
        <time>2021-04-23T15:50:46.580Z</time>
      </trkpt>
      <trkpt lat="45.64171" lon="4.41154">
        <ele>665.7096</ele>
        <time>2021-04-23T15:50:48.567Z</time>
      </trkpt>
      <trkpt lat="45.64163" lon="4.4116">
        <ele>665.436742</ele>
        <time>2021-04-23T15:50:50.562Z</time>
      </trkpt>
      <trkpt lat="45.64152" lon="4.41167">
        <ele>665.11934</ele>
        <time>2021-04-23T15:50:53.552Z</time>
      </trkpt>
      <trkpt lat="45.64141" lon="4.41174">
        <ele>664.797252</ele>
        <time>2021-04-23T15:50:56.587Z</time>
      </trkpt>
      <trkpt lat="45.64131" lon="4.41181">
        <ele>664.467388</ele>
        <time>2021-04-23T15:50:59.572Z</time>
      </trkpt>
      <trkpt lat="45.64122" lon="4.4119">
        <ele>664.182124</ele>
        <time>2021-04-23T15:51:02.554Z</time>
      </trkpt>
      <trkpt lat="45.64114" lon="4.41197">
        <ele>664.01856</ele>
        <time>2021-04-23T15:51:06.567Z</time>
      </trkpt>
      <trkpt lat="45.64104" lon="4.41208">
        <ele>663.961027</ele>
        <time>2021-04-23T15:51:09.565Z</time>
      </trkpt>
      <trkpt lat="45.64096" lon="4.41216">
        <ele>663.91652</ele>
        <time>2021-04-23T15:51:11.592Z</time>
      </trkpt>
      <trkpt lat="45.64087" lon="4.41226">
        <ele>663.865312</ele>
        <time>2021-04-23T15:51:14.554Z</time>
      </trkpt>
      <trkpt lat="45.64077" lon="4.41236">
        <ele>663.811093</ele>
        <time>2021-04-23T15:51:17.541Z</time>
      </trkpt>
      <trkpt lat="45.64069" lon="4.41245">
        <ele>663.768</ele>
        <time>2021-04-23T15:51:21.577Z</time>
      </trkpt>
      <trkpt lat="45.64063" lon="4.41256">
        <ele>663.724072</ele>
        <time>2021-04-23T15:51:25.584Z</time>
      </trkpt>
      <trkpt lat="45.64055" lon="4.4125">
        <ele>663.681073</ele>
        <time>2021-04-23T15:51:33.557Z</time>
      </trkpt>
      <trkpt lat="45.64054" lon="4.41235">
        <ele>663.633111</ele>
        <time>2021-04-23T15:51:37.560Z</time>
      </trkpt>
      <trkpt lat="45.64054" lon="4.41219">
        <ele>663.582401</ele>
        <time>2021-04-23T15:51:40.550Z</time>
      </trkpt>
      <trkpt lat="45.64055" lon="4.41201">
        <ele>663.525896</ele>
        <time>2021-04-23T15:51:43.553Z</time>
      </trkpt>
      <trkpt lat="45.64057" lon="4.41188">
        <ele>663.482966</ele>
        <time>2021-04-23T15:51:45.554Z</time>
      </trkpt>
      <trkpt lat="45.64059" lon="4.41173">
        <ele>663.435588</ele>
        <time>2021-04-23T15:51:48.580Z</time>
      </trkpt>
      <trkpt lat="45.64061" lon="4.41156">
        <ele>663.382827</ele>
        <time>2021-04-23T15:51:53.559Z</time>
      </trkpt>
      <trkpt lat="45.64068" lon="4.41145">
        <ele>663.336832</ele>
        <time>2021-04-23T15:51:56.572Z</time>
      </trkpt>
      <trkpt lat="45.64062" lon="4.41129">
        <ele>663.278994</ele>
        <time>2021-04-23T15:52:01.553Z</time>
      </trkpt>
      <trkpt lat="45.64052" lon="4.4112">
        <ele>663.223376</ele>
        <time>2021-04-23T15:52:04.570Z</time>
      </trkpt>
      <trkpt lat="45.64043" lon="4.41117">
        <ele>663.050118</ele>
        <time>2021-04-23T15:52:06.565Z</time>
      </trkpt>
      <trkpt lat="45.64034" lon="4.41112">
        <ele>662.872803</ele>
        <time>2021-04-23T15:52:08.560Z</time>
      </trkpt>
      <trkpt lat="45.64025" lon="4.41108">
        <ele>662.709874</ele>
        <time>2021-04-23T15:52:10.558Z</time>
      </trkpt>
      <trkpt lat="45.64013" lon="4.41102">
        <ele>662.476342</ele>
        <time>2021-04-23T15:52:13.560Z</time>
      </trkpt>
      <trkpt lat="45.64001" lon="4.41102">
        <ele>662.258308</ele>
        <time>2021-04-23T15:52:16.567Z</time>
      </trkpt>
      <trkpt lat="45.63995" lon="4.41091">
        <ele>662.082762</ele>
        <time>2021-04-23T15:52:20.559Z</time>
      </trkpt>
      <trkpt lat="45.64005" lon="4.41087">
        <ele>661.906671</ele>
        <time>2021-04-23T15:52:25.569Z</time>
      </trkpt>
      <trkpt lat="45.64016" lon="4.41081">
        <ele>661.695026</ele>
        <time>2021-04-23T15:52:28.583Z</time>
      </trkpt>
      <trkpt lat="45.64024" lon="4.41075">
        <ele>661.532066</ele>
        <time>2021-04-23T15:52:31.575Z</time>
      </trkpt>
      <trkpt lat="45.64031" lon="4.41065">
        <ele>661.350217</ele>
        <time>2021-04-23T15:52:34.569Z</time>
      </trkpt>
      <trkpt lat="45.64039" lon="4.41057">
        <ele>661.173426</ele>
        <time>2021-04-23T15:52:40.561Z</time>
      </trkpt>
      <trkpt lat="45.6404" lon="4.41043">
        <ele>661.003254</ele>
        <time>2021-04-23T15:52:49.564Z</time>
      </trkpt>
      <trkpt lat="45.64033" lon="4.41035">
        <ele>660.839187</ele>
        <time>2021-04-23T15:52:53.600Z</time>
      </trkpt>
      <trkpt lat="45.64024" lon="4.41029">
        <ele>660.656208</ele>
        <time>2021-04-23T15:52:57.554Z</time>
      </trkpt>
      <trkpt lat="45.64015" lon="4.41024">
        <ele>660.478441</ele>
        <time>2021-04-23T15:53:00.540Z</time>
      </trkpt>
      <trkpt lat="45.64006" lon="4.41014">
        <ele>660.283933</ele>
        <time>2021-04-23T15:53:03.567Z</time>
      </trkpt>
      <trkpt lat="45.63996" lon="4.41003">
        <ele>660.04643</ele>
        <time>2021-04-23T15:53:06.562Z</time>
      </trkpt>
      <trkpt lat="45.63986" lon="4.40991">
        <ele>659.464596</ele>
        <time>2021-04-23T15:53:09.561Z</time>
      </trkpt>
      <trkpt lat="45.63977" lon="4.4098">
        <ele>658.765042</ele>
        <time>2021-04-23T15:53:12.543Z</time>
      </trkpt>
      <trkpt lat="45.63968" lon="4.40968">
        <ele>658.058439</ele>
        <time>2021-04-23T15:53:15.555Z</time>
      </trkpt>
      <trkpt lat="45.63957" lon="4.40958">
        <ele>657.341025</ele>
        <time>2021-04-23T15:53:18.585Z</time>
      </trkpt>
      <trkpt lat="45.63945" lon="4.4095">
        <ele>656.574368</ele>
        <time>2021-04-23T15:53:21.562Z</time>
      </trkpt>
      <trkpt lat="45.63935" lon="4.40941">
        <ele>655.882258</ele>
        <time>2021-04-23T15:53:24.560Z</time>
      </trkpt>
      <trkpt lat="45.63928" lon="4.4093">
        <ele>655.329071</ele>
        <time>2021-04-23T15:53:27.551Z</time>
      </trkpt>
      <trkpt lat="45.63925" lon="4.40918">
        <ele>654.802534</ele>
        <time>2021-04-23T15:53:31.583Z</time>
      </trkpt>
      <trkpt lat="45.63921" lon="4.40906">
        <ele>654.25953</ele>
        <time>2021-04-23T15:53:36.555Z</time>
      </trkpt>
      <trkpt lat="45.63918" lon="4.40893">
        <ele>653.729525</ele>
        <time>2021-04-23T15:53:41.547Z</time>
      </trkpt>
      <trkpt lat="45.63915" lon="4.40879">
        <ele>653.140076</ele>
        <time>2021-04-23T15:53:48.595Z</time>
      </trkpt>
      <trkpt lat="45.63912" lon="4.40865">
        <ele>652.56553</ele>
        <time>2021-04-23T15:53:54.542Z</time>
      </trkpt>
      <trkpt lat="45.6391" lon="4.4085">
        <ele>651.966562</ele>
        <time>2021-04-23T15:54:01.559Z</time>
      </trkpt>
      <trkpt lat="45.63908" lon="4.40836">
        <ele>651.392118</ele>
        <time>2021-04-23T15:54:07.568Z</time>
      </trkpt>
      <trkpt lat="45.63906" lon="4.40821">
        <ele>650.809429</ele>
        <time>2021-04-23T15:54:13.550Z</time>
      </trkpt>
      <trkpt lat="45.63906" lon="4.40806">
        <ele>650.193002</ele>
        <time>2021-04-23T15:54:19.583Z</time>
      </trkpt>
      <trkpt lat="45.63906" lon="4.40792">
        <ele>649.599058</ele>
        <time>2021-04-23T15:54:23.578Z</time>
      </trkpt>
      <trkpt lat="45.63906" lon="4.40778">
        <ele>648.863033</ele>
        <time>2021-04-23T15:54:27.588Z</time>
      </trkpt>
      <trkpt lat="45.63905" lon="4.40763">
        <ele>648.073547</ele>
        <time>2021-04-23T15:54:31.599Z</time>
      </trkpt>
      <trkpt lat="45.63904" lon="4.40749">
        <ele>647.34139</ele>
        <time>2021-04-23T15:54:35.557Z</time>
      </trkpt>
      <trkpt lat="45.63903" lon="4.40733">
        <ele>646.549363</ele>
        <time>2021-04-23T15:54:39.587Z</time>
      </trkpt>
      <trkpt lat="45.639" lon="4.40721">
        <ele>645.854187</ele>
        <time>2021-04-23T15:54:42.594Z</time>
      </trkpt>
      <trkpt lat="45.63893" lon="4.4071">
        <ele>645.086263</ele>
        <time>2021-04-23T15:54:45.562Z</time>
      </trkpt>
      <trkpt lat="45.63887" lon="4.40699">
        <ele>644.356434</ele>
        <time>2021-04-23T15:54:48.578Z</time>
      </trkpt>
      <trkpt lat="45.63879" lon="4.40688">
        <ele>643.548016</ele>
        <time>2021-04-23T15:54:52.572Z</time>
      </trkpt>
      <trkpt lat="45.63872" lon="4.40677">
        <ele>642.791883</ele>
        <time>2021-04-23T15:54:56.563Z</time>
      </trkpt>
      <trkpt lat="45.63867" lon="4.40664">
        <ele>642.017273</ele>
        <time>2021-04-23T15:55:00.557Z</time>
      </trkpt>
      <trkpt lat="45.63869" lon="4.40651">
        <ele>641.31269</ele>
        <time>2021-04-23T15:55:05.580Z</time>
      </trkpt>
      <trkpt lat="45.63861" lon="4.40659">
        <ele>640.615562</ele>
        <time>2021-04-23T15:55:16.577Z</time>
      </trkpt>
      <trkpt lat="45.63855" lon="4.40669">
        <ele>639.943208</ele>
        <time>2021-04-23T15:55:20.584Z</time>
      </trkpt>
      <trkpt lat="45.63848" lon="4.40679">
        <ele>639.174151</ele>
        <time>2021-04-23T15:55:23.568Z</time>
      </trkpt>
      <trkpt lat="45.63841" lon="4.40688">
        <ele>638.495507</ele>
        <time>2021-04-23T15:55:25.578Z</time>
      </trkpt>
      <trkpt lat="45.63834" lon="4.40698">
        <ele>637.706547</ele>
        <time>2021-04-23T15:55:27.602Z</time>
      </trkpt>
      <trkpt lat="45.63826" lon="4.40708">
        <ele>636.97141</ele>
        <time>2021-04-23T15:55:29.568Z</time>
      </trkpt>
      <trkpt lat="45.63819" lon="4.40719">
        <ele>636.236439</ele>
        <time>2021-04-23T15:55:31.577Z</time>
      </trkpt>
      <trkpt lat="45.63811" lon="4.40734">
        <ele>635.575719</ele>
        <time>2021-04-23T15:55:33.575Z</time>
      </trkpt>
      <trkpt lat="45.63804" lon="4.40752">
        <ele>634.835682</ele>
        <time>2021-04-23T15:55:35.582Z</time>
      </trkpt>
      <trkpt lat="45.638" lon="4.40769">
        <ele>634.173849</ele>
        <time>2021-04-23T15:55:37.584Z</time>
      </trkpt>
      <trkpt lat="45.63795" lon="4.40788">
        <ele>633.438306</ele>
        <time>2021-04-23T15:55:39.576Z</time>
      </trkpt>
      <trkpt lat="45.63791" lon="4.40807">
        <ele>632.711485</ele>
        <time>2021-04-23T15:55:41.574Z</time>
      </trkpt>
      <trkpt lat="45.63786" lon="4.40825">
        <ele>632.011928</ele>
        <time>2021-04-23T15:55:43.556Z</time>
      </trkpt>
      <trkpt lat="45.6378" lon="4.40841">
        <ele>631.344603</ele>
        <time>2021-04-23T15:55:45.568Z</time>
      </trkpt>
      <trkpt lat="45.63771" lon="4.40856">
        <ele>630.645051</ele>
        <time>2021-04-23T15:55:47.563Z</time>
      </trkpt>
      <trkpt lat="45.63762" lon="4.40869">
        <ele>629.974977</ele>
        <time>2021-04-23T15:55:49.587Z</time>
      </trkpt>
      <trkpt lat="45.63755" lon="4.40878">
        <ele>629.498666</ele>
        <time>2021-04-23T15:55:51.557Z</time>
      </trkpt>
      <trkpt lat="45.63744" lon="4.40887">
        <ele>628.844496</ele>
        <time>2021-04-23T15:55:54.547Z</time>
      </trkpt>
      <trkpt lat="45.63735" lon="4.40889">
        <ele>628.352034</ele>
        <time>2021-04-23T15:55:56.576Z</time>
      </trkpt>
      <trkpt lat="45.63724" lon="4.4089">
        <ele>627.82069</ele>
        <time>2021-04-23T15:55:58.584Z</time>
      </trkpt>
      <trkpt lat="45.63715" lon="4.40893">
        <ele>627.323137</ele>
        <time>2021-04-23T15:56:01.558Z</time>
      </trkpt>
      <trkpt lat="45.63698" lon="4.40883">
        <ele>626.792407</ele>
        <time>2021-04-23T15:56:31.602Z</time>
      </trkpt>
      <trkpt lat="45.63689" lon="4.40876">
        <ele>626.560097</ele>
        <time>2021-04-23T15:56:37.584Z</time>
      </trkpt>
      <trkpt lat="45.63682" lon="4.40867">
        <ele>626.340468</ele>
        <time>2021-04-23T15:56:42.573Z</time>
      </trkpt>
      <trkpt lat="45.63679" lon="4.40854">
        <ele>626.106962</ele>
        <time>2021-04-23T15:56:46.590Z</time>
      </trkpt>
      <trkpt lat="45.63677" lon="4.40839">
        <ele>625.873886</ele>
        <time>2021-04-23T15:56:52.579Z</time>
      </trkpt>
      <trkpt lat="45.6368" lon="4.40824">
        <ele>625.624927</ele>
        <time>2021-04-23T15:56:59.559Z</time>
      </trkpt>
      <trkpt lat="45.63684" lon="4.40812">
        <ele>625.401463</ele>
        <time>2021-04-23T15:57:04.561Z</time>
      </trkpt>
      <trkpt lat="45.63687" lon="4.40799">
        <ele>625.185901</ele>
        <time>2021-04-23T15:57:08.586Z</time>
      </trkpt>
      <trkpt lat="45.63693" lon="4.40789">
        <ele>624.97858</ele>
        <time>2021-04-23T15:57:13.559Z</time>
      </trkpt>
      <trkpt lat="45.63696" lon="4.40776">
        <ele>624.76535</ele>
        <time>2021-04-23T15:57:18.568Z</time>
      </trkpt>
      <trkpt lat="45.637" lon="4.40764">
        <ele>624.547642</ele>
        <time>2021-04-23T15:57:22.558Z</time>
      </trkpt>
      <trkpt lat="45.63703" lon="4.40751">
        <ele>624.336218</ele>
        <time>2021-04-23T15:57:27.568Z</time>
      </trkpt>
      <trkpt lat="45.63708" lon="4.4074">
        <ele>624.12297</ele>
        <time>2021-04-23T15:57:32.599Z</time>
      </trkpt>
      <trkpt lat="45.63712" lon="4.40725">
        <ele>623.865782</ele>
        <time>2021-04-23T15:57:37.577Z</time>
      </trkpt>
      <trkpt lat="45.63718" lon="4.40712">
        <ele>623.625265</ele>
        <time>2021-04-23T15:57:41.591Z</time>
      </trkpt>
      <trkpt lat="45.63723" lon="4.40699">
        <ele>623.379458</ele>
        <time>2021-04-23T15:57:45.581Z</time>
      </trkpt>
      <trkpt lat="45.63727" lon="4.40684">
        <ele>623.117809</ele>
        <time>2021-04-23T15:57:49.564Z</time>
      </trkpt>
      <trkpt lat="45.63731" lon="4.40671">
        <ele>622.924014</ele>
        <time>2021-04-23T15:57:52.576Z</time>
      </trkpt>
      <trkpt lat="45.63733" lon="4.40658">
        <ele>622.782913</ele>
        <time>2021-04-23T15:57:55.563Z</time>
      </trkpt>
      <trkpt lat="45.63735" lon="4.40645">
        <ele>622.64557</ele>
        <time>2021-04-23T15:57:58.581Z</time>
      </trkpt>
      <trkpt lat="45.63738" lon="4.4063">
        <ele>622.477151</ele>
        <time>2021-04-23T15:58:02.561Z</time>
      </trkpt>
      <trkpt lat="45.6374" lon="4.40616">
        <ele>622.330232</ele>
        <time>2021-04-23T15:58:05.585Z</time>
      </trkpt>
      <trkpt lat="45.63743" lon="4.40602">
        <ele>622.173858</ele>
        <time>2021-04-23T15:58:08.548Z</time>
      </trkpt>
      <trkpt lat="45.63746" lon="4.40588">
        <ele>622.022577</ele>
        <time>2021-04-23T15:58:11.559Z</time>
      </trkpt>
      <trkpt lat="45.63748" lon="4.40576">
        <ele>621.881887</ele>
        <time>2021-04-23T15:58:14.578Z</time>
      </trkpt>
      <trkpt lat="45.63752" lon="4.4056">
        <ele>621.705283</ele>
        <time>2021-04-23T15:58:18.567Z</time>
      </trkpt>
      <trkpt lat="45.63756" lon="4.40548">
        <ele>621.561423</ele>
        <time>2021-04-23T15:58:21.560Z</time>
      </trkpt>
      <trkpt lat="45.63762" lon="4.40534">
        <ele>621.389276</ele>
        <time>2021-04-23T15:58:25.600Z</time>
      </trkpt>
      <trkpt lat="45.63768" lon="4.40518">
        <ele>621.202271</ele>
        <time>2021-04-23T15:58:29.616Z</time>
      </trkpt>
      <trkpt lat="45.6377" lon="4.40505">
        <ele>621.061132</ele>
        <time>2021-04-23T15:58:32.559Z</time>
      </trkpt>
      <trkpt lat="45.63772" lon="4.40489">
        <ele>620.882599</ele>
        <time>2021-04-23T15:58:36.564Z</time>
      </trkpt>
      <trkpt lat="45.63775" lon="4.40474">
        <ele>620.721734</ele>
        <time>2021-04-23T15:58:40.577Z</time>
      </trkpt>
      <trkpt lat="45.63777" lon="4.40461">
        <ele>620.581689</ele>
        <time>2021-04-23T15:58:43.572Z</time>
      </trkpt>
      <trkpt lat="45.63779" lon="4.40446">
        <ele>620.418293</ele>
        <time>2021-04-23T15:58:46.584Z</time>
      </trkpt>
      <trkpt lat="45.63783" lon="4.4043">
        <ele>620.259432</ele>
        <time>2021-04-23T15:58:49.564Z</time>
      </trkpt>
      <trkpt lat="45.63787" lon="4.40413">
        <ele>620.249788</ele>
        <time>2021-04-23T15:58:52.582Z</time>
      </trkpt>
      <trkpt lat="45.6379" lon="4.40397">
        <ele>620.241525</ele>
        <time>2021-04-23T15:58:55.569Z</time>
      </trkpt>
      <trkpt lat="45.63793" lon="4.4038">
        <ele>620.232589</ele>
        <time>2021-04-23T15:58:58.573Z</time>
      </trkpt>
      <trkpt lat="45.63796" lon="4.40363">
        <ele>620.22357</ele>
        <time>2021-04-23T15:59:01.608Z</time>
      </trkpt>
      <trkpt lat="45.63799" lon="4.40346">
        <ele>620.214451</ele>
        <time>2021-04-23T15:59:04.585Z</time>
      </trkpt>
      <trkpt lat="45.63804" lon="4.40335">
        <ele>620.207426</ele>
        <time>2021-04-23T15:59:06.567Z</time>
      </trkpt>
      <trkpt lat="45.63811" lon="4.40319">
        <ele>620.197548</ele>
        <time>2021-04-23T15:59:09.554Z</time>
      </trkpt>
      <trkpt lat="45.63819" lon="4.40304">
        <ele>620.188303</ele>
        <time>2021-04-23T15:59:12.599Z</time>
      </trkpt>
      <trkpt lat="45.63825" lon="4.40291">
        <ele>620.179864</ele>
        <time>2021-04-23T15:59:15.591Z</time>
      </trkpt>
      <trkpt lat="45.63831" lon="4.40279">
        <ele>620.172486</ele>
        <time>2021-04-23T15:59:18.566Z</time>
      </trkpt>
      <trkpt lat="45.63836" lon="4.40268">
        <ele>620.16566</ele>
        <time>2021-04-23T15:59:21.568Z</time>
      </trkpt>
      <trkpt lat="45.63843" lon="4.40255">
        <ele>620.156755</ele>
        <time>2021-04-23T15:59:24.587Z</time>
      </trkpt>
      <trkpt lat="45.6385" lon="4.40244">
        <ele>620.149314</ele>
        <time>2021-04-23T15:59:27.569Z</time>
      </trkpt>
      <trkpt lat="45.63858" lon="4.40233">
        <ele>620.1408</ele>
        <time>2021-04-23T15:59:30.581Z</time>
      </trkpt>
      <trkpt lat="45.63866" lon="4.4022">
        <ele>620.132133</ele>
        <time>2021-04-23T15:59:33.552Z</time>
      </trkpt>
      <trkpt lat="45.63873" lon="4.40207">
        <ele>620.166476</ele>
        <time>2021-04-23T15:59:36.583Z</time>
      </trkpt>
      <trkpt lat="45.63878" lon="4.40193">
        <ele>620.258824</ele>
        <time>2021-04-23T15:59:39.567Z</time>
      </trkpt>
      <trkpt lat="45.6388" lon="4.40177">
        <ele>620.351808</ele>
        <time>2021-04-23T15:59:43.577Z</time>
      </trkpt>
      <trkpt lat="45.63881" lon="4.40164">
        <ele>620.427188</ele>
        <time>2021-04-23T15:59:47.592Z</time>
      </trkpt>
      <trkpt lat="45.6388" lon="4.40149">
        <ele>620.512542</ele>
        <time>2021-04-23T15:59:52.571Z</time>
      </trkpt>
      <trkpt lat="45.63879" lon="4.40135">
        <ele>620.589305</ele>
        <time>2021-04-23T15:59:57.596Z</time>
      </trkpt>
      <trkpt lat="45.63878" lon="4.40121">
        <ele>620.672881</ele>
        <time>2021-04-23T16:00:03.587Z</time>
      </trkpt>
      <trkpt lat="45.63877" lon="4.40106">
        <ele>620.757373</ele>
        <time>2021-04-23T16:00:08.571Z</time>
      </trkpt>
      <trkpt lat="45.63877" lon="4.40093">
        <ele>620.831507</ele>
        <time>2021-04-23T16:00:14.584Z</time>
      </trkpt>
      <trkpt lat="45.63879" lon="4.40077">
        <ele>620.923068</ele>
        <time>2021-04-23T16:00:19.599Z</time>
      </trkpt>
      <trkpt lat="45.6388" lon="4.40064">
        <ele>620.997839</ele>
        <time>2021-04-23T16:00:24.579Z</time>
      </trkpt>
      <trkpt lat="45.63881" lon="4.40049">
        <ele>621.083931</ele>
        <time>2021-04-23T16:00:30.603Z</time>
      </trkpt>
      <trkpt lat="45.63882" lon="4.40034">
        <ele>621.170023</ele>
        <time>2021-04-23T16:00:35.555Z</time>
      </trkpt>
      <trkpt lat="45.63882" lon="4.40021">
        <ele>621.244741</ele>
        <time>2021-04-23T16:00:40.589Z</time>
      </trkpt>
      <trkpt lat="45.63883" lon="4.40006">
        <ele>621.332366</ele>
        <time>2021-04-23T16:00:45.573Z</time>
      </trkpt>
      <trkpt lat="45.63885" lon="4.39993">
        <ele>621.408269</ele>
        <time>2021-04-23T16:00:50.598Z</time>
      </trkpt>
      <trkpt lat="45.63892" lon="4.39982">
        <ele>621.490438</ele>
        <time>2021-04-23T16:00:56.592Z</time>
      </trkpt>
      <trkpt lat="45.63899" lon="4.39973">
        <ele>621.569138</ele>
        <time>2021-04-23T16:01:03.610Z</time>
      </trkpt>
      <trkpt lat="45.63907" lon="4.39965">
        <ele>621.715845</ele>
        <time>2021-04-23T16:01:09.573Z</time>
      </trkpt>
      <trkpt lat="45.63913" lon="4.39954">
        <ele>621.902759</ele>
        <time>2021-04-23T16:01:16.585Z</time>
      </trkpt>
      <trkpt lat="45.63916" lon="4.39941">
        <ele>622.075189</ele>
        <time>2021-04-23T16:01:21.566Z</time>
      </trkpt>
      <trkpt lat="45.63919" lon="4.39929">
        <ele>622.252588</ele>
        <time>2021-04-23T16:01:27.566Z</time>
      </trkpt>
      <trkpt lat="45.63922" lon="4.39915">
        <ele>622.436414</ele>
        <time>2021-04-23T16:01:31.585Z</time>
      </trkpt>
      <trkpt lat="45.63925" lon="4.399">
        <ele>622.6384</ele>
        <time>2021-04-23T16:01:36.583Z</time>
      </trkpt>
      <trkpt lat="45.63928" lon="4.39888">
        <ele>622.812837</ele>
        <time>2021-04-23T16:01:40.587Z</time>
      </trkpt>
      <trkpt lat="45.63931" lon="4.39872">
        <ele>623.022921</ele>
        <time>2021-04-23T16:01:45.586Z</time>
      </trkpt>
      <trkpt lat="45.63927" lon="4.39858">
        <ele>623.22006</ele>
        <time>2021-04-23T16:01:51.570Z</time>
      </trkpt>
      <trkpt lat="45.63921" lon="4.39844">
        <ele>623.424466</ele>
        <time>2021-04-23T16:01:56.574Z</time>
      </trkpt>
      <trkpt lat="45.63915" lon="4.39835">
        <ele>623.597201</ele>
        <time>2021-04-23T16:02:00.593Z</time>
      </trkpt>
      <trkpt lat="45.63909" lon="4.39825">
        <ele>623.77662</ele>
        <time>2021-04-23T16:02:04.584Z</time>
      </trkpt>
      <trkpt lat="45.63901" lon="4.39815">
        <ele>623.969327</ele>
        <time>2021-04-23T16:02:09.587Z</time>
      </trkpt>
      <trkpt lat="45.63892" lon="4.39806">
        <ele>624.172861</ele>
        <time>2021-04-23T16:02:14.563Z</time>
      </trkpt>
      <trkpt lat="45.63886" lon="4.39795">
        <ele>624.351576</ele>
        <time>2021-04-23T16:02:18.592Z</time>
      </trkpt>
      <trkpt lat="45.63882" lon="4.39784">
        <ele>624.520329</ele>
        <time>2021-04-23T16:02:21.566Z</time>
      </trkpt>
      <trkpt lat="45.63878" lon="4.39769">
        <ele>624.723427</ele>
        <time>2021-04-23T16:02:25.565Z</time>
      </trkpt>
      <trkpt lat="45.63874" lon="4.39757">
        <ele>624.903661</ele>
        <time>2021-04-23T16:02:29.589Z</time>
      </trkpt>
      <trkpt lat="45.63872" lon="4.39742">
        <ele>625.245914</ele>
        <time>2021-04-23T16:02:33.558Z</time>
      </trkpt>
      <trkpt lat="45.63868" lon="4.39729">
        <ele>625.605998</ele>
        <time>2021-04-23T16:02:37.609Z</time>
      </trkpt>
      <trkpt lat="45.63864" lon="4.39716">
        <ele>625.966993</ele>
        <time>2021-04-23T16:02:41.551Z</time>
      </trkpt>
      <trkpt lat="45.63862" lon="4.397">
        <ele>626.386747</ele>
        <time>2021-04-23T16:02:45.562Z</time>
      </trkpt>
      <trkpt lat="45.6386" lon="4.39686">
        <ele>626.759625</ele>
        <time>2021-04-23T16:02:49.566Z</time>
      </trkpt>
      <trkpt lat="45.63858" lon="4.3967">
        <ele>627.164036</ele>
        <time>2021-04-23T16:02:53.578Z</time>
      </trkpt>
      <trkpt lat="45.63856" lon="4.39655">
        <ele>627.577725</ele>
        <time>2021-04-23T16:02:57.571Z</time>
      </trkpt>
      <trkpt lat="45.63852" lon="4.39642">
        <ele>627.921526</ele>
        <time>2021-04-23T16:03:00.578Z</time>
      </trkpt>
      <trkpt lat="45.63847" lon="4.39627">
        <ele>628.352506</ele>
        <time>2021-04-23T16:03:04.589Z</time>
      </trkpt>
      <trkpt lat="45.63841" lon="4.39613">
        <ele>628.769537</ele>
        <time>2021-04-23T16:03:08.588Z</time>
      </trkpt>
      <trkpt lat="45.63837" lon="4.39599">
        <ele>629.172608</ele>
        <time>2021-04-23T16:03:12.565Z</time>
      </trkpt>
      <trkpt lat="45.63835" lon="4.39585">
        <ele>629.537774</ele>
        <time>2021-04-23T16:03:16.580Z</time>
      </trkpt>
      <trkpt lat="45.63832" lon="4.39572">
        <ele>629.903549</ele>
        <time>2021-04-23T16:03:21.598Z</time>
      </trkpt>
      <trkpt lat="45.63831" lon="4.39557">
        <ele>630.293604</ele>
        <time>2021-04-23T16:03:26.595Z</time>
      </trkpt>
      <trkpt lat="45.63829" lon="4.39543">
        <ele>630.635312</ele>
        <time>2021-04-23T16:03:32.573Z</time>
      </trkpt>
      <trkpt lat="45.63831" lon="4.39531">
        <ele>630.966864</ele>
        <time>2021-04-23T16:03:39.562Z</time>
      </trkpt>
      <trkpt lat="45.63821" lon="4.39533">
        <ele>631.339761</ele>
        <time>2021-04-23T16:03:43.584Z</time>
      </trkpt>
      <trkpt lat="45.63813" lon="4.39527">
        <ele>631.783134</ele>
        <time>2021-04-23T16:03:46.600Z</time>
      </trkpt>
      <trkpt lat="45.63815" lon="4.39512">
        <ele>632.589626</ele>
        <time>2021-04-23T16:03:50.568Z</time>
      </trkpt>
      <trkpt lat="45.63821" lon="4.395">
        <ele>633.394965</ele>
        <time>2021-04-23T16:03:55.555Z</time>
      </trkpt>
      <trkpt lat="45.63821" lon="4.39485">
        <ele>634.2286</ele>
        <time>2021-04-23T16:04:00.560Z</time>
      </trkpt>
      <trkpt lat="45.63821" lon="4.39471">
        <ele>635.018073</ele>
        <time>2021-04-23T16:04:04.580Z</time>
      </trkpt>
      <trkpt lat="45.63814" lon="4.3946">
        <ele>635.876819</ele>
        <time>2021-04-23T16:04:10.558Z</time>
      </trkpt>
      <trkpt lat="45.63802" lon="4.39456">
        <ele>636.833056</ele>
        <time>2021-04-23T16:04:13.595Z</time>
      </trkpt>
      <trkpt lat="45.63791" lon="4.39458">
        <ele>637.676539</ele>
        <time>2021-04-23T16:04:17.584Z</time>
      </trkpt>
      <trkpt lat="45.63782" lon="4.39465">
        <ele>638.488076</ele>
        <time>2021-04-23T16:04:21.571Z</time>
      </trkpt>
      <trkpt lat="45.63774" lon="4.39472">
        <ele>639.243318</ele>
        <time>2021-04-23T16:04:24.573Z</time>
      </trkpt>
      <trkpt lat="45.63763" lon="4.39478">
        <ele>640.155681</ele>
        <time>2021-04-23T16:04:28.568Z</time>
      </trkpt>
      <trkpt lat="45.63752" lon="4.39483">
        <ele>641.08207</ele>
        <time>2021-04-23T16:04:31.561Z</time>
      </trkpt>
      <trkpt lat="45.6374" lon="4.39495">
        <ele>642.212948</ele>
        <time>2021-04-23T16:04:34.557Z</time>
      </trkpt>
      <trkpt lat="45.63729" lon="4.39502">
        <ele>643.225281</ele>
        <time>2021-04-23T16:04:37.574Z</time>
      </trkpt>
      <trkpt lat="45.63717" lon="4.39509">
        <ele>644.249754</ele>
        <time>2021-04-23T16:04:40.577Z</time>
      </trkpt>
      <trkpt lat="45.63705" lon="4.39515">
        <ele>645.233143</ele>
        <time>2021-04-23T16:04:43.612Z</time>
      </trkpt>
      <trkpt lat="45.63693" lon="4.3952">
        <ele>646.167726</ele>
        <time>2021-04-23T16:04:46.557Z</time>
      </trkpt>
      <trkpt lat="45.63682" lon="4.39525">
        <ele>647.047283</ele>
        <time>2021-04-23T16:04:49.559Z</time>
      </trkpt>
      <trkpt lat="45.63671" lon="4.39531">
        <ele>647.88953</ele>
        <time>2021-04-23T16:04:52.543Z</time>
      </trkpt>
      <trkpt lat="45.63664" lon="4.39538">
        <ele>648.595507</ele>
        <time>2021-04-23T16:04:54.577Z</time>
      </trkpt>
      <trkpt lat="45.63655" lon="4.39543">
        <ele>649.286541</ele>
        <time>2021-04-23T16:04:57.560Z</time>
      </trkpt>
      <trkpt lat="45.63644" lon="4.3955">
        <ele>650.176447</ele>
        <time>2021-04-23T16:05:02.545Z</time>
      </trkpt>
      <trkpt lat="45.63635" lon="4.39561">
        <ele>651.023478</ele>
        <time>2021-04-23T16:05:05.587Z</time>
      </trkpt>
      <trkpt lat="45.63624" lon="4.3957">
        <ele>651.97651</ele>
        <time>2021-04-23T16:05:08.562Z</time>
      </trkpt>
      <trkpt lat="45.63614" lon="4.39578">
        <ele>652.839054</ele>
        <time>2021-04-23T16:05:10.575Z</time>
      </trkpt>
      <trkpt lat="45.63604" lon="4.39586">
        <ele>653.680987</ele>
        <time>2021-04-23T16:05:12.599Z</time>
      </trkpt>
      <trkpt lat="45.63593" lon="4.39593">
        <ele>654.622465</ele>
        <time>2021-04-23T16:05:14.550Z</time>
      </trkpt>
      <trkpt lat="45.63581" lon="4.39598">
        <ele>655.489033</ele>
        <time>2021-04-23T16:05:16.567Z</time>
      </trkpt>
      <trkpt lat="45.63569" lon="4.39604">
        <ele>656.442981</ele>
        <time>2021-04-23T16:05:18.569Z</time>
      </trkpt>
      <trkpt lat="45.63556" lon="4.39607">
        <ele>657.419133</ele>
        <time>2021-04-23T16:05:20.581Z</time>
      </trkpt>
      <trkpt lat="45.63543" lon="4.3961">
        <ele>658.453145</ele>
        <time>2021-04-23T16:05:22.568Z</time>
      </trkpt>
      <trkpt lat="45.63528" lon="4.39612">
        <ele>659.278096</ele>
        <time>2021-04-23T16:05:24.566Z</time>
      </trkpt>
      <trkpt lat="45.63513" lon="4.39616">
        <ele>659.620851</ele>
        <time>2021-04-23T16:05:26.567Z</time>
      </trkpt>
      <trkpt lat="45.63498" lon="4.39623">
        <ele>659.958569</ele>
        <time>2021-04-23T16:05:28.569Z</time>
      </trkpt>
      <trkpt lat="45.63483" lon="4.39632">
        <ele>660.316218</ele>
        <time>2021-04-23T16:05:30.570Z</time>
      </trkpt>
      <trkpt lat="45.63468" lon="4.39639">
        <ele>660.661123</ele>
        <time>2021-04-23T16:05:32.584Z</time>
      </trkpt>
      <trkpt lat="45.63457" lon="4.39644">
        <ele>660.907628</ele>
        <time>2021-04-23T16:05:34.548Z</time>
      </trkpt>
      <trkpt lat="45.63447" lon="4.39643">
        <ele>661.137976</ele>
        <time>2021-04-23T16:05:38.562Z</time>
      </trkpt>
      <trkpt lat="45.63436" lon="4.39644">
        <ele>661.388413</ele>
        <time>2021-04-23T16:05:45.572Z</time>
      </trkpt>
      <trkpt lat="45.63425" lon="4.39654">
        <ele>661.658874</ele>
        <time>2021-04-23T16:05:48.553Z</time>
      </trkpt>
      <trkpt lat="45.63415" lon="4.39657">
        <ele>661.887575</ele>
        <time>2021-04-23T16:05:50.553Z</time>
      </trkpt>
      <trkpt lat="45.63401" lon="4.39659">
        <ele>662.193502</ele>
        <time>2021-04-23T16:05:52.568Z</time>
      </trkpt>
      <trkpt lat="45.63386" lon="4.39662">
        <ele>662.519348</ele>
        <time>2021-04-23T16:05:54.553Z</time>
      </trkpt>
      <trkpt lat="45.63372" lon="4.39664">
        <ele>662.832846</ele>
        <time>2021-04-23T16:05:56.585Z</time>
      </trkpt>
      <trkpt lat="45.63357" lon="4.39667">
        <ele>663.063083</ele>
        <time>2021-04-23T16:05:58.566Z</time>
      </trkpt>
      <trkpt lat="45.63342" lon="4.39669">
        <ele>662.710233</ele>
        <time>2021-04-23T16:06:00.585Z</time>
      </trkpt>
      <trkpt lat="45.63327" lon="4.3967">
        <ele>662.336964</ele>
        <time>2021-04-23T16:06:02.556Z</time>
      </trkpt>
      <trkpt lat="45.63309" lon="4.39673">
        <ele>661.915036</ele>
        <time>2021-04-23T16:06:04.558Z</time>
      </trkpt>
      <trkpt lat="45.63292" lon="4.39677">
        <ele>661.529827</ele>
        <time>2021-04-23T16:06:06.561Z</time>
      </trkpt>
      <trkpt lat="45.6328" lon="4.39684">
        <ele>661.217785</ele>
        <time>2021-04-23T16:06:08.592Z</time>
      </trkpt>
      <trkpt lat="45.63268" lon="4.39691">
        <ele>660.909769</ele>
        <time>2021-04-23T16:06:10.567Z</time>
      </trkpt>
      <trkpt lat="45.63258" lon="4.39698">
        <ele>660.641132</ele>
        <time>2021-04-23T16:06:12.582Z</time>
      </trkpt>
      <trkpt lat="45.63249" lon="4.39705">
        <ele>660.401854</ele>
        <time>2021-04-23T16:06:14.559Z</time>
      </trkpt>
      <trkpt lat="45.63238" lon="4.39711">
        <ele>660.134731</ele>
        <time>2021-04-23T16:06:17.562Z</time>
      </trkpt>
      <trkpt lat="45.63229" lon="4.39714">
        <ele>659.92384</ele>
        <time>2021-04-23T16:06:19.561Z</time>
      </trkpt>
      <trkpt lat="45.63217" lon="4.39714">
        <ele>659.637974</ele>
        <time>2021-04-23T16:06:21.579Z</time>
      </trkpt>
      <trkpt lat="45.63204" lon="4.39713">
        <ele>659.337602</ele>
        <time>2021-04-23T16:06:23.561Z</time>
      </trkpt>
      <trkpt lat="45.63193" lon="4.39714">
        <ele>659.083503</ele>
        <time>2021-04-23T16:06:25.588Z</time>
      </trkpt>
      <trkpt lat="45.63184" lon="4.39717">
        <ele>658.786742</ele>
        <time>2021-04-23T16:06:27.575Z</time>
      </trkpt>
      <trkpt lat="45.63173" lon="4.39719">
        <ele>658.108427</ele>
        <time>2021-04-23T16:06:29.555Z</time>
      </trkpt>
      <trkpt lat="45.6316" lon="4.3972">
        <ele>657.342482</ele>
        <time>2021-04-23T16:06:31.587Z</time>
      </trkpt>
      <trkpt lat="45.63148" lon="4.39729">
        <ele>656.507588</ele>
        <time>2021-04-23T16:06:33.588Z</time>
      </trkpt>
      <trkpt lat="45.63138" lon="4.39745">
        <ele>655.627407</ele>
        <time>2021-04-23T16:06:35.585Z</time>
      </trkpt>
      <trkpt lat="45.63129" lon="4.39764">
        <ele>654.660763</ele>
        <time>2021-04-23T16:06:37.565Z</time>
      </trkpt>
      <trkpt lat="45.6312" lon="4.39784">
        <ele>653.651338</ele>
        <time>2021-04-23T16:06:39.557Z</time>
      </trkpt>
      <trkpt lat="45.63111" lon="4.39802">
        <ele>652.688171</ele>
        <time>2021-04-23T16:06:41.540Z</time>
      </trkpt>
      <trkpt lat="45.63102" lon="4.39818">
        <ele>651.826205</ele>
        <time>2021-04-23T16:06:43.588Z</time>
      </trkpt>
      <trkpt lat="45.63092" lon="4.39831">
        <ele>650.984457</ele>
        <time>2021-04-23T16:06:45.556Z</time>
      </trkpt>
      <trkpt lat="45.63084" lon="4.39839">
        <ele>650.396635</ele>
        <time>2021-04-23T16:06:47.702Z</time>
      </trkpt>
      <trkpt lat="45.63063" lon="4.39865">
        <ele>648.729662</ele>
        <time>2021-04-23T16:07:25.603Z</time>
      </trkpt>
      <trkpt lat="45.63053" lon="4.39879">
        <ele>647.914618</ele>
        <time>2021-04-23T16:07:27.564Z</time>
      </trkpt>
      <trkpt lat="45.63041" lon="4.39892">
        <ele>647.42094</ele>
        <time>2021-04-23T16:07:29.559Z</time>
      </trkpt>
      <trkpt lat="45.63029" lon="4.39908">
        <ele>646.894275</ele>
        <time>2021-04-23T16:07:31.570Z</time>
      </trkpt>
      <trkpt lat="45.63018" lon="4.39925">
        <ele>646.36176</ele>
        <time>2021-04-23T16:07:33.566Z</time>
      </trkpt>
      <trkpt lat="45.63006" lon="4.3994">
        <ele>645.817112</ele>
        <time>2021-04-23T16:07:35.560Z</time>
      </trkpt>
      <trkpt lat="45.62993" lon="4.39955">
        <ele>645.272806</ele>
        <time>2021-04-23T16:07:37.558Z</time>
      </trkpt>
      <trkpt lat="45.62979" lon="4.39969">
        <ele>644.713257</ele>
        <time>2021-04-23T16:07:39.548Z</time>
      </trkpt>
      <trkpt lat="45.62966" lon="4.39984">
        <ele>644.160598</ele>
        <time>2021-04-23T16:07:41.571Z</time>
      </trkpt>
      <trkpt lat="45.62953" lon="4.4">
        <ele>643.610252</ele>
        <time>2021-04-23T16:07:43.587Z</time>
      </trkpt>
      <trkpt lat="45.62941" lon="4.40014">
        <ele>643.085978</ele>
        <time>2021-04-23T16:07:45.558Z</time>
      </trkpt>
      <trkpt lat="45.62928" lon="4.40028">
        <ele>642.562413</ele>
        <time>2021-04-23T16:07:47.573Z</time>
      </trkpt>
      <trkpt lat="45.62916" lon="4.40043">
        <ele>641.998883</ele>
        <time>2021-04-23T16:07:49.559Z</time>
      </trkpt>
      <trkpt lat="45.62903" lon="4.40057">
        <ele>641.100175</ele>
        <time>2021-04-23T16:07:51.549Z</time>
      </trkpt>
      <trkpt lat="45.6289" lon="4.40071">
        <ele>640.216469</ele>
        <time>2021-04-23T16:07:53.562Z</time>
      </trkpt>
      <trkpt lat="45.62877" lon="4.40084">
        <ele>639.345938</ele>
        <time>2021-04-23T16:07:55.566Z</time>
      </trkpt>
      <trkpt lat="45.62863" lon="4.40094">
        <ele>638.502488</ele>
        <time>2021-04-23T16:07:57.580Z</time>
      </trkpt>
      <trkpt lat="45.62851" lon="4.40103">
        <ele>637.757547</ele>
        <time>2021-04-23T16:07:59.564Z</time>
      </trkpt>
      <trkpt lat="45.62838" lon="4.4011">
        <ele>636.986978</ele>
        <time>2021-04-23T16:08:01.548Z</time>
      </trkpt>
      <trkpt lat="45.62827" lon="4.40116">
        <ele>636.320676</ele>
        <time>2021-04-23T16:08:03.573Z</time>
      </trkpt>
      <trkpt lat="45.62815" lon="4.4012">
        <ele>635.653643</ele>
        <time>2021-04-23T16:08:06.570Z</time>
      </trkpt>
      <trkpt lat="45.62809" lon="4.4011">
        <ele>635.124392</ele>
        <time>2021-04-23T16:08:10.583Z</time>
      </trkpt>
      <trkpt lat="45.62811" lon="4.40097">
        <ele>634.613652</ele>
        <time>2021-04-23T16:08:13.591Z</time>
      </trkpt>
      <trkpt lat="45.62817" lon="4.40087">
        <ele>634.108174</ele>
        <time>2021-04-23T16:08:16.573Z</time>
      </trkpt>
      <trkpt lat="45.62825" lon="4.40077">
        <ele>633.506828</ele>
        <time>2021-04-23T16:08:20.564Z</time>
      </trkpt>
      <trkpt lat="45.62833" lon="4.40068">
        <ele>632.981661</ele>
        <time>2021-04-23T16:08:23.555Z</time>
      </trkpt>
      <trkpt lat="45.6284" lon="4.40057">
        <ele>632.386183</ele>
        <time>2021-04-23T16:08:26.558Z</time>
      </trkpt>
      <trkpt lat="45.62847" lon="4.40042">
        <ele>631.654397</ele>
        <time>2021-04-23T16:08:29.559Z</time>
      </trkpt>
      <trkpt lat="45.62852" lon="4.4003">
        <ele>631.070808</ele>
        <time>2021-04-23T16:08:31.559Z</time>
      </trkpt>
      <trkpt lat="45.62857" lon="4.40019">
        <ele>630.468032</ele>
        <time>2021-04-23T16:08:33.590Z</time>
      </trkpt>
      <trkpt lat="45.62862" lon="4.40006">
        <ele>629.805281</ele>
        <time>2021-04-23T16:08:35.572Z</time>
      </trkpt>
      <trkpt lat="45.62869" lon="4.39991">
        <ele>629.060349</ele>
        <time>2021-04-23T16:08:38.579Z</time>
      </trkpt>
      <trkpt lat="45.62874" lon="4.39977">
        <ele>628.37138</ele>
        <time>2021-04-23T16:08:41.570Z</time>
      </trkpt>
      <trkpt lat="45.6288" lon="4.39964">
        <ele>627.707315</ele>
        <time>2021-04-23T16:08:44.557Z</time>
      </trkpt>
      <trkpt lat="45.62886" lon="4.39954">
        <ele>627.124737</ele>
        <time>2021-04-23T16:08:46.593Z</time>
      </trkpt>
      <trkpt lat="45.6289" lon="4.39941">
        <ele>626.521031</ele>
        <time>2021-04-23T16:08:49.549Z</time>
      </trkpt>
      <trkpt lat="45.62893" lon="4.39927">
        <ele>625.901247</ele>
        <time>2021-04-23T16:08:52.607Z</time>
      </trkpt>
      <trkpt lat="45.62894" lon="4.39914">
        <ele>625.304817</ele>
        <time>2021-04-23T16:08:55.558Z</time>
      </trkpt>
      <trkpt lat="45.62894" lon="4.39899">
        <ele>624.68188</ele>
        <time>2021-04-23T16:08:58.560Z</time>
      </trkpt>
      <trkpt lat="45.62894" lon="4.39885">
        <ele>624.072011</ele>
        <time>2021-04-23T16:09:01.569Z</time>
      </trkpt>
      <trkpt lat="45.62893" lon="4.39872">
        <ele>623.485476</ele>
        <time>2021-04-23T16:09:04.546Z</time>
      </trkpt>
      <trkpt lat="45.62891" lon="4.39859">
        <ele>622.899768</ele>
        <time>2021-04-23T16:09:07.588Z</time>
      </trkpt>
      <trkpt lat="45.6289" lon="4.39844">
        <ele>622.243756</ele>
        <time>2021-04-23T16:09:10.567Z</time>
      </trkpt>
      <trkpt lat="45.62889" lon="4.3983">
        <ele>621.635689</ele>
        <time>2021-04-23T16:09:13.548Z</time>
      </trkpt>
      <trkpt lat="45.62888" lon="4.39813">
        <ele>620.98272</ele>
        <time>2021-04-23T16:09:17.573Z</time>
      </trkpt>
      <trkpt lat="45.62886" lon="4.39798">
        <ele>620.706641</ele>
        <time>2021-04-23T16:09:20.572Z</time>
      </trkpt>
      <trkpt lat="45.62882" lon="4.39784">
        <ele>620.408143</ele>
        <time>2021-04-23T16:09:23.568Z</time>
      </trkpt>
      <trkpt lat="45.62878" lon="4.39768">
        <ele>620.077914</ele>
        <time>2021-04-23T16:09:26.571Z</time>
      </trkpt>
      <trkpt lat="45.62873" lon="4.39753">
        <ele>619.769159</ele>
        <time>2021-04-23T16:09:29.565Z</time>
      </trkpt>
      <trkpt lat="45.62868" lon="4.3974">
        <ele>619.484995</ele>
        <time>2021-04-23T16:09:32.583Z</time>
      </trkpt>
      <trkpt lat="45.62863" lon="4.39726">
        <ele>619.181415</ele>
        <time>2021-04-23T16:09:35.570Z</time>
      </trkpt>
      <trkpt lat="45.6286" lon="4.39712">
        <ele>618.900686</ele>
        <time>2021-04-23T16:09:38.586Z</time>
      </trkpt>
      <trkpt lat="45.62858" lon="4.39699">
        <ele>618.645048</ele>
        <time>2021-04-23T16:09:41.560Z</time>
      </trkpt>
      <trkpt lat="45.62856" lon="4.39685">
        <ele>618.370775</ele>
        <time>2021-04-23T16:09:44.564Z</time>
      </trkpt>
      <trkpt lat="45.62854" lon="4.39668">
        <ele>618.047167</ele>
        <time>2021-04-23T16:09:48.549Z</time>
      </trkpt>
      <trkpt lat="45.62853" lon="4.39651">
        <ele>617.733938</ele>
        <time>2021-04-23T16:09:52.559Z</time>
      </trkpt>
      <trkpt lat="45.62855" lon="4.39636">
        <ele>617.433361</ele>
        <time>2021-04-23T16:09:56.571Z</time>
      </trkpt>
      <trkpt lat="45.62857" lon="4.3962">
        <ele>617.126992</ele>
        <time>2021-04-23T16:10:00.572Z</time>
      </trkpt>
      <trkpt lat="45.62858" lon="4.39606">
        <ele>616.856209</ele>
        <time>2021-04-23T16:10:04.571Z</time>
      </trkpt>
      <trkpt lat="45.6286" lon="4.39592">
        <ele>616.584842</ele>
        <time>2021-04-23T16:10:08.541Z</time>
      </trkpt>
      <trkpt lat="45.62861" lon="4.39576">
        <ele>616.279043</ele>
        <time>2021-04-23T16:10:12.561Z</time>
      </trkpt>
      <trkpt lat="45.62862" lon="4.3956">
        <ele>616.092416</ele>
        <time>2021-04-23T16:10:16.578Z</time>
      </trkpt>
      <trkpt lat="45.62863" lon="4.39544">
        <ele>616.001833</ele>
        <time>2021-04-23T16:10:20.563Z</time>
      </trkpt>
      <trkpt lat="45.62859" lon="4.39529">
        <ele>615.910967</ele>
        <time>2021-04-23T16:10:24.581Z</time>
      </trkpt>
      <trkpt lat="45.62853" lon="4.39517">
        <ele>615.82251</ele>
        <time>2021-04-23T16:10:27.566Z</time>
      </trkpt>
      <trkpt lat="45.62845" lon="4.39507">
        <ele>615.739185</ele>
        <time>2021-04-23T16:10:30.582Z</time>
      </trkpt>
      <trkpt lat="45.62838" lon="4.39498">
        <ele>615.659681</ele>
        <time>2021-04-23T16:10:33.566Z</time>
      </trkpt>
      <trkpt lat="45.6283" lon="4.3949">
        <ele>615.582399</ele>
        <time>2021-04-23T16:10:36.565Z</time>
      </trkpt>
      <trkpt lat="45.62823" lon="4.39481">
        <ele>615.503768</ele>
        <time>2021-04-23T16:10:39.559Z</time>
      </trkpt>
      <trkpt lat="45.62816" lon="4.39469">
        <ele>615.414701</ele>
        <time>2021-04-23T16:10:43.577Z</time>
      </trkpt>
      <trkpt lat="45.62808" lon="4.39457">
        <ele>615.321123</ele>
        <time>2021-04-23T16:10:47.566Z</time>
      </trkpt>
      <trkpt lat="45.62801" lon="4.39444">
        <ele>615.229127</ele>
        <time>2021-04-23T16:10:51.599Z</time>
      </trkpt>
      <trkpt lat="45.62796" lon="4.39431">
        <ele>615.142283</ele>
        <time>2021-04-23T16:10:55.560Z</time>
      </trkpt>
      <trkpt lat="45.62791" lon="4.39417">
        <ele>615.052907</ele>
        <time>2021-04-23T16:10:59.585Z</time>
      </trkpt>
      <trkpt lat="45.62785" lon="4.39404">
        <ele>614.961829</ele>
        <time>2021-04-23T16:11:03.552Z</time>
      </trkpt>
      <trkpt lat="45.62779" lon="4.39392">
        <ele>614.8839</ele>
        <time>2021-04-23T16:11:06.580Z</time>
      </trkpt>
      <trkpt lat="45.62773" lon="4.39381">
        <ele>614.800661</ele>
        <time>2021-04-23T16:11:09.590Z</time>
      </trkpt>
      <trkpt lat="45.62767" lon="4.3937">
        <ele>614.72085</ele>
        <time>2021-04-23T16:11:12.553Z</time>
      </trkpt>
      <trkpt lat="45.62761" lon="4.39359">
        <ele>614.672791</ele>
        <time>2021-04-23T16:11:15.561Z</time>
      </trkpt>
      <trkpt lat="45.62755" lon="4.39345">
        <ele>614.658876</ele>
        <time>2021-04-23T16:11:19.567Z</time>
      </trkpt>
      <trkpt lat="45.6275" lon="4.39331">
        <ele>614.646127</ele>
        <time>2021-04-23T16:11:23.561Z</time>
      </trkpt>
      <trkpt lat="45.6275" lon="4.39316">
        <ele>614.633399</ele>
        <time>2021-04-23T16:11:27.584Z</time>
      </trkpt>
      <trkpt lat="45.62752" lon="4.39302">
        <ele>614.621511</ele>
        <time>2021-04-23T16:11:30.553Z</time>
      </trkpt>
      <trkpt lat="45.62755" lon="4.39286">
        <ele>614.607698</ele>
        <time>2021-04-23T16:11:34.571Z</time>
      </trkpt>
      <trkpt lat="45.62758" lon="4.39273">
        <ele>614.596496</ele>
        <time>2021-04-23T16:11:37.588Z</time>
      </trkpt>
      <trkpt lat="45.62761" lon="4.39259">
        <ele>614.584605</ele>
        <time>2021-04-23T16:11:40.561Z</time>
      </trkpt>
      <trkpt lat="45.62763" lon="4.39244">
        <ele>614.571901</ele>
        <time>2021-04-23T16:11:43.559Z</time>
      </trkpt>
      <trkpt lat="45.62766" lon="4.39229">
        <ele>614.558512</ele>
        <time>2021-04-23T16:11:46.557Z</time>
      </trkpt>
      <trkpt lat="45.6277" lon="4.39214">
        <ele>614.54575</ele>
        <time>2021-04-23T16:11:49.547Z</time>
      </trkpt>
      <trkpt lat="45.62773" lon="4.39198">
        <ele>614.531948</ele>
        <time>2021-04-23T16:11:52.579Z</time>
      </trkpt>
      <trkpt lat="45.62776" lon="4.39181">
        <ele>614.517364</ele>
        <time>2021-04-23T16:11:55.579Z</time>
      </trkpt>
      <trkpt lat="45.6278" lon="4.39165">
        <ele>614.503143</ele>
        <time>2021-04-23T16:11:58.554Z</time>
      </trkpt>
      <trkpt lat="45.62783" lon="4.39149">
        <ele>614.489218</ele>
        <time>2021-04-23T16:12:01.569Z</time>
      </trkpt>
      <trkpt lat="45.62786" lon="4.39133">
        <ele>614.475773</ele>
        <time>2021-04-23T16:12:04.563Z</time>
      </trkpt>
      <trkpt lat="45.6279" lon="4.39119">
        <ele>614.472353</ele>
        <time>2021-04-23T16:12:07.557Z</time>
      </trkpt>
      <trkpt lat="45.62793" lon="4.39105">
        <ele>614.574911</ele>
        <time>2021-04-23T16:12:10.552Z</time>
      </trkpt>
      <trkpt lat="45.62797" lon="4.39089">
        <ele>614.691953</ele>
        <time>2021-04-23T16:12:13.554Z</time>
      </trkpt>
      <trkpt lat="45.628" lon="4.39076">
        <ele>614.787362</ele>
        <time>2021-04-23T16:12:16.583Z</time>
      </trkpt>
      <trkpt lat="45.62804" lon="4.39064">
        <ele>614.878809</ele>
        <time>2021-04-23T16:12:19.595Z</time>
      </trkpt>
      <trkpt lat="45.6281" lon="4.39049">
        <ele>614.995625</ele>
        <time>2021-04-23T16:12:22.572Z</time>
      </trkpt>
      <trkpt lat="45.62813" lon="4.39035">
        <ele>615.101455</ele>
        <time>2021-04-23T16:12:25.570Z</time>
      </trkpt>
      <trkpt lat="45.62816" lon="4.39018">
        <ele>615.217516</ele>
        <time>2021-04-23T16:12:28.574Z</time>
      </trkpt>
      <trkpt lat="45.62819" lon="4.39003">
        <ele>615.326676</ele>
        <time>2021-04-23T16:12:31.606Z</time>
      </trkpt>
      <trkpt lat="45.62822" lon="4.3899">
        <ele>615.425094</ele>
        <time>2021-04-23T16:12:34.598Z</time>
      </trkpt>
      <trkpt lat="45.62825" lon="4.38977">
        <ele>615.519458</ele>
        <time>2021-04-23T16:12:39.580Z</time>
      </trkpt>
      <trkpt lat="45.62814" lon="4.38971">
        <ele>615.637943</ele>
        <time>2021-04-23T16:12:45.559Z</time>
      </trkpt>
      <trkpt lat="45.62803" lon="4.3897">
        <ele>615.741332</ele>
        <time>2021-04-23T16:12:47.562Z</time>
      </trkpt>
      <trkpt lat="45.62791" lon="4.38973">
        <ele>615.866825</ele>
        <time>2021-04-23T16:12:49.575Z</time>
      </trkpt>
      <trkpt lat="45.6278" lon="4.38978">
        <ele>615.980791</ele>
        <time>2021-04-23T16:12:51.563Z</time>
      </trkpt>
      <trkpt lat="45.62772" lon="4.38985">
        <ele>616.074541</ele>
        <time>2021-04-23T16:12:55.569Z</time>
      </trkpt>
      <trkpt lat="45.62778" lon="4.38974">
        <ele>616.170293</ele>
        <time>2021-04-23T16:13:02.580Z</time>
      </trkpt>
      <trkpt lat="45.62779" lon="4.3896">
        <ele>616.259752</ele>
        <time>2021-04-23T16:13:05.566Z</time>
      </trkpt>
      <trkpt lat="45.62779" lon="4.38947">
        <ele>616.302828</ele>
        <time>2021-04-23T16:13:07.561Z</time>
      </trkpt>
      <trkpt lat="45.6278" lon="4.38929">
        <ele>616.361205</ele>
        <time>2021-04-23T16:13:10.561Z</time>
      </trkpt>
      <trkpt lat="45.62782" lon="4.38911">
        <ele>616.423768</ele>
        <time>2021-04-23T16:13:13.562Z</time>
      </trkpt>
      <trkpt lat="45.62784" lon="4.38892">
        <ele>616.487529</ele>
        <time>2021-04-23T16:13:16.552Z</time>
      </trkpt>
      <trkpt lat="45.62786" lon="4.38874">
        <ele>616.547367</ele>
        <time>2021-04-23T16:13:19.547Z</time>
      </trkpt>
      <trkpt lat="45.62789" lon="4.38862">
        <ele>616.590432</ele>
        <time>2021-04-23T16:13:21.557Z</time>
      </trkpt>
      <trkpt lat="45.62793" lon="4.38844">
        <ele>616.653024</ele>
        <time>2021-04-23T16:13:24.565Z</time>
      </trkpt>
      <trkpt lat="45.62799" lon="4.38829">
        <ele>616.711414</ele>
        <time>2021-04-23T16:13:27.557Z</time>
      </trkpt>
      <trkpt lat="45.62801" lon="4.38813">
        <ele>616.76561</ele>
        <time>2021-04-23T16:13:30.551Z</time>
      </trkpt>
      <trkpt lat="45.62793" lon="4.38803">
        <ele>616.816455</ele>
        <time>2021-04-23T16:13:33.923Z</time>
      </trkpt>
      <trkpt lat="45.62783" lon="4.38795">
        <ele>616.870054</ele>
        <time>2021-04-23T16:13:36.553Z</time>
      </trkpt>
      <trkpt lat="45.62771" lon="4.38786">
        <ele>616.934006</ele>
        <time>2021-04-23T16:13:39.558Z</time>
      </trkpt>
      <trkpt lat="45.62762" lon="4.3878">
        <ele>616.982605</ele>
        <time>2021-04-23T16:13:41.542Z</time>
      </trkpt>
      <trkpt lat="45.62754" lon="4.38774">
        <ele>617.028918</ele>
        <time>2021-04-23T16:13:43.567Z</time>
      </trkpt>
      <trkpt lat="45.62745" lon="4.38767">
        <ele>617.07523</ele>
        <time>2021-04-23T16:13:45.558Z</time>
      </trkpt>
      <trkpt lat="45.62736" lon="4.38761">
        <ele>617.093712</ele>
        <time>2021-04-23T16:13:47.547Z</time>
      </trkpt>
      <trkpt lat="45.62727" lon="4.38755">
        <ele>617.057393</ele>
        <time>2021-04-23T16:13:49.557Z</time>
      </trkpt>
      <trkpt lat="45.62719" lon="4.38748">
        <ele>617.021707</ele>
        <time>2021-04-23T16:13:51.560Z</time>
      </trkpt>
      <trkpt lat="45.6271" lon="4.38742">
        <ele>616.98583</ele>
        <time>2021-04-23T16:13:53.565Z</time>
      </trkpt>
      <trkpt lat="45.62701" lon="4.38736">
        <ele>616.94984</ele>
        <time>2021-04-23T16:13:55.558Z</time>
      </trkpt>
      <trkpt lat="45.62692" lon="4.3873">
        <ele>616.913963</ele>
        <time>2021-04-23T16:13:57.563Z</time>
      </trkpt>
      <trkpt lat="45.62684" lon="4.38724">
        <ele>616.880053</ele>
        <time>2021-04-23T16:13:59.552Z</time>
      </trkpt>
      <trkpt lat="45.62675" lon="4.38717">
        <ele>616.844277</ele>
        <time>2021-04-23T16:14:03.557Z</time>
      </trkpt>
      <trkpt lat="45.62678" lon="4.38736">
        <ele>616.794634</ele>
        <time>2021-04-23T16:14:51.556Z</time>
      </trkpt>
      <trkpt lat="45.62686" lon="4.38745">
        <ele>616.75821</ele>
        <time>2021-04-23T16:14:54.595Z</time>
      </trkpt>
      <trkpt lat="45.62698" lon="4.38752">
        <ele>616.712217</ele>
        <time>2021-04-23T16:14:57.554Z</time>
      </trkpt>
      <trkpt lat="45.62708" lon="4.38759">
        <ele>616.668723</ele>
        <time>2021-04-23T16:15:01.556Z</time>
      </trkpt>
      <trkpt lat="45.62718" lon="4.38765">
        <ele>616.628939</ele>
        <time>2021-04-23T16:15:04.568Z</time>
      </trkpt>
      <trkpt lat="45.6273" lon="4.38772">
        <ele>616.583009</ele>
        <time>2021-04-23T16:15:07.546Z</time>
      </trkpt>
      <trkpt lat="45.6274" lon="4.38779">
        <ele>616.542816</ele>
        <time>2021-04-23T16:15:10.564Z</time>
      </trkpt>
      <trkpt lat="45.62749" lon="4.38784">
        <ele>616.504721</ele>
        <time>2021-04-23T16:15:13.572Z</time>
      </trkpt>
      <trkpt lat="45.62758" lon="4.38788">
        <ele>616.470952</ele>
        <time>2021-04-23T16:15:16.557Z</time>
      </trkpt>
      <trkpt lat="45.62767" lon="4.38794">
        <ele>616.439</ele>
        <time>2021-04-23T16:15:19.554Z</time>
      </trkpt>
      <trkpt lat="45.62776" lon="4.388">
        <ele>616.407187</ele>
        <time>2021-04-23T16:15:22.557Z</time>
      </trkpt>
      <trkpt lat="45.62785" lon="4.38806">
        <ele>616.377813</ele>
        <time>2021-04-23T16:15:25.560Z</time>
      </trkpt>
      <trkpt lat="45.62795" lon="4.38813">
        <ele>616.34545</ele>
        <time>2021-04-23T16:15:28.573Z</time>
      </trkpt>
      <trkpt lat="45.62803" lon="4.38819">
        <ele>616.316257</ele>
        <time>2021-04-23T16:15:31.556Z</time>
      </trkpt>
      <trkpt lat="45.62806" lon="4.38833">
        <ele>616.286414</ele>
        <time>2021-04-23T16:15:35.580Z</time>
      </trkpt>
      <trkpt lat="45.62805" lon="4.38847">
        <ele>616.256778</ele>
        <time>2021-04-23T16:15:38.591Z</time>
      </trkpt>
      <trkpt lat="45.628" lon="4.38859">
        <ele>616.226876</ele>
        <time>2021-04-23T16:15:41.546Z</time>
      </trkpt>
      <trkpt lat="45.62796" lon="4.38873">
        <ele>616.196393</ele>
        <time>2021-04-23T16:15:44.546Z</time>
      </trkpt>
      <trkpt lat="45.62794" lon="4.38888">
        <ele>616.163256</ele>
        <time>2021-04-23T16:15:47.127Z</time>
      </trkpt>
      <trkpt lat="45.62792" lon="4.38904">
        <ele>616.129999</ele>
        <time>2021-04-23T16:15:50.117Z</time>
      </trkpt>
      <trkpt lat="45.6279" lon="4.38919">
        <ele>616.097</ele>
        <time>2021-04-23T16:15:53.131Z</time>
      </trkpt>
      <trkpt lat="45.62788" lon="4.38936">
        <ele>616.06187</ele>
        <time>2021-04-23T16:15:56.159Z</time>
      </trkpt>
      <trkpt lat="45.62785" lon="4.38954">
        <ele>616.02212</ele>
        <time>2021-04-23T16:15:59.132Z</time>
      </trkpt>
      <trkpt lat="45.62783" lon="4.38972">
        <ele>615.983379</ele>
        <time>2021-04-23T16:16:02.129Z</time>
      </trkpt>
      <trkpt lat="45.62784" lon="4.38988">
        <ele>615.94993</ele>
        <time>2021-04-23T16:16:05.129Z</time>
      </trkpt>
      <trkpt lat="45.62797" lon="4.3899">
        <ele>615.910662</ele>
        <time>2021-04-23T16:16:08.132Z</time>
      </trkpt>
      <trkpt lat="45.62806" lon="4.38988">
        <ele>615.937383</ele>
        <time>2021-04-23T16:16:10.148Z</time>
      </trkpt>
      <trkpt lat="45.62815" lon="4.38988">
        <ele>615.972165</ele>
        <time>2021-04-23T16:16:12.137Z</time>
      </trkpt>
      <trkpt lat="45.62824" lon="4.3899">
        <ele>616.007166</ele>
        <time>2021-04-23T16:16:14.126Z</time>
      </trkpt>
      <trkpt lat="45.62834" lon="4.38993">
        <ele>616.046653</ele>
        <time>2021-04-23T16:16:17.140Z</time>
      </trkpt>
      <trkpt lat="45.62844" lon="4.38997">
        <ele>616.08582</ele>
        <time>2021-04-23T16:16:20.155Z</time>
      </trkpt>
      <trkpt lat="45.62855" lon="4.39">
        <ele>616.129047</ele>
        <time>2021-04-23T16:16:24.128Z</time>
      </trkpt>
      <trkpt lat="45.62866" lon="4.39001">
        <ele>616.17317</ele>
        <time>2021-04-23T16:16:28.129Z</time>
      </trkpt>
      <trkpt lat="45.62877" lon="4.39">
        <ele>616.214578</ele>
        <time>2021-04-23T16:16:31.134Z</time>
      </trkpt>
      <trkpt lat="45.62886" lon="4.38999">
        <ele>616.250641</ele>
        <time>2021-04-23T16:16:34.172Z</time>
      </trkpt>
      <trkpt lat="45.62898" lon="4.38999">
        <ele>616.29663</ele>
        <time>2021-04-23T16:16:38.161Z</time>
      </trkpt>
      <trkpt lat="45.62908" lon="4.38998">
        <ele>616.33225</ele>
        <time>2021-04-23T16:16:41.151Z</time>
      </trkpt>
      <trkpt lat="45.62918" lon="4.38997">
        <ele>616.37452</ele>
        <time>2021-04-23T16:16:45.140Z</time>
      </trkpt>
      <trkpt lat="45.62928" lon="4.38997">
        <ele>616.41278</ele>
        <time>2021-04-23T16:16:49.150Z</time>
      </trkpt>
      <trkpt lat="45.62939" lon="4.38996">
        <ele>616.454539</ele>
        <time>2021-04-23T16:16:53.144Z</time>
      </trkpt>
      <trkpt lat="45.62951" lon="4.38995">
        <ele>616.498834</ele>
        <time>2021-04-23T16:16:57.145Z</time>
      </trkpt>
      <trkpt lat="45.6296" lon="4.38995">
        <ele>616.53714</ele>
        <time>2021-04-23T16:17:00.140Z</time>
      </trkpt>
      <trkpt lat="45.62972" lon="4.38998">
        <ele>616.584129</ele>
        <time>2021-04-23T16:17:04.146Z</time>
      </trkpt>
      <trkpt lat="45.62982" lon="4.39">
        <ele>616.790847</ele>
        <time>2021-04-23T16:17:07.144Z</time>
      </trkpt>
      <trkpt lat="45.62991" lon="4.39002">
        <ele>617.16055</ele>
        <time>2021-04-23T16:17:10.133Z</time>
      </trkpt>
      <trkpt lat="45.63" lon="4.39004">
        <ele>617.537308</ele>
        <time>2021-04-23T16:17:13.176Z</time>
      </trkpt>
      <trkpt lat="45.6301" lon="4.39007">
        <ele>617.949813</ele>
        <time>2021-04-23T16:17:16.127Z</time>
      </trkpt>
      <trkpt lat="45.6302" lon="4.39012">
        <ele>618.347211</ele>
        <time>2021-04-23T16:17:19.150Z</time>
      </trkpt>
      <trkpt lat="45.6303" lon="4.39019">
        <ele>618.804899</ele>
        <time>2021-04-23T16:17:22.336Z</time>
      </trkpt>
      <trkpt lat="45.63041" lon="4.39028">
        <ele>619.305401</ele>
        <time>2021-04-23T16:17:25.306Z</time>
      </trkpt>
      <trkpt lat="45.63051" lon="4.39037">
        <ele>619.788908</ele>
        <time>2021-04-23T16:17:28.338Z</time>
      </trkpt>
      <trkpt lat="45.63062" lon="4.39047">
        <ele>620.31145</ele>
        <time>2021-04-23T16:17:31.321Z</time>
      </trkpt>
      <trkpt lat="45.63074" lon="4.39055">
        <ele>620.808663</ele>
        <time>2021-04-23T16:17:34.318Z</time>
      </trkpt>
      <trkpt lat="45.63085" lon="4.39063">
        <ele>621.323852</ele>
        <time>2021-04-23T16:17:37.312Z</time>
      </trkpt>
      <trkpt lat="45.63096" lon="4.3907">
        <ele>621.802088</ele>
        <time>2021-04-23T16:17:40.302Z</time>
      </trkpt>
      <trkpt lat="45.63108" lon="4.39077">
        <ele>622.303368</ele>
        <time>2021-04-23T16:17:43.298Z</time>
      </trkpt>
      <trkpt lat="45.63119" lon="4.39083">
        <ele>622.788872</ele>
        <time>2021-04-23T16:17:46.309Z</time>
      </trkpt>
      <trkpt lat="45.6313" lon="4.39088">
        <ele>623.259386</ele>
        <time>2021-04-23T16:17:49.319Z</time>
      </trkpt>
      <trkpt lat="45.63141" lon="4.39089">
        <ele>623.689604</ele>
        <time>2021-04-23T16:17:52.304Z</time>
      </trkpt>
      <trkpt lat="45.63152" lon="4.39083">
        <ele>623.974316</ele>
        <time>2021-04-23T16:17:55.304Z</time>
      </trkpt>
      <trkpt lat="45.63163" lon="4.39075">
        <ele>624.262424</ele>
        <time>2021-04-23T16:17:58.303Z</time>
      </trkpt>
      <trkpt lat="45.63168" lon="4.39061">
        <ele>624.498138</ele>
        <time>2021-04-23T16:18:00.330Z</time>
      </trkpt>
      <trkpt lat="45.63173" lon="4.39049">
        <ele>624.727828</ele>
        <time>2021-04-23T16:18:02.327Z</time>
      </trkpt>
      <trkpt lat="45.63179" lon="4.39038">
        <ele>624.939328</ele>
        <time>2021-04-23T16:18:04.323Z</time>
      </trkpt>
      <trkpt lat="45.63185" lon="4.39027">
        <ele>625.164572</ele>
        <time>2021-04-23T16:18:06.304Z</time>
      </trkpt>
      <trkpt lat="45.63192" lon="4.39018">
        <ele>625.373125</ele>
        <time>2021-04-23T16:18:08.315Z</time>
      </trkpt>
      <trkpt lat="45.63198" lon="4.39007">
        <ele>625.592022</ele>
        <time>2021-04-23T16:18:10.311Z</time>
      </trkpt>
      <trkpt lat="45.63205" lon="4.38998">
        <ele>625.797661</ele>
        <time>2021-04-23T16:18:12.310Z</time>
      </trkpt>
      <trkpt lat="45.63211" lon="4.38988">
        <ele>626.012333</ele>
        <time>2021-04-23T16:18:14.334Z</time>
      </trkpt>
      <trkpt lat="45.63221" lon="4.38976">
        <ele>626.297345</ele>
        <time>2021-04-23T16:18:17.319Z</time>
      </trkpt>
      <trkpt lat="45.63229" lon="4.38964">
        <ele>626.572625</ele>
        <time>2021-04-23T16:18:20.325Z</time>
      </trkpt>
      <trkpt lat="45.63234" lon="4.38953">
        <ele>626.775314</ele>
        <time>2021-04-23T16:18:22.338Z</time>
      </trkpt>
      <trkpt lat="45.63241" lon="4.38936">
        <ele>627.077205</ele>
        <time>2021-04-23T16:18:25.304Z</time>
      </trkpt>
      <trkpt lat="45.63245" lon="4.38923">
        <ele>627.300944</ele>
        <time>2021-04-23T16:18:27.314Z</time>
      </trkpt>
      <trkpt lat="45.63249" lon="4.3891">
        <ele>627.530027</ele>
        <time>2021-04-23T16:18:29.317Z</time>
      </trkpt>
      <trkpt lat="45.63254" lon="4.38897">
        <ele>627.765007</ele>
        <time>2021-04-23T16:18:31.315Z</time>
      </trkpt>
      <trkpt lat="45.6326" lon="4.38883">
        <ele>627.904423</ele>
        <time>2021-04-23T16:18:33.301Z</time>
      </trkpt>
      <trkpt lat="45.63265" lon="4.3887">
        <ele>628.020402</ele>
        <time>2021-04-23T16:18:35.305Z</time>
      </trkpt>
      <trkpt lat="45.6327" lon="4.38858">
        <ele>628.132344</ele>
        <time>2021-04-23T16:18:37.302Z</time>
      </trkpt>
      <trkpt lat="45.63274" lon="4.38846">
        <ele>628.238893</ele>
        <time>2021-04-23T16:18:39.310Z</time>
      </trkpt>
      <trkpt lat="45.6328" lon="4.38833">
        <ele>628.35033</ele>
        <time>2021-04-23T16:18:41.334Z</time>
      </trkpt>
      <trkpt lat="45.63284" lon="4.38821">
        <ele>628.457499</ele>
        <time>2021-04-23T16:18:43.298Z</time>
      </trkpt>
      <trkpt lat="45.63289" lon="4.38808">
        <ele>628.574145</ele>
        <time>2021-04-23T16:18:45.325Z</time>
      </trkpt>
      <trkpt lat="45.63294" lon="4.38795">
        <ele>628.688357</ele>
        <time>2021-04-23T16:18:47.321Z</time>
      </trkpt>
      <trkpt lat="45.633" lon="4.38781">
        <ele>628.805939</ele>
        <time>2021-04-23T16:18:49.319Z</time>
      </trkpt>
      <trkpt lat="45.63304" lon="4.38767">
        <ele>628.92729</ele>
        <time>2021-04-23T16:18:51.315Z</time>
      </trkpt>
      <trkpt lat="45.6331" lon="4.38754">
        <ele>629.04555</ele>
        <time>2021-04-23T16:18:53.325Z</time>
      </trkpt>
      <trkpt lat="45.63314" lon="4.38741">
        <ele>629.157782</ele>
        <time>2021-04-23T16:18:55.305Z</time>
      </trkpt>
      <trkpt lat="45.63317" lon="4.38726">
        <ele>629.275644</ele>
        <time>2021-04-23T16:18:57.300Z</time>
      </trkpt>
      <trkpt lat="45.6332" lon="4.38712">
        <ele>629.383979</ele>
        <time>2021-04-23T16:18:59.305Z</time>
      </trkpt>
      <trkpt lat="45.63322" lon="4.38699">
        <ele>629.493577</ele>
        <time>2021-04-23T16:19:01.299Z</time>
      </trkpt>
      <trkpt lat="45.63325" lon="4.38685">
        <ele>629.602843</ele>
        <time>2021-04-23T16:19:03.309Z</time>
      </trkpt>
      <trkpt lat="45.63328" lon="4.38671">
        <ele>629.71636</ele>
        <time>2021-04-23T16:19:05.311Z</time>
      </trkpt>
      <trkpt lat="45.63331" lon="4.38657">
        <ele>629.826237</ele>
        <time>2021-04-23T16:19:07.310Z</time>
      </trkpt>
      <trkpt lat="45.63334" lon="4.38644">
        <ele>629.932427</ele>
        <time>2021-04-23T16:19:09.294Z</time>
      </trkpt>
      <trkpt lat="45.63338" lon="4.38631">
        <ele>630.036461</ele>
        <time>2021-04-23T16:19:11.311Z</time>
      </trkpt>
      <trkpt lat="45.63342" lon="4.38616">
        <ele>630.161205</ele>
        <time>2021-04-23T16:19:15.292Z</time>
      </trkpt>
      <trkpt lat="45.63348" lon="4.38604">
        <ele>630.266198</ele>
        <time>2021-04-23T16:19:18.302Z</time>
      </trkpt>
      <trkpt lat="45.63355" lon="4.38596">
        <ele>630.366563</ele>
        <time>2021-04-23T16:19:21.333Z</time>
      </trkpt>
      <trkpt lat="45.63362" lon="4.3858">
        <ele>630.500849</ele>
        <time>2021-04-23T16:19:25.306Z</time>
      </trkpt>
      <trkpt lat="45.63365" lon="4.38563">
        <ele>630.636067</ele>
        <time>2021-04-23T16:19:28.320Z</time>
      </trkpt>
      <trkpt lat="45.63368" lon="4.38546">
        <ele>630.764038</ele>
        <time>2021-04-23T16:19:31.314Z</time>
      </trkpt>
      <trkpt lat="45.63371" lon="4.38528">
        <ele>630.902393</ele>
        <time>2021-04-23T16:19:34.299Z</time>
      </trkpt>
      <trkpt lat="45.63374" lon="4.38514">
        <ele>631.01853</ele>
        <time>2021-04-23T16:19:36.313Z</time>
      </trkpt>
      <trkpt lat="45.63377" lon="4.38498">
        <ele>631.138711</ele>
        <time>2021-04-23T16:19:38.298Z</time>
      </trkpt>
      <trkpt lat="45.6338" lon="4.38482">
        <ele>631.266534</ele>
        <time>2021-04-23T16:19:40.314Z</time>
      </trkpt>
      <trkpt lat="45.63384" lon="4.38465">
        <ele>631.398754</ele>
        <time>2021-04-23T16:19:42.322Z</time>
      </trkpt>
      <trkpt lat="45.63388" lon="4.3845">
        <ele>631.517146</ele>
        <time>2021-04-23T16:19:44.308Z</time>
      </trkpt>
      <trkpt lat="45.63392" lon="4.38434">
        <ele>631.644861</ele>
        <time>2021-04-23T16:19:46.329Z</time>
      </trkpt>
      <trkpt lat="45.63395" lon="4.38418">
        <ele>631.77167</ele>
        <time>2021-04-23T16:19:48.326Z</time>
      </trkpt>
      <trkpt lat="45.63399" lon="4.38403">
        <ele>631.893261</ele>
        <time>2021-04-23T16:19:50.329Z</time>
      </trkpt>
      <trkpt lat="45.63404" lon="4.38388">
        <ele>632.016341</ele>
        <time>2021-04-23T16:19:52.330Z</time>
      </trkpt>
      <trkpt lat="45.63409" lon="4.38373">
        <ele>632.140867</ele>
        <time>2021-04-23T16:19:54.327Z</time>
      </trkpt>
      <trkpt lat="45.63414" lon="4.3836">
        <ele>632.248726</ele>
        <time>2021-04-23T16:19:56.310Z</time>
      </trkpt>
      <trkpt lat="45.63419" lon="4.38346">
        <ele>632.365077</ele>
        <time>2021-04-23T16:19:58.316Z</time>
      </trkpt>
      <trkpt lat="45.63423" lon="4.38334">
        <ele>632.470532</ele>
        <time>2021-04-23T16:20:00.318Z</time>
      </trkpt>
      <trkpt lat="45.63427" lon="4.38319">
        <ele>632.590724</ele>
        <time>2021-04-23T16:20:03.306Z</time>
      </trkpt>
      <trkpt lat="45.63431" lon="4.383">
        <ele>632.738115</ele>
        <time>2021-04-23T16:20:06.308Z</time>
      </trkpt>
      <trkpt lat="45.63433" lon="4.38285">
        <ele>632.855807</ele>
        <time>2021-04-23T16:20:08.308Z</time>
      </trkpt>
      <trkpt lat="45.63433" lon="4.38268">
        <ele>632.979028</ele>
        <time>2021-04-23T16:20:10.306Z</time>
      </trkpt>
      <trkpt lat="45.63433" lon="4.38249">
        <ele>633.121647</ele>
        <time>2021-04-23T16:20:12.315Z</time>
      </trkpt>
      <trkpt lat="45.63433" lon="4.3823">
        <ele>633.264267</ele>
        <time>2021-04-23T16:20:14.297Z</time>
      </trkpt>
      <trkpt lat="45.63434" lon="4.38213">
        <ele>633.392523</ele>
        <time>2021-04-23T16:20:16.308Z</time>
      </trkpt>
      <trkpt lat="45.63437" lon="4.38198">
        <ele>633.513389</ele>
        <time>2021-04-23T16:20:18.314Z</time>
      </trkpt>
      <trkpt lat="45.63439" lon="4.38182">
        <ele>633.635266</ele>
        <time>2021-04-23T16:20:20.318Z</time>
      </trkpt>
      <trkpt lat="45.63442" lon="4.38165">
        <ele>633.788657</ele>
        <time>2021-04-23T16:20:22.296Z</time>
      </trkpt>
      <trkpt lat="45.63445" lon="4.38147">
        <ele>633.9508</ele>
        <time>2021-04-23T16:20:24.301Z</time>
      </trkpt>
      <trkpt lat="45.63448" lon="4.38129">
        <ele>634.110677</ele>
        <time>2021-04-23T16:20:26.300Z</time>
      </trkpt>
      <trkpt lat="45.63451" lon="4.38112">
        <ele>634.269655</ele>
        <time>2021-04-23T16:20:28.310Z</time>
      </trkpt>
      <trkpt lat="45.63453" lon="4.38094">
        <ele>634.433515</ele>
        <time>2021-04-23T16:20:30.314Z</time>
      </trkpt>
      <trkpt lat="45.63456" lon="4.38076">
        <ele>634.597081</ele>
        <time>2021-04-23T16:20:32.289Z</time>
      </trkpt>
      <trkpt lat="45.63459" lon="4.38058">
        <ele>634.761278</ele>
        <time>2021-04-23T16:20:34.296Z</time>
      </trkpt>
      <trkpt lat="45.63461" lon="4.38039">
        <ele>634.929727</ele>
        <time>2021-04-23T16:20:36.316Z</time>
      </trkpt>
      <trkpt lat="45.63463" lon="4.38021">
        <ele>635.097058</ele>
        <time>2021-04-23T16:20:38.299Z</time>
      </trkpt>
      <trkpt lat="45.63467" lon="4.38003">
        <ele>635.260008</ele>
        <time>2021-04-23T16:20:40.306Z</time>
      </trkpt>
      <trkpt lat="45.63472" lon="4.37986">
        <ele>635.424387</ele>
        <time>2021-04-23T16:20:42.311Z</time>
      </trkpt>
      <trkpt lat="45.63477" lon="4.37969">
        <ele>635.588026</ele>
        <time>2021-04-23T16:20:44.292Z</time>
      </trkpt>
      <trkpt lat="45.63481" lon="4.37952">
        <ele>635.751214</ele>
        <time>2021-04-23T16:20:46.314Z</time>
      </trkpt>
      <trkpt lat="45.63486" lon="4.37934">
        <ele>635.914796</ele>
        <time>2021-04-23T16:20:48.309Z</time>
      </trkpt>
      <trkpt lat="45.63491" lon="4.37917">
        <ele>636.062818</ele>
        <time>2021-04-23T16:20:50.323Z</time>
      </trkpt>
      <trkpt lat="45.63496" lon="4.379">
        <ele>636.202096</ele>
        <time>2021-04-23T16:20:52.297Z</time>
      </trkpt>
      <trkpt lat="45.635" lon="4.37883">
        <ele>636.338878</ele>
        <time>2021-04-23T16:20:54.333Z</time>
      </trkpt>
      <trkpt lat="45.63504" lon="4.37866">
        <ele>636.477424</ele>
        <time>2021-04-23T16:20:56.299Z</time>
      </trkpt>
      <trkpt lat="45.63509" lon="4.37851">
        <ele>636.605633</ele>
        <time>2021-04-23T16:20:58.310Z</time>
      </trkpt>
      <trkpt lat="45.63518" lon="4.37839">
        <ele>636.738398</ele>
        <time>2021-04-23T16:21:00.308Z</time>
      </trkpt>
      <trkpt lat="45.63521" lon="4.37824">
        <ele>636.853087</ele>
        <time>2021-04-23T16:21:02.293Z</time>
      </trkpt>
      <trkpt lat="45.6352" lon="4.37806">
        <ele>636.989185</ele>
        <time>2021-04-23T16:21:04.323Z</time>
      </trkpt>
      <trkpt lat="45.63519" lon="4.37786">
        <ele>637.139897</ele>
        <time>2021-04-23T16:21:06.306Z</time>
      </trkpt>
      <trkpt lat="45.6352" lon="4.37766">
        <ele>637.294408</ele>
        <time>2021-04-23T16:21:08.322Z</time>
      </trkpt>
      <trkpt lat="45.63519" lon="4.37746">
        <ele>637.451199</ele>
        <time>2021-04-23T16:21:10.337Z</time>
      </trkpt>
      <trkpt lat="45.63518" lon="4.37725">
        <ele>637.604437</ele>
        <time>2021-04-23T16:21:12.306Z</time>
      </trkpt>
      <trkpt lat="45.63517" lon="4.37705">
        <ele>637.758914</ele>
        <time>2021-04-23T16:21:14.305Z</time>
      </trkpt>
      <trkpt lat="45.63516" lon="4.37685">
        <ele>637.895961</ele>
        <time>2021-04-23T16:21:16.300Z</time>
      </trkpt>
      <trkpt lat="45.63514" lon="4.37666">
        <ele>637.942594</ele>
        <time>2021-04-23T16:21:18.314Z</time>
      </trkpt>
      <trkpt lat="45.63512" lon="4.37646">
        <ele>637.989825</ele>
        <time>2021-04-23T16:21:20.286Z</time>
      </trkpt>
      <trkpt lat="45.6351" lon="4.37626">
        <ele>638.036073</ele>
        <time>2021-04-23T16:21:22.285Z</time>
      </trkpt>
      <trkpt lat="45.63508" lon="4.37608">
        <ele>638.081298</ele>
        <time>2021-04-23T16:21:24.303Z</time>
      </trkpt>
      <trkpt lat="45.63506" lon="4.37588">
        <ele>638.126993</ele>
        <time>2021-04-23T16:21:26.315Z</time>
      </trkpt>
      <trkpt lat="45.63504" lon="4.37568">
        <ele>638.174692</ele>
        <time>2021-04-23T16:21:28.319Z</time>
      </trkpt>
      <trkpt lat="45.63503" lon="4.37549">
        <ele>638.221454</ele>
        <time>2021-04-23T16:21:30.342Z</time>
      </trkpt>
      <trkpt lat="45.63501" lon="4.37529">
        <ele>638.268732</ele>
        <time>2021-04-23T16:21:32.297Z</time>
      </trkpt>
      <trkpt lat="45.63499" lon="4.37509">
        <ele>638.316033</ele>
        <time>2021-04-23T16:21:34.321Z</time>
      </trkpt>
      <trkpt lat="45.63497" lon="4.37489">
        <ele>638.363594</ele>
        <time>2021-04-23T16:21:36.325Z</time>
      </trkpt>
      <trkpt lat="45.63494" lon="4.37469">
        <ele>638.41231</ele>
        <time>2021-04-23T16:21:38.301Z</time>
      </trkpt>
      <trkpt lat="45.63491" lon="4.37449">
        <ele>638.460812</ele>
        <time>2021-04-23T16:21:40.302Z</time>
      </trkpt>
      <trkpt lat="45.63487" lon="4.37429">
        <ele>638.466865</ele>
        <time>2021-04-23T16:21:42.313Z</time>
      </trkpt>
      <trkpt lat="45.63484" lon="4.37409">
        <ele>638.354903</ele>
        <time>2021-04-23T16:21:44.312Z</time>
      </trkpt>
      <trkpt lat="45.6348" lon="4.3739">
        <ele>638.240565</ele>
        <time>2021-04-23T16:21:46.318Z</time>
      </trkpt>
      <trkpt lat="45.63475" lon="4.3737">
        <ele>638.123951</ele>
        <time>2021-04-23T16:21:48.316Z</time>
      </trkpt>
      <trkpt lat="45.63469" lon="4.37351">
        <ele>638.005948</ele>
        <time>2021-04-23T16:21:50.304Z</time>
      </trkpt>
      <trkpt lat="45.63463" lon="4.37331">
        <ele>637.887292</ele>
        <time>2021-04-23T16:21:52.292Z</time>
      </trkpt>
      <trkpt lat="45.63455" lon="4.37313">
        <ele>637.766644</ele>
        <time>2021-04-23T16:21:54.311Z</time>
      </trkpt>
      <trkpt lat="45.63446" lon="4.37294">
        <ele>637.642105</ele>
        <time>2021-04-23T16:21:56.309Z</time>
      </trkpt>
      <trkpt lat="45.63438" lon="4.37274">
        <ele>637.513932</ele>
        <time>2021-04-23T16:21:58.301Z</time>
      </trkpt>
      <trkpt lat="45.63433" lon="4.37253">
        <ele>637.389139</ele>
        <time>2021-04-23T16:22:00.299Z</time>
      </trkpt>
      <trkpt lat="45.6343" lon="4.37232">
        <ele>637.267896</ele>
        <time>2021-04-23T16:22:02.336Z</time>
      </trkpt>
      <trkpt lat="45.63429" lon="4.3721">
        <ele>637.148404</ele>
        <time>2021-04-23T16:22:04.314Z</time>
      </trkpt>
      <trkpt lat="45.63429" lon="4.37188">
        <ele>637.024007</ele>
        <time>2021-04-23T16:22:06.287Z</time>
      </trkpt>
      <trkpt lat="45.63431" lon="4.37167">
        <ele>636.903233</ele>
        <time>2021-04-23T16:22:08.300Z</time>
      </trkpt>
      <trkpt lat="45.63436" lon="4.37147">
        <ele>636.783122</ele>
        <time>2021-04-23T16:22:10.293Z</time>
      </trkpt>
      <trkpt lat="45.63442" lon="4.37128">
        <ele>636.664908</ele>
        <time>2021-04-23T16:22:12.307Z</time>
      </trkpt>
      <trkpt lat="45.63448" lon="4.37109">
        <ele>636.547509</ele>
        <time>2021-04-23T16:22:14.395Z</time>
      </trkpt>
      <trkpt lat="45.63454" lon="4.3709">
        <ele>636.429158</ele>
        <time>2021-04-23T16:22:16.318Z</time>
      </trkpt>
      <trkpt lat="45.6346" lon="4.37071">
        <ele>636.311974</ele>
        <time>2021-04-23T16:22:18.338Z</time>
      </trkpt>
      <trkpt lat="45.63464" lon="4.37052">
        <ele>636.199872</ele>
        <time>2021-04-23T16:22:20.317Z</time>
      </trkpt>
      <trkpt lat="45.63467" lon="4.37032">
        <ele>636.081358</ele>
        <time>2021-04-23T16:22:22.307Z</time>
      </trkpt>
      <trkpt lat="45.63469" lon="4.37011">
        <ele>635.961545</ele>
        <time>2021-04-23T16:22:24.316Z</time>
      </trkpt>
      <trkpt lat="45.63471" lon="4.3699">
        <ele>635.843063</ele>
        <time>2021-04-23T16:22:26.337Z</time>
      </trkpt>
      <trkpt lat="45.63472" lon="4.36969">
        <ele>635.720319</ele>
        <time>2021-04-23T16:22:28.313Z</time>
      </trkpt>
      <trkpt lat="45.63474" lon="4.36946">
        <ele>635.581197</ele>
        <time>2021-04-23T16:22:30.320Z</time>
      </trkpt>
      <trkpt lat="45.63477" lon="4.36923">
        <ele>635.354853</ele>
        <time>2021-04-23T16:22:32.321Z</time>
      </trkpt>
      <trkpt lat="45.63481" lon="4.369">
        <ele>635.13009</ele>
        <time>2021-04-23T16:22:34.345Z</time>
      </trkpt>
      <trkpt lat="45.63487" lon="4.36878">
        <ele>634.906405</ele>
        <time>2021-04-23T16:22:36.298Z</time>
      </trkpt>
      <trkpt lat="45.63492" lon="4.36857">
        <ele>634.682702</ele>
        <time>2021-04-23T16:22:38.313Z</time>
      </trkpt>
      <trkpt lat="45.63499" lon="4.36836">
        <ele>634.460231</ele>
        <time>2021-04-23T16:22:40.332Z</time>
      </trkpt>
      <trkpt lat="45.63507" lon="4.36816">
        <ele>634.241798</ele>
        <time>2021-04-23T16:22:42.324Z</time>
      </trkpt>
      <trkpt lat="45.63515" lon="4.36796">
        <ele>634.022612</ele>
        <time>2021-04-23T16:22:44.340Z</time>
      </trkpt>
      <trkpt lat="45.63522" lon="4.36776">
        <ele>633.808704</ele>
        <time>2021-04-23T16:22:46.308Z</time>
      </trkpt>
      <trkpt lat="45.63529" lon="4.36757">
        <ele>633.595051</ele>
        <time>2021-04-23T16:22:48.326Z</time>
      </trkpt>
      <trkpt lat="45.63537" lon="4.36738">
        <ele>633.386014</ele>
        <time>2021-04-23T16:22:50.332Z</time>
      </trkpt>
      <trkpt lat="45.63543" lon="4.36718">
        <ele>633.178047</ele>
        <time>2021-04-23T16:22:52.297Z</time>
      </trkpt>
      <trkpt lat="45.63548" lon="4.36698">
        <ele>632.919614</ele>
        <time>2021-04-23T16:22:54.321Z</time>
      </trkpt>
      <trkpt lat="45.63553" lon="4.36676">
        <ele>632.634741</ele>
        <time>2021-04-23T16:22:56.316Z</time>
      </trkpt>
      <trkpt lat="45.63556" lon="4.36653">
        <ele>632.345937</ele>
        <time>2021-04-23T16:22:58.329Z</time>
      </trkpt>
      <trkpt lat="45.63557" lon="4.3663">
        <ele>632.051841</ele>
        <time>2021-04-23T16:23:00.328Z</time>
      </trkpt>
      <trkpt lat="45.63558" lon="4.36606">
        <ele>631.752261</ele>
        <time>2021-04-23T16:23:02.305Z</time>
      </trkpt>
      <trkpt lat="45.63559" lon="4.36582">
        <ele>631.446405</ele>
        <time>2021-04-23T16:23:04.311Z</time>
      </trkpt>
      <trkpt lat="45.63559" lon="4.36557">
        <ele>631.137124</ele>
        <time>2021-04-23T16:23:06.305Z</time>
      </trkpt>
      <trkpt lat="45.63559" lon="4.36533">
        <ele>630.826622</ele>
        <time>2021-04-23T16:23:08.315Z</time>
      </trkpt>
      <trkpt lat="45.63558" lon="4.36508">
        <ele>630.513138</ele>
        <time>2021-04-23T16:23:10.311Z</time>
      </trkpt>
      <trkpt lat="45.63556" lon="4.36482">
        <ele>630.182576</ele>
        <time>2021-04-23T16:23:12.315Z</time>
      </trkpt>
      <trkpt lat="45.63554" lon="4.36469">
        <ele>630.016969</ele>
        <time>2021-04-23T16:23:13.315Z</time>
      </trkpt>
      <trkpt lat="45.63554" lon="4.36456">
        <ele>629.836991</ele>
        <time>2021-04-23T16:23:14.325Z</time>
      </trkpt>
      <trkpt lat="45.63552" lon="4.36442">
        <ele>629.620594</ele>
        <time>2021-04-23T16:23:15.302Z</time>
      </trkpt>
      <trkpt lat="45.63551" lon="4.36429">
        <ele>629.405072</ele>
        <time>2021-04-23T16:23:16.315Z</time>
      </trkpt>
      <trkpt lat="45.6355" lon="4.36416">
        <ele>629.188163</ele>
        <time>2021-04-23T16:23:17.332Z</time>
      </trkpt>
      <trkpt lat="45.6355" lon="4.36403">
        <ele>628.970329</ele>
        <time>2021-04-23T16:23:18.311Z</time>
      </trkpt>
      <trkpt lat="45.63549" lon="4.3639">
        <ele>628.752193</ele>
        <time>2021-04-23T16:23:19.331Z</time>
      </trkpt>
      <trkpt lat="45.63549" lon="4.36376">
        <ele>628.53456</ele>
        <time>2021-04-23T16:23:20.297Z</time>
      </trkpt>
      <trkpt lat="45.63549" lon="4.36363">
        <ele>628.316989</ele>
        <time>2021-04-23T16:23:21.322Z</time>
      </trkpt>
      <trkpt lat="45.63549" lon="4.3635">
        <ele>628.107633</ele>
        <time>2021-04-23T16:23:22.295Z</time>
      </trkpt>
      <trkpt lat="45.63549" lon="4.36337">
        <ele>627.895019</ele>
        <time>2021-04-23T16:23:23.333Z</time>
      </trkpt>
      <trkpt lat="45.63549" lon="4.36324">
        <ele>627.673622</ele>
        <time>2021-04-23T16:23:24.291Z</time>
      </trkpt>
      <trkpt lat="45.63551" lon="4.3631">
        <ele>627.451336</ele>
        <time>2021-04-23T16:23:25.355Z</time>
      </trkpt>
      <trkpt lat="45.63551" lon="4.36297">
        <ele>627.234428</ele>
        <time>2021-04-23T16:23:26.313Z</time>
      </trkpt>
      <trkpt lat="45.63553" lon="4.36272">
        <ele>626.824593</ele>
        <time>2021-04-23T16:23:28.319Z</time>
      </trkpt>
      <trkpt lat="45.63553" lon="4.36248">
        <ele>626.430377</ele>
        <time>2021-04-23T16:23:30.314Z</time>
      </trkpt>
      <trkpt lat="45.63552" lon="4.36224">
        <ele>626.039048</ele>
        <time>2021-04-23T16:23:32.306Z</time>
      </trkpt>
      <trkpt lat="45.63551" lon="4.362">
        <ele>625.578651</ele>
        <time>2021-04-23T16:23:34.333Z</time>
      </trkpt>
      <trkpt lat="45.63547" lon="4.36178">
        <ele>624.535924</ele>
        <time>2021-04-23T16:23:36.313Z</time>
      </trkpt>
      <trkpt lat="45.63543" lon="4.36158">
        <ele>623.582325</ele>
        <time>2021-04-23T16:23:38.316Z</time>
      </trkpt>
      <trkpt lat="45.63539" lon="4.36142">
        <ele>622.779921</ele>
        <time>2021-04-23T16:23:40.326Z</time>
      </trkpt>
      <trkpt lat="45.63538" lon="4.36129">
        <ele>622.190692</ele>
        <time>2021-04-23T16:23:42.310Z</time>
      </trkpt>
      <trkpt lat="45.6353" lon="4.36103">
        <ele>620.898916</ele>
        <time>2021-04-23T16:25:14.445Z</time>
      </trkpt>
      <trkpt lat="45.63521" lon="4.3609">
        <ele>620.080606</ele>
        <time>2021-04-23T16:25:18.293Z</time>
      </trkpt>
      <trkpt lat="45.63514" lon="4.36075">
        <ele>619.241405</ele>
        <time>2021-04-23T16:25:21.310Z</time>
      </trkpt>
      <trkpt lat="45.63508" lon="4.36064">
        <ele>618.619818</ele>
        <time>2021-04-23T16:25:23.292Z</time>
      </trkpt>
      <trkpt lat="45.63502" lon="4.36054">
        <ele>618.004361</ele>
        <time>2021-04-23T16:25:25.320Z</time>
      </trkpt>
      <trkpt lat="45.63496" lon="4.36044">
        <ele>617.405766</ele>
        <time>2021-04-23T16:25:27.294Z</time>
      </trkpt>
      <trkpt lat="45.6349" lon="4.36034">
        <ele>616.763004</ele>
        <time>2021-04-23T16:25:29.306Z</time>
      </trkpt>
      <trkpt lat="45.63482" lon="4.36023">
        <ele>616.097558</ele>
        <time>2021-04-23T16:25:31.314Z</time>
      </trkpt>
      <trkpt lat="45.63475" lon="4.36014">
        <ele>615.460658</ele>
        <time>2021-04-23T16:25:33.305Z</time>
      </trkpt>
      <trkpt lat="45.63468" lon="4.36005">
        <ele>614.82675</ele>
        <time>2021-04-23T16:25:35.308Z</time>
      </trkpt>
      <trkpt lat="45.63461" lon="4.35996">
        <ele>614.203761</ele>
        <time>2021-04-23T16:25:37.312Z</time>
      </trkpt>
      <trkpt lat="45.63453" lon="4.35987">
        <ele>613.913427</ele>
        <time>2021-04-23T16:25:39.302Z</time>
      </trkpt>
      <trkpt lat="45.63446" lon="4.35979">
        <ele>613.868719</ele>
        <time>2021-04-23T16:25:41.305Z</time>
      </trkpt>
      <trkpt lat="45.63438" lon="4.3597">
        <ele>613.822753</ele>
        <time>2021-04-23T16:25:43.297Z</time>
      </trkpt>
      <trkpt lat="45.63431" lon="4.35961">
        <ele>613.77726</ele>
        <time>2021-04-23T16:25:45.303Z</time>
      </trkpt>
      <trkpt lat="45.63423" lon="4.35953">
        <ele>613.730841</ele>
        <time>2021-04-23T16:25:47.303Z</time>
      </trkpt>
      <trkpt lat="45.63416" lon="4.35944">
        <ele>613.68603</ele>
        <time>2021-04-23T16:25:49.341Z</time>
      </trkpt>
      <trkpt lat="45.63408" lon="4.35936">
        <ele>613.640947</ele>
        <time>2021-04-23T16:25:51.306Z</time>
      </trkpt>
      <trkpt lat="45.63401" lon="4.35928">
        <ele>613.596443</ele>
        <time>2021-04-23T16:25:53.311Z</time>
      </trkpt>
      <trkpt lat="45.63394" lon="4.35919">
        <ele>613.55148</ele>
        <time>2021-04-23T16:25:55.296Z</time>
      </trkpt>
      <trkpt lat="45.63387" lon="4.35911">
        <ele>613.508135</ele>
        <time>2021-04-23T16:25:57.309Z</time>
      </trkpt>
      <trkpt lat="45.63376" lon="4.35899">
        <ele>613.444129</ele>
        <time>2021-04-23T16:26:00.347Z</time>
      </trkpt>
      <trkpt lat="45.63369" lon="4.3589">
        <ele>613.401194</ele>
        <time>2021-04-23T16:26:02.325Z</time>
      </trkpt>
      <trkpt lat="45.63363" lon="4.35882">
        <ele>613.3579</ele>
        <time>2021-04-23T16:26:04.336Z</time>
      </trkpt>
      <trkpt lat="45.63354" lon="4.35868">
        <ele>613.29514</ele>
        <time>2021-04-23T16:26:07.314Z</time>
      </trkpt>
      <trkpt lat="45.63348" lon="4.35858">
        <ele>613.251943</ele>
        <time>2021-04-23T16:26:09.326Z</time>
      </trkpt>
      <trkpt lat="45.63339" lon="4.35844">
        <ele>613.190559</ele>
        <time>2021-04-23T16:26:12.328Z</time>
      </trkpt>
      <trkpt lat="45.63331" lon="4.3583">
        <ele>613.131572</ele>
        <time>2021-04-23T16:26:15.294Z</time>
      </trkpt>
      <trkpt lat="45.63324" lon="4.35816">
        <ele>613.107413</ele>
        <time>2021-04-23T16:26:18.277Z</time>
      </trkpt>
      <trkpt lat="45.63317" lon="4.358">
        <ele>613.215879</ele>
        <time>2021-04-23T16:26:21.294Z</time>
      </trkpt>
      <trkpt lat="45.6331" lon="4.35784">
        <ele>613.324258</ele>
        <time>2021-04-23T16:26:24.300Z</time>
      </trkpt>
      <trkpt lat="45.63304" lon="4.35769">
        <ele>613.427141</ele>
        <time>2021-04-23T16:26:27.327Z</time>
      </trkpt>
      <trkpt lat="45.63298" lon="4.35754">
        <ele>613.526752</ele>
        <time>2021-04-23T16:26:30.292Z</time>
      </trkpt>
      <trkpt lat="45.63292" lon="4.35739">
        <ele>613.627305</ele>
        <time>2021-04-23T16:26:33.342Z</time>
      </trkpt>
      <trkpt lat="45.63287" lon="4.35723">
        <ele>613.730308</ele>
        <time>2021-04-23T16:26:36.313Z</time>
      </trkpt>
      <trkpt lat="45.63281" lon="4.35708">
        <ele>613.830224</ele>
        <time>2021-04-23T16:26:39.349Z</time>
      </trkpt>
      <trkpt lat="45.63275" lon="4.35693">
        <ele>613.928606</ele>
        <time>2021-04-23T16:26:42.293Z</time>
      </trkpt>
      <trkpt lat="45.6327" lon="4.35678">
        <ele>614.027499</ele>
        <time>2021-04-23T16:26:45.326Z</time>
      </trkpt>
      <trkpt lat="45.63263" lon="4.35664">
        <ele>614.128696</ele>
        <time>2021-04-23T16:26:48.292Z</time>
      </trkpt>
      <trkpt lat="45.63256" lon="4.35649">
        <ele>614.229967</ele>
        <time>2021-04-23T16:26:51.311Z</time>
      </trkpt>
      <trkpt lat="45.6325" lon="4.35635">
        <ele>614.329229</ele>
        <time>2021-04-23T16:26:54.306Z</time>
      </trkpt>
      <trkpt lat="45.63242" lon="4.35622">
        <ele>614.42809</ele>
        <time>2021-04-23T16:26:57.348Z</time>
      </trkpt>
      <trkpt lat="45.63235" lon="4.35608">
        <ele>614.526914</ele>
        <time>2021-04-23T16:27:00.333Z</time>
      </trkpt>
      <trkpt lat="45.63228" lon="4.35595">
        <ele>614.636928</ele>
        <time>2021-04-23T16:27:03.304Z</time>
      </trkpt>
      <trkpt lat="45.63221" lon="4.35582">
        <ele>614.761613</ele>
        <time>2021-04-23T16:27:06.296Z</time>
      </trkpt>
      <trkpt lat="45.63213" lon="4.35569">
        <ele>614.889682</ele>
        <time>2021-04-23T16:27:09.312Z</time>
      </trkpt>
      <trkpt lat="45.63204" lon="4.35556">
        <ele>615.022159</ele>
        <time>2021-04-23T16:27:12.301Z</time>
      </trkpt>
      <trkpt lat="45.63198" lon="4.35546">
        <ele>615.118294</ele>
        <time>2021-04-23T16:27:14.310Z</time>
      </trkpt>
      <trkpt lat="45.6319" lon="4.35533">
        <ele>615.252972</ele>
        <time>2021-04-23T16:27:17.310Z</time>
      </trkpt>
      <trkpt lat="45.63181" lon="4.3552">
        <ele>615.386772</ele>
        <time>2021-04-23T16:27:20.343Z</time>
      </trkpt>
      <trkpt lat="45.63171" lon="4.35508">
        <ele>615.525266</ele>
        <time>2021-04-23T16:27:23.320Z</time>
      </trkpt>
      <trkpt lat="45.63161" lon="4.35495">
        <ele>615.667553</ele>
        <time>2021-04-23T16:27:26.289Z</time>
      </trkpt>
      <trkpt lat="45.63151" lon="4.35482">
        <ele>615.81232</ele>
        <time>2021-04-23T16:27:29.284Z</time>
      </trkpt>
      <trkpt lat="45.63143" lon="4.35474">
        <ele>615.913474</ele>
        <time>2021-04-23T16:27:31.304Z</time>
      </trkpt>
      <trkpt lat="45.63136" lon="4.35465">
        <ele>616.015105</ele>
        <time>2021-04-23T16:27:33.300Z</time>
      </trkpt>
      <trkpt lat="45.63128" lon="4.35457">
        <ele>616.122044</ele>
        <time>2021-04-23T16:27:35.311Z</time>
      </trkpt>
      <trkpt lat="45.63119" lon="4.35449">
        <ele>616.22955</ele>
        <time>2021-04-23T16:27:37.306Z</time>
      </trkpt>
      <trkpt lat="45.6311" lon="4.3544">
        <ele>616.345249</ele>
        <time>2021-04-23T16:27:39.297Z</time>
      </trkpt>
      <trkpt lat="45.631" lon="4.35431">
        <ele>616.47283</ele>
        <time>2021-04-23T16:27:41.318Z</time>
      </trkpt>
      <trkpt lat="45.63089" lon="4.35422">
        <ele>616.495865</ele>
        <time>2021-04-23T16:27:43.307Z</time>
      </trkpt>
      <trkpt lat="45.63079" lon="4.35412">
        <ele>616.494523</ele>
        <time>2021-04-23T16:27:45.306Z</time>
      </trkpt>
      <trkpt lat="45.63067" lon="4.35403">
        <ele>616.493155</ele>
        <time>2021-04-23T16:27:47.310Z</time>
      </trkpt>
      <trkpt lat="45.63056" lon="4.35393">
        <ele>616.491717</ele>
        <time>2021-04-23T16:27:49.316Z</time>
      </trkpt>
      <trkpt lat="45.63044" lon="4.35383">
        <ele>616.490222</ele>
        <time>2021-04-23T16:27:51.332Z</time>
      </trkpt>
      <trkpt lat="45.63031" lon="4.35372">
        <ele>616.488691</ele>
        <time>2021-04-23T16:27:53.315Z</time>
      </trkpt>
      <trkpt lat="45.63019" lon="4.35362">
        <ele>616.487143</ele>
        <time>2021-04-23T16:27:55.317Z</time>
      </trkpt>
      <trkpt lat="45.63006" lon="4.35352">
        <ele>616.485565</ele>
        <time>2021-04-23T16:27:57.315Z</time>
      </trkpt>
      <trkpt lat="45.62993" lon="4.35341">
        <ele>616.483957</ele>
        <time>2021-04-23T16:27:59.324Z</time>
      </trkpt>
      <trkpt lat="45.62979" lon="4.3533">
        <ele>616.48232</ele>
        <time>2021-04-23T16:28:01.317Z</time>
      </trkpt>
      <trkpt lat="45.62966" lon="4.35317">
        <ele>616.480624</ele>
        <time>2021-04-23T16:28:03.304Z</time>
      </trkpt>
      <trkpt lat="45.62952" lon="4.35305">
        <ele>616.478897</ele>
        <time>2021-04-23T16:28:05.323Z</time>
      </trkpt>
      <trkpt lat="45.62938" lon="4.35293">
        <ele>616.433777</ele>
        <time>2021-04-23T16:28:07.356Z</time>
      </trkpt>
      <trkpt lat="45.62924" lon="4.35281">
        <ele>616.319847</ele>
        <time>2021-04-23T16:28:09.299Z</time>
      </trkpt>
      <trkpt lat="45.62909" lon="4.35269">
        <ele>616.205407</ele>
        <time>2021-04-23T16:28:11.306Z</time>
      </trkpt>
      <trkpt lat="45.62895" lon="4.35255">
        <ele>616.088161</ele>
        <time>2021-04-23T16:28:13.310Z</time>
      </trkpt>
      <trkpt lat="45.6288" lon="4.35243">
        <ele>615.968511</ele>
        <time>2021-04-23T16:28:15.321Z</time>
      </trkpt>
      <trkpt lat="45.62864" lon="4.35229">
        <ele>615.847788</ele>
        <time>2021-04-23T16:28:17.315Z</time>
      </trkpt>
      <trkpt lat="45.6285" lon="4.35217">
        <ele>615.733826</ele>
        <time>2021-04-23T16:28:19.337Z</time>
      </trkpt>
      <trkpt lat="45.62838" lon="4.35206">
        <ele>615.633805</ele>
        <time>2021-04-23T16:28:21.309Z</time>
      </trkpt>
      <trkpt lat="45.62831" lon="4.35189">
        <ele>615.540714</ele>
        <time>2021-04-23T16:28:23.296Z</time>
      </trkpt>
      <trkpt lat="45.62833" lon="4.35169">
        <ele>615.444978</ele>
        <time>2021-04-23T16:28:25.299Z</time>
      </trkpt>
      <trkpt lat="45.62837" lon="4.35149">
        <ele>615.342769</ele>
        <time>2021-04-23T16:28:27.293Z</time>
      </trkpt>
      <trkpt lat="45.62843" lon="4.35129">
        <ele>615.229464</ele>
        <time>2021-04-23T16:28:29.308Z</time>
      </trkpt>
      <trkpt lat="45.62849" lon="4.35107">
        <ele>615.062294</ele>
        <time>2021-04-23T16:28:31.330Z</time>
      </trkpt>
      <trkpt lat="45.62853" lon="4.35084">
        <ele>614.891822</ele>
        <time>2021-04-23T16:28:33.280Z</time>
      </trkpt>
      <trkpt lat="45.62852" lon="4.35059">
        <ele>614.715632</ele>
        <time>2021-04-23T16:28:35.324Z</time>
      </trkpt>
      <trkpt lat="45.62845" lon="4.35037">
        <ele>614.544791</ele>
        <time>2021-04-23T16:28:37.322Z</time>
      </trkpt>
      <trkpt lat="45.6284" lon="4.35014">
        <ele>614.368515</ele>
        <time>2021-04-23T16:28:39.322Z</time>
      </trkpt>
      <trkpt lat="45.62838" lon="4.35001">
        <ele>614.275537</ele>
        <time>2021-04-23T16:28:40.329Z</time>
      </trkpt>
      <trkpt lat="45.62837" lon="4.34976">
        <ele>614.096806</ele>
        <time>2021-04-23T16:28:42.299Z</time>
      </trkpt>
      <trkpt lat="45.62834" lon="4.34952">
        <ele>613.917861</ele>
        <time>2021-04-23T16:28:44.327Z</time>
      </trkpt>
      <trkpt lat="45.62831" lon="4.34927">
        <ele>613.73876</ele>
        <time>2021-04-23T16:28:46.288Z</time>
      </trkpt>
      <trkpt lat="45.62829" lon="4.34903">
        <ele>613.564642</ele>
        <time>2021-04-23T16:28:48.299Z</time>
      </trkpt>
      <trkpt lat="45.6283" lon="4.34879">
        <ele>613.394379</ele>
        <time>2021-04-23T16:28:50.318Z</time>
      </trkpt>
      <trkpt lat="45.62833" lon="4.34856">
        <ele>613.22749</ele>
        <time>2021-04-23T16:28:52.304Z</time>
      </trkpt>
      <trkpt lat="45.62836" lon="4.34833">
        <ele>613.060827</ele>
        <time>2021-04-23T16:28:54.341Z</time>
      </trkpt>
      <trkpt lat="45.62839" lon="4.34811">
        <ele>612.89625</ele>
        <time>2021-04-23T16:28:56.291Z</time>
      </trkpt>
      <trkpt lat="45.62842" lon="4.34788">
        <ele>612.728343</ele>
        <time>2021-04-23T16:28:58.303Z</time>
      </trkpt>
      <trkpt lat="45.62845" lon="4.34766">
        <ele>612.565371</ele>
        <time>2021-04-23T16:29:00.315Z</time>
      </trkpt>
      <trkpt lat="45.62849" lon="4.34743">
        <ele>612.402053</ele>
        <time>2021-04-23T16:29:02.302Z</time>
      </trkpt>
      <trkpt lat="45.62852" lon="4.34721">
        <ele>612.240869</ele>
        <time>2021-04-23T16:29:04.286Z</time>
      </trkpt>
      <trkpt lat="45.62854" lon="4.34699">
        <ele>612.077529</ele>
        <time>2021-04-23T16:29:06.315Z</time>
      </trkpt>
      <trkpt lat="45.62855" lon="4.34676">
        <ele>611.911844</ele>
        <time>2021-04-23T16:29:08.314Z</time>
      </trkpt>
      <trkpt lat="45.62857" lon="4.34653">
        <ele>611.748472</ele>
        <time>2021-04-23T16:29:10.338Z</time>
      </trkpt>
      <trkpt lat="45.62857" lon="4.3463">
        <ele>611.585561</ele>
        <time>2021-04-23T16:29:12.332Z</time>
      </trkpt>
      <trkpt lat="45.62857" lon="4.34608">
        <ele>611.355735</ele>
        <time>2021-04-23T16:29:14.297Z</time>
      </trkpt>
      <trkpt lat="45.62858" lon="4.34586">
        <ele>611.10911</ele>
        <time>2021-04-23T16:29:16.314Z</time>
      </trkpt>
      <trkpt lat="45.62858" lon="4.34562">
        <ele>610.857297</ele>
        <time>2021-04-23T16:29:18.293Z</time>
      </trkpt>
      <trkpt lat="45.62859" lon="4.34538">
        <ele>610.596805</ele>
        <time>2021-04-23T16:29:20.292Z</time>
      </trkpt>
      <trkpt lat="45.6286" lon="4.34513">
        <ele>610.320459</ele>
        <time>2021-04-23T16:29:22.290Z</time>
      </trkpt>
      <trkpt lat="45.62861" lon="4.34488">
        <ele>610.045497</ele>
        <time>2021-04-23T16:29:24.285Z</time>
      </trkpt>
      <trkpt lat="45.62861" lon="4.34462">
        <ele>609.772019</ele>
        <time>2021-04-23T16:29:26.329Z</time>
      </trkpt>
      <trkpt lat="45.62861" lon="4.3445">
        <ele>609.632036</ele>
        <time>2021-04-23T16:29:27.316Z</time>
      </trkpt>
      <trkpt lat="45.62861" lon="4.34437">
        <ele>609.492027</ele>
        <time>2021-04-23T16:29:28.301Z</time>
      </trkpt>
      <trkpt lat="45.62861" lon="4.34412">
        <ele>609.224014</ele>
        <time>2021-04-23T16:29:30.306Z</time>
      </trkpt>
      <trkpt lat="45.62861" lon="4.34387">
        <ele>608.953791</ele>
        <time>2021-04-23T16:29:32.330Z</time>
      </trkpt>
      <trkpt lat="45.62861" lon="4.34363">
        <ele>608.722461</ele>
        <time>2021-04-23T16:29:34.298Z</time>
      </trkpt>
      <trkpt lat="45.62861" lon="4.3434">
        <ele>608.561784</ele>
        <time>2021-04-23T16:29:36.613Z</time>
      </trkpt>
      <trkpt lat="45.62861" lon="4.34317">
        <ele>608.403179</ele>
        <time>2021-04-23T16:29:38.286Z</time>
      </trkpt>
      <trkpt lat="45.62862" lon="4.34295">
        <ele>608.249228</ele>
        <time>2021-04-23T16:29:40.308Z</time>
      </trkpt>
      <trkpt lat="45.62863" lon="4.34274">
        <ele>608.097308</ele>
        <time>2021-04-23T16:29:42.309Z</time>
      </trkpt>
      <trkpt lat="45.62863" lon="4.34252">
        <ele>607.946402</ele>
        <time>2021-04-23T16:29:44.310Z</time>
      </trkpt>
      <trkpt lat="45.62863" lon="4.3423">
        <ele>607.795505</ele>
        <time>2021-04-23T16:29:46.295Z</time>
      </trkpt>
      <trkpt lat="45.62864" lon="4.34209">
        <ele>607.644979</ele>
        <time>2021-04-23T16:29:48.314Z</time>
      </trkpt>
      <trkpt lat="45.62866" lon="4.34187">
        <ele>607.489768</ele>
        <time>2021-04-23T16:29:50.296Z</time>
      </trkpt>
      <trkpt lat="45.62868" lon="4.34165">
        <ele>607.334787</ele>
        <time>2021-04-23T16:29:52.296Z</time>
      </trkpt>
      <trkpt lat="45.62871" lon="4.34144">
        <ele>607.185958</ele>
        <time>2021-04-23T16:29:54.305Z</time>
      </trkpt>
      <trkpt lat="45.62876" lon="4.34123">
        <ele>607.030894</ele>
        <time>2021-04-23T16:29:56.291Z</time>
      </trkpt>
      <trkpt lat="45.6288" lon="4.34102">
        <ele>606.891771</ele>
        <time>2021-04-23T16:29:58.305Z</time>
      </trkpt>
      <trkpt lat="45.62885" lon="4.34081">
        <ele>606.760665</ele>
        <time>2021-04-23T16:30:00.294Z</time>
      </trkpt>
      <trkpt lat="45.62889" lon="4.3406">
        <ele>606.628844</ele>
        <time>2021-04-23T16:30:02.295Z</time>
      </trkpt>
      <trkpt lat="45.62894" lon="4.34039">
        <ele>606.497833</ele>
        <time>2021-04-23T16:30:04.307Z</time>
      </trkpt>
      <trkpt lat="45.62898" lon="4.34018">
        <ele>606.368078</ele>
        <time>2021-04-23T16:30:06.322Z</time>
      </trkpt>
      <trkpt lat="45.62902" lon="4.33997">
        <ele>606.240335</ele>
        <time>2021-04-23T16:30:08.294Z</time>
      </trkpt>
      <trkpt lat="45.62907" lon="4.33977">
        <ele>606.113162</ele>
        <time>2021-04-23T16:30:10.315Z</time>
      </trkpt>
      <trkpt lat="45.62911" lon="4.33957">
        <ele>605.986559</ele>
        <time>2021-04-23T16:30:12.303Z</time>
      </trkpt>
      <trkpt lat="45.62916" lon="4.33938">
        <ele>605.864503</ele>
        <time>2021-04-23T16:30:14.309Z</time>
      </trkpt>
      <trkpt lat="45.62921" lon="4.33919">
        <ele>605.74686</ele>
        <time>2021-04-23T16:30:16.309Z</time>
      </trkpt>
      <trkpt lat="45.62927" lon="4.33903">
        <ele>605.63342</ele>
        <time>2021-04-23T16:30:18.300Z</time>
      </trkpt>
      <trkpt lat="45.62935" lon="4.33887">
        <ele>605.52083</ele>
        <time>2021-04-23T16:30:20.296Z</time>
      </trkpt>
      <trkpt lat="45.62941" lon="4.33872">
        <ele>605.44192</ele>
        <time>2021-04-23T16:30:22.322Z</time>
      </trkpt>
      <trkpt lat="45.62949" lon="4.33858">
        <ele>605.440483</ele>
        <time>2021-04-23T16:30:24.290Z</time>
      </trkpt>
      <trkpt lat="45.62957" lon="4.33846">
        <ele>605.439068</ele>
        <time>2021-04-23T16:30:26.329Z</time>
      </trkpt>
      <trkpt lat="45.62965" lon="4.33833">
        <ele>605.437705</ele>
        <time>2021-04-23T16:30:28.333Z</time>
      </trkpt>
      <trkpt lat="45.62972" lon="4.33822">
        <ele>605.436407</ele>
        <time>2021-04-23T16:30:30.307Z</time>
      </trkpt>
      <trkpt lat="45.62979" lon="4.33809">
        <ele>605.435082</ele>
        <time>2021-04-23T16:30:32.322Z</time>
      </trkpt>
      <trkpt lat="45.62987" lon="4.33797">
        <ele>605.433707</ele>
        <time>2021-04-23T16:30:34.332Z</time>
      </trkpt>
      <trkpt lat="45.62994" lon="4.33785">
        <ele>605.432353</ele>
        <time>2021-04-23T16:30:36.298Z</time>
      </trkpt>
      <trkpt lat="45.63002" lon="4.33773">
        <ele>605.431057</ele>
        <time>2021-04-23T16:30:38.303Z</time>
      </trkpt>
      <trkpt lat="45.63008" lon="4.33761">
        <ele>605.429834</ele>
        <time>2021-04-23T16:30:40.301Z</time>
      </trkpt>
      <trkpt lat="45.63015" lon="4.3375">
        <ele>605.428636</ele>
        <time>2021-04-23T16:30:42.313Z</time>
      </trkpt>
      <trkpt lat="45.63021" lon="4.3374">
        <ele>605.4275</ele>
        <time>2021-04-23T16:30:44.307Z</time>
      </trkpt>
      <trkpt lat="45.6303" lon="4.33726">
        <ele>605.425972</ele>
        <time>2021-04-23T16:30:47.300Z</time>
      </trkpt>
      <trkpt lat="45.63038" lon="4.33713">
        <ele>605.424545</ele>
        <time>2021-04-23T16:30:50.325Z</time>
      </trkpt>
      <trkpt lat="45.63045" lon="4.33699">
        <ele>605.423079</ele>
        <time>2021-04-23T16:30:53.303Z</time>
      </trkpt>
      <trkpt lat="45.63052" lon="4.33686">
        <ele>605.421758</ele>
        <time>2021-04-23T16:30:56.302Z</time>
      </trkpt>
      <trkpt lat="45.63059" lon="4.33672">
        <ele>605.29035</ele>
        <time>2021-04-23T16:30:59.326Z</time>
      </trkpt>
      <trkpt lat="45.63066" lon="4.33655">
        <ele>605.025502</ele>
        <time>2021-04-23T16:31:02.291Z</time>
      </trkpt>
      <trkpt lat="45.63073" lon="4.33644">
        <ele>604.826189</ele>
        <time>2021-04-23T16:31:04.309Z</time>
      </trkpt>
      <trkpt lat="45.63078" lon="4.33633">
        <ele>604.638385</ele>
        <time>2021-04-23T16:31:06.291Z</time>
      </trkpt>
      <trkpt lat="45.63074" lon="4.33617">
        <ele>604.391919</ele>
        <time>2021-04-23T16:31:09.293Z</time>
      </trkpt>
      <trkpt lat="45.6306" lon="4.33612">
        <ele>604.120344</ele>
        <time>2021-04-23T16:31:12.286Z</time>
      </trkpt>
      <trkpt lat="45.63051" lon="4.33609">
        <ele>603.930975</ele>
        <time>2021-04-23T16:31:14.300Z</time>
      </trkpt>
      <trkpt lat="45.63041" lon="4.33607">
        <ele>603.740657</ele>
        <time>2021-04-23T16:31:16.299Z</time>
      </trkpt>
      <trkpt lat="45.63032" lon="4.33607">
        <ele>603.561183</ele>
        <time>2021-04-23T16:31:18.321Z</time>
      </trkpt>
      <trkpt lat="45.63022" lon="4.33607">
        <ele>603.367663</ele>
        <time>2021-04-23T16:31:20.308Z</time>
      </trkpt>
      <trkpt lat="45.63012" lon="4.33606">
        <ele>603.158382</ele>
        <time>2021-04-23T16:31:22.291Z</time>
      </trkpt>
      <trkpt lat="45.63001" lon="4.33605">
        <ele>602.939251</ele>
        <time>2021-04-23T16:31:24.308Z</time>
      </trkpt>
      <trkpt lat="45.62988" lon="4.33603">
        <ele>602.693293</ele>
        <time>2021-04-23T16:31:26.325Z</time>
      </trkpt>
      <trkpt lat="45.62976" lon="4.33601">
        <ele>602.454687</ele>
        <time>2021-04-23T16:31:28.308Z</time>
      </trkpt>
      <trkpt lat="45.62963" lon="4.336">
        <ele>602.195702</ele>
        <time>2021-04-23T16:31:30.310Z</time>
      </trkpt>
      <trkpt lat="45.62952" lon="4.33596">
        <ele>601.962166</ele>
        <time>2021-04-23T16:31:32.331Z</time>
      </trkpt>
      <trkpt lat="45.6294" lon="4.33594">
        <ele>601.718801</ele>
        <time>2021-04-23T16:31:34.312Z</time>
      </trkpt>
      <trkpt lat="45.62927" lon="4.33593">
        <ele>601.46618</ele>
        <time>2021-04-23T16:31:36.299Z</time>
      </trkpt>
      <trkpt lat="45.62915" lon="4.33592">
        <ele>601.209981</ele>
        <time>2021-04-23T16:31:38.311Z</time>
      </trkpt>
      <trkpt lat="45.62903" lon="4.33591">
        <ele>600.95736</ele>
        <time>2021-04-23T16:31:40.311Z</time>
      </trkpt>
      <trkpt lat="45.6289" lon="4.33591">
        <ele>600.699256</ele>
        <time>2021-04-23T16:31:42.308Z</time>
      </trkpt>
      <trkpt lat="45.62878" lon="4.33591">
        <ele>600.445344</ele>
        <time>2021-04-23T16:31:44.308Z</time>
      </trkpt>
      <trkpt lat="45.62866" lon="4.33591">
        <ele>600.191403</ele>
        <time>2021-04-23T16:31:46.304Z</time>
      </trkpt>
      <trkpt lat="45.62855" lon="4.33594">
        <ele>599.955942</ele>
        <time>2021-04-23T16:31:48.309Z</time>
      </trkpt>
      <trkpt lat="45.62842" lon="4.336">
        <ele>599.686199</ele>
        <time>2021-04-23T16:31:50.308Z</time>
      </trkpt>
      <trkpt lat="45.62832" lon="4.33612">
        <ele>599.406538</ele>
        <time>2021-04-23T16:31:52.318Z</time>
      </trkpt>
      <trkpt lat="45.6282" lon="4.33631">
        <ele>599.042484</ele>
        <time>2021-04-23T16:31:54.299Z</time>
      </trkpt>
      <trkpt lat="45.62812" lon="4.33639">
        <ele>598.85189</ele>
        <time>2021-04-23T16:31:55.306Z</time>
      </trkpt>
      <trkpt lat="45.62805" lon="4.33646">
        <ele>598.660472</ele>
        <time>2021-04-23T16:31:56.299Z</time>
      </trkpt>
      <trkpt lat="45.62797" lon="4.33653">
        <ele>598.475916</ele>
        <time>2021-04-23T16:31:57.303Z</time>
      </trkpt>
      <trkpt lat="45.62782" lon="4.33664">
        <ele>598.11478</ele>
        <time>2021-04-23T16:31:59.314Z</time>
      </trkpt>
      <trkpt lat="45.62766" lon="4.3367">
        <ele>597.702691</ele>
        <time>2021-04-23T16:32:01.300Z</time>
      </trkpt>
      <trkpt lat="45.62754" lon="4.33667">
        <ele>597.382378</ele>
        <time>2021-04-23T16:32:03.341Z</time>
      </trkpt>
      <trkpt lat="45.62741" lon="4.33659">
        <ele>597.054551</ele>
        <time>2021-04-23T16:32:06.296Z</time>
      </trkpt>
      <trkpt lat="45.6273" lon="4.3366">
        <ele>596.771296</ele>
        <time>2021-04-23T16:32:08.301Z</time>
      </trkpt>
      <trkpt lat="45.62718" lon="4.33665">
        <ele>596.448794</ele>
        <time>2021-04-23T16:32:10.334Z</time>
      </trkpt>
      <trkpt lat="45.62707" lon="4.33676">
        <ele>596.118348</ele>
        <time>2021-04-23T16:32:12.315Z</time>
      </trkpt>
      <trkpt lat="45.62697" lon="4.33689">
        <ele>595.783114</ele>
        <time>2021-04-23T16:32:14.316Z</time>
      </trkpt>
      <trkpt lat="45.62687" lon="4.337">
        <ele>595.468404</ele>
        <time>2021-04-23T16:32:16.310Z</time>
      </trkpt>
      <trkpt lat="45.6268" lon="4.3371">
        <ele>595.210452</ele>
        <time>2021-04-23T16:32:18.316Z</time>
      </trkpt>
      <trkpt lat="45.62673" lon="4.33719">
        <ele>594.974504</ele>
        <time>2021-04-23T16:32:20.320Z</time>
      </trkpt>
      <trkpt lat="45.62663" lon="4.33729">
        <ele>594.671561</ele>
        <time>2021-04-23T16:32:23.321Z</time>
      </trkpt>
      <trkpt lat="45.62653" lon="4.33736">
        <ele>594.389468</ele>
        <time>2021-04-23T16:32:26.308Z</time>
      </trkpt>
      <trkpt lat="45.62643" lon="4.33743">
        <ele>594.108904</ele>
        <time>2021-04-23T16:32:29.302Z</time>
      </trkpt>
      <trkpt lat="45.62633" lon="4.33749">
        <ele>593.837084</ele>
        <time>2021-04-23T16:32:32.326Z</time>
      </trkpt>
      <trkpt lat="45.62619" lon="4.33754">
        <ele>593.671792</ele>
        <time>2021-04-23T16:32:35.347Z</time>
      </trkpt>
      <trkpt lat="45.6261" lon="4.33754">
        <ele>593.698137</ele>
        <time>2021-04-23T16:32:37.298Z</time>
      </trkpt>
      <trkpt lat="45.62601" lon="4.33749">
        <ele>593.72766</ele>
        <time>2021-04-23T16:32:39.297Z</time>
      </trkpt>
      <trkpt lat="45.62594" lon="4.33736">
        <ele>593.759626</ele>
        <time>2021-04-23T16:32:41.285Z</time>
      </trkpt>
      <trkpt lat="45.62589" lon="4.33722">
        <ele>593.793002</ele>
        <time>2021-04-23T16:32:43.293Z</time>
      </trkpt>
      <trkpt lat="45.62583" lon="4.33709">
        <ele>593.82336</ele>
        <time>2021-04-23T16:32:45.307Z</time>
      </trkpt>
      <trkpt lat="45.62578" lon="4.33696">
        <ele>593.85471</ele>
        <time>2021-04-23T16:32:47.314Z</time>
      </trkpt>
      <trkpt lat="45.6257" lon="4.33682">
        <ele>593.890525</ele>
        <time>2021-04-23T16:32:49.289Z</time>
      </trkpt>
      <trkpt lat="45.62564" lon="4.33669">
        <ele>593.92217</ele>
        <time>2021-04-23T16:32:51.314Z</time>
      </trkpt>
      <trkpt lat="45.62559" lon="4.33657">
        <ele>593.950323</ele>
        <time>2021-04-23T16:32:53.292Z</time>
      </trkpt>
      <trkpt lat="45.62551" lon="4.33646">
        <ele>593.980721</ele>
        <time>2021-04-23T16:32:55.305Z</time>
      </trkpt>
      <trkpt lat="45.62544" lon="4.33636">
        <ele>594.011478</ele>
        <time>2021-04-23T16:32:57.306Z</time>
      </trkpt>
      <trkpt lat="45.62536" lon="4.33626">
        <ele>594.041918</ele>
        <time>2021-04-23T16:32:59.303Z</time>
      </trkpt>
      <trkpt lat="45.62527" lon="4.33616">
        <ele>594.073245</ele>
        <time>2021-04-23T16:33:01.292Z</time>
      </trkpt>
      <trkpt lat="45.62518" lon="4.33607">
        <ele>594.105566</ele>
        <time>2021-04-23T16:33:03.316Z</time>
      </trkpt>
      <trkpt lat="45.6251" lon="4.33596">
        <ele>594.13757</ele>
        <time>2021-04-23T16:33:05.324Z</time>
      </trkpt>
      <trkpt lat="45.62502" lon="4.33585">
        <ele>594.171457</ele>
        <time>2021-04-23T16:33:07.298Z</time>
      </trkpt>
      <trkpt lat="45.62492" lon="4.33574">
        <ele>593.875364</ele>
        <time>2021-04-23T16:33:09.287Z</time>
      </trkpt>
      <trkpt lat="45.62482" lon="4.33565">
        <ele>593.571826</ele>
        <time>2021-04-23T16:33:11.313Z</time>
      </trkpt>
      <trkpt lat="45.62472" lon="4.33557">
        <ele>593.291848</ele>
        <time>2021-04-23T16:33:13.331Z</time>
      </trkpt>
      <trkpt lat="45.62464" lon="4.33551">
        <ele>593.055434</ele>
        <time>2021-04-23T16:33:15.296Z</time>
      </trkpt>
      <trkpt lat="45.62455" lon="4.33539">
        <ele>592.739474</ele>
        <time>2021-04-23T16:33:18.333Z</time>
      </trkpt>
      <trkpt lat="45.62455" lon="4.33526">
        <ele>592.506527</ele>
        <time>2021-04-23T16:33:20.285Z</time>
      </trkpt>
      <trkpt lat="45.62458" lon="4.33508">
        <ele>592.187851</ele>
        <time>2021-04-23T16:33:22.301Z</time>
      </trkpt>
      <trkpt lat="45.62462" lon="4.33488">
        <ele>591.808975</ele>
        <time>2021-04-23T16:33:24.288Z</time>
      </trkpt>
      <trkpt lat="45.62466" lon="4.33467">
        <ele>591.426405</ele>
        <time>2021-04-23T16:33:26.305Z</time>
      </trkpt>
      <trkpt lat="45.6247" lon="4.33446">
        <ele>591.043009</ele>
        <time>2021-04-23T16:33:28.307Z</time>
      </trkpt>
      <trkpt lat="45.62471" lon="4.33423">
        <ele>590.630912</ele>
        <time>2021-04-23T16:33:30.324Z</time>
      </trkpt>
      <trkpt lat="45.62473" lon="4.334">
        <ele>590.217007</ele>
        <time>2021-04-23T16:33:32.311Z</time>
      </trkpt>
      <trkpt lat="45.62473" lon="4.3338">
        <ele>589.859548</ele>
        <time>2021-04-23T16:33:34.322Z</time>
      </trkpt>
      <trkpt lat="45.62467" lon="4.33367">
        <ele>589.589217</ele>
        <time>2021-04-23T16:33:36.312Z</time>
      </trkpt>
      <trkpt lat="45.62456" lon="4.33361">
        <ele>589.397481</ele>
        <time>2021-04-23T16:33:38.315Z</time>
      </trkpt>
      <trkpt lat="45.62443" lon="4.3336">
        <ele>589.178818</ele>
        <time>2021-04-23T16:33:40.305Z</time>
      </trkpt>
      <trkpt lat="45.6243" lon="4.33357">
        <ele>588.950693</ele>
        <time>2021-04-23T16:33:42.326Z</time>
      </trkpt>
      <trkpt lat="45.62417" lon="4.33354">
        <ele>588.734784</ele>
        <time>2021-04-23T16:33:44.298Z</time>
      </trkpt>
      <trkpt lat="45.62403" lon="4.33346">
        <ele>588.47615</ele>
        <time>2021-04-23T16:33:46.308Z</time>
      </trkpt>
      <trkpt lat="45.6239" lon="4.33334">
        <ele>588.224232</ele>
        <time>2021-04-23T16:33:48.341Z</time>
      </trkpt>
      <trkpt lat="45.62378" lon="4.33321">
        <ele>587.973158</ele>
        <time>2021-04-23T16:33:50.313Z</time>
      </trkpt>
      <trkpt lat="45.62367" lon="4.33308">
        <ele>587.725565</ele>
        <time>2021-04-23T16:33:52.308Z</time>
      </trkpt>
      <trkpt lat="45.62355" lon="4.33296">
        <ele>587.475373</ele>
        <time>2021-04-23T16:33:54.341Z</time>
      </trkpt>
      <trkpt lat="45.62343" lon="4.33287">
        <ele>587.247875</ele>
        <time>2021-04-23T16:33:56.335Z</time>
      </trkpt>
      <trkpt lat="45.6233" lon="4.33289">
        <ele>587.029557</ele>
        <time>2021-04-23T16:33:58.354Z</time>
      </trkpt>
      <trkpt lat="45.62318" lon="4.33294">
        <ele>586.824915</ele>
        <time>2021-04-23T16:34:00.294Z</time>
      </trkpt>
      <trkpt lat="45.62308" lon="4.33299">
        <ele>586.64763</ele>
        <time>2021-04-23T16:34:02.305Z</time>
      </trkpt>
      <trkpt lat="45.62299" lon="4.33302">
        <ele>586.545578</ele>
        <time>2021-04-23T16:34:04.326Z</time>
      </trkpt>
      <trkpt lat="45.62288" lon="4.33307">
        <ele>586.471431</ele>
        <time>2021-04-23T16:34:06.315Z</time>
      </trkpt>
      <trkpt lat="45.62278" lon="4.33311">
        <ele>586.398348</ele>
        <time>2021-04-23T16:34:08.321Z</time>
      </trkpt>
      <trkpt lat="45.62268" lon="4.33314">
        <ele>586.328654</ele>
        <time>2021-04-23T16:34:10.308Z</time>
      </trkpt>
      <trkpt lat="45.62258" lon="4.33315">
        <ele>586.261879</ele>
        <time>2021-04-23T16:34:12.318Z</time>
      </trkpt>
      <trkpt lat="45.62249" lon="4.33316">
        <ele>586.201141</ele>
        <time>2021-04-23T16:34:14.316Z</time>
      </trkpt>
      <trkpt lat="45.6224" lon="4.33315">
        <ele>586.136392</ele>
        <time>2021-04-23T16:34:16.308Z</time>
      </trkpt>
      <trkpt lat="45.6223" lon="4.33314">
        <ele>586.07092</ele>
        <time>2021-04-23T16:34:18.319Z</time>
      </trkpt>
      <trkpt lat="45.62221" lon="4.33314">
        <ele>586.008112</ele>
        <time>2021-04-23T16:34:20.305Z</time>
      </trkpt>
      <trkpt lat="45.62212" lon="4.33313">
        <ele>585.944043</ele>
        <time>2021-04-23T16:34:22.331Z</time>
      </trkpt>
      <trkpt lat="45.62203" lon="4.33314">
        <ele>585.882625</ele>
        <time>2021-04-23T16:34:24.294Z</time>
      </trkpt>
      <trkpt lat="45.62193" lon="4.33314">
        <ele>585.820628</ele>
        <time>2021-04-23T16:34:26.308Z</time>
      </trkpt>
      <trkpt lat="45.6218" lon="4.33313">
        <ele>585.732002</ele>
        <time>2021-04-23T16:34:29.331Z</time>
      </trkpt>
      <trkpt lat="45.62172" lon="4.33302">
        <ele>585.654596</ele>
        <time>2021-04-23T16:34:32.311Z</time>
      </trkpt>
      <trkpt lat="45.62165" lon="4.33287">
        <ele>585.567936</ele>
        <time>2021-04-23T16:34:35.300Z</time>
      </trkpt>
      <trkpt lat="45.62159" lon="4.33277">
        <ele>585.504199</ele>
        <time>2021-04-23T16:34:37.289Z</time>
      </trkpt>
      <trkpt lat="45.62153" lon="4.33267">
        <ele>585.441021</ele>
        <time>2021-04-23T16:34:39.303Z</time>
      </trkpt>
      <trkpt lat="45.62146" lon="4.33257">
        <ele>585.374442</ele>
        <time>2021-04-23T16:34:41.311Z</time>
      </trkpt>
      <trkpt lat="45.62138" lon="4.33246">
        <ele>585.269441</ele>
        <time>2021-04-23T16:34:43.308Z</time>
      </trkpt>
      <trkpt lat="45.62131" lon="4.33236">
        <ele>585.159314</ele>
        <time>2021-04-23T16:34:45.304Z</time>
      </trkpt>
      <trkpt lat="45.62124" lon="4.33225">
        <ele>585.04928</ele>
        <time>2021-04-23T16:34:47.324Z</time>
      </trkpt>
      <trkpt lat="45.62118" lon="4.33214">
        <ele>584.94436</ele>
        <time>2021-04-23T16:34:49.302Z</time>
      </trkpt>
      <trkpt lat="45.62111" lon="4.33201">
        <ele>584.82653</ele>
        <time>2021-04-23T16:34:51.306Z</time>
      </trkpt>
      <trkpt lat="45.6211" lon="4.33187">
        <ele>584.726448</ele>
        <time>2021-04-23T16:34:53.293Z</time>
      </trkpt>
      <trkpt lat="45.62117" lon="4.33175">
        <ele>584.610395</ele>
        <time>2021-04-23T16:34:55.342Z</time>
      </trkpt>
      <trkpt lat="45.62127" lon="4.33161">
        <ele>584.462613</ele>
        <time>2021-04-23T16:34:57.297Z</time>
      </trkpt>
      <trkpt lat="45.62137" lon="4.33149">
        <ele>584.328845</ele>
        <time>2021-04-23T16:34:59.319Z</time>
      </trkpt>
      <trkpt lat="45.62146" lon="4.33139">
        <ele>584.204764</ele>
        <time>2021-04-23T16:35:01.324Z</time>
      </trkpt>
      <trkpt lat="45.62154" lon="4.33128">
        <ele>584.088241</ele>
        <time>2021-04-23T16:35:03.326Z</time>
      </trkpt>
      <trkpt lat="45.62161" lon="4.33115">
        <ele>583.971031</ele>
        <time>2021-04-23T16:35:05.321Z</time>
      </trkpt>
      <trkpt lat="45.62166" lon="4.33099">
        <ele>583.835395</ele>
        <time>2021-04-23T16:35:07.323Z</time>
      </trkpt>
      <trkpt lat="45.62171" lon="4.3308">
        <ele>583.689258</ele>
        <time>2021-04-23T16:35:09.305Z</time>
      </trkpt>
      <trkpt lat="45.62174" lon="4.3306">
        <ele>583.537985</ele>
        <time>2021-04-23T16:35:11.331Z</time>
      </trkpt>
      <trkpt lat="45.62176" lon="4.33039">
        <ele>583.398243</ele>
        <time>2021-04-23T16:35:13.315Z</time>
      </trkpt>
      <trkpt lat="45.62178" lon="4.33018">
        <ele>583.275992</ele>
        <time>2021-04-23T16:35:15.302Z</time>
      </trkpt>
      <trkpt lat="45.62181" lon="4.32997">
        <ele>583.154714</ele>
        <time>2021-04-23T16:35:17.325Z</time>
      </trkpt>
      <trkpt lat="45.62184" lon="4.32976">
        <ele>583.029433</ele>
        <time>2021-04-23T16:35:19.321Z</time>
      </trkpt>
      <trkpt lat="45.62187" lon="4.32954">
        <ele>582.902695</ele>
        <time>2021-04-23T16:35:21.326Z</time>
      </trkpt>
      <trkpt lat="45.62192" lon="4.32933">
        <ele>582.773807</ele>
        <time>2021-04-23T16:35:23.308Z</time>
      </trkpt>
      <trkpt lat="45.62196" lon="4.32913">
        <ele>582.654821</ele>
        <time>2021-04-23T16:35:25.309Z</time>
      </trkpt>
      <trkpt lat="45.62202" lon="4.32892">
        <ele>582.518205</ele>
        <time>2021-04-23T16:35:27.302Z</time>
      </trkpt>
      <trkpt lat="45.6221" lon="4.32869">
        <ele>582.372996</ele>
        <time>2021-04-23T16:35:29.300Z</time>
      </trkpt>
      <trkpt lat="45.62218" lon="4.32848">
        <ele>582.233414</ele>
        <time>2021-04-23T16:35:31.321Z</time>
      </trkpt>
      <trkpt lat="45.62226" lon="4.32827">
        <ele>582.097155</ele>
        <time>2021-04-23T16:35:33.319Z</time>
      </trkpt>
      <trkpt lat="45.62235" lon="4.32808">
        <ele>581.944422</ele>
        <time>2021-04-23T16:35:35.332Z</time>
      </trkpt>
      <trkpt lat="45.62244" lon="4.3279">
        <ele>581.643712</ele>
        <time>2021-04-23T16:35:37.322Z</time>
      </trkpt>
      <trkpt lat="45.6225" lon="4.32769">
        <ele>581.338027</ele>
        <time>2021-04-23T16:35:39.312Z</time>
      </trkpt>
      <trkpt lat="45.62259" lon="4.32751">
        <ele>581.048398</ele>
        <time>2021-04-23T16:35:41.294Z</time>
      </trkpt>
      <trkpt lat="45.62269" lon="4.32737">
        <ele>580.75877</ele>
        <time>2021-04-23T16:35:43.315Z</time>
      </trkpt>
      <trkpt lat="45.6228" lon="4.32721">
        <ele>580.456695</ele>
        <time>2021-04-23T16:35:45.301Z</time>
      </trkpt>
      <trkpt lat="45.6229" lon="4.32703">
        <ele>580.151915</ele>
        <time>2021-04-23T16:35:47.292Z</time>
      </trkpt>
      <trkpt lat="45.623" lon="4.32685">
        <ele>579.836996</ele>
        <time>2021-04-23T16:35:49.308Z</time>
      </trkpt>
      <trkpt lat="45.62311" lon="4.32667">
        <ele>579.516638</ele>
        <time>2021-04-23T16:35:51.312Z</time>
      </trkpt>
      <trkpt lat="45.62323" lon="4.32649">
        <ele>579.175634</ele>
        <time>2021-04-23T16:35:53.316Z</time>
      </trkpt>
      <trkpt lat="45.62329" lon="4.32638">
        <ele>578.992326</ele>
        <time>2021-04-23T16:35:54.340Z</time>
      </trkpt>
      <trkpt lat="45.62335" lon="4.32627">
        <ele>578.808036</ele>
        <time>2021-04-23T16:35:55.329Z</time>
      </trkpt>
      <trkpt lat="45.62341" lon="4.32617">
        <ele>578.626312</ele>
        <time>2021-04-23T16:35:56.308Z</time>
      </trkpt>
      <trkpt lat="45.62347" lon="4.32607">
        <ele>578.403947</ele>
        <time>2021-04-23T16:35:57.330Z</time>
      </trkpt>
      <trkpt lat="45.62352" lon="4.32597">
        <ele>578.055296</ele>
        <time>2021-04-23T16:35:58.299Z</time>
      </trkpt>
      <trkpt lat="45.62357" lon="4.32586">
        <ele>577.706471</ele>
        <time>2021-04-23T16:35:59.305Z</time>
      </trkpt>
      <trkpt lat="45.62366" lon="4.32564">
        <ele>577.036836</ele>
        <time>2021-04-23T16:36:01.300Z</time>
      </trkpt>
      <trkpt lat="45.62372" lon="4.32543">
        <ele>576.403575</ele>
        <time>2021-04-23T16:36:03.299Z</time>
      </trkpt>
      <trkpt lat="45.62378" lon="4.32523">
        <ele>575.812543</ele>
        <time>2021-04-23T16:36:05.300Z</time>
      </trkpt>
      <trkpt lat="45.62386" lon="4.32504">
        <ele>575.22931</ele>
        <time>2021-04-23T16:36:07.303Z</time>
      </trkpt>
      <trkpt lat="45.62392" lon="4.32485">
        <ele>574.675718</ele>
        <time>2021-04-23T16:36:09.317Z</time>
      </trkpt>
      <trkpt lat="45.62399" lon="4.32466">
        <ele>574.083559</ele>
        <time>2021-04-23T16:36:11.307Z</time>
      </trkpt>
      <trkpt lat="45.62404" lon="4.32445">
        <ele>573.496836</ele>
        <time>2021-04-23T16:36:13.305Z</time>
      </trkpt>
      <trkpt lat="45.6241" lon="4.32424">
        <ele>572.87116</ele>
        <time>2021-04-23T16:36:15.311Z</time>
      </trkpt>
      <trkpt lat="45.62421" lon="4.32408">
        <ele>572.291325</ele>
        <time>2021-04-23T16:36:17.294Z</time>
      </trkpt>
      <trkpt lat="45.62433" lon="4.32395">
        <ele>571.701376</ele>
        <time>2021-04-23T16:36:19.328Z</time>
      </trkpt>
      <trkpt lat="45.6245" lon="4.32392">
        <ele>570.77837</ele>
        <time>2021-04-23T16:36:21.304Z</time>
      </trkpt>
      <trkpt lat="45.62463" lon="4.32382">
        <ele>569.869034</ele>
        <time>2021-04-23T16:36:23.310Z</time>
      </trkpt>
      <trkpt lat="45.62475" lon="4.32366">
        <ele>568.866393</ele>
        <time>2021-04-23T16:36:25.311Z</time>
      </trkpt>
      <trkpt lat="45.6248" lon="4.32355">
        <ele>568.301966</ele>
        <time>2021-04-23T16:36:26.307Z</time>
      </trkpt>
      <trkpt lat="45.6249" lon="4.32334">
        <ele>567.226169</ele>
        <time>2021-04-23T16:36:28.315Z</time>
      </trkpt>
      <trkpt lat="45.62498" lon="4.32316">
        <ele>566.336141</ele>
        <time>2021-04-23T16:36:30.305Z</time>
      </trkpt>
      <trkpt lat="45.62502" lon="4.32302">
        <ele>565.674532</ele>
        <time>2021-04-23T16:36:32.310Z</time>
      </trkpt>
      <trkpt lat="45.62498" lon="4.32286">
        <ele>564.982791</ele>
        <time>2021-04-23T16:36:34.314Z</time>
      </trkpt>
      <trkpt lat="45.62489" lon="4.32275">
        <ele>564.271875</ele>
        <time>2021-04-23T16:36:36.301Z</time>
      </trkpt>
      <trkpt lat="45.62484" lon="4.32261">
        <ele>563.611675</ele>
        <time>2021-04-23T16:36:38.335Z</time>
      </trkpt>
      <trkpt lat="45.62485" lon="4.3224">
        <ele>562.722196</ele>
        <time>2021-04-23T16:36:40.312Z</time>
      </trkpt>
      <trkpt lat="45.62489" lon="4.32219">
        <ele>561.795488</ele>
        <time>2021-04-23T16:36:42.296Z</time>
      </trkpt>
      <trkpt lat="45.62493" lon="4.32196">
        <ele>560.793948</ele>
        <time>2021-04-23T16:36:44.308Z</time>
      </trkpt>
      <trkpt lat="45.62495" lon="4.32172">
        <ele>560.121105</ele>
        <time>2021-04-23T16:36:46.313Z</time>
      </trkpt>
      <trkpt lat="45.62494" lon="4.32147">
        <ele>559.488067</ele>
        <time>2021-04-23T16:36:48.300Z</time>
      </trkpt>
      <trkpt lat="45.62491" lon="4.32126">
        <ele>558.927764</ele>
        <time>2021-04-23T16:36:50.300Z</time>
      </trkpt>
      <trkpt lat="45.62489" lon="4.32108">
        <ele>558.464603</ele>
        <time>2021-04-23T16:36:52.301Z</time>
      </trkpt>
      <trkpt lat="45.62487" lon="4.32095">
        <ele>558.11543</ele>
        <time>2021-04-23T16:36:56.346Z</time>
      </trkpt>
      <trkpt lat="45.62484" lon="4.3208">
        <ele>557.722956</ele>
        <time>2021-04-23T16:37:01.350Z</time>
      </trkpt>
      <trkpt lat="45.62483" lon="4.32065">
        <ele>557.314881</ele>
        <time>2021-04-23T16:37:04.297Z</time>
      </trkpt>
      <trkpt lat="45.62486" lon="4.32052">
        <ele>556.980999</ele>
        <time>2021-04-23T16:37:06.292Z</time>
      </trkpt>
      <trkpt lat="45.62488" lon="4.3204">
        <ele>556.643379</ele>
        <time>2021-04-23T16:37:08.326Z</time>
      </trkpt>
      <trkpt lat="45.6249" lon="4.32025">
        <ele>556.2648</ele>
        <time>2021-04-23T16:37:10.330Z</time>
      </trkpt>
      <trkpt lat="45.6249" lon="4.32011">
        <ele>555.886395</ele>
        <time>2021-04-23T16:37:12.317Z</time>
      </trkpt>
      <trkpt lat="45.6249" lon="4.31996">
        <ele>555.515974</ele>
        <time>2021-04-23T16:37:14.330Z</time>
      </trkpt>
      <trkpt lat="45.62491" lon="4.3198">
        <ele>555.108215</ele>
        <time>2021-04-23T16:37:16.327Z</time>
      </trkpt>
      <trkpt lat="45.62495" lon="4.31965">
        <ele>554.700262</ele>
        <time>2021-04-23T16:37:18.347Z</time>
      </trkpt>
      <trkpt lat="45.62497" lon="4.31951">
        <ele>554.316985</ele>
        <time>2021-04-23T16:37:20.305Z</time>
      </trkpt>
      <trkpt lat="45.625" lon="4.31936">
        <ele>553.896022</ele>
        <time>2021-04-23T16:37:22.325Z</time>
      </trkpt>
      <trkpt lat="45.62502" lon="4.31922">
        <ele>553.479116</ele>
        <time>2021-04-23T16:37:24.325Z</time>
      </trkpt>
      <trkpt lat="45.62505" lon="4.31903">
        <ele>552.887572</ele>
        <time>2021-04-23T16:37:27.306Z</time>
      </trkpt>
      <trkpt lat="45.62507" lon="4.31887">
        <ele>552.395905</ele>
        <time>2021-04-23T16:37:29.312Z</time>
      </trkpt>
      <trkpt lat="45.6251" lon="4.3187">
        <ele>551.89731</ele>
        <time>2021-04-23T16:37:31.286Z</time>
      </trkpt>
      <trkpt lat="45.62513" lon="4.31854">
        <ele>551.384902</ele>
        <time>2021-04-23T16:37:33.300Z</time>
      </trkpt>
      <trkpt lat="45.62516" lon="4.31841">
        <ele>550.986143</ele>
        <time>2021-04-23T16:37:35.294Z</time>
      </trkpt>
      <trkpt lat="45.62519" lon="4.31825">
        <ele>550.493277</ele>
        <time>2021-04-23T16:37:37.296Z</time>
      </trkpt>
      <trkpt lat="45.62523" lon="4.31809">
        <ele>549.978605</ele>
        <time>2021-04-23T16:37:39.303Z</time>
      </trkpt>
      <trkpt lat="45.62528" lon="4.31793">
        <ele>549.450639</ele>
        <time>2021-04-23T16:37:41.320Z</time>
      </trkpt>
      <trkpt lat="45.62529" lon="4.31779">
        <ele>549.043702</ele>
        <time>2021-04-23T16:37:43.302Z</time>
      </trkpt>
      <trkpt lat="45.62526" lon="4.31765">
        <ele>548.612204</ele>
        <time>2021-04-23T16:37:45.324Z</time>
      </trkpt>
      <trkpt lat="45.62525" lon="4.31747">
        <ele>548.065722</ele>
        <time>2021-04-23T16:37:48.320Z</time>
      </trkpt>
      <trkpt lat="45.62519" lon="4.31727">
        <ele>547.424595</ele>
        <time>2021-04-23T16:37:51.318Z</time>
      </trkpt>
      <trkpt lat="45.62516" lon="4.31705">
        <ele>546.763135</ele>
        <time>2021-04-23T16:37:53.301Z</time>
      </trkpt>
      <trkpt lat="45.62515" lon="4.31689">
        <ele>546.278255</ele>
        <time>2021-04-23T16:37:55.310Z</time>
      </trkpt>
      <trkpt lat="45.62511" lon="4.31676">
        <ele>545.802521</ele>
        <time>2021-04-23T16:37:57.331Z</time>
      </trkpt>
      <trkpt lat="45.62514" lon="4.31662">
        <ele>545.311882</ele>
        <time>2021-04-23T16:37:59.306Z</time>
      </trkpt>
      <trkpt lat="45.62521" lon="4.31646">
        <ele>544.663285</ele>
        <time>2021-04-23T16:38:01.350Z</time>
      </trkpt>
      <trkpt lat="45.62521" lon="4.31628">
        <ele>544.090372</ele>
        <time>2021-04-23T16:38:03.345Z</time>
      </trkpt>
      <trkpt lat="45.62521" lon="4.31614">
        <ele>543.604121</ele>
        <time>2021-04-23T16:38:05.334Z</time>
      </trkpt>
      <trkpt lat="45.62521" lon="4.31595">
        <ele>542.964501</ele>
        <time>2021-04-23T16:38:07.336Z</time>
      </trkpt>
      <trkpt lat="45.62518" lon="4.31577">
        <ele>542.382927</ele>
        <time>2021-04-23T16:38:09.335Z</time>
      </trkpt>
      <trkpt lat="45.62517" lon="4.31561">
        <ele>541.843431</ele>
        <time>2021-04-23T16:38:11.316Z</time>
      </trkpt>
      <trkpt lat="45.62514" lon="4.31545">
        <ele>541.283332</ele>
        <time>2021-04-23T16:38:13.322Z</time>
      </trkpt>
      <trkpt lat="45.6251" lon="4.31526">
        <ele>540.604382</ele>
        <time>2021-04-23T16:38:15.311Z</time>
      </trkpt>
      <trkpt lat="45.62509" lon="4.31506">
        <ele>539.953473</ele>
        <time>2021-04-23T16:38:17.299Z</time>
      </trkpt>
      <trkpt lat="45.62506" lon="4.31485">
        <ele>539.228694</ele>
        <time>2021-04-23T16:38:19.322Z</time>
      </trkpt>
      <trkpt lat="45.62503" lon="4.31466">
        <ele>538.592148</ele>
        <time>2021-04-23T16:38:21.322Z</time>
      </trkpt>
      <trkpt lat="45.62503" lon="4.31451">
        <ele>538.082601</ele>
        <time>2021-04-23T16:38:23.292Z</time>
      </trkpt>
      <trkpt lat="45.62506" lon="4.31434">
        <ele>537.574203</ele>
        <time>2021-04-23T16:38:25.316Z</time>
      </trkpt>
      <trkpt lat="45.62508" lon="4.31415">
        <ele>537.055392</ele>
        <time>2021-04-23T16:38:27.309Z</time>
      </trkpt>
      <trkpt lat="45.62513" lon="4.31395">
        <ele>536.503563</ele>
        <time>2021-04-23T16:38:29.322Z</time>
      </trkpt>
      <trkpt lat="45.62515" lon="4.31376">
        <ele>535.985167</ele>
        <time>2021-04-23T16:38:31.336Z</time>
      </trkpt>
      <trkpt lat="45.62516" lon="4.31356">
        <ele>535.460144</ele>
        <time>2021-04-23T16:38:33.286Z</time>
      </trkpt>
      <trkpt lat="45.62513" lon="4.3134">
        <ele>535.020371</ele>
        <time>2021-04-23T16:38:35.311Z</time>
      </trkpt>
      <trkpt lat="45.62509" lon="4.31325">
        <ele>534.59403</ele>
        <time>2021-04-23T16:38:37.292Z</time>
      </trkpt>
      <trkpt lat="45.62509" lon="4.31312">
        <ele>534.251047</ele>
        <time>2021-04-23T16:38:39.315Z</time>
      </trkpt>
      <trkpt lat="45.62516" lon="4.31298">
        <ele>533.812124</ele>
        <time>2021-04-23T16:38:42.317Z</time>
      </trkpt>
      <trkpt lat="45.62516" lon="4.31282">
        <ele>533.387439</ele>
        <time>2021-04-23T16:38:44.347Z</time>
      </trkpt>
      <trkpt lat="45.62518" lon="4.31267">
        <ele>532.9756</ele>
        <time>2021-04-23T16:38:46.313Z</time>
      </trkpt>
      <trkpt lat="45.6252" lon="4.31252">
        <ele>532.567971</ele>
        <time>2021-04-23T16:38:48.299Z</time>
      </trkpt>
      <trkpt lat="45.62524" lon="4.31236">
        <ele>532.130991</ele>
        <time>2021-04-23T16:38:50.301Z</time>
      </trkpt>
      <trkpt lat="45.62531" lon="4.31221">
        <ele>531.63166</ele>
        <time>2021-04-23T16:38:52.314Z</time>
      </trkpt>
      <trkpt lat="45.62538" lon="4.31203">
        <ele>531.094851</ele>
        <time>2021-04-23T16:38:54.292Z</time>
      </trkpt>
      <trkpt lat="45.62545" lon="4.31184">
        <ele>530.711993</ele>
        <time>2021-04-23T16:38:56.312Z</time>
      </trkpt>
      <trkpt lat="45.62553" lon="4.31168">
        <ele>530.385752</ele>
        <time>2021-04-23T16:38:58.304Z</time>
      </trkpt>
      <trkpt lat="45.6256" lon="4.31153">
        <ele>530.080527</ele>
        <time>2021-04-23T16:39:00.319Z</time>
      </trkpt>
      <trkpt lat="45.62569" lon="4.31138">
        <ele>529.735766</ele>
        <time>2021-04-23T16:39:02.311Z</time>
      </trkpt>
      <trkpt lat="45.62577" lon="4.3112">
        <ele>529.378655</ele>
        <time>2021-04-23T16:39:04.293Z</time>
      </trkpt>
      <trkpt lat="45.62582" lon="4.31103">
        <ele>529.063701</ele>
        <time>2021-04-23T16:39:06.309Z</time>
      </trkpt>
      <trkpt lat="45.62588" lon="4.31085">
        <ele>528.711151</ele>
        <time>2021-04-23T16:39:08.321Z</time>
      </trkpt>
      <trkpt lat="45.62601" lon="4.31071">
        <ele>528.331225</ele>
        <time>2021-04-23T16:39:10.306Z</time>
      </trkpt>
      <trkpt lat="45.62613" lon="4.31059">
        <ele>527.961167</ele>
        <time>2021-04-23T16:39:12.325Z</time>
      </trkpt>
      <trkpt lat="45.62624" lon="4.31046">
        <ele>527.63263</ele>
        <time>2021-04-23T16:39:14.331Z</time>
      </trkpt>
      <trkpt lat="45.62634" lon="4.31031">
        <ele>527.27145</ele>
        <time>2021-04-23T16:39:16.324Z</time>
      </trkpt>
      <trkpt lat="45.62643" lon="4.31016">
        <ele>526.922207</ele>
        <time>2021-04-23T16:39:18.315Z</time>
      </trkpt>
      <trkpt lat="45.62657" lon="4.31006">
        <ele>526.280558</ele>
        <time>2021-04-23T16:39:20.307Z</time>
      </trkpt>
      <trkpt lat="45.6267" lon="4.30994">
        <ele>524.811823</ele>
        <time>2021-04-23T16:39:22.299Z</time>
      </trkpt>
      <trkpt lat="45.6268" lon="4.30981">
        <ele>523.595475</ele>
        <time>2021-04-23T16:39:24.293Z</time>
      </trkpt>
      <trkpt lat="45.6269" lon="4.3097">
        <ele>522.416643</ele>
        <time>2021-04-23T16:39:26.305Z</time>
      </trkpt>
      <trkpt lat="45.627" lon="4.30962">
        <ele>521.410612</ele>
        <time>2021-04-23T16:39:28.312Z</time>
      </trkpt>
      <trkpt lat="45.62709" lon="4.3095">
        <ele>520.274507</ele>
        <time>2021-04-23T16:39:30.300Z</time>
      </trkpt>
      <trkpt lat="45.62715" lon="4.3094">
        <ele>519.377427</ele>
        <time>2021-04-23T16:39:32.296Z</time>
      </trkpt>
      <trkpt lat="45.62725" lon="4.30926">
        <ele>518.092376</ele>
        <time>2021-04-23T16:39:34.303Z</time>
      </trkpt>
      <trkpt lat="45.62736" lon="4.30911">
        <ele>516.69221</ele>
        <time>2021-04-23T16:39:36.290Z</time>
      </trkpt>
      <trkpt lat="45.62742" lon="4.30899">
        <ele>515.759265</ele>
        <time>2021-04-23T16:39:38.296Z</time>
      </trkpt>
      <trkpt lat="45.62746" lon="4.30884">
        <ele>514.744782</ele>
        <time>2021-04-23T16:39:40.304Z</time>
      </trkpt>
      <trkpt lat="45.6275" lon="4.30872">
        <ele>513.876176</ele>
        <time>2021-04-23T16:39:42.294Z</time>
      </trkpt>
      <trkpt lat="45.62754" lon="4.30856">
        <ele>512.749106</ele>
        <time>2021-04-23T16:39:45.328Z</time>
      </trkpt>
      <trkpt lat="45.62763" lon="4.30846">
        <ele>511.712619</ele>
        <time>2021-04-23T16:39:47.334Z</time>
      </trkpt>
      <trkpt lat="45.62772" lon="4.30834">
        <ele>510.587625</ele>
        <time>2021-04-23T16:39:49.292Z</time>
      </trkpt>
      <trkpt lat="45.62782" lon="4.30824">
        <ele>509.72333</ele>
        <time>2021-04-23T16:39:51.314Z</time>
      </trkpt>
      <trkpt lat="45.6279" lon="4.30835">
        <ele>509.119729</ele>
        <time>2021-04-23T16:39:55.290Z</time>
      </trkpt>
      <trkpt lat="45.62791" lon="4.30852">
        <ele>508.428916</ele>
        <time>2021-04-23T16:39:57.333Z</time>
      </trkpt>
      <trkpt lat="45.62794" lon="4.30868">
        <ele>507.740151</ele>
        <time>2021-04-23T16:39:59.289Z</time>
      </trkpt>
      <trkpt lat="45.628" lon="4.30879">
        <ele>507.179208</ele>
        <time>2021-04-23T16:40:01.312Z</time>
      </trkpt>
      <trkpt lat="45.62801" lon="4.30892">
        <ele>506.64429</ele>
        <time>2021-04-23T16:40:05.304Z</time>
      </trkpt>
      <trkpt lat="45.62803" lon="4.30905">
        <ele>506.0829</ele>
        <time>2021-04-23T16:40:09.293Z</time>
      </trkpt>
      <trkpt lat="45.62804" lon="4.3092">
        <ele>505.483891</ele>
        <time>2021-04-23T16:40:13.300Z</time>
      </trkpt>
      <trkpt lat="45.62802" lon="4.30935">
        <ele>504.870883</ele>
        <time>2021-04-23T16:40:17.294Z</time>
      </trkpt>
      <trkpt lat="45.62802" lon="4.30949">
        <ele>504.281265</ele>
        <time>2021-04-23T16:40:20.311Z</time>
      </trkpt>
      <trkpt lat="45.62803" lon="4.30965">
        <ele>503.630752</ele>
        <time>2021-04-23T16:40:23.322Z</time>
      </trkpt>
      <trkpt lat="45.62813" lon="4.30965">
        <ele>503.032535</ele>
        <time>2021-04-23T16:40:28.327Z</time>
      </trkpt>
      <trkpt lat="45.62823" lon="4.30956">
        <ele>502.391862</ele>
        <time>2021-04-23T16:40:31.296Z</time>
      </trkpt>
      <trkpt lat="45.62833" lon="4.30947">
        <ele>501.674209</ele>
        <time>2021-04-23T16:40:34.298Z</time>
      </trkpt>
      <trkpt lat="45.62843" lon="4.30938">
        <ele>500.991768</ele>
        <time>2021-04-23T16:40:37.348Z</time>
      </trkpt>
      <trkpt lat="45.62852" lon="4.3093">
        <ele>500.374498</ele>
        <time>2021-04-23T16:40:40.293Z</time>
      </trkpt>
      <trkpt lat="45.62862" lon="4.30919">
        <ele>499.666522</ele>
        <time>2021-04-23T16:40:43.294Z</time>
      </trkpt>
      <trkpt lat="45.62871" lon="4.30907">
        <ele>499.246587</ele>
        <time>2021-04-23T16:40:46.306Z</time>
      </trkpt>
      <trkpt lat="45.62879" lon="4.30899">
        <ele>498.915925</ele>
        <time>2021-04-23T16:40:49.302Z</time>
      </trkpt>
      <trkpt lat="45.6289" lon="4.30888">
        <ele>498.477665</ele>
        <time>2021-04-23T16:40:52.302Z</time>
      </trkpt>
      <trkpt lat="45.62899" lon="4.3088">
        <ele>498.115632</ele>
        <time>2021-04-23T16:40:54.322Z</time>
      </trkpt>
      <trkpt lat="45.6291" lon="4.30871">
        <ele>497.712648</ele>
        <time>2021-04-23T16:40:56.304Z</time>
      </trkpt>
      <trkpt lat="45.6292" lon="4.30863">
        <ele>497.328261</ele>
        <time>2021-04-23T16:40:58.324Z</time>
      </trkpt>
      <trkpt lat="45.62928" lon="4.30857">
        <ele>497.00315</ele>
        <time>2021-04-23T16:41:00.294Z</time>
      </trkpt>
      <trkpt lat="45.62937" lon="4.30848">
        <ele>496.638499</ele>
        <time>2021-04-23T16:41:02.320Z</time>
      </trkpt>
      <trkpt lat="45.62946" lon="4.3084">
        <ele>496.298333</ele>
        <time>2021-04-23T16:41:04.310Z</time>
      </trkpt>
      <trkpt lat="45.62955" lon="4.3083">
        <ele>495.907877</ele>
        <time>2021-04-23T16:41:06.296Z</time>
      </trkpt>
      <trkpt lat="45.62963" lon="4.30822">
        <ele>495.567788</ele>
        <time>2021-04-23T16:41:08.294Z</time>
      </trkpt>
      <trkpt lat="45.62972" lon="4.30814">
        <ele>495.235333</ele>
        <time>2021-04-23T16:41:10.340Z</time>
      </trkpt>
      <trkpt lat="45.6298" lon="4.30805">
        <ele>494.8816</ele>
        <time>2021-04-23T16:41:12.287Z</time>
      </trkpt>
      <trkpt lat="45.6299" lon="4.30795">
        <ele>494.472037</ele>
        <time>2021-04-23T16:41:14.320Z</time>
      </trkpt>
      <trkpt lat="45.62999" lon="4.30784">
        <ele>494.09889</ele>
        <time>2021-04-23T16:41:16.310Z</time>
      </trkpt>
      <trkpt lat="45.63008" lon="4.30777">
        <ele>493.76029</ele>
        <time>2021-04-23T16:41:18.297Z</time>
      </trkpt>
      <trkpt lat="45.63017" lon="4.3077">
        <ele>493.331485</ele>
        <time>2021-04-23T16:41:20.324Z</time>
      </trkpt>
      <trkpt lat="45.63026" lon="4.30763">
        <ele>492.886772</ele>
        <time>2021-04-23T16:41:22.310Z</time>
      </trkpt>
      <trkpt lat="45.63034" lon="4.30756">
        <ele>492.448836</ele>
        <time>2021-04-23T16:41:24.304Z</time>
      </trkpt>
      <trkpt lat="45.63042" lon="4.30748">
        <ele>492.032731</ele>
        <time>2021-04-23T16:41:26.296Z</time>
      </trkpt>
      <trkpt lat="45.63049" lon="4.30738">
        <ele>491.581262</ele>
        <time>2021-04-23T16:41:28.307Z</time>
      </trkpt>
      <trkpt lat="45.63056" lon="4.30725">
        <ele>491.100224</ele>
        <time>2021-04-23T16:41:30.322Z</time>
      </trkpt>
      <trkpt lat="45.63061" lon="4.30712">
        <ele>490.647179</ele>
        <time>2021-04-23T16:41:32.316Z</time>
      </trkpt>
      <trkpt lat="45.63066" lon="4.30699">
        <ele>490.187884</ele>
        <time>2021-04-23T16:41:34.329Z</time>
      </trkpt>
      <trkpt lat="45.63074" lon="4.30683">
        <ele>489.59329</ele>
        <time>2021-04-23T16:41:36.323Z</time>
      </trkpt>
      <trkpt lat="45.63081" lon="4.30667">
        <ele>488.999429</ele>
        <time>2021-04-23T16:41:38.295Z</time>
      </trkpt>
      <trkpt lat="45.6309" lon="4.30651">
        <ele>488.368052</ele>
        <time>2021-04-23T16:41:40.325Z</time>
      </trkpt>
      <trkpt lat="45.63098" lon="4.30637">
        <ele>487.822387</ele>
        <time>2021-04-23T16:41:42.299Z</time>
      </trkpt>
      <trkpt lat="45.63105" lon="4.30624">
        <ele>487.328822</ele>
        <time>2021-04-23T16:41:44.298Z</time>
      </trkpt>
      <trkpt lat="45.63111" lon="4.3061">
        <ele>486.815068</ele>
        <time>2021-04-23T16:41:46.286Z</time>
      </trkpt>
      <trkpt lat="45.63119" lon="4.30594">
        <ele>486.23867</ele>
        <time>2021-04-23T16:41:48.309Z</time>
      </trkpt>
      <trkpt lat="45.63127" lon="4.30579">
        <ele>485.617195</ele>
        <time>2021-04-23T16:41:50.296Z</time>
      </trkpt>
      <trkpt lat="45.63135" lon="4.30561">
        <ele>484.844752</ele>
        <time>2021-04-23T16:41:52.296Z</time>
      </trkpt>
      <trkpt lat="45.63142" lon="4.30543">
        <ele>484.073048</ele>
        <time>2021-04-23T16:41:54.322Z</time>
      </trkpt>
      <trkpt lat="45.63149" lon="4.30522">
        <ele>483.238038</ele>
        <time>2021-04-23T16:41:56.314Z</time>
      </trkpt>
      <trkpt lat="45.63158" lon="4.30502">
        <ele>482.352867</ele>
        <time>2021-04-23T16:41:58.296Z</time>
      </trkpt>
      <trkpt lat="45.6317" lon="4.30484">
        <ele>481.459212</ele>
        <time>2021-04-23T16:42:00.327Z</time>
      </trkpt>
      <trkpt lat="45.63179" lon="4.30466">
        <ele>480.629938</ele>
        <time>2021-04-23T16:42:02.297Z</time>
      </trkpt>
      <trkpt lat="45.63182" lon="4.30444">
        <ele>479.804071</ele>
        <time>2021-04-23T16:42:04.316Z</time>
      </trkpt>
      <trkpt lat="45.63181" lon="4.30424">
        <ele>479.092095</ele>
        <time>2021-04-23T16:42:06.317Z</time>
      </trkpt>
      <trkpt lat="45.63182" lon="4.30405">
        <ele>478.38442</ele>
        <time>2021-04-23T16:42:08.291Z</time>
      </trkpt>
      <trkpt lat="45.63181" lon="4.30385">
        <ele>477.63291</ele>
        <time>2021-04-23T16:42:10.302Z</time>
      </trkpt>
      <trkpt lat="45.63181" lon="4.30363">
        <ele>476.85913</ele>
        <time>2021-04-23T16:42:12.299Z</time>
      </trkpt>
      <trkpt lat="45.6318" lon="4.3034">
        <ele>476.026894</ele>
        <time>2021-04-23T16:42:14.317Z</time>
      </trkpt>
      <trkpt lat="45.63181" lon="4.30316">
        <ele>475.168901</ele>
        <time>2021-04-23T16:42:16.330Z</time>
      </trkpt>
      <trkpt lat="45.63187" lon="4.30292">
        <ele>474.284943</ele>
        <time>2021-04-23T16:42:18.285Z</time>
      </trkpt>
      <trkpt lat="45.63191" lon="4.30269">
        <ele>473.441303</ele>
        <time>2021-04-23T16:42:20.284Z</time>
      </trkpt>
      <trkpt lat="45.63193" lon="4.30257">
        <ele>472.97955</ele>
        <time>2021-04-23T16:42:21.295Z</time>
      </trkpt>
      <trkpt lat="45.63196" lon="4.30244">
        <ele>472.526861</ele>
        <time>2021-04-23T16:42:22.299Z</time>
      </trkpt>
      <trkpt lat="45.63201" lon="4.3022">
        <ele>471.635075</ele>
        <time>2021-04-23T16:42:24.297Z</time>
      </trkpt>
      <trkpt lat="45.63203" lon="4.30206">
        <ele>471.118868</ele>
        <time>2021-04-23T16:42:26.305Z</time>
      </trkpt>
      <trkpt lat="45.6319" lon="4.30191">
        <ele>470.285483</ele>
        <time>2021-04-23T16:42:44.305Z</time>
      </trkpt>
      <trkpt lat="45.6318" lon="4.30191">
        <ele>469.786149</ele>
        <time>2021-04-23T16:42:46.302Z</time>
      </trkpt>
      <trkpt lat="45.63169" lon="4.30193">
        <ele>469.211639</ele>
        <time>2021-04-23T16:42:48.313Z</time>
      </trkpt>
      <trkpt lat="45.63158" lon="4.30195">
        <ele>468.653816</ele>
        <time>2021-04-23T16:42:50.306Z</time>
      </trkpt>
      <trkpt lat="45.63146" lon="4.30198">
        <ele>468.061832</ele>
        <time>2021-04-23T16:42:52.313Z</time>
      </trkpt>
      <trkpt lat="45.63135" lon="4.30201">
        <ele>467.48105</ele>
        <time>2021-04-23T16:42:54.320Z</time>
      </trkpt>
      <trkpt lat="45.63123" lon="4.30205">
        <ele>467.062441</ele>
        <time>2021-04-23T16:42:56.303Z</time>
      </trkpt>
      <trkpt lat="45.63111" lon="4.3021">
        <ele>466.701015</ele>
        <time>2021-04-23T16:42:58.297Z</time>
      </trkpt>
      <trkpt lat="45.63099" lon="4.30216">
        <ele>466.32193</ele>
        <time>2021-04-23T16:43:00.309Z</time>
      </trkpt>
      <trkpt lat="45.63087" lon="4.30223">
        <ele>465.935918</ele>
        <time>2021-04-23T16:43:02.298Z</time>
      </trkpt>
      <trkpt lat="45.63075" lon="4.30232">
        <ele>465.546378</ele>
        <time>2021-04-23T16:43:04.301Z</time>
      </trkpt>
      <trkpt lat="45.63063" lon="4.3024">
        <ele>465.151667</ele>
        <time>2021-04-23T16:43:06.302Z</time>
      </trkpt>
      <trkpt lat="45.63052" lon="4.30247">
        <ele>464.80794</ele>
        <time>2021-04-23T16:43:08.298Z</time>
      </trkpt>
      <trkpt lat="45.63042" lon="4.30256">
        <ele>464.451325</ele>
        <time>2021-04-23T16:43:10.299Z</time>
      </trkpt>
      <trkpt lat="45.63031" lon="4.30264">
        <ele>464.103368</ele>
        <time>2021-04-23T16:43:12.297Z</time>
      </trkpt>
      <trkpt lat="45.63021" lon="4.30272">
        <ele>463.763037</ele>
        <time>2021-04-23T16:43:14.308Z</time>
      </trkpt>
      <trkpt lat="45.63011" lon="4.3028">
        <ele>463.435939</ele>
        <time>2021-04-23T16:43:16.302Z</time>
      </trkpt>
      <trkpt lat="45.63002" lon="4.30287">
        <ele>463.122998</ele>
        <time>2021-04-23T16:43:18.296Z</time>
      </trkpt>
      <trkpt lat="45.62993" lon="4.30294">
        <ele>462.826561</ele>
        <time>2021-04-23T16:43:20.288Z</time>
      </trkpt>
      <trkpt lat="45.62983" lon="4.30301">
        <ele>462.512441</ele>
        <time>2021-04-23T16:43:22.302Z</time>
      </trkpt>
      <trkpt lat="45.62974" lon="4.30309">
        <ele>462.190278</ele>
        <time>2021-04-23T16:43:24.298Z</time>
      </trkpt>
      <trkpt lat="45.62964" lon="4.30316">
        <ele>461.944611</ele>
        <time>2021-04-23T16:43:26.300Z</time>
      </trkpt>
      <trkpt lat="45.62954" lon="4.30323">
        <ele>461.752512</ele>
        <time>2021-04-23T16:43:28.311Z</time>
      </trkpt>
      <trkpt lat="45.62944" lon="4.3033">
        <ele>461.555185</ele>
        <time>2021-04-23T16:43:30.304Z</time>
      </trkpt>
      <trkpt lat="45.62934" lon="4.30338">
        <ele>461.351892</ele>
        <time>2021-04-23T16:43:32.324Z</time>
      </trkpt>
      <trkpt lat="45.62924" lon="4.30345">
        <ele>461.164159</ele>
        <time>2021-04-23T16:43:34.288Z</time>
      </trkpt>
      <trkpt lat="45.62915" lon="4.30352">
        <ele>460.984022</ele>
        <time>2021-04-23T16:43:36.302Z</time>
      </trkpt>
      <trkpt lat="45.62907" lon="4.30358">
        <ele>460.808322</ele>
        <time>2021-04-23T16:43:38.305Z</time>
      </trkpt>
      <trkpt lat="45.62897" lon="4.30365">
        <ele>460.626259</ele>
        <time>2021-04-23T16:43:40.306Z</time>
      </trkpt>
      <trkpt lat="45.62888" lon="4.30373">
        <ele>460.44246</ele>
        <time>2021-04-23T16:43:42.315Z</time>
      </trkpt>
      <trkpt lat="45.62879" lon="4.30376">
        <ele>460.275106</ele>
        <time>2021-04-23T16:43:45.293Z</time>
      </trkpt>
      <trkpt lat="45.62877" lon="4.30359">
        <ele>460.06233</ele>
        <time>2021-04-23T16:43:48.310Z</time>
      </trkpt>
      <trkpt lat="45.62877" lon="4.30342">
        <ele>459.857596</ele>
        <time>2021-04-23T16:43:50.303Z</time>
      </trkpt>
      <trkpt lat="45.62875" lon="4.30326">
        <ele>459.658701</ele>
        <time>2021-04-23T16:43:52.304Z</time>
      </trkpt>
      <trkpt lat="45.62872" lon="4.30308">
        <ele>459.438291</ele>
        <time>2021-04-23T16:43:54.325Z</time>
      </trkpt>
      <trkpt lat="45.62869" lon="4.3029">
        <ele>459.207529</ele>
        <time>2021-04-23T16:43:56.301Z</time>
      </trkpt>
      <trkpt lat="45.62865" lon="4.30271">
        <ele>458.960143</ele>
        <time>2021-04-23T16:43:58.308Z</time>
      </trkpt>
      <trkpt lat="45.62861" lon="4.30251">
        <ele>458.643337</ele>
        <time>2021-04-23T16:44:00.316Z</time>
      </trkpt>
      <trkpt lat="45.62857" lon="4.30231">
        <ele>458.308507</ele>
        <time>2021-04-23T16:44:02.290Z</time>
      </trkpt>
      <trkpt lat="45.62854" lon="4.30212">
        <ele>457.991839</ele>
        <time>2021-04-23T16:44:04.295Z</time>
      </trkpt>
      <trkpt lat="45.62851" lon="4.30192">
        <ele>457.672029</ele>
        <time>2021-04-23T16:44:06.328Z</time>
      </trkpt>
      <trkpt lat="45.62847" lon="4.30174">
        <ele>457.361878</ele>
        <time>2021-04-23T16:44:08.308Z</time>
      </trkpt>
      <trkpt lat="45.62843" lon="4.30155">
        <ele>457.049973</ele>
        <time>2021-04-23T16:44:10.315Z</time>
      </trkpt>
      <trkpt lat="45.6284" lon="4.30138">
        <ele>456.76515</ele>
        <time>2021-04-23T16:44:12.311Z</time>
      </trkpt>
      <trkpt lat="45.62838" lon="4.30119">
        <ele>456.450755</ele>
        <time>2021-04-23T16:44:14.294Z</time>
      </trkpt>
      <trkpt lat="45.62836" lon="4.30101">
        <ele>456.169554</ele>
        <time>2021-04-23T16:44:16.331Z</time>
      </trkpt>
      <trkpt lat="45.62835" lon="4.30084">
        <ele>455.883315</ele>
        <time>2021-04-23T16:44:18.325Z</time>
      </trkpt>
      <trkpt lat="45.62831" lon="4.30066">
        <ele>455.584715</ele>
        <time>2021-04-23T16:44:20.325Z</time>
      </trkpt>
      <trkpt lat="45.6282" lon="4.30052">
        <ele>455.250892</ele>
        <time>2021-04-23T16:44:22.312Z</time>
      </trkpt>
      <trkpt lat="45.62807" lon="4.30037">
        <ele>454.869205</ele>
        <time>2021-04-23T16:44:24.314Z</time>
      </trkpt>
      <trkpt lat="45.62796" lon="4.30022">
        <ele>454.579242</ele>
        <time>2021-04-23T16:44:26.317Z</time>
      </trkpt>
      <trkpt lat="45.62786" lon="4.3001">
        <ele>454.349299</ele>
        <time>2021-04-23T16:44:28.303Z</time>
      </trkpt>
      <trkpt lat="45.62776" lon="4.29995">
        <ele>454.122147</ele>
        <time>2021-04-23T16:44:30.336Z</time>
      </trkpt>
      <trkpt lat="45.6277" lon="4.29979">
        <ele>453.896137</ele>
        <time>2021-04-23T16:44:32.314Z</time>
      </trkpt>
      <trkpt lat="45.62763" lon="4.29961">
        <ele>453.667319</ele>
        <time>2021-04-23T16:44:34.294Z</time>
      </trkpt>
      <trkpt lat="45.62756" lon="4.29944">
        <ele>453.425966</ele>
        <time>2021-04-23T16:44:36.305Z</time>
      </trkpt>
      <trkpt lat="45.62748" lon="4.29926">
        <ele>453.188332</ele>
        <time>2021-04-23T16:44:38.300Z</time>
      </trkpt>
      <trkpt lat="45.62742" lon="4.29909">
        <ele>452.953803</ele>
        <time>2021-04-23T16:44:40.333Z</time>
      </trkpt>
      <trkpt lat="45.62735" lon="4.29891">
        <ele>452.715933</ele>
        <time>2021-04-23T16:44:42.313Z</time>
      </trkpt>
      <trkpt lat="45.62729" lon="4.29873">
        <ele>452.485571</ele>
        <time>2021-04-23T16:44:44.321Z</time>
      </trkpt>
      <trkpt lat="45.62721" lon="4.29857">
        <ele>452.256157</ele>
        <time>2021-04-23T16:44:46.303Z</time>
      </trkpt>
      <trkpt lat="45.62715" lon="4.2984">
        <ele>452.035879</ele>
        <time>2021-04-23T16:44:48.310Z</time>
      </trkpt>
      <trkpt lat="45.62709" lon="4.29823">
        <ele>451.808121</ele>
        <time>2021-04-23T16:44:50.293Z</time>
      </trkpt>
      <trkpt lat="45.62703" lon="4.29805">
        <ele>451.486898</ele>
        <time>2021-04-23T16:44:52.303Z</time>
      </trkpt>
      <trkpt lat="45.62698" lon="4.29786">
        <ele>451.126745</ele>
        <time>2021-04-23T16:44:54.297Z</time>
      </trkpt>
      <trkpt lat="45.62694" lon="4.29767">
        <ele>450.758533</ele>
        <time>2021-04-23T16:44:56.301Z</time>
      </trkpt>
      <trkpt lat="45.6269" lon="4.29746">
        <ele>450.372682</ele>
        <time>2021-04-23T16:44:58.289Z</time>
      </trkpt>
      <trkpt lat="45.62686" lon="4.29725">
        <ele>449.987192</ele>
        <time>2021-04-23T16:45:00.341Z</time>
      </trkpt>
      <trkpt lat="45.62681" lon="4.29705">
        <ele>449.59386</ele>
        <time>2021-04-23T16:45:02.294Z</time>
      </trkpt>
      <trkpt lat="45.62675" lon="4.29684">
        <ele>449.20014</ele>
        <time>2021-04-23T16:45:04.323Z</time>
      </trkpt>
      <trkpt lat="45.6267" lon="4.29663">
        <ele>448.796619</ele>
        <time>2021-04-23T16:45:06.304Z</time>
      </trkpt>
      <trkpt lat="45.62663" lon="4.29642">
        <ele>448.383877</ele>
        <time>2021-04-23T16:45:08.296Z</time>
      </trkpt>
      <trkpt lat="45.62656" lon="4.29621">
        <ele>447.967852</ele>
        <time>2021-04-23T16:45:10.315Z</time>
      </trkpt>
      <trkpt lat="45.6265" lon="4.296">
        <ele>447.549129</ele>
        <time>2021-04-23T16:45:12.310Z</time>
      </trkpt>
      <trkpt lat="45.62644" lon="4.29579">
        <ele>447.136192</ele>
        <time>2021-04-23T16:45:14.312Z</time>
      </trkpt>
      <trkpt lat="45.62638" lon="4.29558">
        <ele>446.709378</ele>
        <time>2021-04-23T16:45:16.321Z</time>
      </trkpt>
      <trkpt lat="45.62632" lon="4.29538">
        <ele>446.28009</ele>
        <time>2021-04-23T16:45:18.315Z</time>
      </trkpt>
      <trkpt lat="45.62627" lon="4.29517">
        <ele>445.847214</ele>
        <time>2021-04-23T16:45:20.326Z</time>
      </trkpt>
      <trkpt lat="45.62621" lon="4.29496">
        <ele>445.407926</ele>
        <time>2021-04-23T16:45:22.323Z</time>
      </trkpt>
      <trkpt lat="45.62614" lon="4.29475">
        <ele>444.972804</ele>
        <time>2021-04-23T16:45:24.308Z</time>
      </trkpt>
      <trkpt lat="45.62606" lon="4.29455">
        <ele>444.528069</ele>
        <time>2021-04-23T16:45:26.292Z</time>
      </trkpt>
      <trkpt lat="45.62599" lon="4.29435">
        <ele>444.084605</ele>
        <time>2021-04-23T16:45:28.315Z</time>
      </trkpt>
      <trkpt lat="45.62591" lon="4.29416">
        <ele>443.661764</ele>
        <time>2021-04-23T16:45:30.294Z</time>
      </trkpt>
      <trkpt lat="45.62584" lon="4.29397">
        <ele>443.246404</ele>
        <time>2021-04-23T16:45:32.315Z</time>
      </trkpt>
      <trkpt lat="45.62576" lon="4.29379">
        <ele>442.829368</ele>
        <time>2021-04-23T16:45:34.326Z</time>
      </trkpt>
      <trkpt lat="45.62568" lon="4.2936">
        <ele>442.412639</ele>
        <time>2021-04-23T16:45:36.298Z</time>
      </trkpt>
      <trkpt lat="45.62562" lon="4.29342">
        <ele>441.980446</ele>
        <time>2021-04-23T16:45:38.315Z</time>
      </trkpt>
      <trkpt lat="45.62555" lon="4.29324">
        <ele>441.469946</ele>
        <time>2021-04-23T16:45:40.319Z</time>
      </trkpt>
      <trkpt lat="45.62548" lon="4.29305">
        <ele>440.928173</ele>
        <time>2021-04-23T16:45:42.329Z</time>
      </trkpt>
      <trkpt lat="45.62541" lon="4.29285">
        <ele>440.373046</ele>
        <time>2021-04-23T16:45:44.308Z</time>
      </trkpt>
      <trkpt lat="45.62535" lon="4.29264">
        <ele>439.820214</ele>
        <time>2021-04-23T16:45:46.322Z</time>
      </trkpt>
      <trkpt lat="45.6253" lon="4.29244">
        <ele>439.279556</ele>
        <time>2021-04-23T16:45:48.315Z</time>
      </trkpt>
      <trkpt lat="45.62526" lon="4.29223">
        <ele>438.742898</ele>
        <time>2021-04-23T16:45:50.312Z</time>
      </trkpt>
      <trkpt lat="45.62524" lon="4.29202">
        <ele>438.227358</ele>
        <time>2021-04-23T16:45:52.293Z</time>
      </trkpt>
      <trkpt lat="45.62522" lon="4.29182">
        <ele>437.712161</ele>
        <time>2021-04-23T16:45:54.311Z</time>
      </trkpt>
      <trkpt lat="45.62523" lon="4.29162">
        <ele>437.219242</ele>
        <time>2021-04-23T16:45:56.296Z</time>
      </trkpt>
      <trkpt lat="45.62522" lon="4.29143">
        <ele>436.743147</ele>
        <time>2021-04-23T16:45:58.307Z</time>
      </trkpt>
      <trkpt lat="45.62523" lon="4.29124">
        <ele>436.284631</ele>
        <time>2021-04-23T16:46:00.301Z</time>
      </trkpt>
      <trkpt lat="45.62526" lon="4.29107">
        <ele>435.841442</ele>
        <time>2021-04-23T16:46:02.328Z</time>
      </trkpt>
      <trkpt lat="45.62536" lon="4.29098">
        <ele>435.74761</ele>
        <time>2021-04-23T16:46:04.313Z</time>
      </trkpt>
      <trkpt lat="45.62548" lon="4.29095">
        <ele>435.760413</ele>
        <time>2021-04-23T16:46:06.316Z</time>
      </trkpt>
      <trkpt lat="45.62562" lon="4.29094">
        <ele>435.77414</ele>
        <time>2021-04-23T16:46:08.308Z</time>
      </trkpt>
      <trkpt lat="45.62576" lon="4.29092">
        <ele>435.787916</ele>
        <time>2021-04-23T16:46:10.304Z</time>
      </trkpt>
      <trkpt lat="45.6259" lon="4.29091">
        <ele>435.801384</ele>
        <time>2021-04-23T16:46:12.325Z</time>
      </trkpt>
      <trkpt lat="45.62603" lon="4.29089">
        <ele>435.814726</ele>
        <time>2021-04-23T16:46:14.304Z</time>
      </trkpt>
      <trkpt lat="45.62617" lon="4.29087">
        <ele>435.827928</ele>
        <time>2021-04-23T16:46:16.314Z</time>
      </trkpt>
      <trkpt lat="45.6263" lon="4.29087">
        <ele>435.840947</ele>
        <time>2021-04-23T16:46:18.305Z</time>
      </trkpt>
      <trkpt lat="45.62643" lon="4.29089">
        <ele>435.854109</ele>
        <time>2021-04-23T16:46:20.322Z</time>
      </trkpt>
      <trkpt lat="45.62656" lon="4.2909">
        <ele>435.866964</ele>
        <time>2021-04-23T16:46:22.348Z</time>
      </trkpt>
      <trkpt lat="45.62668" lon="4.29093">
        <ele>435.879256</ele>
        <time>2021-04-23T16:46:24.340Z</time>
      </trkpt>
      <trkpt lat="45.62681" lon="4.29098">
        <ele>435.892222</ele>
        <time>2021-04-23T16:46:26.341Z</time>
      </trkpt>
      <trkpt lat="45.62693" lon="4.29101">
        <ele>435.904438</ele>
        <time>2021-04-23T16:46:28.330Z</time>
      </trkpt>
      <trkpt lat="45.62705" lon="4.29106">
        <ele>435.916316</ele>
        <time>2021-04-23T16:46:30.336Z</time>
      </trkpt>
      <trkpt lat="45.62717" lon="4.29108">
        <ele>435.984132</ele>
        <time>2021-04-23T16:46:32.326Z</time>
      </trkpt>
      <trkpt lat="45.62728" lon="4.29109">
        <ele>436.049793</ele>
        <time>2021-04-23T16:46:34.385Z</time>
      </trkpt>
      <trkpt lat="45.62739" lon="4.29111">
        <ele>436.116581</ele>
        <time>2021-04-23T16:46:36.738Z</time>
      </trkpt>
      <trkpt lat="45.62751" lon="4.29111">
        <ele>436.182702</ele>
        <time>2021-04-23T16:46:38.322Z</time>
      </trkpt>
      <trkpt lat="45.62762" lon="4.29111">
        <ele>436.248763</ele>
        <time>2021-04-23T16:46:40.297Z</time>
      </trkpt>
      <trkpt lat="45.62774" lon="4.29112">
        <ele>436.316002</ele>
        <time>2021-04-23T16:46:42.321Z</time>
      </trkpt>
      <trkpt lat="45.62785" lon="4.29112">
        <ele>436.37801</ele>
        <time>2021-04-23T16:46:44.309Z</time>
      </trkpt>
      <trkpt lat="45.62796" lon="4.29112">
        <ele>436.444082</ele>
        <time>2021-04-23T16:46:46.294Z</time>
      </trkpt>
      <trkpt lat="45.62808" lon="4.29113">
        <ele>436.511331</ele>
        <time>2021-04-23T16:46:48.315Z</time>
      </trkpt>
      <trkpt lat="45.62819" lon="4.29113">
        <ele>436.576811</ele>
        <time>2021-04-23T16:46:50.320Z</time>
      </trkpt>
      <trkpt lat="45.6283" lon="4.29112">
        <ele>436.640657</ele>
        <time>2021-04-23T16:46:52.330Z</time>
      </trkpt>
      <trkpt lat="45.62841" lon="4.29111">
        <ele>436.706868</ele>
        <time>2021-04-23T16:46:54.321Z</time>
      </trkpt>
      <trkpt lat="45.62853" lon="4.2911">
        <ele>436.777679</ele>
        <time>2021-04-23T16:46:56.301Z</time>
      </trkpt>
      <trkpt lat="45.62865" lon="4.29108">
        <ele>436.844595</ele>
        <time>2021-04-23T16:46:58.312Z</time>
      </trkpt>
      <trkpt lat="45.62877" lon="4.29107">
        <ele>436.912491</ele>
        <time>2021-04-23T16:47:00.313Z</time>
      </trkpt>
      <trkpt lat="45.62889" lon="4.29106">
        <ele>436.944498</ele>
        <time>2021-04-23T16:47:02.314Z</time>
      </trkpt>
      <trkpt lat="45.62901" lon="4.29105">
        <ele>436.905542</ele>
        <time>2021-04-23T16:47:04.312Z</time>
      </trkpt>
      <trkpt lat="45.62913" lon="4.29104">
        <ele>436.862593</ele>
        <time>2021-04-23T16:47:06.305Z</time>
      </trkpt>
      <trkpt lat="45.62926" lon="4.29101">
        <ele>436.820659</ele>
        <time>2021-04-23T16:47:08.315Z</time>
      </trkpt>
      <trkpt lat="45.62938" lon="4.29099">
        <ele>436.778815</ele>
        <time>2021-04-23T16:47:10.342Z</time>
      </trkpt>
      <trkpt lat="45.62951" lon="4.29096">
        <ele>436.736743</ele>
        <time>2021-04-23T16:47:12.325Z</time>
      </trkpt>
      <trkpt lat="45.62963" lon="4.29093">
        <ele>436.695447</ele>
        <time>2021-04-23T16:47:14.306Z</time>
      </trkpt>
      <trkpt lat="45.62976" lon="4.29089">
        <ele>436.653454</ele>
        <time>2021-04-23T16:47:16.298Z</time>
      </trkpt>
      <trkpt lat="45.62988" lon="4.29086">
        <ele>436.612855</ele>
        <time>2021-04-23T16:47:18.304Z</time>
      </trkpt>
      <trkpt lat="45.62999" lon="4.29083">
        <ele>436.572749</ele>
        <time>2021-04-23T16:47:20.323Z</time>
      </trkpt>
      <trkpt lat="45.63011" lon="4.29081">
        <ele>436.53489</ele>
        <time>2021-04-23T16:47:22.305Z</time>
      </trkpt>
      <trkpt lat="45.63022" lon="4.29079">
        <ele>436.498541</ele>
        <time>2021-04-23T16:47:24.315Z</time>
      </trkpt>
      <trkpt lat="45.63033" lon="4.29077">
        <ele>436.461145</ele>
        <time>2021-04-23T16:47:26.320Z</time>
      </trkpt>
      <trkpt lat="45.63044" lon="4.29075">
        <ele>436.424103</ele>
        <time>2021-04-23T16:47:28.318Z</time>
      </trkpt>
      <trkpt lat="45.63055" lon="4.29075">
        <ele>436.387497</ele>
        <time>2021-04-23T16:47:30.330Z</time>
      </trkpt>
      <trkpt lat="45.63066" lon="4.29075">
        <ele>436.352303</ele>
        <time>2021-04-23T16:47:32.315Z</time>
      </trkpt>
      <trkpt lat="45.63077" lon="4.29075">
        <ele>436.322318</ele>
        <time>2021-04-23T16:47:34.306Z</time>
      </trkpt>
      <trkpt lat="45.63089" lon="4.29076">
        <ele>436.289862</ele>
        <time>2021-04-23T16:47:36.354Z</time>
      </trkpt>
      <trkpt lat="45.63101" lon="4.29078">
        <ele>436.257839</ele>
        <time>2021-04-23T16:47:38.319Z</time>
      </trkpt>
      <trkpt lat="45.63113" lon="4.29081">
        <ele>436.224743</ele>
        <time>2021-04-23T16:47:40.309Z</time>
      </trkpt>
      <trkpt lat="45.63125" lon="4.29083">
        <ele>436.192477</ele>
        <time>2021-04-23T16:47:42.314Z</time>
      </trkpt>
      <trkpt lat="45.63135" lon="4.29087">
        <ele>436.163186</ele>
        <time>2021-04-23T16:47:44.299Z</time>
      </trkpt>
      <trkpt lat="45.63146" lon="4.29089">
        <ele>436.135142</ele>
        <time>2021-04-23T16:47:46.301Z</time>
      </trkpt>
      <trkpt lat="45.63156" lon="4.29093">
        <ele>436.107651</ele>
        <time>2021-04-23T16:47:48.321Z</time>
      </trkpt>
      <trkpt lat="45.63166" lon="4.29096">
        <ele>436.079455</ele>
        <time>2021-04-23T16:47:50.337Z</time>
      </trkpt>
      <trkpt lat="45.63177" lon="4.29091">
        <ele>436.046632</ele>
        <time>2021-04-23T16:47:53.301Z</time>
      </trkpt>
      <trkpt lat="45.63177" lon="4.29077">
        <ele>436.02133</ele>
        <time>2021-04-23T16:47:55.316Z</time>
      </trkpt>
      <trkpt lat="45.63176" lon="4.29062">
        <ele>435.992721</ele>
        <time>2021-04-23T16:47:57.324Z</time>
      </trkpt>
      <trkpt lat="45.63175" lon="4.29047">
        <ele>435.962641</ele>
        <time>2021-04-23T16:47:59.315Z</time>
      </trkpt>
      <trkpt lat="45.63175" lon="4.29031">
        <ele>435.933364</ele>
        <time>2021-04-23T16:48:01.317Z</time>
      </trkpt>
      <trkpt lat="45.63175" lon="4.29014">
        <ele>435.902012</ele>
        <time>2021-04-23T16:48:03.310Z</time>
      </trkpt>
      <trkpt lat="45.63174" lon="4.28997">
        <ele>435.840145</ele>
        <time>2021-04-23T16:48:05.311Z</time>
      </trkpt>
      <trkpt lat="45.63174" lon="4.28978">
        <ele>435.664557</ele>
        <time>2021-04-23T16:48:07.323Z</time>
      </trkpt>
      <trkpt lat="45.63175" lon="4.28959">
        <ele>435.494349</ele>
        <time>2021-04-23T16:48:09.304Z</time>
      </trkpt>
      <trkpt lat="45.63177" lon="4.28941">
        <ele>435.323584</ele>
        <time>2021-04-23T16:48:11.304Z</time>
      </trkpt>
      <trkpt lat="45.63179" lon="4.28923">
        <ele>435.15517</ele>
        <time>2021-04-23T16:48:13.329Z</time>
      </trkpt>
      <trkpt lat="45.63181" lon="4.28905">
        <ele>434.990188</ele>
        <time>2021-04-23T16:48:15.304Z</time>
      </trkpt>
      <trkpt lat="45.63182" lon="4.28889">
        <ele>434.836899</ele>
        <time>2021-04-23T16:48:17.345Z</time>
      </trkpt>
      <trkpt lat="45.63191" lon="4.28877">
        <ele>434.673952</ele>
        <time>2021-04-23T16:48:19.361Z</time>
      </trkpt>
      <trkpt lat="45.63204" lon="4.28877">
        <ele>434.504744</ele>
        <time>2021-04-23T16:48:21.332Z</time>
      </trkpt>
      <trkpt lat="45.63216" lon="4.28881">
        <ele>434.335304</ele>
        <time>2021-04-23T16:48:23.306Z</time>
      </trkpt>
      <trkpt lat="45.63229" lon="4.28883">
        <ele>434.166254</ele>
        <time>2021-04-23T16:48:25.290Z</time>
      </trkpt>
      <trkpt lat="45.63241" lon="4.28885">
        <ele>434.013278</ele>
        <time>2021-04-23T16:48:27.299Z</time>
      </trkpt>
      <trkpt lat="45.63251" lon="4.28887">
        <ele>433.867939</ele>
        <time>2021-04-23T16:48:29.338Z</time>
      </trkpt>
      <trkpt lat="45.63263" lon="4.28888">
        <ele>433.719589</ele>
        <time>2021-04-23T16:48:31.294Z</time>
      </trkpt>
      <trkpt lat="45.63273" lon="4.2889">
        <ele>433.578738</ele>
        <time>2021-04-23T16:48:33.326Z</time>
      </trkpt>
      <trkpt lat="45.63284" lon="4.2889">
        <ele>433.52016</ele>
        <time>2021-04-23T16:48:35.322Z</time>
      </trkpt>
      <trkpt lat="45.63294" lon="4.2889">
        <ele>433.571531</ele>
        <time>2021-04-23T16:48:37.312Z</time>
      </trkpt>
      <trkpt lat="45.63305" lon="4.2889">
        <ele>433.620953</ele>
        <time>2021-04-23T16:48:39.311Z</time>
      </trkpt>
      <trkpt lat="45.63315" lon="4.2889">
        <ele>433.672283</ele>
        <time>2021-04-23T16:48:41.310Z</time>
      </trkpt>
      <trkpt lat="45.63326" lon="4.2889">
        <ele>433.723133</ele>
        <time>2021-04-23T16:48:43.325Z</time>
      </trkpt>
      <trkpt lat="45.63336" lon="4.28889">
        <ele>433.774554</ele>
        <time>2021-04-23T16:48:45.306Z</time>
      </trkpt>
      <trkpt lat="45.63347" lon="4.28889">
        <ele>433.825401</ele>
        <time>2021-04-23T16:48:47.323Z</time>
      </trkpt>
      <trkpt lat="45.63357" lon="4.28889">
        <ele>433.877243</ele>
        <time>2021-04-23T16:48:49.315Z</time>
      </trkpt>
      <trkpt lat="45.63368" lon="4.28888">
        <ele>433.929191</ele>
        <time>2021-04-23T16:48:51.317Z</time>
      </trkpt>
      <trkpt lat="45.63379" lon="4.28887">
        <ele>433.981529</ele>
        <time>2021-04-23T16:48:53.325Z</time>
      </trkpt>
      <trkpt lat="45.63389" lon="4.28887">
        <ele>434.030443</ele>
        <time>2021-04-23T16:48:55.318Z</time>
      </trkpt>
      <trkpt lat="45.63399" lon="4.28887">
        <ele>434.07791</ele>
        <time>2021-04-23T16:48:57.297Z</time>
      </trkpt>
      <trkpt lat="45.63409" lon="4.28886">
        <ele>434.125004</ele>
        <time>2021-04-23T16:48:59.307Z</time>
      </trkpt>
      <trkpt lat="45.63419" lon="4.28884">
        <ele>434.174529</ele>
        <time>2021-04-23T16:49:01.305Z</time>
      </trkpt>
      <trkpt lat="45.63429" lon="4.2888">
        <ele>434.224303</ele>
        <time>2021-04-23T16:49:03.326Z</time>
      </trkpt>
      <trkpt lat="45.63438" lon="4.28876">
        <ele>434.273381</ele>
        <time>2021-04-23T16:49:05.328Z</time>
      </trkpt>
      <trkpt lat="45.63448" lon="4.28871">
        <ele>434.323328</ele>
        <time>2021-04-23T16:49:07.330Z</time>
      </trkpt>
      <trkpt lat="45.63458" lon="4.28867">
        <ele>434.371747</ele>
        <time>2021-04-23T16:49:09.321Z</time>
      </trkpt>
      <trkpt lat="45.63468" lon="4.28862">
        <ele>434.401428</ele>
        <time>2021-04-23T16:49:11.316Z</time>
      </trkpt>
      <trkpt lat="45.63478" lon="4.28857">
        <ele>434.431108</ele>
        <time>2021-04-23T16:49:13.304Z</time>
      </trkpt>
      <trkpt lat="45.63487" lon="4.28852">
        <ele>434.460253</ele>
        <time>2021-04-23T16:49:15.319Z</time>
      </trkpt>
      <trkpt lat="45.63498" lon="4.28847">
        <ele>434.491599</ele>
        <time>2021-04-23T16:49:17.294Z</time>
      </trkpt>
      <trkpt lat="45.63508" lon="4.28842">
        <ele>434.52289</ele>
        <time>2021-04-23T16:49:19.301Z</time>
      </trkpt>
      <trkpt lat="45.63519" lon="4.28837">
        <ele>434.554652</ele>
        <time>2021-04-23T16:49:21.307Z</time>
      </trkpt>
      <trkpt lat="45.6353" lon="4.28834">
        <ele>434.585014</ele>
        <time>2021-04-23T16:49:23.323Z</time>
      </trkpt>
      <trkpt lat="45.6354" lon="4.2883">
        <ele>434.616156</ele>
        <time>2021-04-23T16:49:25.341Z</time>
      </trkpt>
      <trkpt lat="45.63551" lon="4.28827">
        <ele>434.646295</ele>
        <time>2021-04-23T16:49:27.323Z</time>
      </trkpt>
      <trkpt lat="45.63561" lon="4.28824">
        <ele>434.676519</ele>
        <time>2021-04-23T16:49:29.312Z</time>
      </trkpt>
      <trkpt lat="45.63572" lon="4.28822">
        <ele>434.706924</ele>
        <time>2021-04-23T16:49:31.338Z</time>
      </trkpt>
      <trkpt lat="45.63583" lon="4.2882">
        <ele>434.737707</ele>
        <time>2021-04-23T16:49:33.305Z</time>
      </trkpt>
      <trkpt lat="45.63593" lon="4.28818">
        <ele>434.768362</ele>
        <time>2021-04-23T16:49:35.325Z</time>
      </trkpt>
      <trkpt lat="45.63604" lon="4.28816">
        <ele>434.80011</ele>
        <time>2021-04-23T16:49:37.317Z</time>
      </trkpt>
      <trkpt lat="45.63615" lon="4.28814">
        <ele>434.8308</ele>
        <time>2021-04-23T16:49:39.331Z</time>
      </trkpt>
      <trkpt lat="45.63626" lon="4.28814">
        <ele>434.860318</ele>
        <time>2021-04-23T16:49:41.330Z</time>
      </trkpt>
      <trkpt lat="45.63637" lon="4.28812">
        <ele>434.879488</ele>
        <time>2021-04-23T16:49:43.308Z</time>
      </trkpt>
      <trkpt lat="45.63648" lon="4.28812">
        <ele>434.880292</ele>
        <time>2021-04-23T16:49:45.306Z</time>
      </trkpt>
      <trkpt lat="45.63659" lon="4.28811">
        <ele>434.88109</ele>
        <time>2021-04-23T16:49:47.309Z</time>
      </trkpt>
      <trkpt lat="45.6367" lon="4.2881">
        <ele>434.881902</ele>
        <time>2021-04-23T16:49:49.292Z</time>
      </trkpt>
      <trkpt lat="45.63681" lon="4.28808">
        <ele>434.882694</ele>
        <time>2021-04-23T16:49:51.312Z</time>
      </trkpt>
      <trkpt lat="45.63691" lon="4.28807">
        <ele>434.88347</ele>
        <time>2021-04-23T16:49:53.324Z</time>
      </trkpt>
      <trkpt lat="45.63702" lon="4.28806">
        <ele>434.884261</ele>
        <time>2021-04-23T16:49:55.312Z</time>
      </trkpt>
      <trkpt lat="45.63712" lon="4.28804">
        <ele>434.884991</ele>
        <time>2021-04-23T16:49:57.317Z</time>
      </trkpt>
      <trkpt lat="45.63722" lon="4.28804">
        <ele>434.885701</ele>
        <time>2021-04-23T16:49:59.301Z</time>
      </trkpt>
      <trkpt lat="45.63733" lon="4.28802">
        <ele>434.886463</ele>
        <time>2021-04-23T16:50:01.312Z</time>
      </trkpt>
      <trkpt lat="45.63743" lon="4.28801">
        <ele>434.887212</ele>
        <time>2021-04-23T16:50:03.307Z</time>
      </trkpt>
      <trkpt lat="45.63754" lon="4.288">
        <ele>434.888046</ele>
        <time>2021-04-23T16:50:05.331Z</time>
      </trkpt>
      <trkpt lat="45.63766" lon="4.28802">
        <ele>434.88887</ele>
        <time>2021-04-23T16:50:07.300Z</time>
      </trkpt>
      <trkpt lat="45.63776" lon="4.28808">
        <ele>434.889697</ele>
        <time>2021-04-23T16:50:09.313Z</time>
      </trkpt>
      <trkpt lat="45.63787" lon="4.28814">
        <ele>434.890526</ele>
        <time>2021-04-23T16:50:11.304Z</time>
      </trkpt>
      <trkpt lat="45.63797" lon="4.28821">
        <ele>434.89136</ele>
        <time>2021-04-23T16:50:13.303Z</time>
      </trkpt>
      <trkpt lat="45.63808" lon="4.28827">
        <ele>434.892168</ele>
        <time>2021-04-23T16:50:15.335Z</time>
      </trkpt>
      <trkpt lat="45.63818" lon="4.28833">
        <ele>434.849128</ele>
        <time>2021-04-23T16:50:17.308Z</time>
      </trkpt>
      <trkpt lat="45.63828" lon="4.28839">
        <ele>434.805485</ele>
        <time>2021-04-23T16:50:19.337Z</time>
      </trkpt>
      <trkpt lat="45.63839" lon="4.28845">
        <ele>434.759669</ele>
        <time>2021-04-23T16:50:21.292Z</time>
      </trkpt>
      <trkpt lat="45.63849" lon="4.28851">
        <ele>434.715964</ele>
        <time>2021-04-23T16:50:23.541Z</time>
      </trkpt>
      <trkpt lat="45.63859" lon="4.28858">
        <ele>434.670719</ele>
        <time>2021-04-23T16:50:25.539Z</time>
      </trkpt>
      <trkpt lat="45.63868" lon="4.28865">
        <ele>434.627645</ele>
        <time>2021-04-23T16:50:27.537Z</time>
      </trkpt>
      <trkpt lat="45.63878" lon="4.28871">
        <ele>434.584927</ele>
        <time>2021-04-23T16:50:29.540Z</time>
      </trkpt>
      <trkpt lat="45.63888" lon="4.28878">
        <ele>434.542812</ele>
        <time>2021-04-23T16:50:31.539Z</time>
      </trkpt>
      <trkpt lat="45.63896" lon="4.28884">
        <ele>434.505162</ele>
        <time>2021-04-23T16:50:33.537Z</time>
      </trkpt>
      <trkpt lat="45.63906" lon="4.28885">
        <ele>434.463586</ele>
        <time>2021-04-23T16:50:36.562Z</time>
      </trkpt>
      <trkpt lat="45.63904" lon="4.2887">
        <ele>434.419321</ele>
        <time>2021-04-23T16:50:38.568Z</time>
      </trkpt>
      <trkpt lat="45.63902" lon="4.28856">
        <ele>434.37816</ele>
        <time>2021-04-23T16:50:39.576Z</time>
      </trkpt>
      <trkpt lat="45.63897" lon="4.28836">
        <ele>434.320329</ele>
        <time>2021-04-23T16:50:41.570Z</time>
      </trkpt>
      <trkpt lat="45.63893" lon="4.28819">
        <ele>434.269104</ele>
        <time>2021-04-23T16:50:43.561Z</time>
      </trkpt>
      <trkpt lat="45.63889" lon="4.28804">
        <ele>434.224879</ele>
        <time>2021-04-23T16:50:45.540Z</time>
      </trkpt>
      <trkpt lat="45.63886" lon="4.28788">
        <ele>434.17779</ele>
        <time>2021-04-23T16:50:47.538Z</time>
      </trkpt>
      <trkpt lat="45.63882" lon="4.28771">
        <ele>434.085523</ele>
        <time>2021-04-23T16:50:49.553Z</time>
      </trkpt>
      <trkpt lat="45.63879" lon="4.28754">
        <ele>433.993764</ele>
        <time>2021-04-23T16:50:51.554Z</time>
      </trkpt>
      <trkpt lat="45.63876" lon="4.28737">
        <ele>433.899106</ele>
        <time>2021-04-23T16:50:53.547Z</time>
      </trkpt>
      <trkpt lat="45.63874" lon="4.28721">
        <ele>433.807074</ele>
        <time>2021-04-23T16:50:55.555Z</time>
      </trkpt>
      <trkpt lat="45.63871" lon="4.28705">
        <ele>433.721726</ele>
        <time>2021-04-23T16:50:57.556Z</time>
      </trkpt>
      <trkpt lat="45.63869" lon="4.28689">
        <ele>433.632285</ele>
        <time>2021-04-23T16:50:59.573Z</time>
      </trkpt>
      <trkpt lat="45.63867" lon="4.28673">
        <ele>433.545015</ele>
        <time>2021-04-23T16:51:01.536Z</time>
      </trkpt>
      <trkpt lat="45.63865" lon="4.28659">
        <ele>433.464229</ele>
        <time>2021-04-23T16:51:03.568Z</time>
      </trkpt>
      <trkpt lat="45.63862" lon="4.28644">
        <ele>433.378892</ele>
        <time>2021-04-23T16:51:05.547Z</time>
      </trkpt>
      <trkpt lat="45.63859" lon="4.28629">
        <ele>433.297951</ele>
        <time>2021-04-23T16:51:07.578Z</time>
      </trkpt>
      <trkpt lat="45.63857" lon="4.28615">
        <ele>433.21682</ele>
        <time>2021-04-23T16:51:09.557Z</time>
      </trkpt>
      <trkpt lat="45.63854" lon="4.286">
        <ele>433.134826</ele>
        <time>2021-04-23T16:51:11.553Z</time>
      </trkpt>
      <trkpt lat="45.63852" lon="4.28583">
        <ele>433.041222</ele>
        <time>2021-04-23T16:51:13.551Z</time>
      </trkpt>
      <trkpt lat="45.63849" lon="4.28568">
        <ele>432.956874</ele>
        <time>2021-04-23T16:51:15.556Z</time>
      </trkpt>
      <trkpt lat="45.63845" lon="4.28552">
        <ele>432.867795</ele>
        <time>2021-04-23T16:51:17.562Z</time>
      </trkpt>
      <trkpt lat="45.63842" lon="4.28537">
        <ele>432.780816</ele>
        <time>2021-04-23T16:51:19.570Z</time>
      </trkpt>
      <trkpt lat="45.63837" lon="4.28522">
        <ele>432.700316</ele>
        <time>2021-04-23T16:51:21.577Z</time>
      </trkpt>
      <trkpt lat="45.63833" lon="4.28507">
        <ele>432.618772</ele>
        <time>2021-04-23T16:51:23.547Z</time>
      </trkpt>
      <trkpt lat="45.63829" lon="4.28492">
        <ele>432.538375</ele>
        <time>2021-04-23T16:51:25.545Z</time>
      </trkpt>
      <trkpt lat="45.63826" lon="4.28478">
        <ele>432.462034</ele>
        <time>2021-04-23T16:51:27.549Z</time>
      </trkpt>
      <trkpt lat="45.63822" lon="4.28463">
        <ele>432.379078</ele>
        <time>2021-04-23T16:51:29.555Z</time>
      </trkpt>
      <trkpt lat="45.63819" lon="4.28447">
        <ele>432.29758</ele>
        <time>2021-04-23T16:51:31.554Z</time>
      </trkpt>
      <trkpt lat="45.63817" lon="4.2843">
        <ele>432.213619</ele>
        <time>2021-04-23T16:51:33.565Z</time>
      </trkpt>
      <trkpt lat="45.63816" lon="4.28415">
        <ele>432.135236</ele>
        <time>2021-04-23T16:51:35.553Z</time>
      </trkpt>
      <trkpt lat="45.63814" lon="4.28401">
        <ele>432.065819</ele>
        <time>2021-04-23T16:51:37.554Z</time>
      </trkpt>
      <trkpt lat="45.63813" lon="4.28388">
        <ele>431.998985</ele>
        <time>2021-04-23T16:51:39.577Z</time>
      </trkpt>
      <trkpt lat="45.63813" lon="4.28373">
        <ele>431.922582</ele>
        <time>2021-04-23T16:51:42.534Z</time>
      </trkpt>
      <trkpt lat="45.63823" lon="4.28369">
        <ele>431.849697</ele>
        <time>2021-04-23T16:51:45.549Z</time>
      </trkpt>
      <trkpt lat="45.63836" lon="4.28369">
        <ele>431.755539</ele>
        <time>2021-04-23T16:51:48.543Z</time>
      </trkpt>
      <trkpt lat="45.63846" lon="4.28367">
        <ele>431.68328</ele>
        <time>2021-04-23T16:51:50.558Z</time>
      </trkpt>
      <trkpt lat="45.63858" lon="4.28368">
        <ele>431.595527</ele>
        <time>2021-04-23T16:51:52.592Z</time>
      </trkpt>
      <trkpt lat="45.63876" lon="4.28369">
        <ele>431.480057</ele>
        <time>2021-04-23T16:51:54.309Z</time>
      </trkpt>
      <trkpt lat="45.63887" lon="4.28367">
        <ele>431.455484</ele>
        <time>2021-04-23T16:51:56.337Z</time>
      </trkpt>
      <trkpt lat="45.63898" lon="4.28366">
        <ele>431.43105</ele>
        <time>2021-04-23T16:51:58.339Z</time>
      </trkpt>
      <trkpt lat="45.63909" lon="4.28364">
        <ele>431.408169</ele>
        <time>2021-04-23T16:52:00.352Z</time>
      </trkpt>
      <trkpt lat="45.6392" lon="4.28361">
        <ele>431.384177</ele>
        <time>2021-04-23T16:52:02.326Z</time>
      </trkpt>
      <trkpt lat="45.63931" lon="4.28359">
        <ele>431.360461</ele>
        <time>2021-04-23T16:52:04.342Z</time>
      </trkpt>
      <trkpt lat="45.63941" lon="4.28357">
        <ele>431.336918</ele>
        <time>2021-04-23T16:52:06.344Z</time>
      </trkpt>
      <trkpt lat="45.63952" lon="4.28355">
        <ele>431.314505</ele>
        <time>2021-04-23T16:52:08.351Z</time>
      </trkpt>
      <trkpt lat="45.63962" lon="4.28354">
        <ele>431.292665</ele>
        <time>2021-04-23T16:52:10.350Z</time>
      </trkpt>
      <trkpt lat="45.63972" lon="4.28353">
        <ele>431.269692</ele>
        <time>2021-04-23T16:52:12.324Z</time>
      </trkpt>
      <trkpt lat="45.63982" lon="4.28351">
        <ele>431.248283</ele>
        <time>2021-04-23T16:52:14.343Z</time>
      </trkpt>
      <trkpt lat="45.63995" lon="4.28346">
        <ele>431.219663</ele>
        <time>2021-04-23T16:52:17.324Z</time>
      </trkpt>
      <trkpt lat="45.64007" lon="4.28344">
        <ele>431.193398</ele>
        <time>2021-04-23T16:52:20.332Z</time>
      </trkpt>
      <trkpt lat="45.64019" lon="4.28341">
        <ele>431.16744</ele>
        <time>2021-04-23T16:52:23.324Z</time>
      </trkpt>
      <trkpt lat="45.6403" lon="4.28339">
        <ele>431.143579</ele>
        <time>2021-04-23T16:52:25.326Z</time>
      </trkpt>
      <trkpt lat="45.6404" lon="4.28339">
        <ele>431.121101</ele>
        <time>2021-04-23T16:52:27.330Z</time>
      </trkpt>
      <trkpt lat="45.64051" lon="4.28338">
        <ele>431.09886</ele>
        <time>2021-04-23T16:52:29.346Z</time>
      </trkpt>
      <trkpt lat="45.64061" lon="4.28337">
        <ele>431.088674</ele>
        <time>2021-04-23T16:52:31.350Z</time>
      </trkpt>
      <trkpt lat="45.64071" lon="4.28337">
        <ele>431.080358</ele>
        <time>2021-04-23T16:52:33.367Z</time>
      </trkpt>
      <trkpt lat="45.64081" lon="4.28337">
        <ele>431.071608</ele>
        <time>2021-04-23T16:52:35.317Z</time>
      </trkpt>
      <trkpt lat="45.6409" lon="4.28337">
        <ele>431.063647</ele>
        <time>2021-04-23T16:52:37.358Z</time>
      </trkpt>
      <trkpt lat="45.64099" lon="4.28337">
        <ele>431.055336</ele>
        <time>2021-04-23T16:52:39.349Z</time>
      </trkpt>
      <trkpt lat="45.64109" lon="4.28337">
        <ele>431.046326</ele>
        <time>2021-04-23T16:52:41.335Z</time>
      </trkpt>
      <trkpt lat="45.64119" lon="4.28338">
        <ele>431.037965</ele>
        <time>2021-04-23T16:52:43.324Z</time>
      </trkpt>
      <trkpt lat="45.64129" lon="4.2834">
        <ele>431.029329</ele>
        <time>2021-04-23T16:52:45.355Z</time>
      </trkpt>
      <trkpt lat="45.64138" lon="4.2834">
        <ele>431.02128</ele>
        <time>2021-04-23T16:52:47.336Z</time>
      </trkpt>
      <trkpt lat="45.64147" lon="4.28341">
        <ele>431.013035</ele>
        <time>2021-04-23T16:52:49.339Z</time>
      </trkpt>
      <trkpt lat="45.64159" lon="4.28344">
        <ele>431.002733</ele>
        <time>2021-04-23T16:52:52.354Z</time>
      </trkpt>
      <trkpt lat="45.64169" lon="4.28347">
        <ele>430.993498</ele>
        <time>2021-04-23T16:52:55.349Z</time>
      </trkpt>
      <trkpt lat="45.64181" lon="4.28348">
        <ele>430.983406</ele>
        <time>2021-04-23T16:52:58.336Z</time>
      </trkpt>
      <trkpt lat="45.64193" lon="4.28349">
        <ele>430.972894</ele>
        <time>2021-04-23T16:53:01.343Z</time>
      </trkpt>
      <trkpt lat="45.64205" lon="4.2835">
        <ele>430.96247</ele>
        <time>2021-04-23T16:53:04.358Z</time>
      </trkpt>
      <trkpt lat="45.64217" lon="4.2835">
        <ele>430.952146</ele>
        <time>2021-04-23T16:53:07.338Z</time>
      </trkpt>
      <trkpt lat="45.64228" lon="4.2835">
        <ele>430.942172</ele>
        <time>2021-04-23T16:53:10.326Z</time>
      </trkpt>
      <trkpt lat="45.6424" lon="4.28353">
        <ele>430.936996</ele>
        <time>2021-04-23T16:53:13.349Z</time>
      </trkpt>
      <trkpt lat="45.64251" lon="4.28356">
        <ele>430.933689</ele>
        <time>2021-04-23T16:53:16.337Z</time>
      </trkpt>
      <trkpt lat="45.64262" lon="4.28359">
        <ele>430.930617</ele>
        <time>2021-04-23T16:53:19.356Z</time>
      </trkpt>
      <trkpt lat="45.64273" lon="4.28364">
        <ele>430.927506</ele>
        <time>2021-04-23T16:53:23.352Z</time>
      </trkpt>
      <trkpt lat="45.64281" lon="4.28369">
        <ele>430.924857</ele>
        <time>2021-04-23T16:53:27.325Z</time>
      </trkpt>
      <trkpt lat="45.64292" lon="4.28363">
        <ele>430.921576</ele>
        <time>2021-04-23T16:53:31.643Z</time>
      </trkpt>
      <trkpt lat="45.64297" lon="4.28352">
        <ele>430.918959</ele>
        <time>2021-04-23T16:53:33.637Z</time>
      </trkpt>
      <trkpt lat="45.64303" lon="4.28342">
        <ele>430.916423</ele>
        <time>2021-04-23T16:53:35.649Z</time>
      </trkpt>
      <trkpt lat="45.64309" lon="4.28331">
        <ele>430.91378</ele>
        <time>2021-04-23T16:53:37.660Z</time>
      </trkpt>
      <trkpt lat="45.64317" lon="4.28317">
        <ele>430.910071</ele>
        <time>2021-04-23T16:53:40.669Z</time>
      </trkpt>
      <trkpt lat="45.64323" lon="4.28305">
        <ele>430.90716</ele>
        <time>2021-04-23T16:53:42.649Z</time>
      </trkpt>
      <trkpt lat="45.6433" lon="4.28295">
        <ele>430.904473</ele>
        <time>2021-04-23T16:53:44.673Z</time>
      </trkpt>
      <trkpt lat="45.64336" lon="4.28285">
        <ele>430.901717</ele>
        <time>2021-04-23T16:53:46.679Z</time>
      </trkpt>
      <trkpt lat="45.64344" lon="4.28272">
        <ele>430.898374</ele>
        <time>2021-04-23T16:53:48.662Z</time>
      </trkpt>
      <trkpt lat="45.64352" lon="4.28259">
        <ele>430.895054</ele>
        <time>2021-04-23T16:53:50.650Z</time>
      </trkpt>
      <trkpt lat="45.64359" lon="4.28247">
        <ele>430.892015</ele>
        <time>2021-04-23T16:53:52.683Z</time>
      </trkpt>
      <trkpt lat="45.64366" lon="4.28236">
        <ele>430.889043</ele>
        <time>2021-04-23T16:53:54.667Z</time>
      </trkpt>
      <trkpt lat="45.64372" lon="4.28223">
        <ele>430.881026</ele>
        <time>2021-04-23T16:53:56.668Z</time>
      </trkpt>
      <trkpt lat="45.6438" lon="4.28214">
        <ele>430.873497</ele>
        <time>2021-04-23T16:53:58.671Z</time>
      </trkpt>
      <trkpt lat="45.6439" lon="4.28213">
        <ele>430.865901</ele>
        <time>2021-04-23T16:54:00.656Z</time>
      </trkpt>
      <trkpt lat="45.644" lon="4.28216">
        <ele>430.858147</ele>
        <time>2021-04-23T16:54:02.668Z</time>
      </trkpt>
      <trkpt lat="45.64411" lon="4.28219">
        <ele>430.850156</ele>
        <time>2021-04-23T16:54:04.655Z</time>
      </trkpt>
      <trkpt lat="45.64421" lon="4.28221">
        <ele>430.84223</ele>
        <time>2021-04-23T16:54:06.662Z</time>
      </trkpt>
      <trkpt lat="45.64432" lon="4.28224">
        <ele>430.83392</ele>
        <time>2021-04-23T16:54:08.666Z</time>
      </trkpt>
      <trkpt lat="45.64443" lon="4.28226">
        <ele>430.825613</ele>
        <time>2021-04-23T16:54:10.648Z</time>
      </trkpt>
      <trkpt lat="45.64454" lon="4.28228">
        <ele>430.817571</ele>
        <time>2021-04-23T16:54:12.648Z</time>
      </trkpt>
      <trkpt lat="45.64465" lon="4.28229">
        <ele>430.809417</ele>
        <time>2021-04-23T16:54:14.663Z</time>
      </trkpt>
      <trkpt lat="45.64476" lon="4.2823">
        <ele>430.801206</ele>
        <time>2021-04-23T16:54:16.652Z</time>
      </trkpt>
      <trkpt lat="45.64487" lon="4.28231">
        <ele>430.792714</ele>
        <time>2021-04-23T16:54:18.652Z</time>
      </trkpt>
      <trkpt lat="45.64499" lon="4.28232">
        <ele>430.783983</ele>
        <time>2021-04-23T16:54:20.640Z</time>
      </trkpt>
      <trkpt lat="45.64511" lon="4.28233">
        <ele>430.775104</ele>
        <time>2021-04-23T16:54:22.644Z</time>
      </trkpt>
      <trkpt lat="45.64523" lon="4.28233">
        <ele>430.766016</ele>
        <time>2021-04-23T16:54:24.641Z</time>
      </trkpt>
      <trkpt lat="45.64533" lon="4.28227">
        <ele>430.758219</ele>
        <time>2021-04-23T16:54:26.671Z</time>
      </trkpt>
      <trkpt lat="45.64539" lon="4.28213">
        <ele>430.737486</ele>
        <time>2021-04-23T16:54:28.681Z</time>
      </trkpt>
      <trkpt lat="45.64543" lon="4.28193">
        <ele>430.70315</ele>
        <time>2021-04-23T16:54:30.661Z</time>
      </trkpt>
      <trkpt lat="45.64547" lon="4.28175">
        <ele>430.670683</ele>
        <time>2021-04-23T16:54:32.700Z</time>
      </trkpt>
      <trkpt lat="45.64551" lon="4.28157">
        <ele>430.640747</ele>
        <time>2021-04-23T16:54:34.670Z</time>
      </trkpt>
      <trkpt lat="45.64555" lon="4.2814">
        <ele>430.610723</ele>
        <time>2021-04-23T16:54:36.683Z</time>
      </trkpt>
      <trkpt lat="45.64561" lon="4.28128">
        <ele>430.584742</ele>
        <time>2021-04-23T16:54:38.674Z</time>
      </trkpt>
      <trkpt lat="45.6457" lon="4.28122">
        <ele>430.560946</ele>
        <time>2021-04-23T16:54:40.683Z</time>
      </trkpt>
      <trkpt lat="45.6458" lon="4.28116">
        <ele>430.53513</ele>
        <time>2021-04-23T16:54:42.657Z</time>
      </trkpt>
      <trkpt lat="45.64589" lon="4.2811">
        <ele>430.510716</ele>
        <time>2021-04-23T16:54:44.651Z</time>
      </trkpt>
      <trkpt lat="45.646" lon="4.28105">
        <ele>430.483457</ele>
        <time>2021-04-23T16:54:47.658Z</time>
      </trkpt>
      <trkpt lat="45.6461" lon="4.28105">
        <ele>430.46126</ele>
        <time>2021-04-23T16:54:53.647Z</time>
      </trkpt>
      <trkpt lat="45.64609" lon="4.28088">
        <ele>430.432394</ele>
        <time>2021-04-23T16:54:56.658Z</time>
      </trkpt>
      <trkpt lat="45.64609" lon="4.28074">
        <ele>430.408684</ele>
        <time>2021-04-23T16:54:58.655Z</time>
      </trkpt>
      <trkpt lat="45.64609" lon="4.28059">
        <ele>430.38414</ele>
        <time>2021-04-23T16:55:00.655Z</time>
      </trkpt>
      <trkpt lat="45.64611" lon="4.28046">
        <ele>430.361176</ele>
        <time>2021-04-23T16:55:02.659Z</time>
      </trkpt>
      <trkpt lat="45.64621" lon="4.2804">
        <ele>430.335296</ele>
        <time>2021-04-23T16:55:04.647Z</time>
      </trkpt>
      <trkpt lat="45.64633" lon="4.28035">
        <ele>430.325682</ele>
        <time>2021-04-23T16:55:06.644Z</time>
      </trkpt>
      <trkpt lat="45.64643" lon="4.28027">
        <ele>430.325682</ele>
        <time>2021-04-23T16:55:08.682Z</time>
      </trkpt>
      <trkpt lat="45.64653" lon="4.2802">
        <ele>430.325682</ele>
        <time>2021-04-23T16:55:10.645Z</time>
      </trkpt>
      <trkpt lat="45.64662" lon="4.28015">
        <ele>430.325682</ele>
        <time>2021-04-23T16:55:12.645Z</time>
      </trkpt>
      <trkpt lat="45.64671" lon="4.28011">
        <ele>430.325682</ele>
        <time>2021-04-23T16:55:14.677Z</time>
      </trkpt>
      <trkpt lat="45.64683" lon="4.28005">
        <ele>430.325682</ele>
        <time>2021-04-23T16:55:17.640Z</time>
      </trkpt>
      <trkpt lat="45.64682" lon="4.27988">
        <ele>430.325682</ele>
        <time>2021-04-23T16:55:20.643Z</time>
      </trkpt>
      <trkpt lat="45.64678" lon="4.27958">
        <ele>430.325682</ele>
        <time>2021-04-23T16:55:50.672Z</time>
      </trkpt>
      <trkpt lat="45.6468" lon="4.27945">
        <ele>430.325682</ele>
        <time>2021-04-23T16:55:54.656Z</time>
      </trkpt>
      <trkpt lat="45.64681" lon="4.27933">
        <ele>430.325682</ele>
        <time>2021-04-23T16:58:20.695Z</time>
      </trkpt>
    </trkseg>
  </trk>
</gpx>